<?xml version="1.0" encoding="UTF-8" standalone="no" ?>
<gpx xmlns="http://www.topografix.com/GPX/1/1" xmlns:xsi="http://www.w3.org/2001/XMLSchema-instance" xsi:schemaLocation="http://www.topografix.com/GPX/1/1 http://www.topografix.com/GPX/1/1/gpx.xsd" version="1.1" creator="VisuGPX - https://www.visugpx.com">
  <metadata>
    <name>Carnac</name>
    <desc><![CDATA[parcours du club ]]></desc>
  </metadata>
  <trk>
    <name><![CDATA[Circuit VTT type club]]></name>
    <desc><![CDATA[55 KM]]></desc>
    <trkseg>
      <trkpt lat="47.58789" lon="-3.02876">
        <ele>7</ele>
        <time>2015-12-01T12:03:52.000Z</time>
      </trkpt>
      <trkpt lat="47.58793" lon="-3.02866">
        <ele>7</ele>
        <time>2015-12-01T12:03:55.000Z</time>
      </trkpt>
      <trkpt lat="47.58794" lon="-3.02863">
        <ele>6</ele>
        <time>2015-12-01T12:03:57.000Z</time>
      </trkpt>
      <trkpt lat="47.58794" lon="-3.02861">
        <ele>6</ele>
        <time>2015-12-01T12:03:58.000Z</time>
      </trkpt>
      <trkpt lat="47.58795" lon="-3.02858">
        <ele>6</ele>
        <time>2015-12-01T12:03:59.000Z</time>
      </trkpt>
      <trkpt lat="47.58793" lon="-3.02842">
        <ele>6</ele>
        <time>2015-12-01T12:04:04.000Z</time>
      </trkpt>
      <trkpt lat="47.58792" lon="-3.02838">
        <ele>6</ele>
        <time>2015-12-01T12:04:05.000Z</time>
      </trkpt>
      <trkpt lat="47.5879" lon="-3.02828">
        <ele>6</ele>
        <time>2015-12-01T12:04:08.000Z</time>
      </trkpt>
      <trkpt lat="47.58782" lon="-3.02825">
        <ele>6</ele>
        <time>2015-12-01T12:04:11.000Z</time>
      </trkpt>
      <trkpt lat="47.58772" lon="-3.02836">
        <ele>6</ele>
        <time>2015-12-01T12:04:15.000Z</time>
      </trkpt>
      <trkpt lat="47.58769" lon="-3.0284">
        <ele>6</ele>
        <time>2015-12-01T12:04:16.000Z</time>
      </trkpt>
      <trkpt lat="47.58755" lon="-3.02869">
        <ele>6</ele>
        <time>2015-12-01T12:04:22.000Z</time>
      </trkpt>
      <trkpt lat="47.58737" lon="-3.02894">
        <ele>6</ele>
        <time>2015-12-01T12:04:28.000Z</time>
      </trkpt>
      <trkpt lat="47.58723" lon="-3.02911">
        <ele>6</ele>
        <time>2015-12-01T12:04:33.000Z</time>
      </trkpt>
      <trkpt lat="47.58724" lon="-3.02917">
        <ele>6</ele>
        <time>2015-12-01T12:04:34.000Z</time>
      </trkpt>
      <trkpt lat="47.5873" lon="-3.02934">
        <ele>6</ele>
        <time>2015-12-01T12:04:37.000Z</time>
      </trkpt>
      <trkpt lat="47.58732" lon="-3.0294">
        <ele>6</ele>
        <time>2015-12-01T12:04:38.000Z</time>
      </trkpt>
      <trkpt lat="47.58738" lon="-3.02958">
        <ele>6</ele>
        <time>2015-12-01T12:04:41.000Z</time>
      </trkpt>
      <trkpt lat="47.58738" lon="-3.02971">
        <ele>6</ele>
        <time>2015-12-01T12:04:43.000Z</time>
      </trkpt>
      <trkpt lat="47.58736" lon="-3.02984">
        <ele>6</ele>
        <time>2015-12-01T12:04:45.000Z</time>
      </trkpt>
      <trkpt lat="47.58734" lon="-3.02997">
        <ele>6</ele>
        <time>2015-12-01T12:04:47.000Z</time>
      </trkpt>
      <trkpt lat="47.58732" lon="-3.03009">
        <ele>6</ele>
        <time>2015-12-01T12:04:49.000Z</time>
      </trkpt>
      <trkpt lat="47.58731" lon="-3.03015">
        <ele>6</ele>
        <time>2015-12-01T12:04:50.000Z</time>
      </trkpt>
      <trkpt lat="47.58726" lon="-3.03035">
        <ele>6</ele>
        <time>2015-12-01T12:04:54.000Z</time>
      </trkpt>
      <trkpt lat="47.58723" lon="-3.03045">
        <ele>6</ele>
        <time>2015-12-01T12:04:58.000Z</time>
      </trkpt>
      <trkpt lat="47.58716" lon="-3.03065">
        <ele>6</ele>
        <time>2015-12-01T12:05:04.000Z</time>
      </trkpt>
      <trkpt lat="47.58714" lon="-3.03074">
        <ele>6.4000000953674</ele>
        <time>2015-12-01T12:05:06.000Z</time>
      </trkpt>
      <trkpt lat="47.58714" lon="-3.03078">
        <ele>6.8000001907349</ele>
        <time>2015-12-01T12:05:07.000Z</time>
      </trkpt>
      <trkpt lat="47.58713" lon="-3.03082">
        <ele>7.4000000953674</ele>
        <time>2015-12-01T12:05:08.000Z</time>
      </trkpt>
      <trkpt lat="47.58713" lon="-3.03087">
        <ele>7.8000001907349</ele>
        <time>2015-12-01T12:05:09.000Z</time>
      </trkpt>
      <trkpt lat="47.58712" lon="-3.03091">
        <ele>8.1999998092651</ele>
        <time>2015-12-01T12:05:10.000Z</time>
      </trkpt>
      <trkpt lat="47.58709" lon="-3.03114">
        <ele>8.6000003814697</ele>
        <time>2015-12-01T12:05:15.000Z</time>
      </trkpt>
      <trkpt lat="47.58708" lon="-3.03119">
        <ele>9</ele>
        <time>2015-12-01T12:05:16.000Z</time>
      </trkpt>
      <trkpt lat="47.58708" lon="-3.03123">
        <ele>9.6000003814697</ele>
        <time>2015-12-01T12:05:17.000Z</time>
      </trkpt>
      <trkpt lat="47.58707" lon="-3.03127">
        <ele>10</ele>
        <time>2015-12-01T12:05:18.000Z</time>
      </trkpt>
      <trkpt lat="47.58706" lon="-3.03131">
        <ele>10.39999961853</ele>
        <time>2015-12-01T12:05:19.000Z</time>
      </trkpt>
      <trkpt lat="47.58703" lon="-3.03151">
        <ele>10.39999961853</ele>
        <time>2015-12-01T12:05:24.000Z</time>
      </trkpt>
      <trkpt lat="47.58702" lon="-3.03162">
        <ele>10.800000190735</ele>
        <time>2015-12-01T12:05:27.000Z</time>
      </trkpt>
      <trkpt lat="47.58702" lon="-3.03165">
        <ele>11.199999809265</ele>
        <time>2015-12-01T12:05:28.000Z</time>
      </trkpt>
      <trkpt lat="47.58701" lon="-3.03167">
        <ele>11.60000038147</ele>
        <time>2015-12-01T12:05:29.000Z</time>
      </trkpt>
      <trkpt lat="47.58701" lon="-3.03169">
        <ele>12</ele>
        <time>2015-12-01T12:05:30.000Z</time>
      </trkpt>
      <trkpt lat="47.58701" lon="-3.0317">
        <ele>12.39999961853</ele>
        <time>2015-12-01T12:05:31.000Z</time>
      </trkpt>
      <trkpt lat="47.58701" lon="-3.03178">
        <ele>12.39999961853</ele>
        <time>2015-12-01T12:05:37.000Z</time>
      </trkpt>
      <trkpt lat="47.58702" lon="-3.03183">
        <ele>12.39999961853</ele>
        <time>2015-12-01T12:05:41.000Z</time>
      </trkpt>
      <trkpt lat="47.58701" lon="-3.03183">
        <ele>12.39999961853</ele>
        <time>2015-12-01T12:05:42.000Z</time>
      </trkpt>
      <trkpt lat="47.58699" lon="-3.03183">
        <ele>12.39999961853</ele>
        <time>2015-12-01T12:05:44.000Z</time>
      </trkpt>
      <trkpt lat="47.58699" lon="-3.03177">
        <ele>12.39999961853</ele>
        <time>2015-12-01T12:05:47.000Z</time>
      </trkpt>
      <trkpt lat="47.58702" lon="-3.03181">
        <ele>12.39999961853</ele>
        <time>2015-12-01T12:05:50.000Z</time>
      </trkpt>
      <trkpt lat="47.58703" lon="-3.03188">
        <ele>12.39999961853</ele>
        <time>2015-12-01T12:05:56.000Z</time>
      </trkpt>
      <trkpt lat="47.58703" lon="-3.03189">
        <ele>12.39999961853</ele>
        <time>2015-12-01T12:05:59.000Z</time>
      </trkpt>
      <trkpt lat="47.58704" lon="-3.03194">
        <ele>12.39999961853</ele>
        <time>2015-12-01T12:06:09.000Z</time>
      </trkpt>
      <trkpt lat="47.58704" lon="-3.03195">
        <ele>12.39999961853</ele>
        <time>2015-12-01T12:06:10.000Z</time>
      </trkpt>
      <trkpt lat="47.58707" lon="-3.03201">
        <ele>12.800000190735</ele>
        <time>2015-12-01T12:06:13.000Z</time>
      </trkpt>
      <trkpt lat="47.58707" lon="-3.03204">
        <ele>13.199999809265</ele>
        <time>2015-12-01T12:06:14.000Z</time>
      </trkpt>
      <trkpt lat="47.58707" lon="-3.03207">
        <ele>14</ele>
        <time>2015-12-01T12:06:15.000Z</time>
      </trkpt>
      <trkpt lat="47.58707" lon="-3.03211">
        <ele>14.39999961853</ele>
        <time>2015-12-01T12:06:16.000Z</time>
      </trkpt>
      <trkpt lat="47.58706" lon="-3.03215">
        <ele>14.39999961853</ele>
        <time>2015-12-01T12:06:17.000Z</time>
      </trkpt>
      <trkpt lat="47.58704" lon="-3.03224">
        <ele>14.39999961853</ele>
        <time>2015-12-01T12:06:19.000Z</time>
      </trkpt>
      <trkpt lat="47.58693" lon="-3.03242">
        <ele>14.39999961853</ele>
        <time>2015-12-01T12:06:24.000Z</time>
      </trkpt>
      <trkpt lat="47.58688" lon="-3.0325">
        <ele>14.800000190735</ele>
        <time>2015-12-01T12:06:26.000Z</time>
      </trkpt>
      <trkpt lat="47.58686" lon="-3.03254">
        <ele>15.199999809265</ele>
        <time>2015-12-01T12:06:27.000Z</time>
      </trkpt>
      <trkpt lat="47.58684" lon="-3.03258">
        <ele>15.60000038147</ele>
        <time>2015-12-01T12:06:28.000Z</time>
      </trkpt>
      <trkpt lat="47.58682" lon="-3.03263">
        <ele>16</ele>
        <time>2015-12-01T12:06:29.000Z</time>
      </trkpt>
      <trkpt lat="47.58679" lon="-3.03268">
        <ele>16.39999961853</ele>
        <time>2015-12-01T12:06:30.000Z</time>
      </trkpt>
      <trkpt lat="47.58677" lon="-3.03273">
        <ele>16.39999961853</ele>
        <time>2015-12-01T12:06:31.000Z</time>
      </trkpt>
      <trkpt lat="47.58662" lon="-3.03313">
        <ele>16.39999961853</ele>
        <time>2015-12-01T12:06:38.000Z</time>
      </trkpt>
      <trkpt lat="47.58651" lon="-3.03356">
        <ele>16.39999961853</ele>
        <time>2015-12-01T12:06:45.000Z</time>
      </trkpt>
      <trkpt lat="47.58638" lon="-3.03413">
        <ele>16.39999961853</ele>
        <time>2015-12-01T12:06:54.000Z</time>
      </trkpt>
      <trkpt lat="47.58626" lon="-3.03471">
        <ele>16.39999961853</ele>
        <time>2015-12-01T12:07:03.000Z</time>
      </trkpt>
      <trkpt lat="47.58617" lon="-3.0351">
        <ele>16.39999961853</ele>
        <time>2015-12-01T12:07:09.000Z</time>
      </trkpt>
      <trkpt lat="47.58613" lon="-3.0353">
        <ele>16.39999961853</ele>
        <time>2015-12-01T12:07:12.000Z</time>
      </trkpt>
      <trkpt lat="47.58609" lon="-3.03551">
        <ele>16.799999237061</ele>
        <time>2015-12-01T12:07:15.000Z</time>
      </trkpt>
      <trkpt lat="47.58607" lon="-3.03557">
        <ele>17.200000762939</ele>
        <time>2015-12-01T12:07:16.000Z</time>
      </trkpt>
      <trkpt lat="47.58606" lon="-3.03563">
        <ele>17.799999237061</ele>
        <time>2015-12-01T12:07:17.000Z</time>
      </trkpt>
      <trkpt lat="47.58605" lon="-3.03569">
        <ele>18.200000762939</ele>
        <time>2015-12-01T12:07:18.000Z</time>
      </trkpt>
      <trkpt lat="47.58603" lon="-3.03576">
        <ele>18.60000038147</ele>
        <time>2015-12-01T12:07:19.000Z</time>
      </trkpt>
      <trkpt lat="47.58602" lon="-3.03582">
        <ele>18.60000038147</ele>
        <time>2015-12-01T12:07:20.000Z</time>
      </trkpt>
      <trkpt lat="47.58592" lon="-3.03626">
        <ele>18.60000038147</ele>
        <time>2015-12-01T12:07:27.000Z</time>
      </trkpt>
      <trkpt lat="47.5858" lon="-3.03682">
        <ele>18.60000038147</ele>
        <time>2015-12-01T12:07:36.000Z</time>
      </trkpt>
      <trkpt lat="47.58572" lon="-3.03723">
        <ele>18.60000038147</ele>
        <time>2015-12-01T12:07:42.000Z</time>
      </trkpt>
      <trkpt lat="47.58571" lon="-3.03736">
        <ele>19</ele>
        <time>2015-12-01T12:07:44.000Z</time>
      </trkpt>
      <trkpt lat="47.58571" lon="-3.03742">
        <ele>19.39999961853</ele>
        <time>2015-12-01T12:07:45.000Z</time>
      </trkpt>
      <trkpt lat="47.5857" lon="-3.03749">
        <ele>19.799999237061</ele>
        <time>2015-12-01T12:07:46.000Z</time>
      </trkpt>
      <trkpt lat="47.58569" lon="-3.03756">
        <ele>20.200000762939</ele>
        <time>2015-12-01T12:07:47.000Z</time>
      </trkpt>
      <trkpt lat="47.58569" lon="-3.03762">
        <ele>20.60000038147</ele>
        <time>2015-12-01T12:07:48.000Z</time>
      </trkpt>
      <trkpt lat="47.58569" lon="-3.03769">
        <ele>20.60000038147</ele>
        <time>2015-12-01T12:07:49.000Z</time>
      </trkpt>
      <trkpt lat="47.58571" lon="-3.03819">
        <ele>20.60000038147</ele>
        <time>2015-12-01T12:07:56.000Z</time>
      </trkpt>
      <trkpt lat="47.58581" lon="-3.03857">
        <ele>20.60000038147</ele>
        <time>2015-12-01T12:08:01.000Z</time>
      </trkpt>
      <trkpt lat="47.58587" lon="-3.03871">
        <ele>20.200000762939</ele>
        <time>2015-12-01T12:08:03.000Z</time>
      </trkpt>
      <trkpt lat="47.58591" lon="-3.03877">
        <ele>19.799999237061</ele>
        <time>2015-12-01T12:08:04.000Z</time>
      </trkpt>
      <trkpt lat="47.58595" lon="-3.03884">
        <ele>19.39999961853</ele>
        <time>2015-12-01T12:08:05.000Z</time>
      </trkpt>
      <trkpt lat="47.58599" lon="-3.0389">
        <ele>19</ele>
        <time>2015-12-01T12:08:06.000Z</time>
      </trkpt>
      <trkpt lat="47.58603" lon="-3.03897">
        <ele>18.60000038147</ele>
        <time>2015-12-01T12:08:07.000Z</time>
      </trkpt>
      <trkpt lat="47.58636" lon="-3.03953">
        <ele>18.200000762939</ele>
        <time>2015-12-01T12:08:15.000Z</time>
      </trkpt>
      <trkpt lat="47.5864" lon="-3.0396">
        <ele>17.799999237061</ele>
        <time>2015-12-01T12:08:16.000Z</time>
      </trkpt>
      <trkpt lat="47.58644" lon="-3.03967">
        <ele>17.39999961853</ele>
        <time>2015-12-01T12:08:17.000Z</time>
      </trkpt>
      <trkpt lat="47.58648" lon="-3.03974">
        <ele>16.39999961853</ele>
        <time>2015-12-01T12:08:18.000Z</time>
      </trkpt>
      <trkpt lat="47.58666" lon="-3.04003">
        <ele>16.39999961853</ele>
        <time>2015-12-01T12:08:22.000Z</time>
      </trkpt>
      <trkpt lat="47.58679" lon="-3.04025">
        <ele>16</ele>
        <time>2015-12-01T12:08:25.000Z</time>
      </trkpt>
      <trkpt lat="47.58683" lon="-3.04033">
        <ele>15.60000038147</ele>
        <time>2015-12-01T12:08:26.000Z</time>
      </trkpt>
      <trkpt lat="47.58688" lon="-3.04041">
        <ele>15.199999809265</ele>
        <time>2015-12-01T12:08:27.000Z</time>
      </trkpt>
      <trkpt lat="47.58692" lon="-3.04048">
        <ele>14.800000190735</ele>
        <time>2015-12-01T12:08:28.000Z</time>
      </trkpt>
      <trkpt lat="47.58697" lon="-3.04055">
        <ele>14.39999961853</ele>
        <time>2015-12-01T12:08:29.000Z</time>
      </trkpt>
      <trkpt lat="47.58706" lon="-3.04071">
        <ele>14.39999961853</ele>
        <time>2015-12-01T12:08:31.000Z</time>
      </trkpt>
      <trkpt lat="47.58725" lon="-3.04103">
        <ele>13.800000190735</ele>
        <time>2015-12-01T12:08:35.000Z</time>
      </trkpt>
      <trkpt lat="47.58729" lon="-3.0411">
        <ele>13.39999961853</ele>
        <time>2015-12-01T12:08:36.000Z</time>
      </trkpt>
      <trkpt lat="47.58734" lon="-3.04117">
        <ele>13</ele>
        <time>2015-12-01T12:08:37.000Z</time>
      </trkpt>
      <trkpt lat="47.58738" lon="-3.04125">
        <ele>12.60000038147</ele>
        <time>2015-12-01T12:08:38.000Z</time>
      </trkpt>
      <trkpt lat="47.58743" lon="-3.04133">
        <ele>12.199999809265</ele>
        <time>2015-12-01T12:08:39.000Z</time>
      </trkpt>
      <trkpt lat="47.58747" lon="-3.0414">
        <ele>12.199999809265</ele>
        <time>2015-12-01T12:08:40.000Z</time>
      </trkpt>
      <trkpt lat="47.58752" lon="-3.04147">
        <ele>12.199999809265</ele>
        <time>2015-12-01T12:08:41.000Z</time>
      </trkpt>
      <trkpt lat="47.58769" lon="-3.04177">
        <ele>11.800000190735</ele>
        <time>2015-12-01T12:08:45.000Z</time>
      </trkpt>
      <trkpt lat="47.58773" lon="-3.04184">
        <ele>11.39999961853</ele>
        <time>2015-12-01T12:08:46.000Z</time>
      </trkpt>
      <trkpt lat="47.58777" lon="-3.04192">
        <ele>11</ele>
        <time>2015-12-01T12:08:47.000Z</time>
      </trkpt>
      <trkpt lat="47.58781" lon="-3.042">
        <ele>10.60000038147</ele>
        <time>2015-12-01T12:08:48.000Z</time>
      </trkpt>
      <trkpt lat="47.58784" lon="-3.04209">
        <ele>10.199999809265</ele>
        <time>2015-12-01T12:08:49.000Z</time>
      </trkpt>
      <trkpt lat="47.58793" lon="-3.04245">
        <ele>10.199999809265</ele>
        <time>2015-12-01T12:08:53.000Z</time>
      </trkpt>
      <trkpt lat="47.58795" lon="-3.04273">
        <ele>9.8000001907349</ele>
        <time>2015-12-01T12:08:56.000Z</time>
      </trkpt>
      <trkpt lat="47.58795" lon="-3.04282">
        <ele>9.3999996185303</ele>
        <time>2015-12-01T12:08:57.000Z</time>
      </trkpt>
      <trkpt lat="47.58794" lon="-3.04292">
        <ele>9</ele>
        <time>2015-12-01T12:08:58.000Z</time>
      </trkpt>
      <trkpt lat="47.58793" lon="-3.04301">
        <ele>8.3999996185303</ele>
        <time>2015-12-01T12:08:59.000Z</time>
      </trkpt>
      <trkpt lat="47.58793" lon="-3.04309">
        <ele>8</ele>
        <time>2015-12-01T12:09:00.000Z</time>
      </trkpt>
      <trkpt lat="47.5879" lon="-3.04344">
        <ele>8</ele>
        <time>2015-12-01T12:09:04.000Z</time>
      </trkpt>
      <trkpt lat="47.58785" lon="-3.0441">
        <ele>8</ele>
        <time>2015-12-01T12:09:12.000Z</time>
      </trkpt>
      <trkpt lat="47.5878" lon="-3.04472">
        <ele>8</ele>
        <time>2015-12-01T12:09:20.000Z</time>
      </trkpt>
      <trkpt lat="47.58774" lon="-3.04537">
        <ele>8</ele>
        <time>2015-12-01T12:09:28.000Z</time>
      </trkpt>
      <trkpt lat="47.5877" lon="-3.046">
        <ele>8</ele>
        <time>2015-12-01T12:09:36.000Z</time>
      </trkpt>
      <trkpt lat="47.58766" lon="-3.04661">
        <ele>8</ele>
        <time>2015-12-01T12:09:44.000Z</time>
      </trkpt>
      <trkpt lat="47.58763" lon="-3.04712">
        <ele>8</ele>
        <time>2015-12-01T12:09:51.000Z</time>
      </trkpt>
      <trkpt lat="47.58759" lon="-3.04775">
        <ele>8</ele>
        <time>2015-12-01T12:10:00.000Z</time>
      </trkpt>
      <trkpt lat="47.58757" lon="-3.04823">
        <ele>8</ele>
        <time>2015-12-01T12:10:07.000Z</time>
      </trkpt>
      <trkpt lat="47.58754" lon="-3.04857">
        <ele>8.3999996185303</ele>
        <time>2015-12-01T12:10:12.000Z</time>
      </trkpt>
      <trkpt lat="47.58754" lon="-3.04863">
        <ele>8.8000001907349</ele>
        <time>2015-12-01T12:10:13.000Z</time>
      </trkpt>
      <trkpt lat="47.58754" lon="-3.0487">
        <ele>9.1999998092651</ele>
        <time>2015-12-01T12:10:14.000Z</time>
      </trkpt>
      <trkpt lat="47.58753" lon="-3.04877">
        <ele>10.199999809265</ele>
        <time>2015-12-01T12:10:15.000Z</time>
      </trkpt>
      <trkpt lat="47.58752" lon="-3.04884">
        <ele>10.199999809265</ele>
        <time>2015-12-01T12:10:16.000Z</time>
      </trkpt>
      <trkpt lat="47.58749" lon="-3.04941">
        <ele>10.199999809265</ele>
        <time>2015-12-01T12:10:24.000Z</time>
      </trkpt>
      <trkpt lat="47.58744" lon="-3.05012">
        <ele>10.199999809265</ele>
        <time>2015-12-01T12:10:33.000Z</time>
      </trkpt>
      <trkpt lat="47.58741" lon="-3.05059">
        <ele>9.6000003814697</ele>
        <time>2015-12-01T12:10:38.000Z</time>
      </trkpt>
      <trkpt lat="47.5874" lon="-3.05069">
        <ele>9.1999998092651</ele>
        <time>2015-12-01T12:10:39.000Z</time>
      </trkpt>
      <trkpt lat="47.58739" lon="-3.05078">
        <ele>8.3999996185303</ele>
        <time>2015-12-01T12:10:40.000Z</time>
      </trkpt>
      <trkpt lat="47.58739" lon="-3.05087">
        <ele>8</ele>
        <time>2015-12-01T12:10:41.000Z</time>
      </trkpt>
      <trkpt lat="47.58738" lon="-3.05106">
        <ele>8</ele>
        <time>2015-12-01T12:10:43.000Z</time>
      </trkpt>
      <trkpt lat="47.58733" lon="-3.05189">
        <ele>8</ele>
        <time>2015-12-01T12:10:52.000Z</time>
      </trkpt>
      <trkpt lat="47.58732" lon="-3.05197">
        <ele>8</ele>
        <time>2015-12-01T12:10:53.000Z</time>
      </trkpt>
      <trkpt lat="47.58726" lon="-3.05281">
        <ele>8</ele>
        <time>2015-12-01T12:11:03.000Z</time>
      </trkpt>
      <trkpt lat="47.58721" lon="-3.05362">
        <ele>8</ele>
        <time>2015-12-01T12:11:13.000Z</time>
      </trkpt>
      <trkpt lat="47.58715" lon="-3.05443">
        <ele>8</ele>
        <time>2015-12-01T12:11:23.000Z</time>
      </trkpt>
      <trkpt lat="47.58714" lon="-3.05451">
        <ele>8</ele>
        <time>2015-12-01T12:11:24.000Z</time>
      </trkpt>
      <trkpt lat="47.58708" lon="-3.05532">
        <ele>8</ele>
        <time>2015-12-01T12:11:34.000Z</time>
      </trkpt>
      <trkpt lat="47.58705" lon="-3.05583">
        <ele>8</ele>
        <time>2015-12-01T12:11:41.000Z</time>
      </trkpt>
      <trkpt lat="47.587" lon="-3.05656">
        <ele>8</ele>
        <time>2015-12-01T12:11:51.000Z</time>
      </trkpt>
      <trkpt lat="47.58696" lon="-3.05729">
        <ele>8.3999996185303</ele>
        <time>2015-12-01T12:12:02.000Z</time>
      </trkpt>
      <trkpt lat="47.58695" lon="-3.05736">
        <ele>8.8000001907349</ele>
        <time>2015-12-01T12:12:03.000Z</time>
      </trkpt>
      <trkpt lat="47.58695" lon="-3.05743">
        <ele>9.1999998092651</ele>
        <time>2015-12-01T12:12:04.000Z</time>
      </trkpt>
      <trkpt lat="47.58694" lon="-3.0575">
        <ele>9.8000001907349</ele>
        <time>2015-12-01T12:12:05.000Z</time>
      </trkpt>
      <trkpt lat="47.58694" lon="-3.05756">
        <ele>10.199999809265</ele>
        <time>2015-12-01T12:12:06.000Z</time>
      </trkpt>
      <trkpt lat="47.58692" lon="-3.0579">
        <ele>10.199999809265</ele>
        <time>2015-12-01T12:12:11.000Z</time>
      </trkpt>
      <trkpt lat="47.58689" lon="-3.05836">
        <ele>10.60000038147</ele>
        <time>2015-12-01T12:12:18.000Z</time>
      </trkpt>
      <trkpt lat="47.58688" lon="-3.05842">
        <ele>11</ele>
        <time>2015-12-01T12:12:19.000Z</time>
      </trkpt>
      <trkpt lat="47.58688" lon="-3.05849">
        <ele>11.39999961853</ele>
        <time>2015-12-01T12:12:20.000Z</time>
      </trkpt>
      <trkpt lat="47.58687" lon="-3.05856">
        <ele>11.800000190735</ele>
        <time>2015-12-01T12:12:21.000Z</time>
      </trkpt>
      <trkpt lat="47.58687" lon="-3.05862">
        <ele>12.199999809265</ele>
        <time>2015-12-01T12:12:22.000Z</time>
      </trkpt>
      <trkpt lat="47.58683" lon="-3.05899">
        <ele>12.199999809265</ele>
        <time>2015-12-01T12:12:28.000Z</time>
      </trkpt>
      <trkpt lat="47.58682" lon="-3.05936">
        <ele>12.60000038147</ele>
        <time>2015-12-01T12:12:34.000Z</time>
      </trkpt>
      <trkpt lat="47.58683" lon="-3.05941">
        <ele>13</ele>
        <time>2015-12-01T12:12:35.000Z</time>
      </trkpt>
      <trkpt lat="47.58685" lon="-3.05946">
        <ele>13.39999961853</ele>
        <time>2015-12-01T12:12:36.000Z</time>
      </trkpt>
      <trkpt lat="47.58686" lon="-3.05951">
        <ele>14.199999809265</ele>
        <time>2015-12-01T12:12:37.000Z</time>
      </trkpt>
      <trkpt lat="47.58687" lon="-3.05967">
        <ele>14.199999809265</ele>
        <time>2015-12-01T12:12:40.000Z</time>
      </trkpt>
      <trkpt lat="47.58684" lon="-3.05977">
        <ele>14.199999809265</ele>
        <time>2015-12-01T12:12:42.000Z</time>
      </trkpt>
      <trkpt lat="47.58679" lon="-3.05987">
        <ele>14.199999809265</ele>
        <time>2015-12-01T12:12:44.000Z</time>
      </trkpt>
      <trkpt lat="47.58674" lon="-3.06009">
        <ele>14.199999809265</ele>
        <time>2015-12-01T12:12:48.000Z</time>
      </trkpt>
      <trkpt lat="47.58674" lon="-3.06016">
        <ele>14.199999809265</ele>
        <time>2015-12-01T12:12:49.000Z</time>
      </trkpt>
      <trkpt lat="47.58673" lon="-3.06052">
        <ele>14.60000038147</ele>
        <time>2015-12-01T12:12:55.000Z</time>
      </trkpt>
      <trkpt lat="47.58672" lon="-3.06057">
        <ele>15</ele>
        <time>2015-12-01T12:12:56.000Z</time>
      </trkpt>
      <trkpt lat="47.58672" lon="-3.06063">
        <ele>15.39999961853</ele>
        <time>2015-12-01T12:12:57.000Z</time>
      </trkpt>
      <trkpt lat="47.58672" lon="-3.06069">
        <ele>16</ele>
        <time>2015-12-01T12:12:58.000Z</time>
      </trkpt>
      <trkpt lat="47.58672" lon="-3.06075">
        <ele>16.39999961853</ele>
        <time>2015-12-01T12:12:59.000Z</time>
      </trkpt>
      <trkpt lat="47.5867" lon="-3.06121">
        <ele>16.39999961853</ele>
        <time>2015-12-01T12:13:07.000Z</time>
      </trkpt>
      <trkpt lat="47.58667" lon="-3.06171">
        <ele>16.39999961853</ele>
        <time>2015-12-01T12:13:15.000Z</time>
      </trkpt>
      <trkpt lat="47.58666" lon="-3.06177">
        <ele>16.799999237061</ele>
        <time>2015-12-01T12:13:16.000Z</time>
      </trkpt>
      <trkpt lat="47.58666" lon="-3.06184">
        <ele>17.200000762939</ele>
        <time>2015-12-01T12:13:17.000Z</time>
      </trkpt>
      <trkpt lat="47.58665" lon="-3.06191">
        <ele>17.60000038147</ele>
        <time>2015-12-01T12:13:18.000Z</time>
      </trkpt>
      <trkpt lat="47.58665" lon="-3.06198">
        <ele>18</ele>
        <time>2015-12-01T12:13:19.000Z</time>
      </trkpt>
      <trkpt lat="47.58664" lon="-3.06205">
        <ele>18.39999961853</ele>
        <time>2015-12-01T12:13:20.000Z</time>
      </trkpt>
      <trkpt lat="47.58663" lon="-3.06236">
        <ele>18.39999961853</ele>
        <time>2015-12-01T12:13:24.000Z</time>
      </trkpt>
      <trkpt lat="47.58658" lon="-3.06306">
        <ele>18</ele>
        <time>2015-12-01T12:13:32.000Z</time>
      </trkpt>
      <trkpt lat="47.58657" lon="-3.06315">
        <ele>17.60000038147</ele>
        <time>2015-12-01T12:13:33.000Z</time>
      </trkpt>
      <trkpt lat="47.58657" lon="-3.06324">
        <ele>17.200000762939</ele>
        <time>2015-12-01T12:13:34.000Z</time>
      </trkpt>
      <trkpt lat="47.58656" lon="-3.06333">
        <ele>16.799999237061</ele>
        <time>2015-12-01T12:13:35.000Z</time>
      </trkpt>
      <trkpt lat="47.58656" lon="-3.06342">
        <ele>16.39999961853</ele>
        <time>2015-12-01T12:13:36.000Z</time>
      </trkpt>
      <trkpt lat="47.58651" lon="-3.06398">
        <ele>16.39999961853</ele>
        <time>2015-12-01T12:13:42.000Z</time>
      </trkpt>
      <trkpt lat="47.5865" lon="-3.06417">
        <ele>16</ele>
        <time>2015-12-01T12:13:44.000Z</time>
      </trkpt>
      <trkpt lat="47.58649" lon="-3.06426">
        <ele>15.60000038147</ele>
        <time>2015-12-01T12:13:45.000Z</time>
      </trkpt>
      <trkpt lat="47.58649" lon="-3.06436">
        <ele>15.199999809265</ele>
        <time>2015-12-01T12:13:46.000Z</time>
      </trkpt>
      <trkpt lat="47.58648" lon="-3.06445">
        <ele>14.60000038147</ele>
        <time>2015-12-01T12:13:47.000Z</time>
      </trkpt>
      <trkpt lat="47.58647" lon="-3.06455">
        <ele>14.199999809265</ele>
        <time>2015-12-01T12:13:48.000Z</time>
      </trkpt>
      <trkpt lat="47.58645" lon="-3.06483">
        <ele>14.199999809265</ele>
        <time>2015-12-01T12:13:51.000Z</time>
      </trkpt>
      <trkpt lat="47.58643" lon="-3.06529">
        <ele>13.800000190735</ele>
        <time>2015-12-01T12:13:56.000Z</time>
      </trkpt>
      <trkpt lat="47.58642" lon="-3.06539">
        <ele>13.39999961853</ele>
        <time>2015-12-01T12:13:57.000Z</time>
      </trkpt>
      <trkpt lat="47.58642" lon="-3.06548">
        <ele>13</ele>
        <time>2015-12-01T12:13:58.000Z</time>
      </trkpt>
      <trkpt lat="47.58641" lon="-3.06557">
        <ele>12.60000038147</ele>
        <time>2015-12-01T12:13:59.000Z</time>
      </trkpt>
      <trkpt lat="47.5864" lon="-3.06566">
        <ele>12.199999809265</ele>
        <time>2015-12-01T12:14:00.000Z</time>
      </trkpt>
      <trkpt lat="47.58636" lon="-3.06632">
        <ele>12.199999809265</ele>
        <time>2015-12-01T12:14:07.000Z</time>
      </trkpt>
      <trkpt lat="47.58634" lon="-3.0666">
        <ele>11.800000190735</ele>
        <time>2015-12-01T12:14:10.000Z</time>
      </trkpt>
      <trkpt lat="47.58634" lon="-3.06669">
        <ele>11.39999961853</ele>
        <time>2015-12-01T12:14:11.000Z</time>
      </trkpt>
      <trkpt lat="47.58633" lon="-3.06678">
        <ele>10.800000190735</ele>
        <time>2015-12-01T12:14:12.000Z</time>
      </trkpt>
      <trkpt lat="47.58632" lon="-3.06687">
        <ele>10.39999961853</ele>
        <time>2015-12-01T12:14:13.000Z</time>
      </trkpt>
      <trkpt lat="47.58632" lon="-3.06696">
        <ele>10</ele>
        <time>2015-12-01T12:14:14.000Z</time>
      </trkpt>
      <trkpt lat="47.58631" lon="-3.06713">
        <ele>10</ele>
        <time>2015-12-01T12:14:16.000Z</time>
      </trkpt>
      <trkpt lat="47.58627" lon="-3.06779">
        <ele>10</ele>
        <time>2015-12-01T12:14:25.000Z</time>
      </trkpt>
      <trkpt lat="47.58621" lon="-3.06856">
        <ele>10</ele>
        <time>2015-12-01T12:14:36.000Z</time>
      </trkpt>
      <trkpt lat="47.58615" lon="-3.06915">
        <ele>10.39999961853</ele>
        <time>2015-12-01T12:14:45.000Z</time>
      </trkpt>
      <trkpt lat="47.58615" lon="-3.06922">
        <ele>10.800000190735</ele>
        <time>2015-12-01T12:14:46.000Z</time>
      </trkpt>
      <trkpt lat="47.58615" lon="-3.06929">
        <ele>11.199999809265</ele>
        <time>2015-12-01T12:14:47.000Z</time>
      </trkpt>
      <trkpt lat="47.58615" lon="-3.06936">
        <ele>11.60000038147</ele>
        <time>2015-12-01T12:14:48.000Z</time>
      </trkpt>
      <trkpt lat="47.58615" lon="-3.06943">
        <ele>12</ele>
        <time>2015-12-01T12:14:49.000Z</time>
      </trkpt>
      <trkpt lat="47.58614" lon="-3.06957">
        <ele>12</ele>
        <time>2015-12-01T12:14:51.000Z</time>
      </trkpt>
      <trkpt lat="47.58611" lon="-3.06989">
        <ele>12</ele>
        <time>2015-12-01T12:14:56.000Z</time>
      </trkpt>
      <trkpt lat="47.5861" lon="-3.07015">
        <ele>12</ele>
        <time>2015-12-01T12:15:00.000Z</time>
      </trkpt>
      <trkpt lat="47.58609" lon="-3.07034">
        <ele>12.60000038147</ele>
        <time>2015-12-01T12:15:03.000Z</time>
      </trkpt>
      <trkpt lat="47.58608" lon="-3.0704">
        <ele>13</ele>
        <time>2015-12-01T12:15:04.000Z</time>
      </trkpt>
      <trkpt lat="47.58608" lon="-3.07046">
        <ele>13.800000190735</ele>
        <time>2015-12-01T12:15:05.000Z</time>
      </trkpt>
      <trkpt lat="47.58608" lon="-3.07052">
        <ele>14.199999809265</ele>
        <time>2015-12-01T12:15:06.000Z</time>
      </trkpt>
      <trkpt lat="47.58606" lon="-3.07076">
        <ele>14.199999809265</ele>
        <time>2015-12-01T12:15:10.000Z</time>
      </trkpt>
      <trkpt lat="47.58603" lon="-3.07124">
        <ele>14.60000038147</ele>
        <time>2015-12-01T12:15:18.000Z</time>
      </trkpt>
      <trkpt lat="47.58602" lon="-3.0713">
        <ele>15.199999809265</ele>
        <time>2015-12-01T12:15:19.000Z</time>
      </trkpt>
      <trkpt lat="47.58602" lon="-3.07136">
        <ele>15.60000038147</ele>
        <time>2015-12-01T12:15:20.000Z</time>
      </trkpt>
      <trkpt lat="47.58601" lon="-3.07142">
        <ele>16</ele>
        <time>2015-12-01T12:15:21.000Z</time>
      </trkpt>
      <trkpt lat="47.58601" lon="-3.07148">
        <ele>16.39999961853</ele>
        <time>2015-12-01T12:15:22.000Z</time>
      </trkpt>
      <trkpt lat="47.58599" lon="-3.0719">
        <ele>16.39999961853</ele>
        <time>2015-12-01T12:15:29.000Z</time>
      </trkpt>
      <trkpt lat="47.58597" lon="-3.07224">
        <ele>16.799999237061</ele>
        <time>2015-12-01T12:15:35.000Z</time>
      </trkpt>
      <trkpt lat="47.58596" lon="-3.07229">
        <ele>17.200000762939</ele>
        <time>2015-12-01T12:15:36.000Z</time>
      </trkpt>
      <trkpt lat="47.58596" lon="-3.07235">
        <ele>17.60000038147</ele>
        <time>2015-12-01T12:15:37.000Z</time>
      </trkpt>
      <trkpt lat="47.58595" lon="-3.07241">
        <ele>18</ele>
        <time>2015-12-01T12:15:38.000Z</time>
      </trkpt>
      <trkpt lat="47.58595" lon="-3.07247">
        <ele>18.39999961853</ele>
        <time>2015-12-01T12:15:39.000Z</time>
      </trkpt>
      <trkpt lat="47.58593" lon="-3.07272">
        <ele>18.39999961853</ele>
        <time>2015-12-01T12:15:43.000Z</time>
      </trkpt>
      <trkpt lat="47.58589" lon="-3.07336">
        <ele>18.39999961853</ele>
        <time>2015-12-01T12:15:53.000Z</time>
      </trkpt>
      <trkpt lat="47.58584" lon="-3.0739">
        <ele>18.39999961853</ele>
        <time>2015-12-01T12:16:01.000Z</time>
      </trkpt>
      <trkpt lat="47.58577" lon="-3.07439">
        <ele>18.39999961853</ele>
        <time>2015-12-01T12:16:08.000Z</time>
      </trkpt>
      <trkpt lat="47.58567" lon="-3.0749">
        <ele>18.39999961853</ele>
        <time>2015-12-01T12:16:15.000Z</time>
      </trkpt>
      <trkpt lat="47.58558" lon="-3.07534">
        <ele>18.39999961853</ele>
        <time>2015-12-01T12:16:22.000Z</time>
      </trkpt>
      <trkpt lat="47.58555" lon="-3.07547">
        <ele>18.39999961853</ele>
        <time>2015-12-01T12:16:27.000Z</time>
      </trkpt>
      <trkpt lat="47.58552" lon="-3.07557">
        <ele>18.39999961853</ele>
        <time>2015-12-01T12:16:33.000Z</time>
      </trkpt>
      <trkpt lat="47.58546" lon="-3.07581">
        <ele>18.39999961853</ele>
        <time>2015-12-01T12:16:39.000Z</time>
      </trkpt>
      <trkpt lat="47.58554" lon="-3.07597">
        <ele>18.39999961853</ele>
        <time>2015-12-01T12:16:42.000Z</time>
      </trkpt>
      <trkpt lat="47.58563" lon="-3.07605">
        <ele>17.60000038147</ele>
        <time>2015-12-01T12:16:44.000Z</time>
      </trkpt>
      <trkpt lat="47.58567" lon="-3.07609">
        <ele>17.200000762939</ele>
        <time>2015-12-01T12:16:45.000Z</time>
      </trkpt>
      <trkpt lat="47.58571" lon="-3.07613">
        <ele>16.799999237061</ele>
        <time>2015-12-01T12:16:46.000Z</time>
      </trkpt>
      <trkpt lat="47.58576" lon="-3.07616">
        <ele>16.39999961853</ele>
        <time>2015-12-01T12:16:47.000Z</time>
      </trkpt>
      <trkpt lat="47.5858" lon="-3.0762">
        <ele>16.39999961853</ele>
        <time>2015-12-01T12:16:48.000Z</time>
      </trkpt>
      <trkpt lat="47.58623" lon="-3.07657">
        <ele>16.39999961853</ele>
        <time>2015-12-01T12:16:57.000Z</time>
      </trkpt>
      <trkpt lat="47.58653" lon="-3.07679">
        <ele>16.39999961853</ele>
        <time>2015-12-01T12:17:03.000Z</time>
      </trkpt>
      <trkpt lat="47.58683" lon="-3.07697">
        <ele>16.39999961853</ele>
        <time>2015-12-01T12:17:09.000Z</time>
      </trkpt>
      <trkpt lat="47.58695" lon="-3.07707">
        <ele>16.39999961853</ele>
        <time>2015-12-01T12:17:12.000Z</time>
      </trkpt>
      <trkpt lat="47.58703" lon="-3.07714">
        <ele>16.39999961853</ele>
        <time>2015-12-01T12:17:14.000Z</time>
      </trkpt>
      <trkpt lat="47.58707" lon="-3.07719">
        <ele>16.39999961853</ele>
        <time>2015-12-01T12:17:15.000Z</time>
      </trkpt>
      <trkpt lat="47.58708" lon="-3.07731">
        <ele>16.39999961853</ele>
        <time>2015-12-01T12:17:17.000Z</time>
      </trkpt>
      <trkpt lat="47.58703" lon="-3.07741">
        <ele>16.39999961853</ele>
        <time>2015-12-01T12:17:19.000Z</time>
      </trkpt>
      <trkpt lat="47.58697" lon="-3.07752">
        <ele>16.39999961853</ele>
        <time>2015-12-01T12:17:21.000Z</time>
      </trkpt>
      <trkpt lat="47.58695" lon="-3.07757">
        <ele>16.39999961853</ele>
        <time>2015-12-01T12:17:22.000Z</time>
      </trkpt>
      <trkpt lat="47.58692" lon="-3.07775">
        <ele>16.39999961853</ele>
        <time>2015-12-01T12:17:25.000Z</time>
      </trkpt>
      <trkpt lat="47.58699" lon="-3.07797">
        <ele>16.39999961853</ele>
        <time>2015-12-01T12:17:29.000Z</time>
      </trkpt>
      <trkpt lat="47.58703" lon="-3.07819">
        <ele>16.39999961853</ele>
        <time>2015-12-01T12:17:33.000Z</time>
      </trkpt>
      <trkpt lat="47.58703" lon="-3.07831">
        <ele>16.39999961853</ele>
        <time>2015-12-01T12:17:35.000Z</time>
      </trkpt>
      <trkpt lat="47.58704" lon="-3.07837">
        <ele>16.799999237061</ele>
        <time>2015-12-01T12:17:36.000Z</time>
      </trkpt>
      <trkpt lat="47.58704" lon="-3.07843">
        <ele>17.200000762939</ele>
        <time>2015-12-01T12:17:37.000Z</time>
      </trkpt>
      <trkpt lat="47.58705" lon="-3.07849">
        <ele>17.60000038147</ele>
        <time>2015-12-01T12:17:38.000Z</time>
      </trkpt>
      <trkpt lat="47.58706" lon="-3.07854">
        <ele>18</ele>
        <time>2015-12-01T12:17:39.000Z</time>
      </trkpt>
      <trkpt lat="47.58707" lon="-3.0786">
        <ele>18.39999961853</ele>
        <time>2015-12-01T12:17:40.000Z</time>
      </trkpt>
      <trkpt lat="47.58712" lon="-3.07897">
        <ele>18.39999961853</ele>
        <time>2015-12-01T12:17:47.000Z</time>
      </trkpt>
      <trkpt lat="47.58715" lon="-3.07912">
        <ele>18.799999237061</ele>
        <time>2015-12-01T12:17:50.000Z</time>
      </trkpt>
      <trkpt lat="47.58715" lon="-3.07917">
        <ele>19.200000762939</ele>
        <time>2015-12-01T12:17:51.000Z</time>
      </trkpt>
      <trkpt lat="47.58716" lon="-3.07922">
        <ele>19.60000038147</ele>
        <time>2015-12-01T12:17:52.000Z</time>
      </trkpt>
      <trkpt lat="47.58717" lon="-3.07927">
        <ele>20</ele>
        <time>2015-12-01T12:17:53.000Z</time>
      </trkpt>
      <trkpt lat="47.58718" lon="-3.07932">
        <ele>20.39999961853</ele>
        <time>2015-12-01T12:17:54.000Z</time>
      </trkpt>
      <trkpt lat="47.58719" lon="-3.07941">
        <ele>20.39999961853</ele>
        <time>2015-12-01T12:17:56.000Z</time>
      </trkpt>
      <trkpt lat="47.58723" lon="-3.07968">
        <ele>21</ele>
        <time>2015-12-01T12:18:02.000Z</time>
      </trkpt>
      <trkpt lat="47.58724" lon="-3.07972">
        <ele>21.39999961853</ele>
        <time>2015-12-01T12:18:03.000Z</time>
      </trkpt>
      <trkpt lat="47.58724" lon="-3.07976">
        <ele>21.799999237061</ele>
        <time>2015-12-01T12:18:04.000Z</time>
      </trkpt>
      <trkpt lat="47.58725" lon="-3.07981">
        <ele>22.200000762939</ele>
        <time>2015-12-01T12:18:05.000Z</time>
      </trkpt>
      <trkpt lat="47.58726" lon="-3.07985">
        <ele>22.60000038147</ele>
        <time>2015-12-01T12:18:06.000Z</time>
      </trkpt>
      <trkpt lat="47.5873" lon="-3.08011">
        <ele>23</ele>
        <time>2015-12-01T12:18:12.000Z</time>
      </trkpt>
      <trkpt lat="47.5873" lon="-3.08016">
        <ele>23.39999961853</ele>
        <time>2015-12-01T12:18:13.000Z</time>
      </trkpt>
      <trkpt lat="47.58731" lon="-3.0802">
        <ele>23.799999237061</ele>
        <time>2015-12-01T12:18:14.000Z</time>
      </trkpt>
      <trkpt lat="47.58732" lon="-3.08024">
        <ele>24.200000762939</ele>
        <time>2015-12-01T12:18:15.000Z</time>
      </trkpt>
      <trkpt lat="47.58733" lon="-3.08028">
        <ele>24.799999237061</ele>
        <time>2015-12-01T12:18:16.000Z</time>
      </trkpt>
      <trkpt lat="47.58737" lon="-3.08048">
        <ele>24.799999237061</ele>
        <time>2015-12-01T12:18:21.000Z</time>
      </trkpt>
      <trkpt lat="47.58738" lon="-3.08052">
        <ele>25.200000762939</ele>
        <time>2015-12-01T12:18:22.000Z</time>
      </trkpt>
      <trkpt lat="47.58738" lon="-3.08056">
        <ele>26</ele>
        <time>2015-12-01T12:18:23.000Z</time>
      </trkpt>
      <trkpt lat="47.58739" lon="-3.08061">
        <ele>26.39999961853</ele>
        <time>2015-12-01T12:18:24.000Z</time>
      </trkpt>
      <trkpt lat="47.5874" lon="-3.08065">
        <ele>26.799999237061</ele>
        <time>2015-12-01T12:18:25.000Z</time>
      </trkpt>
      <trkpt lat="47.58742" lon="-3.08083">
        <ele>26.799999237061</ele>
        <time>2015-12-01T12:18:29.000Z</time>
      </trkpt>
      <trkpt lat="47.58741" lon="-3.08128">
        <ele>26.799999237061</ele>
        <time>2015-12-01T12:18:38.000Z</time>
      </trkpt>
      <trkpt lat="47.58739" lon="-3.08177">
        <ele>26.799999237061</ele>
        <time>2015-12-01T12:18:47.000Z</time>
      </trkpt>
      <trkpt lat="47.58735" lon="-3.08217">
        <ele>26.799999237061</ele>
        <time>2015-12-01T12:18:54.000Z</time>
      </trkpt>
      <trkpt lat="47.58733" lon="-3.08229">
        <ele>26.799999237061</ele>
        <time>2015-12-01T12:18:56.000Z</time>
      </trkpt>
      <trkpt lat="47.58729" lon="-3.08253">
        <ele>26.799999237061</ele>
        <time>2015-12-01T12:19:00.000Z</time>
      </trkpt>
      <trkpt lat="47.58721" lon="-3.0828">
        <ele>26.799999237061</ele>
        <time>2015-12-01T12:19:04.000Z</time>
      </trkpt>
      <trkpt lat="47.58715" lon="-3.08294">
        <ele>26.799999237061</ele>
        <time>2015-12-01T12:19:06.000Z</time>
      </trkpt>
      <trkpt lat="47.58696" lon="-3.0834">
        <ele>26.799999237061</ele>
        <time>2015-12-01T12:19:12.000Z</time>
      </trkpt>
      <trkpt lat="47.58693" lon="-3.08348">
        <ele>25.799999237061</ele>
        <time>2015-12-01T12:19:13.000Z</time>
      </trkpt>
      <trkpt lat="47.58691" lon="-3.08355">
        <ele>25.39999961853</ele>
        <time>2015-12-01T12:19:14.000Z</time>
      </trkpt>
      <trkpt lat="47.58688" lon="-3.08361">
        <ele>25</ele>
        <time>2015-12-01T12:19:15.000Z</time>
      </trkpt>
      <trkpt lat="47.58686" lon="-3.08367">
        <ele>24.60000038147</ele>
        <time>2015-12-01T12:19:16.000Z</time>
      </trkpt>
      <trkpt lat="47.58684" lon="-3.08373">
        <ele>24.200000762939</ele>
        <time>2015-12-01T12:19:17.000Z</time>
      </trkpt>
      <trkpt lat="47.58682" lon="-3.0838">
        <ele>23.60000038147</ele>
        <time>2015-12-01T12:19:18.000Z</time>
      </trkpt>
      <trkpt lat="47.58681" lon="-3.08384">
        <ele>23.200000762939</ele>
        <time>2015-12-01T12:19:19.000Z</time>
      </trkpt>
      <trkpt lat="47.5868" lon="-3.08388">
        <ele>22.799999237061</ele>
        <time>2015-12-01T12:19:20.000Z</time>
      </trkpt>
      <trkpt lat="47.58679" lon="-3.0839">
        <ele>22.39999961853</ele>
        <time>2015-12-01T12:19:21.000Z</time>
      </trkpt>
      <trkpt lat="47.58672" lon="-3.08398">
        <ele>22.39999961853</ele>
        <time>2015-12-01T12:19:26.000Z</time>
      </trkpt>
      <trkpt lat="47.58656" lon="-3.08397">
        <ele>22.39999961853</ele>
        <time>2015-12-01T12:19:31.000Z</time>
      </trkpt>
      <trkpt lat="47.58632" lon="-3.08393">
        <ele>22.39999961853</ele>
        <time>2015-12-01T12:19:39.000Z</time>
      </trkpt>
      <trkpt lat="47.58628" lon="-3.08394">
        <ele>22.39999961853</ele>
        <time>2015-12-01T12:19:41.000Z</time>
      </trkpt>
      <trkpt lat="47.58626" lon="-3.08392">
        <ele>22.39999961853</ele>
        <time>2015-12-01T12:19:43.000Z</time>
      </trkpt>
      <trkpt lat="47.58623" lon="-3.08388">
        <ele>22.39999961853</ele>
        <time>2015-12-01T12:19:45.000Z</time>
      </trkpt>
      <trkpt lat="47.58615" lon="-3.0838">
        <ele>22.39999961853</ele>
        <time>2015-12-01T12:19:48.000Z</time>
      </trkpt>
      <trkpt lat="47.58613" lon="-3.08376">
        <ele>22.39999961853</ele>
        <time>2015-12-01T12:19:49.000Z</time>
      </trkpt>
      <trkpt lat="47.58611" lon="-3.08362">
        <ele>22.39999961853</ele>
        <time>2015-12-01T12:19:52.000Z</time>
      </trkpt>
      <trkpt lat="47.58604" lon="-3.0833">
        <ele>22.39999961853</ele>
        <time>2015-12-01T12:19:59.000Z</time>
      </trkpt>
      <trkpt lat="47.58603" lon="-3.0832">
        <ele>22.799999237061</ele>
        <time>2015-12-01T12:20:01.000Z</time>
      </trkpt>
      <trkpt lat="47.58602" lon="-3.08314">
        <ele>23.799999237061</ele>
        <time>2015-12-01T12:20:02.000Z</time>
      </trkpt>
      <trkpt lat="47.58601" lon="-3.08309">
        <ele>24.200000762939</ele>
        <time>2015-12-01T12:20:03.000Z</time>
      </trkpt>
      <trkpt lat="47.586" lon="-3.08304">
        <ele>24.60000038147</ele>
        <time>2015-12-01T12:20:04.000Z</time>
      </trkpt>
      <trkpt lat="47.58596" lon="-3.08284">
        <ele>24.60000038147</ele>
        <time>2015-12-01T12:20:08.000Z</time>
      </trkpt>
      <trkpt lat="47.58589" lon="-3.08248">
        <ele>24.60000038147</ele>
        <time>2015-12-01T12:20:15.000Z</time>
      </trkpt>
      <trkpt lat="47.58581" lon="-3.08214">
        <ele>24.60000038147</ele>
        <time>2015-12-01T12:20:21.000Z</time>
      </trkpt>
      <trkpt lat="47.58572" lon="-3.08186">
        <ele>24.60000038147</ele>
        <time>2015-12-01T12:20:26.000Z</time>
      </trkpt>
      <trkpt lat="47.58565" lon="-3.08177">
        <ele>24.60000038147</ele>
        <time>2015-12-01T12:20:28.000Z</time>
      </trkpt>
      <trkpt lat="47.58558" lon="-3.0817">
        <ele>24.60000038147</ele>
        <time>2015-12-01T12:20:30.000Z</time>
      </trkpt>
      <trkpt lat="47.58543" lon="-3.08159">
        <ele>24.60000038147</ele>
        <time>2015-12-01T12:20:34.000Z</time>
      </trkpt>
      <trkpt lat="47.58518" lon="-3.0814">
        <ele>24.60000038147</ele>
        <time>2015-12-01T12:20:41.000Z</time>
      </trkpt>
      <trkpt lat="47.58505" lon="-3.08128">
        <ele>24.60000038147</ele>
        <time>2015-12-01T12:20:47.000Z</time>
      </trkpt>
      <trkpt lat="47.58504" lon="-3.08126">
        <ele>24.60000038147</ele>
        <time>2015-12-01T12:20:48.000Z</time>
      </trkpt>
      <trkpt lat="47.58507" lon="-3.08117">
        <ele>24.60000038147</ele>
        <time>2015-12-01T12:20:51.000Z</time>
      </trkpt>
      <trkpt lat="47.58509" lon="-3.08114">
        <ele>24.60000038147</ele>
        <time>2015-12-01T12:20:52.000Z</time>
      </trkpt>
      <trkpt lat="47.58517" lon="-3.08096">
        <ele>24.60000038147</ele>
        <time>2015-12-01T12:20:57.000Z</time>
      </trkpt>
      <trkpt lat="47.58527" lon="-3.08091">
        <ele>24.60000038147</ele>
        <time>2015-12-01T12:21:02.000Z</time>
      </trkpt>
      <trkpt lat="47.58529" lon="-3.08093">
        <ele>24.60000038147</ele>
        <time>2015-12-01T12:21:03.000Z</time>
      </trkpt>
      <trkpt lat="47.58532" lon="-3.08097">
        <ele>24.60000038147</ele>
        <time>2015-12-01T12:21:07.000Z</time>
      </trkpt>
      <trkpt lat="47.58529" lon="-3.08097">
        <ele>24.60000038147</ele>
        <time>2015-12-01T12:27:51.000Z</time>
      </trkpt>
      <trkpt lat="47.58523" lon="-3.08095">
        <ele>24.60000038147</ele>
        <time>2015-12-01T12:27:54.000Z</time>
      </trkpt>
      <trkpt lat="47.58521" lon="-3.08096">
        <ele>24.60000038147</ele>
        <time>2015-12-01T12:27:55.000Z</time>
      </trkpt>
      <trkpt lat="47.58516" lon="-3.08102">
        <ele>24.60000038147</ele>
        <time>2015-12-01T12:27:58.000Z</time>
      </trkpt>
      <trkpt lat="47.58513" lon="-3.08108">
        <ele>24.60000038147</ele>
        <time>2015-12-01T12:28:00.000Z</time>
      </trkpt>
      <trkpt lat="47.58507" lon="-3.0812">
        <ele>24.60000038147</ele>
        <time>2015-12-01T12:28:04.000Z</time>
      </trkpt>
      <trkpt lat="47.58506" lon="-3.08125">
        <ele>24.60000038147</ele>
        <time>2015-12-01T12:28:06.000Z</time>
      </trkpt>
      <trkpt lat="47.58508" lon="-3.08131">
        <ele>24.60000038147</ele>
        <time>2015-12-01T12:28:08.000Z</time>
      </trkpt>
      <trkpt lat="47.58519" lon="-3.08141">
        <ele>24.60000038147</ele>
        <time>2015-12-01T12:28:12.000Z</time>
      </trkpt>
      <trkpt lat="47.58521" lon="-3.08142">
        <ele>24.60000038147</ele>
        <time>2015-12-01T12:28:13.000Z</time>
      </trkpt>
      <trkpt lat="47.58538" lon="-3.08153">
        <ele>24.60000038147</ele>
        <time>2015-12-01T12:28:18.000Z</time>
      </trkpt>
      <trkpt lat="47.58558" lon="-3.0817">
        <ele>24.60000038147</ele>
        <time>2015-12-01T12:28:24.000Z</time>
      </trkpt>
      <trkpt lat="47.58575" lon="-3.0819">
        <ele>24.60000038147</ele>
        <time>2015-12-01T12:28:30.000Z</time>
      </trkpt>
      <trkpt lat="47.58583" lon="-3.0822">
        <ele>24.60000038147</ele>
        <time>2015-12-01T12:28:36.000Z</time>
      </trkpt>
      <trkpt lat="47.58591" lon="-3.08256">
        <ele>24.60000038147</ele>
        <time>2015-12-01T12:28:43.000Z</time>
      </trkpt>
      <trkpt lat="47.58598" lon="-3.08291">
        <ele>24.60000038147</ele>
        <time>2015-12-01T12:28:50.000Z</time>
      </trkpt>
      <trkpt lat="47.58605" lon="-3.08332">
        <ele>24.60000038147</ele>
        <time>2015-12-01T12:28:58.000Z</time>
      </trkpt>
      <trkpt lat="47.58614" lon="-3.0837">
        <ele>24.60000038147</ele>
        <time>2015-12-01T12:29:06.000Z</time>
      </trkpt>
      <trkpt lat="47.58613" lon="-3.08382">
        <ele>24.60000038147</ele>
        <time>2015-12-01T12:29:10.000Z</time>
      </trkpt>
      <trkpt lat="47.58603" lon="-3.08384">
        <ele>24.60000038147</ele>
        <time>2015-12-01T12:29:13.000Z</time>
      </trkpt>
      <trkpt lat="47.58599" lon="-3.08383">
        <ele>24.60000038147</ele>
        <time>2015-12-01T12:29:14.000Z</time>
      </trkpt>
      <trkpt lat="47.5858" lon="-3.08378">
        <ele>24.200000762939</ele>
        <time>2015-12-01T12:29:19.000Z</time>
      </trkpt>
      <trkpt lat="47.58576" lon="-3.08378">
        <ele>23.799999237061</ele>
        <time>2015-12-01T12:29:20.000Z</time>
      </trkpt>
      <trkpt lat="47.58572" lon="-3.08377">
        <ele>23.39999961853</ele>
        <time>2015-12-01T12:29:21.000Z</time>
      </trkpt>
      <trkpt lat="47.58568" lon="-3.08376">
        <ele>23</ele>
        <time>2015-12-01T12:29:22.000Z</time>
      </trkpt>
      <trkpt lat="47.58564" lon="-3.08376">
        <ele>22.60000038147</ele>
        <time>2015-12-01T12:29:23.000Z</time>
      </trkpt>
      <trkpt lat="47.58548" lon="-3.08371">
        <ele>22.60000038147</ele>
        <time>2015-12-01T12:29:27.000Z</time>
      </trkpt>
      <trkpt lat="47.58543" lon="-3.08371">
        <ele>22.60000038147</ele>
        <time>2015-12-01T12:29:28.000Z</time>
      </trkpt>
      <trkpt lat="47.58531" lon="-3.08379">
        <ele>22.60000038147</ele>
        <time>2015-12-01T12:29:31.000Z</time>
      </trkpt>
      <trkpt lat="47.58516" lon="-3.08388">
        <ele>22.60000038147</ele>
        <time>2015-12-01T12:29:35.000Z</time>
      </trkpt>
      <trkpt lat="47.58507" lon="-3.08376">
        <ele>22.60000038147</ele>
        <time>2015-12-01T12:29:38.000Z</time>
      </trkpt>
      <trkpt lat="47.58493" lon="-3.08349">
        <ele>22.60000038147</ele>
        <time>2015-12-01T12:29:43.000Z</time>
      </trkpt>
      <trkpt lat="47.58489" lon="-3.08345">
        <ele>22.60000038147</ele>
        <time>2015-12-01T12:29:44.000Z</time>
      </trkpt>
      <trkpt lat="47.58483" lon="-3.08335">
        <ele>22.60000038147</ele>
        <time>2015-12-01T12:29:46.000Z</time>
      </trkpt>
      <trkpt lat="47.58474" lon="-3.08319">
        <ele>22.60000038147</ele>
        <time>2015-12-01T12:29:49.000Z</time>
      </trkpt>
      <trkpt lat="47.58452" lon="-3.08273">
        <ele>22.60000038147</ele>
        <time>2015-12-01T12:29:57.000Z</time>
      </trkpt>
      <trkpt lat="47.58433" lon="-3.08234">
        <ele>22.60000038147</ele>
        <time>2015-12-01T12:30:04.000Z</time>
      </trkpt>
      <trkpt lat="47.58423" lon="-3.08213">
        <ele>22.60000038147</ele>
        <time>2015-12-01T12:30:08.000Z</time>
      </trkpt>
      <trkpt lat="47.58414" lon="-3.08198">
        <ele>22.60000038147</ele>
        <time>2015-12-01T12:30:11.000Z</time>
      </trkpt>
      <trkpt lat="47.58398" lon="-3.08185">
        <ele>22.60000038147</ele>
        <time>2015-12-01T12:30:15.000Z</time>
      </trkpt>
      <trkpt lat="47.58385" lon="-3.08177">
        <ele>22.200000762939</ele>
        <time>2015-12-01T12:30:18.000Z</time>
      </trkpt>
      <trkpt lat="47.5838" lon="-3.08175">
        <ele>21.39999961853</ele>
        <time>2015-12-01T12:30:19.000Z</time>
      </trkpt>
      <trkpt lat="47.58376" lon="-3.08172">
        <ele>21</ele>
        <time>2015-12-01T12:30:20.000Z</time>
      </trkpt>
      <trkpt lat="47.58371" lon="-3.0817">
        <ele>20.60000038147</ele>
        <time>2015-12-01T12:30:21.000Z</time>
      </trkpt>
      <trkpt lat="47.58367" lon="-3.08168">
        <ele>20.60000038147</ele>
        <time>2015-12-01T12:30:22.000Z</time>
      </trkpt>
      <trkpt lat="47.58349" lon="-3.08171">
        <ele>20.60000038147</ele>
        <time>2015-12-01T12:30:27.000Z</time>
      </trkpt>
      <trkpt lat="47.58345" lon="-3.08179">
        <ele>20.200000762939</ele>
        <time>2015-12-01T12:30:29.000Z</time>
      </trkpt>
      <trkpt lat="47.58343" lon="-3.08183">
        <ele>19.60000038147</ele>
        <time>2015-12-01T12:30:30.000Z</time>
      </trkpt>
      <trkpt lat="47.58339" lon="-3.08187">
        <ele>19.200000762939</ele>
        <time>2015-12-01T12:30:31.000Z</time>
      </trkpt>
      <trkpt lat="47.58335" lon="-3.08191">
        <ele>18.799999237061</ele>
        <time>2015-12-01T12:30:32.000Z</time>
      </trkpt>
      <trkpt lat="47.58331" lon="-3.08195">
        <ele>18.39999961853</ele>
        <time>2015-12-01T12:30:33.000Z</time>
      </trkpt>
      <trkpt lat="47.58324" lon="-3.08203">
        <ele>18.39999961853</ele>
        <time>2015-12-01T12:30:35.000Z</time>
      </trkpt>
      <trkpt lat="47.58303" lon="-3.08217">
        <ele>18.39999961853</ele>
        <time>2015-12-01T12:30:41.000Z</time>
      </trkpt>
      <trkpt lat="47.58287" lon="-3.08236">
        <ele>18.39999961853</ele>
        <time>2015-12-01T12:30:47.000Z</time>
      </trkpt>
      <trkpt lat="47.58285" lon="-3.08259">
        <ele>18.39999961853</ele>
        <time>2015-12-01T12:30:51.000Z</time>
      </trkpt>
      <trkpt lat="47.58285" lon="-3.083">
        <ele>18.39999961853</ele>
        <time>2015-12-01T12:30:59.000Z</time>
      </trkpt>
      <trkpt lat="47.58284" lon="-3.08309">
        <ele>18.799999237061</ele>
        <time>2015-12-01T12:31:01.000Z</time>
      </trkpt>
      <trkpt lat="47.58283" lon="-3.08313">
        <ele>19.39999961853</ele>
        <time>2015-12-01T12:31:02.000Z</time>
      </trkpt>
      <trkpt lat="47.58282" lon="-3.08318">
        <ele>19.799999237061</ele>
        <time>2015-12-01T12:31:03.000Z</time>
      </trkpt>
      <trkpt lat="47.58281" lon="-3.08323">
        <ele>20.200000762939</ele>
        <time>2015-12-01T12:31:04.000Z</time>
      </trkpt>
      <trkpt lat="47.5828" lon="-3.08327">
        <ele>20.60000038147</ele>
        <time>2015-12-01T12:31:05.000Z</time>
      </trkpt>
      <trkpt lat="47.58279" lon="-3.08333">
        <ele>20.60000038147</ele>
        <time>2015-12-01T12:31:06.000Z</time>
      </trkpt>
      <trkpt lat="47.58274" lon="-3.08348">
        <ele>20.60000038147</ele>
        <time>2015-12-01T12:31:09.000Z</time>
      </trkpt>
      <trkpt lat="47.58268" lon="-3.08365">
        <ele>20.60000038147</ele>
        <time>2015-12-01T12:31:12.000Z</time>
      </trkpt>
      <trkpt lat="47.58257" lon="-3.08405">
        <ele>20.60000038147</ele>
        <time>2015-12-01T12:31:19.000Z</time>
      </trkpt>
      <trkpt lat="47.58248" lon="-3.08429">
        <ele>20.60000038147</ele>
        <time>2015-12-01T12:31:24.000Z</time>
      </trkpt>
      <trkpt lat="47.58243" lon="-3.08437">
        <ele>20.60000038147</ele>
        <time>2015-12-01T12:31:27.000Z</time>
      </trkpt>
      <trkpt lat="47.5824" lon="-3.08437">
        <ele>20.60000038147</ele>
        <time>2015-12-01T12:31:28.000Z</time>
      </trkpt>
      <trkpt lat="47.58237" lon="-3.08435">
        <ele>20.200000762939</ele>
        <time>2015-12-01T12:31:29.000Z</time>
      </trkpt>
      <trkpt lat="47.58234" lon="-3.08433">
        <ele>19.799999237061</ele>
        <time>2015-12-01T12:31:30.000Z</time>
      </trkpt>
      <trkpt lat="47.5823" lon="-3.08432">
        <ele>19.39999961853</ele>
        <time>2015-12-01T12:31:31.000Z</time>
      </trkpt>
      <trkpt lat="47.58227" lon="-3.08431">
        <ele>18.799999237061</ele>
        <time>2015-12-01T12:31:32.000Z</time>
      </trkpt>
      <trkpt lat="47.58223" lon="-3.0843">
        <ele>18.39999961853</ele>
        <time>2015-12-01T12:31:33.000Z</time>
      </trkpt>
      <trkpt lat="47.5821" lon="-3.08431">
        <ele>18</ele>
        <time>2015-12-01T12:31:36.000Z</time>
      </trkpt>
      <trkpt lat="47.58206" lon="-3.08432">
        <ele>17.60000038147</ele>
        <time>2015-12-01T12:31:37.000Z</time>
      </trkpt>
      <trkpt lat="47.582" lon="-3.08432">
        <ele>17.200000762939</ele>
        <time>2015-12-01T12:31:38.000Z</time>
      </trkpt>
      <trkpt lat="47.58195" lon="-3.08432">
        <ele>16.799999237061</ele>
        <time>2015-12-01T12:31:39.000Z</time>
      </trkpt>
      <trkpt lat="47.5819" lon="-3.08432">
        <ele>16.39999961853</ele>
        <time>2015-12-01T12:31:40.000Z</time>
      </trkpt>
      <trkpt lat="47.5818" lon="-3.08432">
        <ele>16</ele>
        <time>2015-12-01T12:31:42.000Z</time>
      </trkpt>
      <trkpt lat="47.58175" lon="-3.08433">
        <ele>15.39999961853</ele>
        <time>2015-12-01T12:31:43.000Z</time>
      </trkpt>
      <trkpt lat="47.5817" lon="-3.08433">
        <ele>15</ele>
        <time>2015-12-01T12:31:44.000Z</time>
      </trkpt>
      <trkpt lat="47.58165" lon="-3.08433">
        <ele>14.60000038147</ele>
        <time>2015-12-01T12:31:45.000Z</time>
      </trkpt>
      <trkpt lat="47.5816" lon="-3.08432">
        <ele>14</ele>
        <time>2015-12-01T12:31:46.000Z</time>
      </trkpt>
      <trkpt lat="47.58144" lon="-3.08423">
        <ele>14</ele>
        <time>2015-12-01T12:31:49.000Z</time>
      </trkpt>
      <trkpt lat="47.58138" lon="-3.0842">
        <ele>13.60000038147</ele>
        <time>2015-12-01T12:31:50.000Z</time>
      </trkpt>
      <trkpt lat="47.58132" lon="-3.08416">
        <ele>13.199999809265</ele>
        <time>2015-12-01T12:31:51.000Z</time>
      </trkpt>
      <trkpt lat="47.58126" lon="-3.08412">
        <ele>12.60000038147</ele>
        <time>2015-12-01T12:31:52.000Z</time>
      </trkpt>
      <trkpt lat="47.5812" lon="-3.08408">
        <ele>12.199999809265</ele>
        <time>2015-12-01T12:31:53.000Z</time>
      </trkpt>
      <trkpt lat="47.58114" lon="-3.08404">
        <ele>11.60000038147</ele>
        <time>2015-12-01T12:31:54.000Z</time>
      </trkpt>
      <trkpt lat="47.58102" lon="-3.08396">
        <ele>11.60000038147</ele>
        <time>2015-12-01T12:31:56.000Z</time>
      </trkpt>
      <trkpt lat="47.58097" lon="-3.08393">
        <ele>11.199999809265</ele>
        <time>2015-12-01T12:31:57.000Z</time>
      </trkpt>
      <trkpt lat="47.58092" lon="-3.08389">
        <ele>10.39999961853</ele>
        <time>2015-12-01T12:31:58.000Z</time>
      </trkpt>
      <trkpt lat="47.58088" lon="-3.08385">
        <ele>10</ele>
        <time>2015-12-01T12:31:59.000Z</time>
      </trkpt>
      <trkpt lat="47.58085" lon="-3.08379">
        <ele>9.6000003814697</ele>
        <time>2015-12-01T12:32:00.000Z</time>
      </trkpt>
      <trkpt lat="47.58079" lon="-3.08359">
        <ele>9.6000003814697</ele>
        <time>2015-12-01T12:32:03.000Z</time>
      </trkpt>
      <trkpt lat="47.58075" lon="-3.08354">
        <ele>9.6000003814697</ele>
        <time>2015-12-01T12:32:04.000Z</time>
      </trkpt>
      <trkpt lat="47.5806" lon="-3.08352">
        <ele>9.6000003814697</ele>
        <time>2015-12-01T12:32:07.000Z</time>
      </trkpt>
      <trkpt lat="47.58056" lon="-3.08357">
        <ele>9.1999998092651</ele>
        <time>2015-12-01T12:32:08.000Z</time>
      </trkpt>
      <trkpt lat="47.58052" lon="-3.0836">
        <ele>8.8000001907349</ele>
        <time>2015-12-01T12:32:09.000Z</time>
      </trkpt>
      <trkpt lat="47.58047" lon="-3.08364">
        <ele>8.3999996185303</ele>
        <time>2015-12-01T12:32:10.000Z</time>
      </trkpt>
      <trkpt lat="47.58042" lon="-3.08367">
        <ele>8</ele>
        <time>2015-12-01T12:32:11.000Z</time>
      </trkpt>
      <trkpt lat="47.58038" lon="-3.0837">
        <ele>7.4000000953674</ele>
        <time>2015-12-01T12:32:12.000Z</time>
      </trkpt>
      <trkpt lat="47.58024" lon="-3.08378">
        <ele>7.4000000953674</ele>
        <time>2015-12-01T12:32:15.000Z</time>
      </trkpt>
      <trkpt lat="47.58003" lon="-3.08392">
        <ele>7.4000000953674</ele>
        <time>2015-12-01T12:32:20.000Z</time>
      </trkpt>
      <trkpt lat="47.57999" lon="-3.08395">
        <ele>7.4000000953674</ele>
        <time>2015-12-01T12:32:21.000Z</time>
      </trkpt>
      <trkpt lat="47.57973" lon="-3.08405">
        <ele>7.4000000953674</ele>
        <time>2015-12-01T12:32:27.000Z</time>
      </trkpt>
      <trkpt lat="47.57957" lon="-3.08409">
        <ele>7</ele>
        <time>2015-12-01T12:32:31.000Z</time>
      </trkpt>
      <trkpt lat="47.57954" lon="-3.0841">
        <ele>6.5999999046326</ele>
        <time>2015-12-01T12:32:32.000Z</time>
      </trkpt>
      <trkpt lat="47.5795" lon="-3.08411">
        <ele>6.1999998092651</ele>
        <time>2015-12-01T12:32:33.000Z</time>
      </trkpt>
      <trkpt lat="47.57947" lon="-3.08411">
        <ele>5.8000001907349</ele>
        <time>2015-12-01T12:32:34.000Z</time>
      </trkpt>
      <trkpt lat="47.57943" lon="-3.08414">
        <ele>5.4000000953674</ele>
        <time>2015-12-01T12:32:35.000Z</time>
      </trkpt>
      <trkpt lat="47.57939" lon="-3.08423">
        <ele>5.4000000953674</ele>
        <time>2015-12-01T12:32:37.000Z</time>
      </trkpt>
      <trkpt lat="47.57938" lon="-3.0845">
        <ele>5.4000000953674</ele>
        <time>2015-12-01T12:32:41.000Z</time>
      </trkpt>
      <trkpt lat="47.57937" lon="-3.08457">
        <ele>5.4000000953674</ele>
        <time>2015-12-01T12:32:42.000Z</time>
      </trkpt>
      <trkpt lat="47.57932" lon="-3.08487">
        <ele>5.4000000953674</ele>
        <time>2015-12-01T12:32:47.000Z</time>
      </trkpt>
      <trkpt lat="47.57926" lon="-3.08517">
        <ele>5.4000000953674</ele>
        <time>2015-12-01T12:32:53.000Z</time>
      </trkpt>
      <trkpt lat="47.57908" lon="-3.08541">
        <ele>5.4000000953674</ele>
        <time>2015-12-01T12:32:59.000Z</time>
      </trkpt>
      <trkpt lat="47.57905" lon="-3.08545">
        <ele>5.4000000953674</ele>
        <time>2015-12-01T12:33:00.000Z</time>
      </trkpt>
      <trkpt lat="47.57893" lon="-3.08562">
        <ele>5.4000000953674</ele>
        <time>2015-12-01T12:33:04.000Z</time>
      </trkpt>
      <trkpt lat="47.57881" lon="-3.08579">
        <ele>5.4000000953674</ele>
        <time>2015-12-01T12:33:08.000Z</time>
      </trkpt>
      <trkpt lat="47.57879" lon="-3.08584">
        <ele>5.4000000953674</ele>
        <time>2015-12-01T12:33:09.000Z</time>
      </trkpt>
      <trkpt lat="47.57864" lon="-3.08612">
        <ele>5.4000000953674</ele>
        <time>2015-12-01T12:33:15.000Z</time>
      </trkpt>
      <trkpt lat="47.57847" lon="-3.08636">
        <ele>5.4000000953674</ele>
        <time>2015-12-01T12:33:21.000Z</time>
      </trkpt>
      <trkpt lat="47.57829" lon="-3.08645">
        <ele>5.4000000953674</ele>
        <time>2015-12-01T12:33:26.000Z</time>
      </trkpt>
      <trkpt lat="47.5782" lon="-3.08648">
        <ele>5.4000000953674</ele>
        <time>2015-12-01T12:33:28.000Z</time>
      </trkpt>
      <trkpt lat="47.57805" lon="-3.08647">
        <ele>5.4000000953674</ele>
        <time>2015-12-01T12:33:32.000Z</time>
      </trkpt>
      <trkpt lat="47.57799" lon="-3.08651">
        <ele>5.4000000953674</ele>
        <time>2015-12-01T12:33:34.000Z</time>
      </trkpt>
      <trkpt lat="47.57797" lon="-3.08656">
        <ele>5.4000000953674</ele>
        <time>2015-12-01T12:33:35.000Z</time>
      </trkpt>
      <trkpt lat="47.57793" lon="-3.08679">
        <ele>5.4000000953674</ele>
        <time>2015-12-01T12:33:39.000Z</time>
      </trkpt>
      <trkpt lat="47.57789" lon="-3.08714">
        <ele>5.4000000953674</ele>
        <time>2015-12-01T12:33:45.000Z</time>
      </trkpt>
      <trkpt lat="47.57783" lon="-3.08752">
        <ele>5.4000000953674</ele>
        <time>2015-12-01T12:33:52.000Z</time>
      </trkpt>
      <trkpt lat="47.57779" lon="-3.08774">
        <ele>5.4000000953674</ele>
        <time>2015-12-01T12:33:57.000Z</time>
      </trkpt>
      <trkpt lat="47.57778" lon="-3.08795">
        <ele>5.4000000953674</ele>
        <time>2015-12-01T12:34:01.000Z</time>
      </trkpt>
      <trkpt lat="47.5778" lon="-3.08821">
        <ele>5.4000000953674</ele>
        <time>2015-12-01T12:34:06.000Z</time>
      </trkpt>
      <trkpt lat="47.57781" lon="-3.0885">
        <ele>5.4000000953674</ele>
        <time>2015-12-01T12:34:12.000Z</time>
      </trkpt>
      <trkpt lat="47.57782" lon="-3.08859">
        <ele>5.8000001907349</ele>
        <time>2015-12-01T12:34:14.000Z</time>
      </trkpt>
      <trkpt lat="47.57782" lon="-3.08863">
        <ele>6.1999998092651</ele>
        <time>2015-12-01T12:34:15.000Z</time>
      </trkpt>
      <trkpt lat="47.57782" lon="-3.08866">
        <ele>6.5999999046326</ele>
        <time>2015-12-01T12:34:16.000Z</time>
      </trkpt>
      <trkpt lat="47.57783" lon="-3.08871">
        <ele>7.1999998092651</ele>
        <time>2015-12-01T12:34:17.000Z</time>
      </trkpt>
      <trkpt lat="47.57782" lon="-3.08875">
        <ele>7.5999999046326</ele>
        <time>2015-12-01T12:34:18.000Z</time>
      </trkpt>
      <trkpt lat="47.57787" lon="-3.08896">
        <ele>7.5999999046326</ele>
        <time>2015-12-01T12:34:22.000Z</time>
      </trkpt>
      <trkpt lat="47.57794" lon="-3.08927">
        <ele>7.5999999046326</ele>
        <time>2015-12-01T12:34:29.000Z</time>
      </trkpt>
      <trkpt lat="47.57805" lon="-3.08949">
        <ele>7.5999999046326</ele>
        <time>2015-12-01T12:34:35.000Z</time>
      </trkpt>
      <trkpt lat="47.5782" lon="-3.08957">
        <ele>7.5999999046326</ele>
        <time>2015-12-01T12:34:39.000Z</time>
      </trkpt>
      <trkpt lat="47.57828" lon="-3.08962">
        <ele>7.5999999046326</ele>
        <time>2015-12-01T12:34:41.000Z</time>
      </trkpt>
      <trkpt lat="47.5786" lon="-3.0898">
        <ele>7.5999999046326</ele>
        <time>2015-12-01T12:34:49.000Z</time>
      </trkpt>
      <trkpt lat="47.57892" lon="-3.08997">
        <ele>7.5999999046326</ele>
        <time>2015-12-01T12:34:57.000Z</time>
      </trkpt>
      <trkpt lat="47.57896" lon="-3.08999">
        <ele>8</ele>
        <time>2015-12-01T12:34:58.000Z</time>
      </trkpt>
      <trkpt lat="47.579" lon="-3.09001">
        <ele>8.3999996185303</ele>
        <time>2015-12-01T12:34:59.000Z</time>
      </trkpt>
      <trkpt lat="47.57904" lon="-3.09004">
        <ele>8.8000001907349</ele>
        <time>2015-12-01T12:35:00.000Z</time>
      </trkpt>
      <trkpt lat="47.57909" lon="-3.09006">
        <ele>9.1999998092651</ele>
        <time>2015-12-01T12:35:01.000Z</time>
      </trkpt>
      <trkpt lat="47.57913" lon="-3.09008">
        <ele>9.6000003814697</ele>
        <time>2015-12-01T12:35:02.000Z</time>
      </trkpt>
      <trkpt lat="47.57926" lon="-3.09015">
        <ele>9.6000003814697</ele>
        <time>2015-12-01T12:35:05.000Z</time>
      </trkpt>
      <trkpt lat="47.57967" lon="-3.09037">
        <ele>9.6000003814697</ele>
        <time>2015-12-01T12:35:13.000Z</time>
      </trkpt>
      <trkpt lat="47.58003" lon="-3.09057">
        <ele>9.6000003814697</ele>
        <time>2015-12-01T12:35:21.000Z</time>
      </trkpt>
      <trkpt lat="47.58034" lon="-3.09075">
        <ele>9.6000003814697</ele>
        <time>2015-12-01T12:35:29.000Z</time>
      </trkpt>
      <trkpt lat="47.58064" lon="-3.09091">
        <ele>9.6000003814697</ele>
        <time>2015-12-01T12:35:37.000Z</time>
      </trkpt>
      <trkpt lat="47.58083" lon="-3.09101">
        <ele>10</ele>
        <time>2015-12-01T12:35:43.000Z</time>
      </trkpt>
      <trkpt lat="47.58087" lon="-3.09102">
        <ele>10.39999961853</ele>
        <time>2015-12-01T12:35:44.000Z</time>
      </trkpt>
      <trkpt lat="47.5809" lon="-3.09104">
        <ele>10.800000190735</ele>
        <time>2015-12-01T12:35:45.000Z</time>
      </trkpt>
      <trkpt lat="47.58094" lon="-3.09105">
        <ele>11.199999809265</ele>
        <time>2015-12-01T12:35:46.000Z</time>
      </trkpt>
      <trkpt lat="47.58097" lon="-3.09106">
        <ele>11.60000038147</ele>
        <time>2015-12-01T12:35:47.000Z</time>
      </trkpt>
      <trkpt lat="47.58111" lon="-3.09109">
        <ele>11.60000038147</ele>
        <time>2015-12-01T12:35:50.000Z</time>
      </trkpt>
      <trkpt lat="47.58128" lon="-3.09113">
        <ele>11.60000038147</ele>
        <time>2015-12-01T12:35:54.000Z</time>
      </trkpt>
      <trkpt lat="47.58141" lon="-3.09114">
        <ele>11.60000038147</ele>
        <time>2015-12-01T12:35:57.000Z</time>
      </trkpt>
      <trkpt lat="47.58164" lon="-3.09117">
        <ele>11.60000038147</ele>
        <time>2015-12-01T12:36:02.000Z</time>
      </trkpt>
      <trkpt lat="47.58179" lon="-3.09118">
        <ele>11.60000038147</ele>
        <time>2015-12-01T12:36:05.000Z</time>
      </trkpt>
      <trkpt lat="47.58221" lon="-3.09122">
        <ele>11.60000038147</ele>
        <time>2015-12-01T12:36:14.000Z</time>
      </trkpt>
      <trkpt lat="47.58251" lon="-3.09126">
        <ele>11.60000038147</ele>
        <time>2015-12-01T12:36:21.000Z</time>
      </trkpt>
      <trkpt lat="47.58278" lon="-3.09129">
        <ele>11.60000038147</ele>
        <time>2015-12-01T12:36:28.000Z</time>
      </trkpt>
      <trkpt lat="47.58289" lon="-3.0913">
        <ele>12.39999961853</ele>
        <time>2015-12-01T12:36:31.000Z</time>
      </trkpt>
      <trkpt lat="47.58293" lon="-3.0913">
        <ele>12.800000190735</ele>
        <time>2015-12-01T12:36:32.000Z</time>
      </trkpt>
      <trkpt lat="47.58297" lon="-3.09131">
        <ele>13.199999809265</ele>
        <time>2015-12-01T12:36:33.000Z</time>
      </trkpt>
      <trkpt lat="47.58301" lon="-3.09131">
        <ele>13.60000038147</ele>
        <time>2015-12-01T12:36:34.000Z</time>
      </trkpt>
      <trkpt lat="47.58308" lon="-3.09132">
        <ele>13.60000038147</ele>
        <time>2015-12-01T12:36:36.000Z</time>
      </trkpt>
      <trkpt lat="47.58318" lon="-3.09131">
        <ele>14</ele>
        <time>2015-12-01T12:36:39.000Z</time>
      </trkpt>
      <trkpt lat="47.58321" lon="-3.0913">
        <ele>14.39999961853</ele>
        <time>2015-12-01T12:36:40.000Z</time>
      </trkpt>
      <trkpt lat="47.58325" lon="-3.09128">
        <ele>14.800000190735</ele>
        <time>2015-12-01T12:36:41.000Z</time>
      </trkpt>
      <trkpt lat="47.58328" lon="-3.09125">
        <ele>15.199999809265</ele>
        <time>2015-12-01T12:36:42.000Z</time>
      </trkpt>
      <trkpt lat="47.58331" lon="-3.09121">
        <ele>15.800000190735</ele>
        <time>2015-12-01T12:36:43.000Z</time>
      </trkpt>
      <trkpt lat="47.58348" lon="-3.09105">
        <ele>15.800000190735</ele>
        <time>2015-12-01T12:36:48.000Z</time>
      </trkpt>
      <trkpt lat="47.58369" lon="-3.09093">
        <ele>15.800000190735</ele>
        <time>2015-12-01T12:36:54.000Z</time>
      </trkpt>
      <trkpt lat="47.58393" lon="-3.09089">
        <ele>15.800000190735</ele>
        <time>2015-12-01T12:37:01.000Z</time>
      </trkpt>
      <trkpt lat="47.58395" lon="-3.09089">
        <ele>16.200000762939</ele>
        <time>2015-12-01T12:37:02.000Z</time>
      </trkpt>
      <trkpt lat="47.58397" lon="-3.09089">
        <ele>16.60000038147</ele>
        <time>2015-12-01T12:37:03.000Z</time>
      </trkpt>
      <trkpt lat="47.58399" lon="-3.0909">
        <ele>17</ele>
        <time>2015-12-01T12:37:04.000Z</time>
      </trkpt>
      <trkpt lat="47.58401" lon="-3.09093">
        <ele>17.39999961853</ele>
        <time>2015-12-01T12:37:05.000Z</time>
      </trkpt>
      <trkpt lat="47.58402" lon="-3.09098">
        <ele>17.799999237061</ele>
        <time>2015-12-01T12:37:06.000Z</time>
      </trkpt>
      <trkpt lat="47.58405" lon="-3.09128">
        <ele>17.799999237061</ele>
        <time>2015-12-01T12:37:12.000Z</time>
      </trkpt>
      <trkpt lat="47.58408" lon="-3.0917">
        <ele>17.799999237061</ele>
        <time>2015-12-01T12:37:19.000Z</time>
      </trkpt>
      <trkpt lat="47.5841" lon="-3.09224">
        <ele>17.799999237061</ele>
        <time>2015-12-01T12:37:28.000Z</time>
      </trkpt>
      <trkpt lat="47.58409" lon="-3.09236">
        <ele>17.799999237061</ele>
        <time>2015-12-01T12:37:30.000Z</time>
      </trkpt>
      <trkpt lat="47.58405" lon="-3.0926">
        <ele>17.799999237061</ele>
        <time>2015-12-01T12:37:34.000Z</time>
      </trkpt>
      <trkpt lat="47.58393" lon="-3.09304">
        <ele>17.799999237061</ele>
        <time>2015-12-01T12:37:42.000Z</time>
      </trkpt>
      <trkpt lat="47.58392" lon="-3.09329">
        <ele>17.799999237061</ele>
        <time>2015-12-01T12:37:47.000Z</time>
      </trkpt>
      <trkpt lat="47.58403" lon="-3.09328">
        <ele>17.799999237061</ele>
        <time>2015-12-01T12:37:50.000Z</time>
      </trkpt>
      <trkpt lat="47.58419" lon="-3.09325">
        <ele>17.799999237061</ele>
        <time>2015-12-01T12:37:54.000Z</time>
      </trkpt>
      <trkpt lat="47.58423" lon="-3.09324">
        <ele>17.799999237061</ele>
        <time>2015-12-01T12:37:55.000Z</time>
      </trkpt>
      <trkpt lat="47.58459" lon="-3.09323">
        <ele>17.799999237061</ele>
        <time>2015-12-01T12:38:03.000Z</time>
      </trkpt>
      <trkpt lat="47.58471" lon="-3.09322">
        <ele>17.799999237061</ele>
        <time>2015-12-01T12:38:06.000Z</time>
      </trkpt>
      <trkpt lat="47.58488" lon="-3.09321">
        <ele>17.799999237061</ele>
        <time>2015-12-01T12:38:10.000Z</time>
      </trkpt>
      <trkpt lat="47.58522" lon="-3.09318">
        <ele>17.799999237061</ele>
        <time>2015-12-01T12:38:18.000Z</time>
      </trkpt>
      <trkpt lat="47.58547" lon="-3.09311">
        <ele>17.799999237061</ele>
        <time>2015-12-01T12:38:25.000Z</time>
      </trkpt>
      <trkpt lat="47.5855" lon="-3.09309">
        <ele>18.200000762939</ele>
        <time>2015-12-01T12:38:26.000Z</time>
      </trkpt>
      <trkpt lat="47.58553" lon="-3.09308">
        <ele>18.60000038147</ele>
        <time>2015-12-01T12:38:27.000Z</time>
      </trkpt>
      <trkpt lat="47.58557" lon="-3.09307">
        <ele>19</ele>
        <time>2015-12-01T12:38:28.000Z</time>
      </trkpt>
      <trkpt lat="47.5856" lon="-3.09306">
        <ele>19.39999961853</ele>
        <time>2015-12-01T12:38:29.000Z</time>
      </trkpt>
      <trkpt lat="47.58563" lon="-3.09305">
        <ele>20</ele>
        <time>2015-12-01T12:38:30.000Z</time>
      </trkpt>
      <trkpt lat="47.5857" lon="-3.09303">
        <ele>20</ele>
        <time>2015-12-01T12:38:32.000Z</time>
      </trkpt>
      <trkpt lat="47.58596" lon="-3.09294">
        <ele>20</ele>
        <time>2015-12-01T12:38:40.000Z</time>
      </trkpt>
      <trkpt lat="47.586" lon="-3.09293">
        <ele>20.39999961853</ele>
        <time>2015-12-01T12:38:41.000Z</time>
      </trkpt>
      <trkpt lat="47.58603" lon="-3.09293">
        <ele>20.799999237061</ele>
        <time>2015-12-01T12:38:42.000Z</time>
      </trkpt>
      <trkpt lat="47.58607" lon="-3.09292">
        <ele>21.200000762939</ele>
        <time>2015-12-01T12:38:43.000Z</time>
      </trkpt>
      <trkpt lat="47.5861" lon="-3.09293">
        <ele>21.60000038147</ele>
        <time>2015-12-01T12:38:44.000Z</time>
      </trkpt>
      <trkpt lat="47.58614" lon="-3.09292">
        <ele>22</ele>
        <time>2015-12-01T12:38:45.000Z</time>
      </trkpt>
      <trkpt lat="47.58624" lon="-3.09289">
        <ele>22</ele>
        <time>2015-12-01T12:38:48.000Z</time>
      </trkpt>
      <trkpt lat="47.58644" lon="-3.09282">
        <ele>22</ele>
        <time>2015-12-01T12:38:54.000Z</time>
      </trkpt>
      <trkpt lat="47.58661" lon="-3.09296">
        <ele>22</ele>
        <time>2015-12-01T12:38:58.000Z</time>
      </trkpt>
      <trkpt lat="47.58665" lon="-3.09298">
        <ele>22</ele>
        <time>2015-12-01T12:38:59.000Z</time>
      </trkpt>
      <trkpt lat="47.58679" lon="-3.09301">
        <ele>22</ele>
        <time>2015-12-01T12:39:02.000Z</time>
      </trkpt>
      <trkpt lat="47.58712" lon="-3.0931">
        <ele>22</ele>
        <time>2015-12-01T12:39:09.000Z</time>
      </trkpt>
      <trkpt lat="47.58747" lon="-3.09319">
        <ele>22</ele>
        <time>2015-12-01T12:39:16.000Z</time>
      </trkpt>
      <trkpt lat="47.58765" lon="-3.09325">
        <ele>21.60000038147</ele>
        <time>2015-12-01T12:39:20.000Z</time>
      </trkpt>
      <trkpt lat="47.5877" lon="-3.09326">
        <ele>21.200000762939</ele>
        <time>2015-12-01T12:39:21.000Z</time>
      </trkpt>
      <trkpt lat="47.58774" lon="-3.09328">
        <ele>20.39999961853</ele>
        <time>2015-12-01T12:39:22.000Z</time>
      </trkpt>
      <trkpt lat="47.58777" lon="-3.09331">
        <ele>20</ele>
        <time>2015-12-01T12:39:23.000Z</time>
      </trkpt>
      <trkpt lat="47.58798" lon="-3.09353">
        <ele>20</ele>
        <time>2015-12-01T12:39:29.000Z</time>
      </trkpt>
      <trkpt lat="47.58822" lon="-3.09371">
        <ele>19.60000038147</ele>
        <time>2015-12-01T12:39:34.000Z</time>
      </trkpt>
      <trkpt lat="47.58826" lon="-3.09376">
        <ele>19.200000762939</ele>
        <time>2015-12-01T12:39:35.000Z</time>
      </trkpt>
      <trkpt lat="47.5883" lon="-3.09381">
        <ele>18.799999237061</ele>
        <time>2015-12-01T12:39:36.000Z</time>
      </trkpt>
      <trkpt lat="47.58835" lon="-3.09386">
        <ele>18.39999961853</ele>
        <time>2015-12-01T12:39:37.000Z</time>
      </trkpt>
      <trkpt lat="47.58839" lon="-3.0939">
        <ele>18</ele>
        <time>2015-12-01T12:39:38.000Z</time>
      </trkpt>
      <trkpt lat="47.58847" lon="-3.09397">
        <ele>18</ele>
        <time>2015-12-01T12:39:40.000Z</time>
      </trkpt>
      <trkpt lat="47.5887" lon="-3.09417">
        <ele>18</ele>
        <time>2015-12-01T12:39:46.000Z</time>
      </trkpt>
      <trkpt lat="47.58888" lon="-3.09423">
        <ele>18.39999961853</ele>
        <time>2015-12-01T12:39:51.000Z</time>
      </trkpt>
      <trkpt lat="47.58892" lon="-3.09425">
        <ele>18.799999237061</ele>
        <time>2015-12-01T12:39:52.000Z</time>
      </trkpt>
      <trkpt lat="47.58896" lon="-3.09427">
        <ele>19.200000762939</ele>
        <time>2015-12-01T12:39:53.000Z</time>
      </trkpt>
      <trkpt lat="47.589" lon="-3.09429">
        <ele>19.799999237061</ele>
        <time>2015-12-01T12:39:54.000Z</time>
      </trkpt>
      <trkpt lat="47.58904" lon="-3.09433">
        <ele>20.200000762939</ele>
        <time>2015-12-01T12:39:55.000Z</time>
      </trkpt>
      <trkpt lat="47.58911" lon="-3.09439">
        <ele>20.200000762939</ele>
        <time>2015-12-01T12:39:57.000Z</time>
      </trkpt>
      <trkpt lat="47.58937" lon="-3.0946">
        <ele>20.200000762939</ele>
        <time>2015-12-01T12:40:04.000Z</time>
      </trkpt>
      <trkpt lat="47.58964" lon="-3.09479">
        <ele>20.200000762939</ele>
        <time>2015-12-01T12:40:11.000Z</time>
      </trkpt>
      <trkpt lat="47.58967" lon="-3.09484">
        <ele>20.200000762939</ele>
        <time>2015-12-01T12:40:12.000Z</time>
      </trkpt>
      <trkpt lat="47.58981" lon="-3.095">
        <ele>20.200000762939</ele>
        <time>2015-12-01T12:40:16.000Z</time>
      </trkpt>
      <trkpt lat="47.58991" lon="-3.09512">
        <ele>20.200000762939</ele>
        <time>2015-12-01T12:40:19.000Z</time>
      </trkpt>
      <trkpt lat="47.58997" lon="-3.09518">
        <ele>20.200000762939</ele>
        <time>2015-12-01T12:40:21.000Z</time>
      </trkpt>
      <trkpt lat="47.59013" lon="-3.0953">
        <ele>20.200000762939</ele>
        <time>2015-12-01T12:40:25.000Z</time>
      </trkpt>
      <trkpt lat="47.59048" lon="-3.09547">
        <ele>20.200000762939</ele>
        <time>2015-12-01T12:40:34.000Z</time>
      </trkpt>
      <trkpt lat="47.59058" lon="-3.09548">
        <ele>20.200000762939</ele>
        <time>2015-12-01T12:40:38.000Z</time>
      </trkpt>
      <trkpt lat="47.59071" lon="-3.09553">
        <ele>20.200000762939</ele>
        <time>2015-12-01T12:40:41.000Z</time>
      </trkpt>
      <trkpt lat="47.59076" lon="-3.09555">
        <ele>20.200000762939</ele>
        <time>2015-12-01T12:40:42.000Z</time>
      </trkpt>
      <trkpt lat="47.59105" lon="-3.09559">
        <ele>20.200000762939</ele>
        <time>2015-12-01T12:40:48.000Z</time>
      </trkpt>
      <trkpt lat="47.59139" lon="-3.09558">
        <ele>20.200000762939</ele>
        <time>2015-12-01T12:40:55.000Z</time>
      </trkpt>
      <trkpt lat="47.59154" lon="-3.0956">
        <ele>19.799999237061</ele>
        <time>2015-12-01T12:40:58.000Z</time>
      </trkpt>
      <trkpt lat="47.59159" lon="-3.09562">
        <ele>19.200000762939</ele>
        <time>2015-12-01T12:40:59.000Z</time>
      </trkpt>
      <trkpt lat="47.59163" lon="-3.09563">
        <ele>18.799999237061</ele>
        <time>2015-12-01T12:41:00.000Z</time>
      </trkpt>
      <trkpt lat="47.59168" lon="-3.09564">
        <ele>18</ele>
        <time>2015-12-01T12:41:01.000Z</time>
      </trkpt>
      <trkpt lat="47.59195" lon="-3.09573">
        <ele>18</ele>
        <time>2015-12-01T12:41:07.000Z</time>
      </trkpt>
      <trkpt lat="47.59217" lon="-3.09583">
        <ele>18</ele>
        <time>2015-12-01T12:41:12.000Z</time>
      </trkpt>
      <trkpt lat="47.5923" lon="-3.0959">
        <ele>18</ele>
        <time>2015-12-01T12:41:15.000Z</time>
      </trkpt>
      <trkpt lat="47.59257" lon="-3.09607">
        <ele>18</ele>
        <time>2015-12-01T12:41:22.000Z</time>
      </trkpt>
      <trkpt lat="47.59284" lon="-3.09623">
        <ele>18</ele>
        <time>2015-12-01T12:41:29.000Z</time>
      </trkpt>
      <trkpt lat="47.59292" lon="-3.09636">
        <ele>18.39999961853</ele>
        <time>2015-12-01T12:41:32.000Z</time>
      </trkpt>
      <trkpt lat="47.59295" lon="-3.09641">
        <ele>18.799999237061</ele>
        <time>2015-12-01T12:41:33.000Z</time>
      </trkpt>
      <trkpt lat="47.59298" lon="-3.09645">
        <ele>19.200000762939</ele>
        <time>2015-12-01T12:41:34.000Z</time>
      </trkpt>
      <trkpt lat="47.59301" lon="-3.09648">
        <ele>19.799999237061</ele>
        <time>2015-12-01T12:41:35.000Z</time>
      </trkpt>
      <trkpt lat="47.59305" lon="-3.09652">
        <ele>20.200000762939</ele>
        <time>2015-12-01T12:41:36.000Z</time>
      </trkpt>
      <trkpt lat="47.59312" lon="-3.09658">
        <ele>20.200000762939</ele>
        <time>2015-12-01T12:41:38.000Z</time>
      </trkpt>
      <trkpt lat="47.59315" lon="-3.0966">
        <ele>20.200000762939</ele>
        <time>2015-12-01T12:41:39.000Z</time>
      </trkpt>
      <trkpt lat="47.5934" lon="-3.09676">
        <ele>20.200000762939</ele>
        <time>2015-12-01T12:41:46.000Z</time>
      </trkpt>
      <trkpt lat="47.59372" lon="-3.0969">
        <ele>20.200000762939</ele>
        <time>2015-12-01T12:41:54.000Z</time>
      </trkpt>
      <trkpt lat="47.59407" lon="-3.09701">
        <ele>20.200000762939</ele>
        <time>2015-12-01T12:42:02.000Z</time>
      </trkpt>
      <trkpt lat="47.5944" lon="-3.09713">
        <ele>20.200000762939</ele>
        <time>2015-12-01T12:42:10.000Z</time>
      </trkpt>
      <trkpt lat="47.59444" lon="-3.09716">
        <ele>20.200000762939</ele>
        <time>2015-12-01T12:42:11.000Z</time>
      </trkpt>
      <trkpt lat="47.59451" lon="-3.09723">
        <ele>20.200000762939</ele>
        <time>2015-12-01T12:42:13.000Z</time>
      </trkpt>
      <trkpt lat="47.59456" lon="-3.09734">
        <ele>20.200000762939</ele>
        <time>2015-12-01T12:42:15.000Z</time>
      </trkpt>
      <trkpt lat="47.59462" lon="-3.09757">
        <ele>20.200000762939</ele>
        <time>2015-12-01T12:42:19.000Z</time>
      </trkpt>
      <trkpt lat="47.59466" lon="-3.09769">
        <ele>20.200000762939</ele>
        <time>2015-12-01T12:42:21.000Z</time>
      </trkpt>
      <trkpt lat="47.59482" lon="-3.09828">
        <ele>20.200000762939</ele>
        <time>2015-12-01T12:42:31.000Z</time>
      </trkpt>
      <trkpt lat="47.59499" lon="-3.09871">
        <ele>20.200000762939</ele>
        <time>2015-12-01T12:42:39.000Z</time>
      </trkpt>
      <trkpt lat="47.59514" lon="-3.09908">
        <ele>20.200000762939</ele>
        <time>2015-12-01T12:42:46.000Z</time>
      </trkpt>
      <trkpt lat="47.5953" lon="-3.09949">
        <ele>20.200000762939</ele>
        <time>2015-12-01T12:42:53.000Z</time>
      </trkpt>
      <trkpt lat="47.59543" lon="-3.09967">
        <ele>20.200000762939</ele>
        <time>2015-12-01T12:42:57.000Z</time>
      </trkpt>
      <trkpt lat="47.59547" lon="-3.09971">
        <ele>20.200000762939</ele>
        <time>2015-12-01T12:42:58.000Z</time>
      </trkpt>
      <trkpt lat="47.59556" lon="-3.09987">
        <ele>20.200000762939</ele>
        <time>2015-12-01T12:43:01.000Z</time>
      </trkpt>
      <trkpt lat="47.59559" lon="-3.1">
        <ele>20.200000762939</ele>
        <time>2015-12-01T12:43:03.000Z</time>
      </trkpt>
      <trkpt lat="47.59559" lon="-3.10022">
        <ele>20.200000762939</ele>
        <time>2015-12-01T12:43:06.000Z</time>
      </trkpt>
      <trkpt lat="47.59558" lon="-3.10029">
        <ele>20.200000762939</ele>
        <time>2015-12-01T12:43:07.000Z</time>
      </trkpt>
      <trkpt lat="47.59549" lon="-3.10084">
        <ele>20.200000762939</ele>
        <time>2015-12-01T12:43:15.000Z</time>
      </trkpt>
      <trkpt lat="47.59545" lon="-3.10112">
        <ele>20.200000762939</ele>
        <time>2015-12-01T12:43:19.000Z</time>
      </trkpt>
      <trkpt lat="47.59544" lon="-3.10127">
        <ele>20.200000762939</ele>
        <time>2015-12-01T12:43:21.000Z</time>
      </trkpt>
      <trkpt lat="47.59545" lon="-3.10134">
        <ele>20.200000762939</ele>
        <time>2015-12-01T12:43:22.000Z</time>
      </trkpt>
      <trkpt lat="47.59546" lon="-3.10141">
        <ele>20.200000762939</ele>
        <time>2015-12-01T12:43:23.000Z</time>
      </trkpt>
      <trkpt lat="47.59551" lon="-3.1016">
        <ele>20.200000762939</ele>
        <time>2015-12-01T12:43:26.000Z</time>
      </trkpt>
      <trkpt lat="47.59566" lon="-3.10183">
        <ele>20.200000762939</ele>
        <time>2015-12-01T12:43:31.000Z</time>
      </trkpt>
      <trkpt lat="47.59595" lon="-3.10212">
        <ele>20.200000762939</ele>
        <time>2015-12-01T12:43:40.000Z</time>
      </trkpt>
      <trkpt lat="47.59614" lon="-3.10223">
        <ele>20.200000762939</ele>
        <time>2015-12-01T12:43:46.000Z</time>
      </trkpt>
      <trkpt lat="47.59628" lon="-3.1023">
        <ele>20.200000762939</ele>
        <time>2015-12-01T12:43:51.000Z</time>
      </trkpt>
      <trkpt lat="47.59631" lon="-3.10237">
        <ele>20.200000762939</ele>
        <time>2015-12-01T12:43:53.000Z</time>
      </trkpt>
      <trkpt lat="47.59631" lon="-3.10242">
        <ele>20.200000762939</ele>
        <time>2015-12-01T12:43:54.000Z</time>
      </trkpt>
      <trkpt lat="47.59628" lon="-3.10254">
        <ele>20.200000762939</ele>
        <time>2015-12-01T12:43:57.000Z</time>
      </trkpt>
      <trkpt lat="47.59628" lon="-3.10262">
        <ele>20.200000762939</ele>
        <time>2015-12-01T12:43:59.000Z</time>
      </trkpt>
      <trkpt lat="47.59631" lon="-3.1027">
        <ele>20.200000762939</ele>
        <time>2015-12-01T12:44:01.000Z</time>
      </trkpt>
      <trkpt lat="47.59634" lon="-3.10279">
        <ele>20.200000762939</ele>
        <time>2015-12-01T12:44:03.000Z</time>
      </trkpt>
      <trkpt lat="47.59641" lon="-3.103">
        <ele>20.200000762939</ele>
        <time>2015-12-01T12:44:07.000Z</time>
      </trkpt>
      <trkpt lat="47.59657" lon="-3.10338">
        <ele>20.200000762939</ele>
        <time>2015-12-01T12:44:15.000Z</time>
      </trkpt>
      <trkpt lat="47.59669" lon="-3.10363">
        <ele>20.200000762939</ele>
        <time>2015-12-01T12:44:21.000Z</time>
      </trkpt>
      <trkpt lat="47.59672" lon="-3.10366">
        <ele>20.60000038147</ele>
        <time>2015-12-01T12:44:22.000Z</time>
      </trkpt>
      <trkpt lat="47.59674" lon="-3.10369">
        <ele>21</ele>
        <time>2015-12-01T12:44:23.000Z</time>
      </trkpt>
      <trkpt lat="47.59677" lon="-3.10373">
        <ele>21.39999961853</ele>
        <time>2015-12-01T12:44:24.000Z</time>
      </trkpt>
      <trkpt lat="47.59679" lon="-3.10376">
        <ele>21.799999237061</ele>
        <time>2015-12-01T12:44:25.000Z</time>
      </trkpt>
      <trkpt lat="47.59682" lon="-3.10379">
        <ele>22.200000762939</ele>
        <time>2015-12-01T12:44:26.000Z</time>
      </trkpt>
      <trkpt lat="47.59688" lon="-3.10385">
        <ele>22.200000762939</ele>
        <time>2015-12-01T12:44:28.000Z</time>
      </trkpt>
      <trkpt lat="47.59701" lon="-3.10393">
        <ele>22.60000038147</ele>
        <time>2015-12-01T12:44:32.000Z</time>
      </trkpt>
      <trkpt lat="47.59704" lon="-3.10394">
        <ele>23</ele>
        <time>2015-12-01T12:44:33.000Z</time>
      </trkpt>
      <trkpt lat="47.59707" lon="-3.10396">
        <ele>23.39999961853</ele>
        <time>2015-12-01T12:44:34.000Z</time>
      </trkpt>
      <trkpt lat="47.59711" lon="-3.10398">
        <ele>23.799999237061</ele>
        <time>2015-12-01T12:44:35.000Z</time>
      </trkpt>
      <trkpt lat="47.59714" lon="-3.104">
        <ele>24.200000762939</ele>
        <time>2015-12-01T12:44:36.000Z</time>
      </trkpt>
      <trkpt lat="47.59731" lon="-3.1041">
        <ele>24.200000762939</ele>
        <time>2015-12-01T12:44:42.000Z</time>
      </trkpt>
      <trkpt lat="47.59737" lon="-3.10428">
        <ele>24.200000762939</ele>
        <time>2015-12-01T12:44:46.000Z</time>
      </trkpt>
      <trkpt lat="47.59739" lon="-3.10434">
        <ele>24.200000762939</ele>
        <time>2015-12-01T12:44:47.000Z</time>
      </trkpt>
      <trkpt lat="47.59739" lon="-3.10452">
        <ele>24.200000762939</ele>
        <time>2015-12-01T12:44:50.000Z</time>
      </trkpt>
      <trkpt lat="47.59738" lon="-3.10458">
        <ele>24.200000762939</ele>
        <time>2015-12-01T12:44:51.000Z</time>
      </trkpt>
      <trkpt lat="47.59735" lon="-3.10499">
        <ele>24.200000762939</ele>
        <time>2015-12-01T12:44:58.000Z</time>
      </trkpt>
      <trkpt lat="47.59736" lon="-3.10545">
        <ele>24.200000762939</ele>
        <time>2015-12-01T12:45:06.000Z</time>
      </trkpt>
      <trkpt lat="47.59742" lon="-3.10585">
        <ele>24.200000762939</ele>
        <time>2015-12-01T12:45:13.000Z</time>
      </trkpt>
      <trkpt lat="47.59748" lon="-3.10628">
        <ele>24.200000762939</ele>
        <time>2015-12-01T12:45:21.000Z</time>
      </trkpt>
      <trkpt lat="47.59754" lon="-3.10656">
        <ele>24.200000762939</ele>
        <time>2015-12-01T12:45:27.000Z</time>
      </trkpt>
      <trkpt lat="47.59762" lon="-3.10656">
        <ele>24.200000762939</ele>
        <time>2015-12-01T12:45:30.000Z</time>
      </trkpt>
      <trkpt lat="47.59765" lon="-3.10654">
        <ele>24.200000762939</ele>
        <time>2015-12-01T12:45:31.000Z</time>
      </trkpt>
      <trkpt lat="47.59782" lon="-3.10648">
        <ele>24.200000762939</ele>
        <time>2015-12-01T12:45:36.000Z</time>
      </trkpt>
      <trkpt lat="47.59803" lon="-3.10651">
        <ele>24.200000762939</ele>
        <time>2015-12-01T12:45:42.000Z</time>
      </trkpt>
      <trkpt lat="47.59823" lon="-3.10653">
        <ele>24.200000762939</ele>
        <time>2015-12-01T12:45:48.000Z</time>
      </trkpt>
      <trkpt lat="47.59845" lon="-3.10652">
        <ele>24.200000762939</ele>
        <time>2015-12-01T12:45:54.000Z</time>
      </trkpt>
      <trkpt lat="47.59861" lon="-3.10646">
        <ele>24.200000762939</ele>
        <time>2015-12-01T12:45:59.000Z</time>
      </trkpt>
      <trkpt lat="47.59867" lon="-3.10623">
        <ele>24.200000762939</ele>
        <time>2015-12-01T12:46:03.000Z</time>
      </trkpt>
      <trkpt lat="47.59876" lon="-3.1058">
        <ele>24.200000762939</ele>
        <time>2015-12-01T12:46:11.000Z</time>
      </trkpt>
      <trkpt lat="47.59884" lon="-3.10554">
        <ele>24.200000762939</ele>
        <time>2015-12-01T12:46:17.000Z</time>
      </trkpt>
      <trkpt lat="47.59887" lon="-3.10553">
        <ele>24.200000762939</ele>
        <time>2015-12-01T12:46:18.000Z</time>
      </trkpt>
      <trkpt lat="47.59894" lon="-3.10554">
        <ele>23.799999237061</ele>
        <time>2015-12-01T12:46:20.000Z</time>
      </trkpt>
      <trkpt lat="47.59898" lon="-3.10554">
        <ele>23.39999961853</ele>
        <time>2015-12-01T12:46:21.000Z</time>
      </trkpt>
      <trkpt lat="47.59902" lon="-3.10555">
        <ele>22.60000038147</ele>
        <time>2015-12-01T12:46:22.000Z</time>
      </trkpt>
      <trkpt lat="47.59906" lon="-3.10555">
        <ele>22.200000762939</ele>
        <time>2015-12-01T12:46:23.000Z</time>
      </trkpt>
      <trkpt lat="47.59916" lon="-3.10555">
        <ele>22.200000762939</ele>
        <time>2015-12-01T12:46:26.000Z</time>
      </trkpt>
      <trkpt lat="47.59943" lon="-3.10554">
        <ele>22.200000762939</ele>
        <time>2015-12-01T12:46:33.000Z</time>
      </trkpt>
      <trkpt lat="47.59969" lon="-3.10546">
        <ele>22.200000762939</ele>
        <time>2015-12-01T12:46:40.000Z</time>
      </trkpt>
      <trkpt lat="47.59985" lon="-3.10532">
        <ele>22.200000762939</ele>
        <time>2015-12-01T12:46:45.000Z</time>
      </trkpt>
      <trkpt lat="47.60001" lon="-3.10519">
        <ele>22.200000762939</ele>
        <time>2015-12-01T12:46:50.000Z</time>
      </trkpt>
      <trkpt lat="47.60018" lon="-3.10515">
        <ele>22.200000762939</ele>
        <time>2015-12-01T12:46:55.000Z</time>
      </trkpt>
      <trkpt lat="47.60048" lon="-3.10521">
        <ele>22.200000762939</ele>
        <time>2015-12-01T12:47:01.000Z</time>
      </trkpt>
      <trkpt lat="47.60075" lon="-3.10531">
        <ele>22.200000762939</ele>
        <time>2015-12-01T12:47:08.000Z</time>
      </trkpt>
      <trkpt lat="47.601" lon="-3.10538">
        <ele>22.200000762939</ele>
        <time>2015-12-01T12:47:14.000Z</time>
      </trkpt>
      <trkpt lat="47.60116" lon="-3.1055">
        <ele>22.200000762939</ele>
        <time>2015-12-01T12:47:19.000Z</time>
      </trkpt>
      <trkpt lat="47.60123" lon="-3.10566">
        <ele>22.200000762939</ele>
        <time>2015-12-01T12:47:22.000Z</time>
      </trkpt>
      <trkpt lat="47.60126" lon="-3.10577">
        <ele>22.200000762939</ele>
        <time>2015-12-01T12:47:24.000Z</time>
      </trkpt>
      <trkpt lat="47.6014" lon="-3.10626">
        <ele>22.200000762939</ele>
        <time>2015-12-01T12:47:32.000Z</time>
      </trkpt>
      <trkpt lat="47.60156" lon="-3.10658">
        <ele>22.200000762939</ele>
        <time>2015-12-01T12:47:38.000Z</time>
      </trkpt>
      <trkpt lat="47.6017" lon="-3.1067">
        <ele>22.200000762939</ele>
        <time>2015-12-01T12:47:42.000Z</time>
      </trkpt>
      <trkpt lat="47.60174" lon="-3.10672">
        <ele>22.200000762939</ele>
        <time>2015-12-01T12:47:43.000Z</time>
      </trkpt>
      <trkpt lat="47.6019" lon="-3.10676">
        <ele>22.200000762939</ele>
        <time>2015-12-01T12:47:48.000Z</time>
      </trkpt>
      <trkpt lat="47.60194" lon="-3.10679">
        <ele>22.200000762939</ele>
        <time>2015-12-01T12:47:53.000Z</time>
      </trkpt>
      <trkpt lat="47.60195" lon="-3.10682">
        <ele>22.200000762939</ele>
        <time>2015-12-01T12:47:57.000Z</time>
      </trkpt>
      <trkpt lat="47.60196" lon="-3.10689">
        <ele>22.200000762939</ele>
        <time>2015-12-01T12:47:59.000Z</time>
      </trkpt>
      <trkpt lat="47.60196" lon="-3.10694">
        <ele>22.200000762939</ele>
        <time>2015-12-01T12:48:01.000Z</time>
      </trkpt>
      <trkpt lat="47.60197" lon="-3.10697">
        <ele>22.200000762939</ele>
        <time>2015-12-01T12:48:04.000Z</time>
      </trkpt>
      <trkpt lat="47.60196" lon="-3.10701">
        <ele>22.200000762939</ele>
        <time>2015-12-01T12:48:11.000Z</time>
      </trkpt>
      <trkpt lat="47.60197" lon="-3.1071">
        <ele>22.200000762939</ele>
        <time>2015-12-01T12:48:15.000Z</time>
      </trkpt>
      <trkpt lat="47.60198" lon="-3.10713">
        <ele>22.200000762939</ele>
        <time>2015-12-01T12:48:16.000Z</time>
      </trkpt>
      <trkpt lat="47.60209" lon="-3.10733">
        <ele>22.200000762939</ele>
        <time>2015-12-01T12:48:23.000Z</time>
      </trkpt>
      <trkpt lat="47.60218" lon="-3.10767">
        <ele>22.200000762939</ele>
        <time>2015-12-01T12:48:31.000Z</time>
      </trkpt>
      <trkpt lat="47.60224" lon="-3.10806">
        <ele>22.200000762939</ele>
        <time>2015-12-01T12:48:38.000Z</time>
      </trkpt>
      <trkpt lat="47.60233" lon="-3.10849">
        <ele>22.200000762939</ele>
        <time>2015-12-01T12:48:46.000Z</time>
      </trkpt>
      <trkpt lat="47.60237" lon="-3.10859">
        <ele>22.200000762939</ele>
        <time>2015-12-01T12:48:49.000Z</time>
      </trkpt>
      <trkpt lat="47.60242" lon="-3.10857">
        <ele>22.200000762939</ele>
        <time>2015-12-01T12:48:51.000Z</time>
      </trkpt>
      <trkpt lat="47.60254" lon="-3.1084">
        <ele>22.200000762939</ele>
        <time>2015-12-01T12:48:55.000Z</time>
      </trkpt>
      <trkpt lat="47.6026" lon="-3.10832">
        <ele>22.200000762939</ele>
        <time>2015-12-01T12:48:57.000Z</time>
      </trkpt>
      <trkpt lat="47.60285" lon="-3.10812">
        <ele>22.200000762939</ele>
        <time>2015-12-01T12:49:04.000Z</time>
      </trkpt>
      <trkpt lat="47.60311" lon="-3.10789">
        <ele>22.200000762939</ele>
        <time>2015-12-01T12:49:11.000Z</time>
      </trkpt>
      <trkpt lat="47.60329" lon="-3.10767">
        <ele>22.200000762939</ele>
        <time>2015-12-01T12:49:17.000Z</time>
      </trkpt>
      <trkpt lat="47.60358" lon="-3.10734">
        <ele>22.200000762939</ele>
        <time>2015-12-01T12:49:26.000Z</time>
      </trkpt>
      <trkpt lat="47.60383" lon="-3.10704">
        <ele>22.200000762939</ele>
        <time>2015-12-01T12:49:34.000Z</time>
      </trkpt>
      <trkpt lat="47.60404" lon="-3.10677">
        <ele>22.200000762939</ele>
        <time>2015-12-01T12:49:41.000Z</time>
      </trkpt>
      <trkpt lat="47.6041" lon="-3.1067">
        <ele>21.799999237061</ele>
        <time>2015-12-01T12:49:43.000Z</time>
      </trkpt>
      <trkpt lat="47.60413" lon="-3.10666">
        <ele>21.39999961853</ele>
        <time>2015-12-01T12:49:44.000Z</time>
      </trkpt>
      <trkpt lat="47.60416" lon="-3.10662">
        <ele>21</ele>
        <time>2015-12-01T12:49:45.000Z</time>
      </trkpt>
      <trkpt lat="47.60419" lon="-3.10658">
        <ele>20.60000038147</ele>
        <time>2015-12-01T12:49:46.000Z</time>
      </trkpt>
      <trkpt lat="47.60422" lon="-3.10653">
        <ele>20.200000762939</ele>
        <time>2015-12-01T12:49:47.000Z</time>
      </trkpt>
      <trkpt lat="47.60425" lon="-3.10649">
        <ele>20.200000762939</ele>
        <time>2015-12-01T12:49:48.000Z</time>
      </trkpt>
      <trkpt lat="47.60446" lon="-3.1062">
        <ele>20.200000762939</ele>
        <time>2015-12-01T12:49:55.000Z</time>
      </trkpt>
      <trkpt lat="47.60457" lon="-3.10597">
        <ele>20.200000762939</ele>
        <time>2015-12-01T12:50:00.000Z</time>
      </trkpt>
      <trkpt lat="47.60462" lon="-3.10587">
        <ele>20.200000762939</ele>
        <time>2015-12-01T12:50:02.000Z</time>
      </trkpt>
      <trkpt lat="47.60469" lon="-3.1058">
        <ele>20.200000762939</ele>
        <time>2015-12-01T12:50:04.000Z</time>
      </trkpt>
      <trkpt lat="47.60477" lon="-3.10575">
        <ele>20.200000762939</ele>
        <time>2015-12-01T12:50:06.000Z</time>
      </trkpt>
      <trkpt lat="47.60494" lon="-3.10564">
        <ele>20.200000762939</ele>
        <time>2015-12-01T12:50:11.000Z</time>
      </trkpt>
      <trkpt lat="47.60512" lon="-3.10559">
        <ele>20.200000762939</ele>
        <time>2015-12-01T12:50:16.000Z</time>
      </trkpt>
      <trkpt lat="47.60539" lon="-3.10552">
        <ele>20.200000762939</ele>
        <time>2015-12-01T12:50:24.000Z</time>
      </trkpt>
      <trkpt lat="47.60561" lon="-3.10547">
        <ele>20.200000762939</ele>
        <time>2015-12-01T12:50:30.000Z</time>
      </trkpt>
      <trkpt lat="47.60584" lon="-3.10545">
        <ele>20.200000762939</ele>
        <time>2015-12-01T12:50:37.000Z</time>
      </trkpt>
      <trkpt lat="47.60607" lon="-3.10541">
        <ele>20.200000762939</ele>
        <time>2015-12-01T12:50:45.000Z</time>
      </trkpt>
      <trkpt lat="47.60631" lon="-3.10535">
        <ele>20.200000762939</ele>
        <time>2015-12-01T12:50:53.000Z</time>
      </trkpt>
      <trkpt lat="47.60655" lon="-3.10534">
        <ele>20.200000762939</ele>
        <time>2015-12-01T12:51:01.000Z</time>
      </trkpt>
      <trkpt lat="47.60667" lon="-3.1053">
        <ele>20.200000762939</ele>
        <time>2015-12-01T12:51:07.000Z</time>
      </trkpt>
      <trkpt lat="47.60674" lon="-3.10531">
        <ele>20.200000762939</ele>
        <time>2015-12-01T12:51:13.000Z</time>
      </trkpt>
      <trkpt lat="47.60674" lon="-3.10532">
        <ele>20.200000762939</ele>
        <time>2015-12-01T12:51:14.000Z</time>
      </trkpt>
      <trkpt lat="47.60683" lon="-3.10531">
        <ele>20.200000762939</ele>
        <time>2015-12-01T12:51:57.000Z</time>
      </trkpt>
      <trkpt lat="47.60686" lon="-3.10529">
        <ele>20.200000762939</ele>
        <time>2015-12-01T12:51:59.000Z</time>
      </trkpt>
      <trkpt lat="47.60693" lon="-3.10526">
        <ele>20.200000762939</ele>
        <time>2015-12-01T12:52:02.000Z</time>
      </trkpt>
      <trkpt lat="47.60699" lon="-3.10524">
        <ele>20.200000762939</ele>
        <time>2015-12-01T12:52:04.000Z</time>
      </trkpt>
      <trkpt lat="47.60723" lon="-3.10523">
        <ele>20.200000762939</ele>
        <time>2015-12-01T12:52:11.000Z</time>
      </trkpt>
      <trkpt lat="47.60744" lon="-3.10522">
        <ele>20.200000762939</ele>
        <time>2015-12-01T12:52:17.000Z</time>
      </trkpt>
      <trkpt lat="47.60766" lon="-3.10521">
        <ele>20.200000762939</ele>
        <time>2015-12-01T12:52:24.000Z</time>
      </trkpt>
      <trkpt lat="47.60788" lon="-3.10512">
        <ele>20.200000762939</ele>
        <time>2015-12-01T12:52:31.000Z</time>
      </trkpt>
      <trkpt lat="47.60805" lon="-3.10509">
        <ele>20.200000762939</ele>
        <time>2015-12-01T12:52:36.000Z</time>
      </trkpt>
      <trkpt lat="47.60823" lon="-3.1051">
        <ele>20.200000762939</ele>
        <time>2015-12-01T12:52:41.000Z</time>
      </trkpt>
      <trkpt lat="47.60838" lon="-3.10504">
        <ele>20.200000762939</ele>
        <time>2015-12-01T12:52:46.000Z</time>
      </trkpt>
      <trkpt lat="47.60847" lon="-3.10492">
        <ele>20.200000762939</ele>
        <time>2015-12-01T12:52:50.000Z</time>
      </trkpt>
      <trkpt lat="47.60862" lon="-3.1047">
        <ele>20.200000762939</ele>
        <time>2015-12-01T12:52:57.000Z</time>
      </trkpt>
      <trkpt lat="47.60877" lon="-3.10451">
        <ele>19.799999237061</ele>
        <time>2015-12-01T12:53:03.000Z</time>
      </trkpt>
      <trkpt lat="47.60879" lon="-3.10448">
        <ele>19.39999961853</ele>
        <time>2015-12-01T12:53:04.000Z</time>
      </trkpt>
      <trkpt lat="47.60882" lon="-3.10445">
        <ele>19</ele>
        <time>2015-12-01T12:53:05.000Z</time>
      </trkpt>
      <trkpt lat="47.60885" lon="-3.10442">
        <ele>18.60000038147</ele>
        <time>2015-12-01T12:53:06.000Z</time>
      </trkpt>
      <trkpt lat="47.60887" lon="-3.10438">
        <ele>18.200000762939</ele>
        <time>2015-12-01T12:53:07.000Z</time>
      </trkpt>
      <trkpt lat="47.60895" lon="-3.10427">
        <ele>18.200000762939</ele>
        <time>2015-12-01T12:53:10.000Z</time>
      </trkpt>
      <trkpt lat="47.60907" lon="-3.1041">
        <ele>18.200000762939</ele>
        <time>2015-12-01T12:53:15.000Z</time>
      </trkpt>
      <trkpt lat="47.60923" lon="-3.10405">
        <ele>18.200000762939</ele>
        <time>2015-12-01T12:53:20.000Z</time>
      </trkpt>
      <trkpt lat="47.60941" lon="-3.10407">
        <ele>18.200000762939</ele>
        <time>2015-12-01T12:53:26.000Z</time>
      </trkpt>
      <trkpt lat="47.60961" lon="-3.10417">
        <ele>18.200000762939</ele>
        <time>2015-12-01T12:53:32.000Z</time>
      </trkpt>
      <trkpt lat="47.6098" lon="-3.10429">
        <ele>18.200000762939</ele>
        <time>2015-12-01T12:53:38.000Z</time>
      </trkpt>
      <trkpt lat="47.60999" lon="-3.10442">
        <ele>18.200000762939</ele>
        <time>2015-12-01T12:53:44.000Z</time>
      </trkpt>
      <trkpt lat="47.61018" lon="-3.10451">
        <ele>18.200000762939</ele>
        <time>2015-12-01T12:53:51.000Z</time>
      </trkpt>
      <trkpt lat="47.61036" lon="-3.10455">
        <ele>18.200000762939</ele>
        <time>2015-12-01T12:53:56.000Z</time>
      </trkpt>
      <trkpt lat="47.6105" lon="-3.10462">
        <ele>18.200000762939</ele>
        <time>2015-12-01T12:54:01.000Z</time>
      </trkpt>
      <trkpt lat="47.61064" lon="-3.10473">
        <ele>18.200000762939</ele>
        <time>2015-12-01T12:54:07.000Z</time>
      </trkpt>
      <trkpt lat="47.61077" lon="-3.1048">
        <ele>18.200000762939</ele>
        <time>2015-12-01T12:54:12.000Z</time>
      </trkpt>
      <trkpt lat="47.61086" lon="-3.10492">
        <ele>18.200000762939</ele>
        <time>2015-12-01T12:54:17.000Z</time>
      </trkpt>
      <trkpt lat="47.61082" lon="-3.10505">
        <ele>18.200000762939</ele>
        <time>2015-12-01T12:54:21.000Z</time>
      </trkpt>
      <trkpt lat="47.61081" lon="-3.10509">
        <ele>18.60000038147</ele>
        <time>2015-12-01T12:54:22.000Z</time>
      </trkpt>
      <trkpt lat="47.6108" lon="-3.10513">
        <ele>19</ele>
        <time>2015-12-01T12:54:23.000Z</time>
      </trkpt>
      <trkpt lat="47.61079" lon="-3.10517">
        <ele>19.39999961853</ele>
        <time>2015-12-01T12:54:24.000Z</time>
      </trkpt>
      <trkpt lat="47.61078" lon="-3.10521">
        <ele>19.799999237061</ele>
        <time>2015-12-01T12:54:25.000Z</time>
      </trkpt>
      <trkpt lat="47.61077" lon="-3.10525">
        <ele>20.200000762939</ele>
        <time>2015-12-01T12:54:26.000Z</time>
      </trkpt>
      <trkpt lat="47.61076" lon="-3.10532">
        <ele>20.200000762939</ele>
        <time>2015-12-01T12:54:28.000Z</time>
      </trkpt>
      <trkpt lat="47.61073" lon="-3.10556">
        <ele>20.200000762939</ele>
        <time>2015-12-01T12:54:34.000Z</time>
      </trkpt>
      <trkpt lat="47.61069" lon="-3.10587">
        <ele>20.200000762939</ele>
        <time>2015-12-01T12:54:41.000Z</time>
      </trkpt>
      <trkpt lat="47.61066" lon="-3.10613">
        <ele>20.200000762939</ele>
        <time>2015-12-01T12:54:47.000Z</time>
      </trkpt>
      <trkpt lat="47.61063" lon="-3.10615">
        <ele>20.200000762939</ele>
        <time>2015-12-01T12:54:48.000Z</time>
      </trkpt>
      <trkpt lat="47.61055" lon="-3.10619">
        <ele>20.200000762939</ele>
        <time>2015-12-01T12:54:51.000Z</time>
      </trkpt>
      <trkpt lat="47.61046" lon="-3.10624">
        <ele>20.200000762939</ele>
        <time>2015-12-01T12:54:55.000Z</time>
      </trkpt>
      <trkpt lat="47.6104" lon="-3.10626">
        <ele>20.200000762939</ele>
        <time>2015-12-01T12:54:57.000Z</time>
      </trkpt>
      <trkpt lat="47.61022" lon="-3.10635">
        <ele>20.200000762939</ele>
        <time>2015-12-01T12:55:04.000Z</time>
      </trkpt>
      <trkpt lat="47.61001" lon="-3.10643">
        <ele>20.200000762939</ele>
        <time>2015-12-01T12:55:12.000Z</time>
      </trkpt>
      <trkpt lat="47.60984" lon="-3.10649">
        <ele>20.200000762939</ele>
        <time>2015-12-01T12:55:19.000Z</time>
      </trkpt>
      <trkpt lat="47.60968" lon="-3.10653">
        <ele>20.200000762939</ele>
        <time>2015-12-01T12:55:25.000Z</time>
      </trkpt>
      <trkpt lat="47.60951" lon="-3.10664">
        <ele>20.200000762939</ele>
        <time>2015-12-01T12:55:32.000Z</time>
      </trkpt>
      <trkpt lat="47.60937" lon="-3.10671">
        <ele>20.200000762939</ele>
        <time>2015-12-01T12:55:38.000Z</time>
      </trkpt>
      <trkpt lat="47.6092" lon="-3.10678">
        <ele>20.200000762939</ele>
        <time>2015-12-01T12:55:45.000Z</time>
      </trkpt>
      <trkpt lat="47.60911" lon="-3.10679">
        <ele>20.200000762939</ele>
        <time>2015-12-01T12:55:50.000Z</time>
      </trkpt>
      <trkpt lat="47.60909" lon="-3.1068">
        <ele>20.200000762939</ele>
        <time>2015-12-01T12:55:51.000Z</time>
      </trkpt>
      <trkpt lat="47.60907" lon="-3.10684">
        <ele>20.200000762939</ele>
        <time>2015-12-01T12:55:53.000Z</time>
      </trkpt>
      <trkpt lat="47.60906" lon="-3.10689">
        <ele>20.200000762939</ele>
        <time>2015-12-01T12:55:55.000Z</time>
      </trkpt>
      <trkpt lat="47.60901" lon="-3.1071">
        <ele>20.200000762939</ele>
        <time>2015-12-01T12:56:01.000Z</time>
      </trkpt>
      <trkpt lat="47.60895" lon="-3.10739">
        <ele>20.200000762939</ele>
        <time>2015-12-01T12:56:09.000Z</time>
      </trkpt>
      <trkpt lat="47.60889" lon="-3.10766">
        <ele>20.200000762939</ele>
        <time>2015-12-01T12:56:16.000Z</time>
      </trkpt>
      <trkpt lat="47.60884" lon="-3.10789">
        <ele>20.200000762939</ele>
        <time>2015-12-01T12:56:23.000Z</time>
      </trkpt>
      <trkpt lat="47.60878" lon="-3.10821">
        <ele>20.200000762939</ele>
        <time>2015-12-01T12:56:32.000Z</time>
      </trkpt>
      <trkpt lat="47.60873" lon="-3.10847">
        <ele>20.60000038147</ele>
        <time>2015-12-01T12:56:39.000Z</time>
      </trkpt>
      <trkpt lat="47.60873" lon="-3.1085">
        <ele>21.39999961853</ele>
        <time>2015-12-01T12:56:40.000Z</time>
      </trkpt>
      <trkpt lat="47.60872" lon="-3.10853">
        <ele>21.799999237061</ele>
        <time>2015-12-01T12:56:41.000Z</time>
      </trkpt>
      <trkpt lat="47.60871" lon="-3.10856">
        <ele>22.200000762939</ele>
        <time>2015-12-01T12:56:42.000Z</time>
      </trkpt>
      <trkpt lat="47.60871" lon="-3.10869">
        <ele>22.200000762939</ele>
        <time>2015-12-01T12:56:46.000Z</time>
      </trkpt>
      <trkpt lat="47.60878" lon="-3.10874">
        <ele>22.200000762939</ele>
        <time>2015-12-01T12:56:49.000Z</time>
      </trkpt>
      <trkpt lat="47.60881" lon="-3.10875">
        <ele>22.200000762939</ele>
        <time>2015-12-01T12:56:50.000Z</time>
      </trkpt>
      <trkpt lat="47.6089" lon="-3.10884">
        <ele>22.200000762939</ele>
        <time>2015-12-01T12:56:54.000Z</time>
      </trkpt>
      <trkpt lat="47.60897" lon="-3.10907">
        <ele>22.200000762939</ele>
        <time>2015-12-01T12:56:59.000Z</time>
      </trkpt>
      <trkpt lat="47.60899" lon="-3.10946">
        <ele>22.200000762939</ele>
        <time>2015-12-01T12:57:07.000Z</time>
      </trkpt>
      <trkpt lat="47.60903" lon="-3.10957">
        <ele>22.200000762939</ele>
        <time>2015-12-01T12:57:10.000Z</time>
      </trkpt>
      <trkpt lat="47.60905" lon="-3.10959">
        <ele>22.200000762939</ele>
        <time>2015-12-01T12:57:11.000Z</time>
      </trkpt>
      <trkpt lat="47.60916" lon="-3.10958">
        <ele>22.200000762939</ele>
        <time>2015-12-01T12:57:15.000Z</time>
      </trkpt>
      <trkpt lat="47.60939" lon="-3.10958">
        <ele>22.200000762939</ele>
        <time>2015-12-01T12:57:23.000Z</time>
      </trkpt>
      <trkpt lat="47.60963" lon="-3.10958">
        <ele>22.200000762939</ele>
        <time>2015-12-01T12:57:31.000Z</time>
      </trkpt>
      <trkpt lat="47.60981" lon="-3.10963">
        <ele>22.200000762939</ele>
        <time>2015-12-01T12:57:36.000Z</time>
      </trkpt>
      <trkpt lat="47.6099" lon="-3.10973">
        <ele>22.200000762939</ele>
        <time>2015-12-01T12:57:40.000Z</time>
      </trkpt>
      <trkpt lat="47.60993" lon="-3.10973">
        <ele>22.200000762939</ele>
        <time>2015-12-01T12:57:41.000Z</time>
      </trkpt>
      <trkpt lat="47.61" lon="-3.10967">
        <ele>22.200000762939</ele>
        <time>2015-12-01T12:57:44.000Z</time>
      </trkpt>
      <trkpt lat="47.61008" lon="-3.10955">
        <ele>22.200000762939</ele>
        <time>2015-12-01T12:57:48.000Z</time>
      </trkpt>
      <trkpt lat="47.61011" lon="-3.10952">
        <ele>22.200000762939</ele>
        <time>2015-12-01T12:57:49.000Z</time>
      </trkpt>
      <trkpt lat="47.6102" lon="-3.10935">
        <ele>22.200000762939</ele>
        <time>2015-12-01T12:57:54.000Z</time>
      </trkpt>
      <trkpt lat="47.61033" lon="-3.10913">
        <ele>22.200000762939</ele>
        <time>2015-12-01T12:58:00.000Z</time>
      </trkpt>
      <trkpt lat="47.61052" lon="-3.10888">
        <ele>22.200000762939</ele>
        <time>2015-12-01T12:58:08.000Z</time>
      </trkpt>
      <trkpt lat="47.61058" lon="-3.10878">
        <ele>21.799999237061</ele>
        <time>2015-12-01T12:58:11.000Z</time>
      </trkpt>
      <trkpt lat="47.61061" lon="-3.10875">
        <ele>21.39999961853</ele>
        <time>2015-12-01T12:58:12.000Z</time>
      </trkpt>
      <trkpt lat="47.61063" lon="-3.10872">
        <ele>21</ele>
        <time>2015-12-01T12:58:13.000Z</time>
      </trkpt>
      <trkpt lat="47.61066" lon="-3.10868">
        <ele>20.60000038147</ele>
        <time>2015-12-01T12:58:14.000Z</time>
      </trkpt>
      <trkpt lat="47.61069" lon="-3.10864">
        <ele>20.200000762939</ele>
        <time>2015-12-01T12:58:15.000Z</time>
      </trkpt>
      <trkpt lat="47.61088" lon="-3.10837">
        <ele>20.200000762939</ele>
        <time>2015-12-01T12:58:23.000Z</time>
      </trkpt>
      <trkpt lat="47.61102" lon="-3.10816">
        <ele>20.200000762939</ele>
        <time>2015-12-01T12:58:30.000Z</time>
      </trkpt>
      <trkpt lat="47.61116" lon="-3.10801">
        <ele>20.200000762939</ele>
        <time>2015-12-01T12:58:36.000Z</time>
      </trkpt>
      <trkpt lat="47.61132" lon="-3.10776">
        <ele>20.200000762939</ele>
        <time>2015-12-01T12:58:44.000Z</time>
      </trkpt>
      <trkpt lat="47.61147" lon="-3.10753">
        <ele>20.200000762939</ele>
        <time>2015-12-01T12:58:51.000Z</time>
      </trkpt>
      <trkpt lat="47.61159" lon="-3.10732">
        <ele>20.200000762939</ele>
        <time>2015-12-01T12:58:57.000Z</time>
      </trkpt>
      <trkpt lat="47.61174" lon="-3.10712">
        <ele>20.200000762939</ele>
        <time>2015-12-01T12:59:04.000Z</time>
      </trkpt>
      <trkpt lat="47.61194" lon="-3.10686">
        <ele>20.200000762939</ele>
        <time>2015-12-01T12:59:10.000Z</time>
      </trkpt>
      <trkpt lat="47.61207" lon="-3.10666">
        <ele>20.200000762939</ele>
        <time>2015-12-01T12:59:15.000Z</time>
      </trkpt>
      <trkpt lat="47.61218" lon="-3.10646">
        <ele>20.200000762939</ele>
        <time>2015-12-01T12:59:21.000Z</time>
      </trkpt>
      <trkpt lat="47.61235" lon="-3.10621">
        <ele>20.200000762939</ele>
        <time>2015-12-01T12:59:28.000Z</time>
      </trkpt>
      <trkpt lat="47.61249" lon="-3.10603">
        <ele>20.200000762939</ele>
        <time>2015-12-01T12:59:34.000Z</time>
      </trkpt>
      <trkpt lat="47.61261" lon="-3.10591">
        <ele>20.200000762939</ele>
        <time>2015-12-01T12:59:39.000Z</time>
      </trkpt>
      <trkpt lat="47.61273" lon="-3.10576">
        <ele>20.200000762939</ele>
        <time>2015-12-01T12:59:45.000Z</time>
      </trkpt>
      <trkpt lat="47.61276" lon="-3.10576">
        <ele>20.200000762939</ele>
        <time>2015-12-01T12:59:46.000Z</time>
      </trkpt>
      <trkpt lat="47.61282" lon="-3.10578">
        <ele>20.200000762939</ele>
        <time>2015-12-01T12:59:48.000Z</time>
      </trkpt>
      <trkpt lat="47.61296" lon="-3.10583">
        <ele>19.799999237061</ele>
        <time>2015-12-01T12:59:52.000Z</time>
      </trkpt>
      <trkpt lat="47.613" lon="-3.10585">
        <ele>19.39999961853</ele>
        <time>2015-12-01T12:59:53.000Z</time>
      </trkpt>
      <trkpt lat="47.61303" lon="-3.10586">
        <ele>19</ele>
        <time>2015-12-01T12:59:54.000Z</time>
      </trkpt>
      <trkpt lat="47.61306" lon="-3.10587">
        <ele>18.60000038147</ele>
        <time>2015-12-01T12:59:55.000Z</time>
      </trkpt>
      <trkpt lat="47.61309" lon="-3.10588">
        <ele>18.200000762939</ele>
        <time>2015-12-01T12:59:56.000Z</time>
      </trkpt>
      <trkpt lat="47.61325" lon="-3.10595">
        <ele>18.200000762939</ele>
        <time>2015-12-01T13:00:01.000Z</time>
      </trkpt>
      <trkpt lat="47.61343" lon="-3.10597">
        <ele>18.200000762939</ele>
        <time>2015-12-01T13:00:07.000Z</time>
      </trkpt>
      <trkpt lat="47.61359" lon="-3.10598">
        <ele>18.200000762939</ele>
        <time>2015-12-01T13:00:13.000Z</time>
      </trkpt>
      <trkpt lat="47.61374" lon="-3.10605">
        <ele>18.200000762939</ele>
        <time>2015-12-01T13:00:19.000Z</time>
      </trkpt>
      <trkpt lat="47.61387" lon="-3.10614">
        <ele>18.200000762939</ele>
        <time>2015-12-01T13:00:24.000Z</time>
      </trkpt>
      <trkpt lat="47.61402" lon="-3.10624">
        <ele>18.200000762939</ele>
        <time>2015-12-01T13:00:29.000Z</time>
      </trkpt>
      <trkpt lat="47.61409" lon="-3.10629">
        <ele>18.200000762939</ele>
        <time>2015-12-01T13:00:33.000Z</time>
      </trkpt>
      <trkpt lat="47.61412" lon="-3.1063">
        <ele>18.200000762939</ele>
        <time>2015-12-01T13:00:34.000Z</time>
      </trkpt>
      <trkpt lat="47.61421" lon="-3.10638">
        <ele>18.200000762939</ele>
        <time>2015-12-01T13:00:37.000Z</time>
      </trkpt>
      <trkpt lat="47.61438" lon="-3.10647">
        <ele>18.200000762939</ele>
        <time>2015-12-01T13:00:42.000Z</time>
      </trkpt>
      <trkpt lat="47.61456" lon="-3.10645">
        <ele>18.200000762939</ele>
        <time>2015-12-01T13:00:49.000Z</time>
      </trkpt>
      <trkpt lat="47.61472" lon="-3.10641">
        <ele>18.200000762939</ele>
        <time>2015-12-01T13:00:56.000Z</time>
      </trkpt>
      <trkpt lat="47.61484" lon="-3.10637">
        <ele>18.200000762939</ele>
        <time>2015-12-01T13:01:02.000Z</time>
      </trkpt>
      <trkpt lat="47.61488" lon="-3.10636">
        <ele>18.200000762939</ele>
        <time>2015-12-01T13:01:05.000Z</time>
      </trkpt>
      <trkpt lat="47.61492" lon="-3.10634">
        <ele>18.200000762939</ele>
        <time>2015-12-01T13:01:07.000Z</time>
      </trkpt>
      <trkpt lat="47.61503" lon="-3.1063">
        <ele>18.200000762939</ele>
        <time>2015-12-01T13:01:12.000Z</time>
      </trkpt>
      <trkpt lat="47.61506" lon="-3.1063">
        <ele>18.200000762939</ele>
        <time>2015-12-01T13:01:13.000Z</time>
      </trkpt>
      <trkpt lat="47.61528" lon="-3.10628">
        <ele>18.200000762939</ele>
        <time>2015-12-01T13:01:19.000Z</time>
      </trkpt>
      <trkpt lat="47.61537" lon="-3.1063">
        <ele>18.200000762939</ele>
        <time>2015-12-01T13:01:23.000Z</time>
      </trkpt>
      <trkpt lat="47.61546" lon="-3.10635">
        <ele>18.200000762939</ele>
        <time>2015-12-01T13:01:29.000Z</time>
      </trkpt>
      <trkpt lat="47.6155" lon="-3.10642">
        <ele>18.200000762939</ele>
        <time>2015-12-01T13:01:32.000Z</time>
      </trkpt>
      <trkpt lat="47.61555" lon="-3.10648">
        <ele>18.200000762939</ele>
        <time>2015-12-01T13:01:34.000Z</time>
      </trkpt>
      <trkpt lat="47.61563" lon="-3.10664">
        <ele>18.200000762939</ele>
        <time>2015-12-01T13:01:39.000Z</time>
      </trkpt>
      <trkpt lat="47.61571" lon="-3.10686">
        <ele>18.200000762939</ele>
        <time>2015-12-01T13:01:45.000Z</time>
      </trkpt>
      <trkpt lat="47.61573" lon="-3.10687">
        <ele>18.200000762939</ele>
        <time>2015-12-01T13:01:46.000Z</time>
      </trkpt>
      <trkpt lat="47.61577" lon="-3.10686">
        <ele>18.200000762939</ele>
        <time>2015-12-01T13:01:48.000Z</time>
      </trkpt>
      <trkpt lat="47.61589" lon="-3.1068">
        <ele>18.200000762939</ele>
        <time>2015-12-01T13:01:52.000Z</time>
      </trkpt>
      <trkpt lat="47.61606" lon="-3.1067">
        <ele>18.200000762939</ele>
        <time>2015-12-01T13:01:58.000Z</time>
      </trkpt>
      <trkpt lat="47.61619" lon="-3.10661">
        <ele>18.200000762939</ele>
        <time>2015-12-01T13:02:03.000Z</time>
      </trkpt>
      <trkpt lat="47.61632" lon="-3.10651">
        <ele>18.200000762939</ele>
        <time>2015-12-01T13:02:08.000Z</time>
      </trkpt>
      <trkpt lat="47.61648" lon="-3.10633">
        <ele>18.200000762939</ele>
        <time>2015-12-01T13:02:14.000Z</time>
      </trkpt>
      <trkpt lat="47.6166" lon="-3.1061">
        <ele>18.200000762939</ele>
        <time>2015-12-01T13:02:20.000Z</time>
      </trkpt>
      <trkpt lat="47.61669" lon="-3.10606">
        <ele>18.200000762939</ele>
        <time>2015-12-01T13:02:23.000Z</time>
      </trkpt>
      <trkpt lat="47.61672" lon="-3.10606">
        <ele>18.200000762939</ele>
        <time>2015-12-01T13:02:24.000Z</time>
      </trkpt>
      <trkpt lat="47.61685" lon="-3.10602">
        <ele>18.200000762939</ele>
        <time>2015-12-01T13:02:29.000Z</time>
      </trkpt>
      <trkpt lat="47.61704" lon="-3.10599">
        <ele>18.200000762939</ele>
        <time>2015-12-01T13:02:36.000Z</time>
      </trkpt>
      <trkpt lat="47.61723" lon="-3.10596">
        <ele>18.200000762939</ele>
        <time>2015-12-01T13:02:42.000Z</time>
      </trkpt>
      <trkpt lat="47.61739" lon="-3.10593">
        <ele>18.200000762939</ele>
        <time>2015-12-01T13:02:48.000Z</time>
      </trkpt>
      <trkpt lat="47.61754" lon="-3.10587">
        <ele>18.200000762939</ele>
        <time>2015-12-01T13:02:53.000Z</time>
      </trkpt>
      <trkpt lat="47.61772" lon="-3.1058">
        <ele>18.200000762939</ele>
        <time>2015-12-01T13:02:59.000Z</time>
      </trkpt>
      <trkpt lat="47.6178" lon="-3.10577">
        <ele>18.200000762939</ele>
        <time>2015-12-01T13:03:04.000Z</time>
      </trkpt>
      <trkpt lat="47.61791" lon="-3.10572">
        <ele>18.200000762939</ele>
        <time>2015-12-01T13:03:10.000Z</time>
      </trkpt>
      <trkpt lat="47.61807" lon="-3.10562">
        <ele>18.200000762939</ele>
        <time>2015-12-01T13:03:15.000Z</time>
      </trkpt>
      <trkpt lat="47.6183" lon="-3.10558">
        <ele>18.200000762939</ele>
        <time>2015-12-01T13:03:21.000Z</time>
      </trkpt>
      <trkpt lat="47.61848" lon="-3.10558">
        <ele>18.200000762939</ele>
        <time>2015-12-01T13:03:27.000Z</time>
      </trkpt>
      <trkpt lat="47.61865" lon="-3.10552">
        <ele>18.200000762939</ele>
        <time>2015-12-01T13:03:33.000Z</time>
      </trkpt>
      <trkpt lat="47.61884" lon="-3.10544">
        <ele>18.200000762939</ele>
        <time>2015-12-01T13:03:39.000Z</time>
      </trkpt>
      <trkpt lat="47.61907" lon="-3.10539">
        <ele>18.200000762939</ele>
        <time>2015-12-01T13:03:47.000Z</time>
      </trkpt>
      <trkpt lat="47.61925" lon="-3.10534">
        <ele>18.200000762939</ele>
        <time>2015-12-01T13:03:53.000Z</time>
      </trkpt>
      <trkpt lat="47.61946" lon="-3.10529">
        <ele>18.200000762939</ele>
        <time>2015-12-01T13:03:59.000Z</time>
      </trkpt>
      <trkpt lat="47.61966" lon="-3.10526">
        <ele>18.200000762939</ele>
        <time>2015-12-01T13:04:05.000Z</time>
      </trkpt>
      <trkpt lat="47.61981" lon="-3.10526">
        <ele>18.200000762939</ele>
        <time>2015-12-01T13:04:11.000Z</time>
      </trkpt>
      <trkpt lat="47.62001" lon="-3.10524">
        <ele>18.200000762939</ele>
        <time>2015-12-01T13:04:17.000Z</time>
      </trkpt>
      <trkpt lat="47.62018" lon="-3.1052">
        <ele>18.200000762939</ele>
        <time>2015-12-01T13:04:23.000Z</time>
      </trkpt>
      <trkpt lat="47.62031" lon="-3.10517">
        <ele>18.200000762939</ele>
        <time>2015-12-01T13:04:29.000Z</time>
      </trkpt>
      <trkpt lat="47.62032" lon="-3.10518">
        <ele>18.200000762939</ele>
        <time>2015-12-01T13:04:30.000Z</time>
      </trkpt>
      <trkpt lat="47.62034" lon="-3.1053">
        <ele>18.200000762939</ele>
        <time>2015-12-01T13:04:33.000Z</time>
      </trkpt>
      <trkpt lat="47.62033" lon="-3.10546">
        <ele>18.200000762939</ele>
        <time>2015-12-01T13:04:36.000Z</time>
      </trkpt>
      <trkpt lat="47.62031" lon="-3.10563">
        <ele>18.200000762939</ele>
        <time>2015-12-01T13:04:39.000Z</time>
      </trkpt>
      <trkpt lat="47.6203" lon="-3.10588">
        <ele>18.200000762939</ele>
        <time>2015-12-01T13:04:43.000Z</time>
      </trkpt>
      <trkpt lat="47.62029" lon="-3.10601">
        <ele>18.200000762939</ele>
        <time>2015-12-01T13:04:45.000Z</time>
      </trkpt>
      <trkpt lat="47.62024" lon="-3.10645">
        <ele>18.200000762939</ele>
        <time>2015-12-01T13:04:52.000Z</time>
      </trkpt>
      <trkpt lat="47.62023" lon="-3.10651">
        <ele>18.200000762939</ele>
        <time>2015-12-01T13:04:53.000Z</time>
      </trkpt>
      <trkpt lat="47.62018" lon="-3.10712">
        <ele>18.200000762939</ele>
        <time>2015-12-01T13:05:03.000Z</time>
      </trkpt>
      <trkpt lat="47.62017" lon="-3.10719">
        <ele>18.200000762939</ele>
        <time>2015-12-01T13:05:04.000Z</time>
      </trkpt>
      <trkpt lat="47.62013" lon="-3.10762">
        <ele>18.200000762939</ele>
        <time>2015-12-01T13:05:11.000Z</time>
      </trkpt>
      <trkpt lat="47.62009" lon="-3.10788">
        <ele>18.200000762939</ele>
        <time>2015-12-01T13:05:15.000Z</time>
      </trkpt>
      <trkpt lat="47.62008" lon="-3.108">
        <ele>18.200000762939</ele>
        <time>2015-12-01T13:05:17.000Z</time>
      </trkpt>
      <trkpt lat="47.62007" lon="-3.10806">
        <ele>18.200000762939</ele>
        <time>2015-12-01T13:05:18.000Z</time>
      </trkpt>
      <trkpt lat="47.62004" lon="-3.10837">
        <ele>18.200000762939</ele>
        <time>2015-12-01T13:05:23.000Z</time>
      </trkpt>
      <trkpt lat="47.61998" lon="-3.10893">
        <ele>18.200000762939</ele>
        <time>2015-12-01T13:05:32.000Z</time>
      </trkpt>
      <trkpt lat="47.61994" lon="-3.10929">
        <ele>18.200000762939</ele>
        <time>2015-12-01T13:05:38.000Z</time>
      </trkpt>
      <trkpt lat="47.61994" lon="-3.10941">
        <ele>18.200000762939</ele>
        <time>2015-12-01T13:05:40.000Z</time>
      </trkpt>
      <trkpt lat="47.61995" lon="-3.10992">
        <ele>18.200000762939</ele>
        <time>2015-12-01T13:05:48.000Z</time>
      </trkpt>
      <trkpt lat="47.62003" lon="-3.11032">
        <ele>18.200000762939</ele>
        <time>2015-12-01T13:05:55.000Z</time>
      </trkpt>
      <trkpt lat="47.62013" lon="-3.11073">
        <ele>18.200000762939</ele>
        <time>2015-12-01T13:06:02.000Z</time>
      </trkpt>
      <trkpt lat="47.62014" lon="-3.11079">
        <ele>18.200000762939</ele>
        <time>2015-12-01T13:06:03.000Z</time>
      </trkpt>
      <trkpt lat="47.62021" lon="-3.11105">
        <ele>18.200000762939</ele>
        <time>2015-12-01T13:06:08.000Z</time>
      </trkpt>
      <trkpt lat="47.62034" lon="-3.11152">
        <ele>18.200000762939</ele>
        <time>2015-12-01T13:06:16.000Z</time>
      </trkpt>
      <trkpt lat="47.62043" lon="-3.11187">
        <ele>18.200000762939</ele>
        <time>2015-12-01T13:06:22.000Z</time>
      </trkpt>
      <trkpt lat="47.62055" lon="-3.11228">
        <ele>18.200000762939</ele>
        <time>2015-12-01T13:06:29.000Z</time>
      </trkpt>
      <trkpt lat="47.62064" lon="-3.11263">
        <ele>18.200000762939</ele>
        <time>2015-12-01T13:06:35.000Z</time>
      </trkpt>
      <trkpt lat="47.62076" lon="-3.11311">
        <ele>18.200000762939</ele>
        <time>2015-12-01T13:06:43.000Z</time>
      </trkpt>
      <trkpt lat="47.62089" lon="-3.11361">
        <ele>18.200000762939</ele>
        <time>2015-12-01T13:06:51.000Z</time>
      </trkpt>
      <trkpt lat="47.62104" lon="-3.11431">
        <ele>18.200000762939</ele>
        <time>2015-12-01T13:07:01.000Z</time>
      </trkpt>
      <trkpt lat="47.62114" lon="-3.11481">
        <ele>18.200000762939</ele>
        <time>2015-12-01T13:07:08.000Z</time>
      </trkpt>
      <trkpt lat="47.62118" lon="-3.1154">
        <ele>18.200000762939</ele>
        <time>2015-12-01T13:07:16.000Z</time>
      </trkpt>
      <trkpt lat="47.62112" lon="-3.11587">
        <ele>18.200000762939</ele>
        <time>2015-12-01T13:07:22.000Z</time>
      </trkpt>
      <trkpt lat="47.62108" lon="-3.116">
        <ele>18.200000762939</ele>
        <time>2015-12-01T13:07:24.000Z</time>
      </trkpt>
      <trkpt lat="47.62098" lon="-3.11619">
        <ele>18.200000762939</ele>
        <time>2015-12-01T13:07:27.000Z</time>
      </trkpt>
      <trkpt lat="47.62078" lon="-3.1165">
        <ele>18.200000762939</ele>
        <time>2015-12-01T13:07:34.000Z</time>
      </trkpt>
      <trkpt lat="47.62059" lon="-3.11682">
        <ele>18.200000762939</ele>
        <time>2015-12-01T13:07:41.000Z</time>
      </trkpt>
      <trkpt lat="47.62034" lon="-3.11723">
        <ele>18.200000762939</ele>
        <time>2015-12-01T13:07:50.000Z</time>
      </trkpt>
      <trkpt lat="47.62016" lon="-3.11753">
        <ele>18.200000762939</ele>
        <time>2015-12-01T13:07:57.000Z</time>
      </trkpt>
      <trkpt lat="47.62013" lon="-3.11757">
        <ele>18.60000038147</ele>
        <time>2015-12-01T13:07:58.000Z</time>
      </trkpt>
      <trkpt lat="47.62011" lon="-3.11761">
        <ele>19</ele>
        <time>2015-12-01T13:07:59.000Z</time>
      </trkpt>
      <trkpt lat="47.62009" lon="-3.11765">
        <ele>19.39999961853</ele>
        <time>2015-12-01T13:08:00.000Z</time>
      </trkpt>
      <trkpt lat="47.62006" lon="-3.11769">
        <ele>19.799999237061</ele>
        <time>2015-12-01T13:08:01.000Z</time>
      </trkpt>
      <trkpt lat="47.62004" lon="-3.11773">
        <ele>20.200000762939</ele>
        <time>2015-12-01T13:08:02.000Z</time>
      </trkpt>
      <trkpt lat="47.61999" lon="-3.11782">
        <ele>20.200000762939</ele>
        <time>2015-12-01T13:08:04.000Z</time>
      </trkpt>
      <trkpt lat="47.61978" lon="-3.11816">
        <ele>20.200000762939</ele>
        <time>2015-12-01T13:08:12.000Z</time>
      </trkpt>
      <trkpt lat="47.61954" lon="-3.1186">
        <ele>20.200000762939</ele>
        <time>2015-12-01T13:08:22.000Z</time>
      </trkpt>
      <trkpt lat="47.61943" lon="-3.11882">
        <ele>20.60000038147</ele>
        <time>2015-12-01T13:08:27.000Z</time>
      </trkpt>
      <trkpt lat="47.61941" lon="-3.11886">
        <ele>21</ele>
        <time>2015-12-01T13:08:28.000Z</time>
      </trkpt>
      <trkpt lat="47.61939" lon="-3.1189">
        <ele>21.60000038147</ele>
        <time>2015-12-01T13:08:29.000Z</time>
      </trkpt>
      <trkpt lat="47.61937" lon="-3.11895">
        <ele>22</ele>
        <time>2015-12-01T13:08:30.000Z</time>
      </trkpt>
      <trkpt lat="47.61935" lon="-3.11899">
        <ele>22.39999961853</ele>
        <time>2015-12-01T13:08:31.000Z</time>
      </trkpt>
      <trkpt lat="47.61916" lon="-3.11938">
        <ele>22.799999237061</ele>
        <time>2015-12-01T13:08:40.000Z</time>
      </trkpt>
      <trkpt lat="47.61914" lon="-3.11942">
        <ele>23.200000762939</ele>
        <time>2015-12-01T13:08:41.000Z</time>
      </trkpt>
      <trkpt lat="47.61912" lon="-3.11946">
        <ele>23.60000038147</ele>
        <time>2015-12-01T13:08:42.000Z</time>
      </trkpt>
      <trkpt lat="47.61909" lon="-3.11951">
        <ele>24</ele>
        <time>2015-12-01T13:08:43.000Z</time>
      </trkpt>
      <trkpt lat="47.61907" lon="-3.11955">
        <ele>24.39999961853</ele>
        <time>2015-12-01T13:08:44.000Z</time>
      </trkpt>
      <trkpt lat="47.61893" lon="-3.11982">
        <ele>24.39999961853</ele>
        <time>2015-12-01T13:08:50.000Z</time>
      </trkpt>
      <trkpt lat="47.61872" lon="-3.12016">
        <ele>24.39999961853</ele>
        <time>2015-12-01T13:08:58.000Z</time>
      </trkpt>
      <trkpt lat="47.61848" lon="-3.12056">
        <ele>24.39999961853</ele>
        <time>2015-12-01T13:09:07.000Z</time>
      </trkpt>
      <trkpt lat="47.61824" lon="-3.12096">
        <ele>24.39999961853</ele>
        <time>2015-12-01T13:09:16.000Z</time>
      </trkpt>
      <trkpt lat="47.61806" lon="-3.12129">
        <ele>24.39999961853</ele>
        <time>2015-12-01T13:09:23.000Z</time>
      </trkpt>
      <trkpt lat="47.61785" lon="-3.12163">
        <ele>24.39999961853</ele>
        <time>2015-12-01T13:09:30.000Z</time>
      </trkpt>
      <trkpt lat="47.61755" lon="-3.12213">
        <ele>24.39999961853</ele>
        <time>2015-12-01T13:09:40.000Z</time>
      </trkpt>
      <trkpt lat="47.61735" lon="-3.12246">
        <ele>24</ele>
        <time>2015-12-01T13:09:46.000Z</time>
      </trkpt>
      <trkpt lat="47.61732" lon="-3.12251">
        <ele>23.60000038147</ele>
        <time>2015-12-01T13:09:47.000Z</time>
      </trkpt>
      <trkpt lat="47.61729" lon="-3.12256">
        <ele>23.200000762939</ele>
        <time>2015-12-01T13:09:48.000Z</time>
      </trkpt>
      <trkpt lat="47.61726" lon="-3.12262">
        <ele>22.799999237061</ele>
        <time>2015-12-01T13:09:49.000Z</time>
      </trkpt>
      <trkpt lat="47.61723" lon="-3.12267">
        <ele>22.39999961853</ele>
        <time>2015-12-01T13:09:50.000Z</time>
      </trkpt>
      <trkpt lat="47.617" lon="-3.12304">
        <ele>22.39999961853</ele>
        <time>2015-12-01T13:09:57.000Z</time>
      </trkpt>
      <trkpt lat="47.6168" lon="-3.12338">
        <ele>22.39999961853</ele>
        <time>2015-12-01T13:10:04.000Z</time>
      </trkpt>
      <trkpt lat="47.61656" lon="-3.12376">
        <ele>22.39999961853</ele>
        <time>2015-12-01T13:10:13.000Z</time>
      </trkpt>
      <trkpt lat="47.61651" lon="-3.12385">
        <ele>22.39999961853</ele>
        <time>2015-12-01T13:10:16.000Z</time>
      </trkpt>
      <trkpt lat="47.61653" lon="-3.12388">
        <ele>22.39999961853</ele>
        <time>2015-12-01T13:10:17.000Z</time>
      </trkpt>
      <trkpt lat="47.61662" lon="-3.12403">
        <ele>22.39999961853</ele>
        <time>2015-12-01T13:10:22.000Z</time>
      </trkpt>
      <trkpt lat="47.61679" lon="-3.12408">
        <ele>22.39999961853</ele>
        <time>2015-12-01T13:10:27.000Z</time>
      </trkpt>
      <trkpt lat="47.61696" lon="-3.1241">
        <ele>22.39999961853</ele>
        <time>2015-12-01T13:10:32.000Z</time>
      </trkpt>
      <trkpt lat="47.61714" lon="-3.12411">
        <ele>22.39999961853</ele>
        <time>2015-12-01T13:10:37.000Z</time>
      </trkpt>
      <trkpt lat="47.61718" lon="-3.12411">
        <ele>22</ele>
        <time>2015-12-01T13:10:38.000Z</time>
      </trkpt>
      <trkpt lat="47.61721" lon="-3.12411">
        <ele>21.39999961853</ele>
        <time>2015-12-01T13:10:39.000Z</time>
      </trkpt>
      <trkpt lat="47.61724" lon="-3.12411">
        <ele>21</ele>
        <time>2015-12-01T13:10:40.000Z</time>
      </trkpt>
      <trkpt lat="47.61728" lon="-3.12411">
        <ele>20.60000038147</ele>
        <time>2015-12-01T13:10:41.000Z</time>
      </trkpt>
      <trkpt lat="47.61731" lon="-3.12409">
        <ele>20.200000762939</ele>
        <time>2015-12-01T13:10:42.000Z</time>
      </trkpt>
      <trkpt lat="47.61735" lon="-3.12407">
        <ele>20.200000762939</ele>
        <time>2015-12-01T13:10:43.000Z</time>
      </trkpt>
      <trkpt lat="47.6175" lon="-3.12392">
        <ele>20.200000762939</ele>
        <time>2015-12-01T13:10:48.000Z</time>
      </trkpt>
      <trkpt lat="47.61767" lon="-3.12383">
        <ele>20.200000762939</ele>
        <time>2015-12-01T13:10:53.000Z</time>
      </trkpt>
      <trkpt lat="47.61796" lon="-3.12379">
        <ele>20.200000762939</ele>
        <time>2015-12-01T13:11:01.000Z</time>
      </trkpt>
      <trkpt lat="47.61811" lon="-3.1238">
        <ele>20.200000762939</ele>
        <time>2015-12-01T13:11:06.000Z</time>
      </trkpt>
      <trkpt lat="47.61828" lon="-3.12385">
        <ele>20.200000762939</ele>
        <time>2015-12-01T13:11:11.000Z</time>
      </trkpt>
      <trkpt lat="47.61849" lon="-3.12393">
        <ele>20.200000762939</ele>
        <time>2015-12-01T13:11:18.000Z</time>
      </trkpt>
      <trkpt lat="47.61861" lon="-3.12401">
        <ele>20.200000762939</ele>
        <time>2015-12-01T13:11:23.000Z</time>
      </trkpt>
      <trkpt lat="47.61872" lon="-3.12412">
        <ele>20.200000762939</ele>
        <time>2015-12-01T13:11:30.000Z</time>
      </trkpt>
      <trkpt lat="47.61882" lon="-3.12423">
        <ele>20.200000762939</ele>
        <time>2015-12-01T13:11:35.000Z</time>
      </trkpt>
      <trkpt lat="47.61896" lon="-3.12436">
        <ele>20.200000762939</ele>
        <time>2015-12-01T13:11:41.000Z</time>
      </trkpt>
      <trkpt lat="47.61908" lon="-3.12452">
        <ele>20.200000762939</ele>
        <time>2015-12-01T13:11:47.000Z</time>
      </trkpt>
      <trkpt lat="47.6192" lon="-3.12458">
        <ele>20.200000762939</ele>
        <time>2015-12-01T13:11:52.000Z</time>
      </trkpt>
      <trkpt lat="47.61932" lon="-3.12457">
        <ele>20.200000762939</ele>
        <time>2015-12-01T13:11:57.000Z</time>
      </trkpt>
      <trkpt lat="47.6195" lon="-3.12461">
        <ele>20.200000762939</ele>
        <time>2015-12-01T13:12:03.000Z</time>
      </trkpt>
      <trkpt lat="47.61971" lon="-3.12469">
        <ele>20.200000762939</ele>
        <time>2015-12-01T13:12:11.000Z</time>
      </trkpt>
      <trkpt lat="47.61986" lon="-3.12465">
        <ele>20.200000762939</ele>
        <time>2015-12-01T13:12:17.000Z</time>
      </trkpt>
      <trkpt lat="47.62007" lon="-3.12457">
        <ele>20.200000762939</ele>
        <time>2015-12-01T13:12:24.000Z</time>
      </trkpt>
      <trkpt lat="47.62027" lon="-3.1245">
        <ele>20.200000762939</ele>
        <time>2015-12-01T13:12:31.000Z</time>
      </trkpt>
      <trkpt lat="47.62035" lon="-3.12449">
        <ele>20.200000762939</ele>
        <time>2015-12-01T13:12:35.000Z</time>
      </trkpt>
      <trkpt lat="47.62041" lon="-3.12451">
        <ele>20.200000762939</ele>
        <time>2015-12-01T13:12:37.000Z</time>
      </trkpt>
      <trkpt lat="47.62053" lon="-3.1246">
        <ele>20.200000762939</ele>
        <time>2015-12-01T13:12:42.000Z</time>
      </trkpt>
      <trkpt lat="47.62069" lon="-3.12469">
        <ele>20.200000762939</ele>
        <time>2015-12-01T13:12:48.000Z</time>
      </trkpt>
      <trkpt lat="47.62077" lon="-3.12473">
        <ele>20.200000762939</ele>
        <time>2015-12-01T13:12:53.000Z</time>
      </trkpt>
      <trkpt lat="47.6209" lon="-3.12482">
        <ele>20.200000762939</ele>
        <time>2015-12-01T13:12:58.000Z</time>
      </trkpt>
      <trkpt lat="47.62107" lon="-3.12488">
        <ele>20.200000762939</ele>
        <time>2015-12-01T13:13:04.000Z</time>
      </trkpt>
      <trkpt lat="47.62116" lon="-3.12494">
        <ele>20.200000762939</ele>
        <time>2015-12-01T13:13:08.000Z</time>
      </trkpt>
      <trkpt lat="47.62134" lon="-3.12497">
        <ele>20.200000762939</ele>
        <time>2015-12-01T13:13:15.000Z</time>
      </trkpt>
      <trkpt lat="47.62151" lon="-3.12498">
        <ele>20.200000762939</ele>
        <time>2015-12-01T13:13:21.000Z</time>
      </trkpt>
      <trkpt lat="47.62168" lon="-3.12495">
        <ele>20.200000762939</ele>
        <time>2015-12-01T13:13:27.000Z</time>
      </trkpt>
      <trkpt lat="47.62182" lon="-3.12494">
        <ele>20.200000762939</ele>
        <time>2015-12-01T13:13:32.000Z</time>
      </trkpt>
      <trkpt lat="47.62185" lon="-3.12494">
        <ele>20.60000038147</ele>
        <time>2015-12-01T13:13:33.000Z</time>
      </trkpt>
      <trkpt lat="47.62189" lon="-3.12495">
        <ele>21</ele>
        <time>2015-12-01T13:13:34.000Z</time>
      </trkpt>
      <trkpt lat="47.62192" lon="-3.12496">
        <ele>21.799999237061</ele>
        <time>2015-12-01T13:13:35.000Z</time>
      </trkpt>
      <trkpt lat="47.62195" lon="-3.12496">
        <ele>22.200000762939</ele>
        <time>2015-12-01T13:13:36.000Z</time>
      </trkpt>
      <trkpt lat="47.62204" lon="-3.12498">
        <ele>22.200000762939</ele>
        <time>2015-12-01T13:13:39.000Z</time>
      </trkpt>
      <trkpt lat="47.62224" lon="-3.12502">
        <ele>22.200000762939</ele>
        <time>2015-12-01T13:13:45.000Z</time>
      </trkpt>
      <trkpt lat="47.62237" lon="-3.12507">
        <ele>22.200000762939</ele>
        <time>2015-12-01T13:13:50.000Z</time>
      </trkpt>
      <trkpt lat="47.62244" lon="-3.12509">
        <ele>22.200000762939</ele>
        <time>2015-12-01T13:13:56.000Z</time>
      </trkpt>
      <trkpt lat="47.6225" lon="-3.1251">
        <ele>22.200000762939</ele>
        <time>2015-12-01T13:14:18.000Z</time>
      </trkpt>
      <trkpt lat="47.62252" lon="-3.1251">
        <ele>22.200000762939</ele>
        <time>2015-12-01T13:14:19.000Z</time>
      </trkpt>
      <trkpt lat="47.62257" lon="-3.1251">
        <ele>22.200000762939</ele>
        <time>2015-12-01T13:14:21.000Z</time>
      </trkpt>
      <trkpt lat="47.62275" lon="-3.12513">
        <ele>22.200000762939</ele>
        <time>2015-12-01T13:14:26.000Z</time>
      </trkpt>
      <trkpt lat="47.62295" lon="-3.1252">
        <ele>22.200000762939</ele>
        <time>2015-12-01T13:14:32.000Z</time>
      </trkpt>
      <trkpt lat="47.62308" lon="-3.12531">
        <ele>22.200000762939</ele>
        <time>2015-12-01T13:14:37.000Z</time>
      </trkpt>
      <trkpt lat="47.62309" lon="-3.12533">
        <ele>22.200000762939</ele>
        <time>2015-12-01T13:14:38.000Z</time>
      </trkpt>
      <trkpt lat="47.62319" lon="-3.1255">
        <ele>22.200000762939</ele>
        <time>2015-12-01T13:14:44.000Z</time>
      </trkpt>
      <trkpt lat="47.62335" lon="-3.12578">
        <ele>22.200000762939</ele>
        <time>2015-12-01T13:14:52.000Z</time>
      </trkpt>
      <trkpt lat="47.62351" lon="-3.12605">
        <ele>22.200000762939</ele>
        <time>2015-12-01T13:15:00.000Z</time>
      </trkpt>
      <trkpt lat="47.62356" lon="-3.1261">
        <ele>22.60000038147</ele>
        <time>2015-12-01T13:15:02.000Z</time>
      </trkpt>
      <trkpt lat="47.62358" lon="-3.12612">
        <ele>23</ele>
        <time>2015-12-01T13:15:03.000Z</time>
      </trkpt>
      <trkpt lat="47.62361" lon="-3.12614">
        <ele>23.39999961853</ele>
        <time>2015-12-01T13:15:04.000Z</time>
      </trkpt>
      <trkpt lat="47.62364" lon="-3.12616">
        <ele>23.799999237061</ele>
        <time>2015-12-01T13:15:05.000Z</time>
      </trkpt>
      <trkpt lat="47.62366" lon="-3.12617">
        <ele>24.200000762939</ele>
        <time>2015-12-01T13:15:06.000Z</time>
      </trkpt>
      <trkpt lat="47.62369" lon="-3.12618">
        <ele>24.200000762939</ele>
        <time>2015-12-01T13:15:07.000Z</time>
      </trkpt>
      <trkpt lat="47.62393" lon="-3.1263">
        <ele>24.200000762939</ele>
        <time>2015-12-01T13:15:15.000Z</time>
      </trkpt>
      <trkpt lat="47.62409" lon="-3.12641">
        <ele>24.200000762939</ele>
        <time>2015-12-01T13:15:21.000Z</time>
      </trkpt>
      <trkpt lat="47.62427" lon="-3.12649">
        <ele>24.200000762939</ele>
        <time>2015-12-01T13:15:27.000Z</time>
      </trkpt>
      <trkpt lat="47.62441" lon="-3.12659">
        <ele>24.200000762939</ele>
        <time>2015-12-01T13:15:32.000Z</time>
      </trkpt>
      <trkpt lat="47.62447" lon="-3.12668">
        <ele>24.200000762939</ele>
        <time>2015-12-01T13:15:36.000Z</time>
      </trkpt>
      <trkpt lat="47.62447" lon="-3.12668">
        <ele>24.200000762939</ele>
        <time>2015-12-01T13:15:37.000Z</time>
      </trkpt>
      <trkpt lat="47.62447" lon="-3.12668">
        <ele>24.200000762939</ele>
        <time>2015-12-01T13:16:09.000Z</time>
      </trkpt>
      <trkpt lat="47.62449" lon="-3.12672">
        <ele>24.200000762939</ele>
        <time>2015-12-01T13:16:11.000Z</time>
      </trkpt>
      <trkpt lat="47.62456" lon="-3.12685">
        <ele>24.200000762939</ele>
        <time>2015-12-01T13:16:15.000Z</time>
      </trkpt>
      <trkpt lat="47.62469" lon="-3.1269">
        <ele>24.200000762939</ele>
        <time>2015-12-01T13:16:19.000Z</time>
      </trkpt>
      <trkpt lat="47.62472" lon="-3.1269">
        <ele>24.200000762939</ele>
        <time>2015-12-01T13:16:20.000Z</time>
      </trkpt>
      <trkpt lat="47.62485" lon="-3.12683">
        <ele>24.200000762939</ele>
        <time>2015-12-01T13:16:24.000Z</time>
      </trkpt>
      <trkpt lat="47.62503" lon="-3.12663">
        <ele>24.200000762939</ele>
        <time>2015-12-01T13:16:30.000Z</time>
      </trkpt>
      <trkpt lat="47.62524" lon="-3.12634">
        <ele>24.200000762939</ele>
        <time>2015-12-01T13:16:36.000Z</time>
      </trkpt>
      <trkpt lat="47.62554" lon="-3.12588">
        <ele>24.200000762939</ele>
        <time>2015-12-01T13:16:44.000Z</time>
      </trkpt>
      <trkpt lat="47.62574" lon="-3.12558">
        <ele>23.799999237061</ele>
        <time>2015-12-01T13:16:49.000Z</time>
      </trkpt>
      <trkpt lat="47.62578" lon="-3.12552">
        <ele>23.39999961853</ele>
        <time>2015-12-01T13:16:50.000Z</time>
      </trkpt>
      <trkpt lat="47.62582" lon="-3.12545">
        <ele>23</ele>
        <time>2015-12-01T13:16:51.000Z</time>
      </trkpt>
      <trkpt lat="47.62586" lon="-3.12539">
        <ele>22.39999961853</ele>
        <time>2015-12-01T13:16:52.000Z</time>
      </trkpt>
      <trkpt lat="47.6259" lon="-3.12532">
        <ele>22</ele>
        <time>2015-12-01T13:16:53.000Z</time>
      </trkpt>
      <trkpt lat="47.62613" lon="-3.12487">
        <ele>22</ele>
        <time>2015-12-01T13:16:59.000Z</time>
      </trkpt>
      <trkpt lat="47.62621" lon="-3.12453">
        <ele>21.60000038147</ele>
        <time>2015-12-01T13:17:03.000Z</time>
      </trkpt>
      <trkpt lat="47.62623" lon="-3.12445">
        <ele>21.200000762939</ele>
        <time>2015-12-01T13:17:04.000Z</time>
      </trkpt>
      <trkpt lat="47.62625" lon="-3.12437">
        <ele>20.799999237061</ele>
        <time>2015-12-01T13:17:05.000Z</time>
      </trkpt>
      <trkpt lat="47.62627" lon="-3.12429">
        <ele>20.39999961853</ele>
        <time>2015-12-01T13:17:06.000Z</time>
      </trkpt>
      <trkpt lat="47.62628" lon="-3.12421">
        <ele>19.799999237061</ele>
        <time>2015-12-01T13:17:07.000Z</time>
      </trkpt>
      <trkpt lat="47.62638" lon="-3.12376">
        <ele>19.799999237061</ele>
        <time>2015-12-01T13:17:13.000Z</time>
      </trkpt>
      <trkpt lat="47.62648" lon="-3.12327">
        <ele>19.799999237061</ele>
        <time>2015-12-01T13:17:20.000Z</time>
      </trkpt>
      <trkpt lat="47.62665" lon="-3.12281">
        <ele>19.799999237061</ele>
        <time>2015-12-01T13:17:27.000Z</time>
      </trkpt>
      <trkpt lat="47.62694" lon="-3.12226">
        <ele>19.799999237061</ele>
        <time>2015-12-01T13:17:36.000Z</time>
      </trkpt>
      <trkpt lat="47.6272" lon="-3.12174">
        <ele>19.799999237061</ele>
        <time>2015-12-01T13:17:45.000Z</time>
      </trkpt>
      <trkpt lat="47.62746" lon="-3.12131">
        <ele>19.799999237061</ele>
        <time>2015-12-01T13:17:53.000Z</time>
      </trkpt>
      <trkpt lat="47.62775" lon="-3.12096">
        <ele>19.799999237061</ele>
        <time>2015-12-01T13:18:01.000Z</time>
      </trkpt>
      <trkpt lat="47.62784" lon="-3.12083">
        <ele>19.799999237061</ele>
        <time>2015-12-01T13:18:06.000Z</time>
      </trkpt>
      <trkpt lat="47.62786" lon="-3.12084">
        <ele>19.799999237061</ele>
        <time>2015-12-01T13:18:08.000Z</time>
      </trkpt>
      <trkpt lat="47.62788" lon="-3.12089">
        <ele>19.799999237061</ele>
        <time>2015-12-01T13:18:10.000Z</time>
      </trkpt>
      <trkpt lat="47.62797" lon="-3.12102">
        <ele>19.799999237061</ele>
        <time>2015-12-01T13:18:14.000Z</time>
      </trkpt>
      <trkpt lat="47.628" lon="-3.12106">
        <ele>19.799999237061</ele>
        <time>2015-12-01T13:18:15.000Z</time>
      </trkpt>
      <trkpt lat="47.6282" lon="-3.12126">
        <ele>19.799999237061</ele>
        <time>2015-12-01T13:18:22.000Z</time>
      </trkpt>
      <trkpt lat="47.62843" lon="-3.12139">
        <ele>19.799999237061</ele>
        <time>2015-12-01T13:18:29.000Z</time>
      </trkpt>
      <trkpt lat="47.62866" lon="-3.12143">
        <ele>19.799999237061</ele>
        <time>2015-12-01T13:18:35.000Z</time>
      </trkpt>
      <trkpt lat="47.62895" lon="-3.12134">
        <ele>19.799999237061</ele>
        <time>2015-12-01T13:18:42.000Z</time>
      </trkpt>
      <trkpt lat="47.62921" lon="-3.12132">
        <ele>19.799999237061</ele>
        <time>2015-12-01T13:18:48.000Z</time>
      </trkpt>
      <trkpt lat="47.62941" lon="-3.12132">
        <ele>19.799999237061</ele>
        <time>2015-12-01T13:18:53.000Z</time>
      </trkpt>
      <trkpt lat="47.62958" lon="-3.12134">
        <ele>19.799999237061</ele>
        <time>2015-12-01T13:18:57.000Z</time>
      </trkpt>
      <trkpt lat="47.62962" lon="-3.12136">
        <ele>19.799999237061</ele>
        <time>2015-12-01T13:18:58.000Z</time>
      </trkpt>
      <trkpt lat="47.62982" lon="-3.12145">
        <ele>19.799999237061</ele>
        <time>2015-12-01T13:19:02.000Z</time>
      </trkpt>
      <trkpt lat="47.62986" lon="-3.12147">
        <ele>19.799999237061</ele>
        <time>2015-12-01T13:19:03.000Z</time>
      </trkpt>
      <trkpt lat="47.63005" lon="-3.12154">
        <ele>19.799999237061</ele>
        <time>2015-12-01T13:19:07.000Z</time>
      </trkpt>
      <trkpt lat="47.63013" lon="-3.12155">
        <ele>19.799999237061</ele>
        <time>2015-12-01T13:19:09.000Z</time>
      </trkpt>
      <trkpt lat="47.63035" lon="-3.12153">
        <ele>19.799999237061</ele>
        <time>2015-12-01T13:19:14.000Z</time>
      </trkpt>
      <trkpt lat="47.6304" lon="-3.12154">
        <ele>19.799999237061</ele>
        <time>2015-12-01T13:19:15.000Z</time>
      </trkpt>
      <trkpt lat="47.63058" lon="-3.12158">
        <ele>19.799999237061</ele>
        <time>2015-12-01T13:19:19.000Z</time>
      </trkpt>
      <trkpt lat="47.63082" lon="-3.12168">
        <ele>19.799999237061</ele>
        <time>2015-12-01T13:19:24.000Z</time>
      </trkpt>
      <trkpt lat="47.631" lon="-3.12178">
        <ele>19.799999237061</ele>
        <time>2015-12-01T13:19:28.000Z</time>
      </trkpt>
      <trkpt lat="47.63104" lon="-3.12181">
        <ele>19.799999237061</ele>
        <time>2015-12-01T13:19:29.000Z</time>
      </trkpt>
      <trkpt lat="47.63108" lon="-3.12185">
        <ele>19.799999237061</ele>
        <time>2015-12-01T13:19:30.000Z</time>
      </trkpt>
      <trkpt lat="47.63125" lon="-3.12199">
        <ele>19.799999237061</ele>
        <time>2015-12-01T13:19:34.000Z</time>
      </trkpt>
      <trkpt lat="47.63147" lon="-3.12218">
        <ele>19.799999237061</ele>
        <time>2015-12-01T13:19:40.000Z</time>
      </trkpt>
      <trkpt lat="47.63175" lon="-3.12236">
        <ele>19.799999237061</ele>
        <time>2015-12-01T13:19:47.000Z</time>
      </trkpt>
      <trkpt lat="47.63193" lon="-3.12245">
        <ele>19.799999237061</ele>
        <time>2015-12-01T13:19:52.000Z</time>
      </trkpt>
      <trkpt lat="47.63224" lon="-3.12255">
        <ele>19.799999237061</ele>
        <time>2015-12-01T13:20:00.000Z</time>
      </trkpt>
      <trkpt lat="47.6325" lon="-3.12262">
        <ele>19.799999237061</ele>
        <time>2015-12-01T13:20:07.000Z</time>
      </trkpt>
      <trkpt lat="47.6326" lon="-3.1227">
        <ele>19.799999237061</ele>
        <time>2015-12-01T13:20:10.000Z</time>
      </trkpt>
      <trkpt lat="47.63262" lon="-3.12275">
        <ele>19.799999237061</ele>
        <time>2015-12-01T13:20:11.000Z</time>
      </trkpt>
      <trkpt lat="47.63258" lon="-3.123">
        <ele>19.799999237061</ele>
        <time>2015-12-01T13:20:15.000Z</time>
      </trkpt>
      <trkpt lat="47.63242" lon="-3.12346">
        <ele>19.799999237061</ele>
        <time>2015-12-01T13:20:23.000Z</time>
      </trkpt>
      <trkpt lat="47.63225" lon="-3.12394">
        <ele>19.799999237061</ele>
        <time>2015-12-01T13:20:31.000Z</time>
      </trkpt>
      <trkpt lat="47.63216" lon="-3.12429">
        <ele>19.799999237061</ele>
        <time>2015-12-01T13:20:37.000Z</time>
      </trkpt>
      <trkpt lat="47.63218" lon="-3.12459">
        <ele>19.799999237061</ele>
        <time>2015-12-01T13:20:42.000Z</time>
      </trkpt>
      <trkpt lat="47.63228" lon="-3.12497">
        <ele>19.799999237061</ele>
        <time>2015-12-01T13:20:48.000Z</time>
      </trkpt>
      <trkpt lat="47.63237" lon="-3.12533">
        <ele>19.799999237061</ele>
        <time>2015-12-01T13:20:54.000Z</time>
      </trkpt>
      <trkpt lat="47.63242" lon="-3.12576">
        <ele>19.799999237061</ele>
        <time>2015-12-01T13:21:01.000Z</time>
      </trkpt>
      <trkpt lat="47.63243" lon="-3.12614">
        <ele>19.799999237061</ele>
        <time>2015-12-01T13:21:07.000Z</time>
      </trkpt>
      <trkpt lat="47.63244" lon="-3.12629">
        <ele>19.799999237061</ele>
        <time>2015-12-01T13:21:09.000Z</time>
      </trkpt>
      <trkpt lat="47.6325" lon="-3.12639">
        <ele>19.799999237061</ele>
        <time>2015-12-01T13:21:11.000Z</time>
      </trkpt>
      <trkpt lat="47.63257" lon="-3.12645">
        <ele>19.799999237061</ele>
        <time>2015-12-01T13:21:13.000Z</time>
      </trkpt>
      <trkpt lat="47.63264" lon="-3.12653">
        <ele>19.799999237061</ele>
        <time>2015-12-01T13:21:15.000Z</time>
      </trkpt>
      <trkpt lat="47.63266" lon="-3.12658">
        <ele>19.799999237061</ele>
        <time>2015-12-01T13:21:16.000Z</time>
      </trkpt>
      <trkpt lat="47.63266" lon="-3.12671">
        <ele>19.799999237061</ele>
        <time>2015-12-01T13:21:18.000Z</time>
      </trkpt>
      <trkpt lat="47.63264" lon="-3.12709">
        <ele>19.799999237061</ele>
        <time>2015-12-01T13:21:24.000Z</time>
      </trkpt>
      <trkpt lat="47.6326" lon="-3.12738">
        <ele>19.799999237061</ele>
        <time>2015-12-01T13:21:29.000Z</time>
      </trkpt>
      <trkpt lat="47.63253" lon="-3.12774">
        <ele>19.799999237061</ele>
        <time>2015-12-01T13:21:35.000Z</time>
      </trkpt>
      <trkpt lat="47.63243" lon="-3.12807">
        <ele>19.799999237061</ele>
        <time>2015-12-01T13:21:41.000Z</time>
      </trkpt>
      <trkpt lat="47.63235" lon="-3.1284">
        <ele>19.799999237061</ele>
        <time>2015-12-01T13:21:47.000Z</time>
      </trkpt>
      <trkpt lat="47.63228" lon="-3.12871">
        <ele>19.799999237061</ele>
        <time>2015-12-01T13:21:53.000Z</time>
      </trkpt>
      <trkpt lat="47.63225" lon="-3.12883">
        <ele>19.799999237061</ele>
        <time>2015-12-01T13:21:55.000Z</time>
      </trkpt>
      <trkpt lat="47.63218" lon="-3.12901">
        <ele>19.799999237061</ele>
        <time>2015-12-01T13:21:58.000Z</time>
      </trkpt>
      <trkpt lat="47.63213" lon="-3.12921">
        <ele>19.799999237061</ele>
        <time>2015-12-01T13:22:01.000Z</time>
      </trkpt>
      <trkpt lat="47.63209" lon="-3.12935">
        <ele>19.799999237061</ele>
        <time>2015-12-01T13:22:03.000Z</time>
      </trkpt>
      <trkpt lat="47.63208" lon="-3.12942">
        <ele>19.799999237061</ele>
        <time>2015-12-01T13:22:04.000Z</time>
      </trkpt>
      <trkpt lat="47.63204" lon="-3.12962">
        <ele>19.799999237061</ele>
        <time>2015-12-01T13:22:07.000Z</time>
      </trkpt>
      <trkpt lat="47.632" lon="-3.12984">
        <ele>19.799999237061</ele>
        <time>2015-12-01T13:22:10.000Z</time>
      </trkpt>
      <trkpt lat="47.63192" lon="-3.13025">
        <ele>19.799999237061</ele>
        <time>2015-12-01T13:22:16.000Z</time>
      </trkpt>
      <trkpt lat="47.63189" lon="-3.13067">
        <ele>19.799999237061</ele>
        <time>2015-12-01T13:22:22.000Z</time>
      </trkpt>
      <trkpt lat="47.63189" lon="-3.13074">
        <ele>19.799999237061</ele>
        <time>2015-12-01T13:22:23.000Z</time>
      </trkpt>
      <trkpt lat="47.63189" lon="-3.13094">
        <ele>19.39999961853</ele>
        <time>2015-12-01T13:22:26.000Z</time>
      </trkpt>
      <trkpt lat="47.63189" lon="-3.131">
        <ele>19</ele>
        <time>2015-12-01T13:22:27.000Z</time>
      </trkpt>
      <trkpt lat="47.63189" lon="-3.13106">
        <ele>18.60000038147</ele>
        <time>2015-12-01T13:22:28.000Z</time>
      </trkpt>
      <trkpt lat="47.6319" lon="-3.13113">
        <ele>18.200000762939</ele>
        <time>2015-12-01T13:22:29.000Z</time>
      </trkpt>
      <trkpt lat="47.6319" lon="-3.13119">
        <ele>17.799999237061</ele>
        <time>2015-12-01T13:22:30.000Z</time>
      </trkpt>
      <trkpt lat="47.63192" lon="-3.13132">
        <ele>17.799999237061</ele>
        <time>2015-12-01T13:22:32.000Z</time>
      </trkpt>
      <trkpt lat="47.63194" lon="-3.13177">
        <ele>17.799999237061</ele>
        <time>2015-12-01T13:22:39.000Z</time>
      </trkpt>
      <trkpt lat="47.63196" lon="-3.13222">
        <ele>17.799999237061</ele>
        <time>2015-12-01T13:22:46.000Z</time>
      </trkpt>
      <trkpt lat="47.63198" lon="-3.13239">
        <ele>17.799999237061</ele>
        <time>2015-12-01T13:22:49.000Z</time>
      </trkpt>
      <trkpt lat="47.63202" lon="-3.13243">
        <ele>17.799999237061</ele>
        <time>2015-12-01T13:22:50.000Z</time>
      </trkpt>
      <trkpt lat="47.63216" lon="-3.13246">
        <ele>17.799999237061</ele>
        <time>2015-12-01T13:22:53.000Z</time>
      </trkpt>
      <trkpt lat="47.63224" lon="-3.13246">
        <ele>17.799999237061</ele>
        <time>2015-12-01T13:22:55.000Z</time>
      </trkpt>
      <trkpt lat="47.63231" lon="-3.13245">
        <ele>17.799999237061</ele>
        <time>2015-12-01T13:22:57.000Z</time>
      </trkpt>
      <trkpt lat="47.63257" lon="-3.13243">
        <ele>17.799999237061</ele>
        <time>2015-12-01T13:23:04.000Z</time>
      </trkpt>
      <trkpt lat="47.63278" lon="-3.13241">
        <ele>17.799999237061</ele>
        <time>2015-12-01T13:23:10.000Z</time>
      </trkpt>
      <trkpt lat="47.63293" lon="-3.13239">
        <ele>17.799999237061</ele>
        <time>2015-12-01T13:23:15.000Z</time>
      </trkpt>
      <trkpt lat="47.63313" lon="-3.13238">
        <ele>17.799999237061</ele>
        <time>2015-12-01T13:23:21.000Z</time>
      </trkpt>
      <trkpt lat="47.63335" lon="-3.13241">
        <ele>18.200000762939</ele>
        <time>2015-12-01T13:23:27.000Z</time>
      </trkpt>
      <trkpt lat="47.63339" lon="-3.13242">
        <ele>19</ele>
        <time>2015-12-01T13:23:28.000Z</time>
      </trkpt>
      <trkpt lat="47.63342" lon="-3.13242">
        <ele>19.39999961853</ele>
        <time>2015-12-01T13:23:29.000Z</time>
      </trkpt>
      <trkpt lat="47.63345" lon="-3.13242">
        <ele>19.799999237061</ele>
        <time>2015-12-01T13:23:30.000Z</time>
      </trkpt>
      <trkpt lat="47.63356" lon="-3.13244">
        <ele>19.799999237061</ele>
        <time>2015-12-01T13:23:33.000Z</time>
      </trkpt>
      <trkpt lat="47.63372" lon="-3.13248">
        <ele>19.799999237061</ele>
        <time>2015-12-01T13:23:38.000Z</time>
      </trkpt>
      <trkpt lat="47.63393" lon="-3.13259">
        <ele>19.799999237061</ele>
        <time>2015-12-01T13:23:44.000Z</time>
      </trkpt>
      <trkpt lat="47.63414" lon="-3.13268">
        <ele>19.799999237061</ele>
        <time>2015-12-01T13:23:50.000Z</time>
      </trkpt>
      <trkpt lat="47.63444" lon="-3.13276">
        <ele>19.799999237061</ele>
        <time>2015-12-01T13:23:57.000Z</time>
      </trkpt>
      <trkpt lat="47.63464" lon="-3.13273">
        <ele>19.799999237061</ele>
        <time>2015-12-01T13:24:02.000Z</time>
      </trkpt>
      <trkpt lat="47.63468" lon="-3.1327">
        <ele>20.200000762939</ele>
        <time>2015-12-01T13:24:03.000Z</time>
      </trkpt>
      <trkpt lat="47.63471" lon="-3.13266">
        <ele>20.799999237061</ele>
        <time>2015-12-01T13:24:04.000Z</time>
      </trkpt>
      <trkpt lat="47.63475" lon="-3.13262">
        <ele>21.200000762939</ele>
        <time>2015-12-01T13:24:05.000Z</time>
      </trkpt>
      <trkpt lat="47.63478" lon="-3.1326">
        <ele>21.60000038147</ele>
        <time>2015-12-01T13:24:06.000Z</time>
      </trkpt>
      <trkpt lat="47.63481" lon="-3.13258">
        <ele>22</ele>
        <time>2015-12-01T13:24:07.000Z</time>
      </trkpt>
      <trkpt lat="47.63503" lon="-3.13255">
        <ele>22</ele>
        <time>2015-12-01T13:24:13.000Z</time>
      </trkpt>
      <trkpt lat="47.6352" lon="-3.13268">
        <ele>22</ele>
        <time>2015-12-01T13:24:18.000Z</time>
      </trkpt>
      <trkpt lat="47.63522" lon="-3.1328">
        <ele>22</ele>
        <time>2015-12-01T13:24:20.000Z</time>
      </trkpt>
      <trkpt lat="47.63521" lon="-3.13288">
        <ele>22</ele>
        <time>2015-12-01T13:24:21.000Z</time>
      </trkpt>
      <trkpt lat="47.63514" lon="-3.13336">
        <ele>21.39999961853</ele>
        <time>2015-12-01T13:24:27.000Z</time>
      </trkpt>
      <trkpt lat="47.63513" lon="-3.13345">
        <ele>21</ele>
        <time>2015-12-01T13:24:28.000Z</time>
      </trkpt>
      <trkpt lat="47.63511" lon="-3.13354">
        <ele>20.39999961853</ele>
        <time>2015-12-01T13:24:29.000Z</time>
      </trkpt>
      <trkpt lat="47.6351" lon="-3.13362">
        <ele>20</ele>
        <time>2015-12-01T13:24:30.000Z</time>
      </trkpt>
      <trkpt lat="47.6351" lon="-3.13371">
        <ele>19.60000038147</ele>
        <time>2015-12-01T13:24:31.000Z</time>
      </trkpt>
      <trkpt lat="47.63513" lon="-3.13388">
        <ele>19</ele>
        <time>2015-12-01T13:24:33.000Z</time>
      </trkpt>
      <trkpt lat="47.63517" lon="-3.13393">
        <ele>18.60000038147</ele>
        <time>2015-12-01T13:24:34.000Z</time>
      </trkpt>
      <trkpt lat="47.63522" lon="-3.13397">
        <ele>18.200000762939</ele>
        <time>2015-12-01T13:24:35.000Z</time>
      </trkpt>
      <trkpt lat="47.63526" lon="-3.13401">
        <ele>17.799999237061</ele>
        <time>2015-12-01T13:24:36.000Z</time>
      </trkpt>
      <trkpt lat="47.63528" lon="-3.13406">
        <ele>17.39999961853</ele>
        <time>2015-12-01T13:24:37.000Z</time>
      </trkpt>
      <trkpt lat="47.6353" lon="-3.13412">
        <ele>17.39999961853</ele>
        <time>2015-12-01T13:24:38.000Z</time>
      </trkpt>
      <trkpt lat="47.63524" lon="-3.13438">
        <ele>17.39999961853</ele>
        <time>2015-12-01T13:24:42.000Z</time>
      </trkpt>
      <trkpt lat="47.63512" lon="-3.13471">
        <ele>17.39999961853</ele>
        <time>2015-12-01T13:24:48.000Z</time>
      </trkpt>
      <trkpt lat="47.63506" lon="-3.13492">
        <ele>17.39999961853</ele>
        <time>2015-12-01T13:24:53.000Z</time>
      </trkpt>
      <trkpt lat="47.63496" lon="-3.13523">
        <ele>17.39999961853</ele>
        <time>2015-12-01T13:24:59.000Z</time>
      </trkpt>
      <trkpt lat="47.63487" lon="-3.13561">
        <ele>17.39999961853</ele>
        <time>2015-12-01T13:25:05.000Z</time>
      </trkpt>
      <trkpt lat="47.63484" lon="-3.13588">
        <ele>17.39999961853</ele>
        <time>2015-12-01T13:25:09.000Z</time>
      </trkpt>
      <trkpt lat="47.63482" lon="-3.13607">
        <ele>17.39999961853</ele>
        <time>2015-12-01T13:25:12.000Z</time>
      </trkpt>
      <trkpt lat="47.63484" lon="-3.13629">
        <ele>17.39999961853</ele>
        <time>2015-12-01T13:25:16.000Z</time>
      </trkpt>
      <trkpt lat="47.63487" lon="-3.13632">
        <ele>17.39999961853</ele>
        <time>2015-12-01T13:25:17.000Z</time>
      </trkpt>
      <trkpt lat="47.63497" lon="-3.1363">
        <ele>17.39999961853</ele>
        <time>2015-12-01T13:25:20.000Z</time>
      </trkpt>
      <trkpt lat="47.63501" lon="-3.13627">
        <ele>17.39999961853</ele>
        <time>2015-12-01T13:25:21.000Z</time>
      </trkpt>
      <trkpt lat="47.63513" lon="-3.1362">
        <ele>17.39999961853</ele>
        <time>2015-12-01T13:25:25.000Z</time>
      </trkpt>
      <trkpt lat="47.63529" lon="-3.13607">
        <ele>17.39999961853</ele>
        <time>2015-12-01T13:25:31.000Z</time>
      </trkpt>
      <trkpt lat="47.63547" lon="-3.13584">
        <ele>17.39999961853</ele>
        <time>2015-12-01T13:25:38.000Z</time>
      </trkpt>
      <trkpt lat="47.63563" lon="-3.13572">
        <ele>17.39999961853</ele>
        <time>2015-12-01T13:25:42.000Z</time>
      </trkpt>
      <trkpt lat="47.63567" lon="-3.1357">
        <ele>17.39999961853</ele>
        <time>2015-12-01T13:25:43.000Z</time>
      </trkpt>
      <trkpt lat="47.63591" lon="-3.13564">
        <ele>17.39999961853</ele>
        <time>2015-12-01T13:25:48.000Z</time>
      </trkpt>
      <trkpt lat="47.63615" lon="-3.1356">
        <ele>17.39999961853</ele>
        <time>2015-12-01T13:25:53.000Z</time>
      </trkpt>
      <trkpt lat="47.63626" lon="-3.13568">
        <ele>17.39999961853</ele>
        <time>2015-12-01T13:25:56.000Z</time>
      </trkpt>
      <trkpt lat="47.63627" lon="-3.13574">
        <ele>17.39999961853</ele>
        <time>2015-12-01T13:25:57.000Z</time>
      </trkpt>
      <trkpt lat="47.63625" lon="-3.13595">
        <ele>17.39999961853</ele>
        <time>2015-12-01T13:26:00.000Z</time>
      </trkpt>
      <trkpt lat="47.63623" lon="-3.13603">
        <ele>17.39999961853</ele>
        <time>2015-12-01T13:26:01.000Z</time>
      </trkpt>
      <trkpt lat="47.6362" lon="-3.13623">
        <ele>17.39999961853</ele>
        <time>2015-12-01T13:26:04.000Z</time>
      </trkpt>
      <trkpt lat="47.63617" lon="-3.13642">
        <ele>17.39999961853</ele>
        <time>2015-12-01T13:26:07.000Z</time>
      </trkpt>
      <trkpt lat="47.63607" lon="-3.1368">
        <ele>17.39999961853</ele>
        <time>2015-12-01T13:26:13.000Z</time>
      </trkpt>
      <trkpt lat="47.63601" lon="-3.13705">
        <ele>17.39999961853</ele>
        <time>2015-12-01T13:26:17.000Z</time>
      </trkpt>
      <trkpt lat="47.63599" lon="-3.13717">
        <ele>17.39999961853</ele>
        <time>2015-12-01T13:26:19.000Z</time>
      </trkpt>
      <trkpt lat="47.63598" lon="-3.13724">
        <ele>17.39999961853</ele>
        <time>2015-12-01T13:26:20.000Z</time>
      </trkpt>
      <trkpt lat="47.63594" lon="-3.13745">
        <ele>17.39999961853</ele>
        <time>2015-12-01T13:26:23.000Z</time>
      </trkpt>
      <trkpt lat="47.63593" lon="-3.13752">
        <ele>17.39999961853</ele>
        <time>2015-12-01T13:26:24.000Z</time>
      </trkpt>
      <trkpt lat="47.63585" lon="-3.13803">
        <ele>17.39999961853</ele>
        <time>2015-12-01T13:26:32.000Z</time>
      </trkpt>
      <trkpt lat="47.63594" lon="-3.1382">
        <ele>17.39999961853</ele>
        <time>2015-12-01T13:26:35.000Z</time>
      </trkpt>
      <trkpt lat="47.63603" lon="-3.13836">
        <ele>17.39999961853</ele>
        <time>2015-12-01T13:26:38.000Z</time>
      </trkpt>
      <trkpt lat="47.6361" lon="-3.1385">
        <ele>17.39999961853</ele>
        <time>2015-12-01T13:26:41.000Z</time>
      </trkpt>
      <trkpt lat="47.63625" lon="-3.13882">
        <ele>17.39999961853</ele>
        <time>2015-12-01T13:26:47.000Z</time>
      </trkpt>
      <trkpt lat="47.63628" lon="-3.13887">
        <ele>17.39999961853</ele>
        <time>2015-12-01T13:26:48.000Z</time>
      </trkpt>
      <trkpt lat="47.63645" lon="-3.13912">
        <ele>17.39999961853</ele>
        <time>2015-12-01T13:26:53.000Z</time>
      </trkpt>
      <trkpt lat="47.63663" lon="-3.13934">
        <ele>17.39999961853</ele>
        <time>2015-12-01T13:26:58.000Z</time>
      </trkpt>
      <trkpt lat="47.63671" lon="-3.1394">
        <ele>17.39999961853</ele>
        <time>2015-12-01T13:27:00.000Z</time>
      </trkpt>
      <trkpt lat="47.63679" lon="-3.13954">
        <ele>17.39999961853</ele>
        <time>2015-12-01T13:27:03.000Z</time>
      </trkpt>
      <trkpt lat="47.6368" lon="-3.13961">
        <ele>17.39999961853</ele>
        <time>2015-12-01T13:27:04.000Z</time>
      </trkpt>
      <trkpt lat="47.63681" lon="-3.13995">
        <ele>17.39999961853</ele>
        <time>2015-12-01T13:27:09.000Z</time>
      </trkpt>
      <trkpt lat="47.6368" lon="-3.1403">
        <ele>17.39999961853</ele>
        <time>2015-12-01T13:27:14.000Z</time>
      </trkpt>
      <trkpt lat="47.63682" lon="-3.14038">
        <ele>17.39999961853</ele>
        <time>2015-12-01T13:27:15.000Z</time>
      </trkpt>
      <trkpt lat="47.6369" lon="-3.14054">
        <ele>17.39999961853</ele>
        <time>2015-12-01T13:27:18.000Z</time>
      </trkpt>
      <trkpt lat="47.63693" lon="-3.14058">
        <ele>17.39999961853</ele>
        <time>2015-12-01T13:27:19.000Z</time>
      </trkpt>
      <trkpt lat="47.63704" lon="-3.14071">
        <ele>17.39999961853</ele>
        <time>2015-12-01T13:27:22.000Z</time>
      </trkpt>
      <trkpt lat="47.63714" lon="-3.141">
        <ele>17.39999961853</ele>
        <time>2015-12-01T13:27:27.000Z</time>
      </trkpt>
      <trkpt lat="47.63718" lon="-3.14112">
        <ele>17</ele>
        <time>2015-12-01T13:27:29.000Z</time>
      </trkpt>
      <trkpt lat="47.63722" lon="-3.14115">
        <ele>16.39999961853</ele>
        <time>2015-12-01T13:27:30.000Z</time>
      </trkpt>
      <trkpt lat="47.63726" lon="-3.14116">
        <ele>16</ele>
        <time>2015-12-01T13:27:31.000Z</time>
      </trkpt>
      <trkpt lat="47.6373" lon="-3.14115">
        <ele>15.60000038147</ele>
        <time>2015-12-01T13:27:32.000Z</time>
      </trkpt>
      <trkpt lat="47.63735" lon="-3.14115">
        <ele>15.199999809265</ele>
        <time>2015-12-01T13:27:33.000Z</time>
      </trkpt>
      <trkpt lat="47.63747" lon="-3.14112">
        <ele>15.199999809265</ele>
        <time>2015-12-01T13:27:36.000Z</time>
      </trkpt>
      <trkpt lat="47.63755" lon="-3.14112">
        <ele>15.199999809265</ele>
        <time>2015-12-01T13:27:38.000Z</time>
      </trkpt>
      <trkpt lat="47.63776" lon="-3.14109">
        <ele>15.199999809265</ele>
        <time>2015-12-01T13:27:43.000Z</time>
      </trkpt>
      <trkpt lat="47.63806" lon="-3.14106">
        <ele>15.199999809265</ele>
        <time>2015-12-01T13:27:50.000Z</time>
      </trkpt>
      <trkpt lat="47.63831" lon="-3.1411">
        <ele>15.199999809265</ele>
        <time>2015-12-01T13:27:56.000Z</time>
      </trkpt>
      <trkpt lat="47.63853" lon="-3.14116">
        <ele>15.199999809265</ele>
        <time>2015-12-01T13:28:01.000Z</time>
      </trkpt>
      <trkpt lat="47.63861" lon="-3.14118">
        <ele>15.199999809265</ele>
        <time>2015-12-01T13:28:03.000Z</time>
      </trkpt>
      <trkpt lat="47.63869" lon="-3.14122">
        <ele>15.199999809265</ele>
        <time>2015-12-01T13:28:05.000Z</time>
      </trkpt>
      <trkpt lat="47.63884" lon="-3.14125">
        <ele>15.199999809265</ele>
        <time>2015-12-01T13:28:09.000Z</time>
      </trkpt>
      <trkpt lat="47.63903" lon="-3.14117">
        <ele>15.199999809265</ele>
        <time>2015-12-01T13:28:14.000Z</time>
      </trkpt>
      <trkpt lat="47.63924" lon="-3.14099">
        <ele>15.199999809265</ele>
        <time>2015-12-01T13:28:20.000Z</time>
      </trkpt>
      <trkpt lat="47.63955" lon="-3.14079">
        <ele>15.199999809265</ele>
        <time>2015-12-01T13:28:28.000Z</time>
      </trkpt>
      <trkpt lat="47.63978" lon="-3.14059">
        <ele>15.199999809265</ele>
        <time>2015-12-01T13:28:34.000Z</time>
      </trkpt>
      <trkpt lat="47.63981" lon="-3.14054">
        <ele>15.199999809265</ele>
        <time>2015-12-01T13:28:35.000Z</time>
      </trkpt>
      <trkpt lat="47.63988" lon="-3.14035">
        <ele>15.199999809265</ele>
        <time>2015-12-01T13:28:39.000Z</time>
      </trkpt>
      <trkpt lat="47.64001" lon="-3.14031">
        <ele>15.199999809265</ele>
        <time>2015-12-01T13:28:43.000Z</time>
      </trkpt>
      <trkpt lat="47.6401" lon="-3.14041">
        <ele>15.60000038147</ele>
        <time>2015-12-01T13:28:46.000Z</time>
      </trkpt>
      <trkpt lat="47.64014" lon="-3.14046">
        <ele>16</ele>
        <time>2015-12-01T13:28:47.000Z</time>
      </trkpt>
      <trkpt lat="47.64018" lon="-3.14049">
        <ele>17</ele>
        <time>2015-12-01T13:28:48.000Z</time>
      </trkpt>
      <trkpt lat="47.64023" lon="-3.14052">
        <ele>17.39999961853</ele>
        <time>2015-12-01T13:28:49.000Z</time>
      </trkpt>
      <trkpt lat="47.64031" lon="-3.14054">
        <ele>17.39999961853</ele>
        <time>2015-12-01T13:28:51.000Z</time>
      </trkpt>
      <trkpt lat="47.64035" lon="-3.14054">
        <ele>17.39999961853</ele>
        <time>2015-12-01T13:28:52.000Z</time>
      </trkpt>
      <trkpt lat="47.64062" lon="-3.14055">
        <ele>17.39999961853</ele>
        <time>2015-12-01T13:28:59.000Z</time>
      </trkpt>
      <trkpt lat="47.64079" lon="-3.14055">
        <ele>17.799999237061</ele>
        <time>2015-12-01T13:29:04.000Z</time>
      </trkpt>
      <trkpt lat="47.64083" lon="-3.14055">
        <ele>18.200000762939</ele>
        <time>2015-12-01T13:29:05.000Z</time>
      </trkpt>
      <trkpt lat="47.64086" lon="-3.14055">
        <ele>18.60000038147</ele>
        <time>2015-12-01T13:29:06.000Z</time>
      </trkpt>
      <trkpt lat="47.64089" lon="-3.14055">
        <ele>19</ele>
        <time>2015-12-01T13:29:07.000Z</time>
      </trkpt>
      <trkpt lat="47.64092" lon="-3.14055">
        <ele>19.39999961853</ele>
        <time>2015-12-01T13:29:08.000Z</time>
      </trkpt>
      <trkpt lat="47.64107" lon="-3.14056">
        <ele>19.39999961853</ele>
        <time>2015-12-01T13:29:14.000Z</time>
      </trkpt>
      <trkpt lat="47.64123" lon="-3.14053">
        <ele>19.39999961853</ele>
        <time>2015-12-01T13:29:20.000Z</time>
      </trkpt>
      <trkpt lat="47.64131" lon="-3.14038">
        <ele>19.39999961853</ele>
        <time>2015-12-01T13:29:24.000Z</time>
      </trkpt>
      <trkpt lat="47.64131" lon="-3.14016">
        <ele>19.39999961853</ele>
        <time>2015-12-01T13:29:28.000Z</time>
      </trkpt>
      <trkpt lat="47.64132" lon="-3.1401">
        <ele>19.39999961853</ele>
        <time>2015-12-01T13:29:29.000Z</time>
      </trkpt>
      <trkpt lat="47.64134" lon="-3.13996">
        <ele>19.39999961853</ele>
        <time>2015-12-01T13:29:32.000Z</time>
      </trkpt>
      <trkpt lat="47.64137" lon="-3.13993">
        <ele>19.39999961853</ele>
        <time>2015-12-01T13:29:33.000Z</time>
      </trkpt>
      <trkpt lat="47.64154" lon="-3.13993">
        <ele>19.39999961853</ele>
        <time>2015-12-01T13:29:37.000Z</time>
      </trkpt>
      <trkpt lat="47.64183" lon="-3.13992">
        <ele>19.39999961853</ele>
        <time>2015-12-01T13:29:44.000Z</time>
      </trkpt>
      <trkpt lat="47.64213" lon="-3.13993">
        <ele>19.39999961853</ele>
        <time>2015-12-01T13:29:52.000Z</time>
      </trkpt>
      <trkpt lat="47.64237" lon="-3.13989">
        <ele>19.39999961853</ele>
        <time>2015-12-01T13:29:58.000Z</time>
      </trkpt>
      <trkpt lat="47.64263" lon="-3.13976">
        <ele>19.39999961853</ele>
        <time>2015-12-01T13:30:05.000Z</time>
      </trkpt>
      <trkpt lat="47.64288" lon="-3.1396">
        <ele>19.39999961853</ele>
        <time>2015-12-01T13:30:12.000Z</time>
      </trkpt>
      <trkpt lat="47.64292" lon="-3.13956">
        <ele>19.39999961853</ele>
        <time>2015-12-01T13:30:13.000Z</time>
      </trkpt>
      <trkpt lat="47.64303" lon="-3.13937">
        <ele>19.39999961853</ele>
        <time>2015-12-01T13:30:17.000Z</time>
      </trkpt>
      <trkpt lat="47.64306" lon="-3.13932">
        <ele>19.39999961853</ele>
        <time>2015-12-01T13:30:18.000Z</time>
      </trkpt>
      <trkpt lat="47.64319" lon="-3.13916">
        <ele>19.39999961853</ele>
        <time>2015-12-01T13:30:23.000Z</time>
      </trkpt>
      <trkpt lat="47.64328" lon="-3.13916">
        <ele>19.39999961853</ele>
        <time>2015-12-01T13:30:25.000Z</time>
      </trkpt>
      <trkpt lat="47.64333" lon="-3.13918">
        <ele>19.39999961853</ele>
        <time>2015-12-01T13:30:26.000Z</time>
      </trkpt>
      <trkpt lat="47.64352" lon="-3.13926">
        <ele>19.39999961853</ele>
        <time>2015-12-01T13:30:31.000Z</time>
      </trkpt>
      <trkpt lat="47.64368" lon="-3.13939">
        <ele>19.39999961853</ele>
        <time>2015-12-01T13:30:37.000Z</time>
      </trkpt>
      <trkpt lat="47.64381" lon="-3.1396">
        <ele>19.39999961853</ele>
        <time>2015-12-01T13:30:42.000Z</time>
      </trkpt>
      <trkpt lat="47.64396" lon="-3.13983">
        <ele>19.39999961853</ele>
        <time>2015-12-01T13:30:48.000Z</time>
      </trkpt>
      <trkpt lat="47.64398" lon="-3.13986">
        <ele>19.799999237061</ele>
        <time>2015-12-01T13:30:49.000Z</time>
      </trkpt>
      <trkpt lat="47.64401" lon="-3.13988">
        <ele>20.200000762939</ele>
        <time>2015-12-01T13:30:50.000Z</time>
      </trkpt>
      <trkpt lat="47.64404" lon="-3.13991">
        <ele>20.60000038147</ele>
        <time>2015-12-01T13:30:51.000Z</time>
      </trkpt>
      <trkpt lat="47.64407" lon="-3.13993">
        <ele>21.39999961853</ele>
        <time>2015-12-01T13:30:52.000Z</time>
      </trkpt>
      <trkpt lat="47.64409" lon="-3.13995">
        <ele>21.39999961853</ele>
        <time>2015-12-01T13:30:54.000Z</time>
      </trkpt>
      <trkpt lat="47.64427" lon="-3.14004">
        <ele>21.39999961853</ele>
        <time>2015-12-01T13:30:59.000Z</time>
      </trkpt>
      <trkpt lat="47.64446" lon="-3.14011">
        <ele>21.39999961853</ele>
        <time>2015-12-01T13:31:05.000Z</time>
      </trkpt>
      <trkpt lat="47.64459" lon="-3.14018">
        <ele>21.39999961853</ele>
        <time>2015-12-01T13:31:09.000Z</time>
      </trkpt>
      <trkpt lat="47.64479" lon="-3.14031">
        <ele>21.39999961853</ele>
        <time>2015-12-01T13:31:15.000Z</time>
      </trkpt>
      <trkpt lat="47.6448" lon="-3.14034">
        <ele>21.39999961853</ele>
        <time>2015-12-01T13:31:16.000Z</time>
      </trkpt>
      <trkpt lat="47.64486" lon="-3.14049">
        <ele>21.39999961853</ele>
        <time>2015-12-01T13:31:19.000Z</time>
      </trkpt>
      <trkpt lat="47.64495" lon="-3.14066">
        <ele>21.39999961853</ele>
        <time>2015-12-01T13:31:22.000Z</time>
      </trkpt>
      <trkpt lat="47.64499" lon="-3.1407">
        <ele>21.39999961853</ele>
        <time>2015-12-01T13:31:23.000Z</time>
      </trkpt>
      <trkpt lat="47.64515" lon="-3.14076">
        <ele>21.39999961853</ele>
        <time>2015-12-01T13:31:27.000Z</time>
      </trkpt>
      <trkpt lat="47.6452" lon="-3.14076">
        <ele>21.39999961853</ele>
        <time>2015-12-01T13:31:28.000Z</time>
      </trkpt>
      <trkpt lat="47.64541" lon="-3.14079">
        <ele>21.39999961853</ele>
        <time>2015-12-01T13:31:33.000Z</time>
      </trkpt>
      <trkpt lat="47.64558" lon="-3.14083">
        <ele>21.39999961853</ele>
        <time>2015-12-01T13:31:38.000Z</time>
      </trkpt>
      <trkpt lat="47.64577" lon="-3.14097">
        <ele>21.39999961853</ele>
        <time>2015-12-01T13:31:43.000Z</time>
      </trkpt>
      <trkpt lat="47.64596" lon="-3.14119">
        <ele>21.39999961853</ele>
        <time>2015-12-01T13:31:49.000Z</time>
      </trkpt>
      <trkpt lat="47.64606" lon="-3.14126">
        <ele>21.39999961853</ele>
        <time>2015-12-01T13:31:52.000Z</time>
      </trkpt>
      <trkpt lat="47.64609" lon="-3.14122">
        <ele>21.39999961853</ele>
        <time>2015-12-01T13:31:54.000Z</time>
      </trkpt>
      <trkpt lat="47.64612" lon="-3.14107">
        <ele>21.39999961853</ele>
        <time>2015-12-01T13:31:57.000Z</time>
      </trkpt>
      <trkpt lat="47.64616" lon="-3.14085">
        <ele>21.39999961853</ele>
        <time>2015-12-01T13:32:01.000Z</time>
      </trkpt>
      <trkpt lat="47.64617" lon="-3.1408">
        <ele>21.39999961853</ele>
        <time>2015-12-01T13:32:02.000Z</time>
      </trkpt>
      <trkpt lat="47.64626" lon="-3.14052">
        <ele>21.39999961853</ele>
        <time>2015-12-01T13:32:07.000Z</time>
      </trkpt>
      <trkpt lat="47.64629" lon="-3.14029">
        <ele>21.39999961853</ele>
        <time>2015-12-01T13:32:11.000Z</time>
      </trkpt>
      <trkpt lat="47.64633" lon="-3.13993">
        <ele>21.39999961853</ele>
        <time>2015-12-01T13:32:17.000Z</time>
      </trkpt>
      <trkpt lat="47.64638" lon="-3.13962">
        <ele>21.39999961853</ele>
        <time>2015-12-01T13:32:22.000Z</time>
      </trkpt>
      <trkpt lat="47.64643" lon="-3.13934">
        <ele>21.39999961853</ele>
        <time>2015-12-01T13:32:27.000Z</time>
      </trkpt>
      <trkpt lat="47.64648" lon="-3.13895">
        <ele>21.39999961853</ele>
        <time>2015-12-01T13:32:34.000Z</time>
      </trkpt>
      <trkpt lat="47.64652" lon="-3.1386">
        <ele>21.39999961853</ele>
        <time>2015-12-01T13:32:40.000Z</time>
      </trkpt>
      <trkpt lat="47.64653" lon="-3.1385">
        <ele>21</ele>
        <time>2015-12-01T13:32:42.000Z</time>
      </trkpt>
      <trkpt lat="47.64654" lon="-3.13844">
        <ele>20.60000038147</ele>
        <time>2015-12-01T13:32:43.000Z</time>
      </trkpt>
      <trkpt lat="47.64654" lon="-3.13838">
        <ele>20.200000762939</ele>
        <time>2015-12-01T13:32:44.000Z</time>
      </trkpt>
      <trkpt lat="47.64654" lon="-3.13832">
        <ele>19.799999237061</ele>
        <time>2015-12-01T13:32:45.000Z</time>
      </trkpt>
      <trkpt lat="47.64655" lon="-3.13827">
        <ele>19.39999961853</ele>
        <time>2015-12-01T13:32:46.000Z</time>
      </trkpt>
      <trkpt lat="47.64658" lon="-3.13802">
        <ele>19.39999961853</ele>
        <time>2015-12-01T13:32:50.000Z</time>
      </trkpt>
      <trkpt lat="47.64658" lon="-3.13796">
        <ele>19.39999961853</ele>
        <time>2015-12-01T13:32:51.000Z</time>
      </trkpt>
      <trkpt lat="47.64662" lon="-3.13764">
        <ele>19.39999961853</ele>
        <time>2015-12-01T13:32:56.000Z</time>
      </trkpt>
      <trkpt lat="47.64669" lon="-3.13713">
        <ele>19.39999961853</ele>
        <time>2015-12-01T13:33:04.000Z</time>
      </trkpt>
      <trkpt lat="47.64675" lon="-3.13686">
        <ele>19.39999961853</ele>
        <time>2015-12-01T13:33:08.000Z</time>
      </trkpt>
      <trkpt lat="47.64676" lon="-3.13674">
        <ele>19.39999961853</ele>
        <time>2015-12-01T13:33:10.000Z</time>
      </trkpt>
      <trkpt lat="47.6468" lon="-3.13631">
        <ele>19.39999961853</ele>
        <time>2015-12-01T13:33:17.000Z</time>
      </trkpt>
      <trkpt lat="47.64685" lon="-3.1359">
        <ele>19.39999961853</ele>
        <time>2015-12-01T13:33:24.000Z</time>
      </trkpt>
      <trkpt lat="47.64693" lon="-3.13555">
        <ele>19.39999961853</ele>
        <time>2015-12-01T13:33:30.000Z</time>
      </trkpt>
      <trkpt lat="47.64694" lon="-3.13543">
        <ele>19.39999961853</ele>
        <time>2015-12-01T13:33:32.000Z</time>
      </trkpt>
      <trkpt lat="47.64696" lon="-3.13526">
        <ele>19.39999961853</ele>
        <time>2015-12-01T13:33:35.000Z</time>
      </trkpt>
      <trkpt lat="47.647" lon="-3.13501">
        <ele>19.39999961853</ele>
        <time>2015-12-01T13:33:39.000Z</time>
      </trkpt>
      <trkpt lat="47.64701" lon="-3.13489">
        <ele>19.39999961853</ele>
        <time>2015-12-01T13:33:41.000Z</time>
      </trkpt>
      <trkpt lat="47.64706" lon="-3.13459">
        <ele>19.39999961853</ele>
        <time>2015-12-01T13:33:46.000Z</time>
      </trkpt>
      <trkpt lat="47.64717" lon="-3.13416">
        <ele>19.39999961853</ele>
        <time>2015-12-01T13:33:53.000Z</time>
      </trkpt>
      <trkpt lat="47.64729" lon="-3.1338">
        <ele>19.39999961853</ele>
        <time>2015-12-01T13:33:59.000Z</time>
      </trkpt>
      <trkpt lat="47.64736" lon="-3.13344">
        <ele>19.39999961853</ele>
        <time>2015-12-01T13:34:05.000Z</time>
      </trkpt>
      <trkpt lat="47.64748" lon="-3.13314">
        <ele>19.39999961853</ele>
        <time>2015-12-01T13:34:10.000Z</time>
      </trkpt>
      <trkpt lat="47.64757" lon="-3.13285">
        <ele>19.39999961853</ele>
        <time>2015-12-01T13:34:14.000Z</time>
      </trkpt>
      <trkpt lat="47.64758" lon="-3.13277">
        <ele>19.39999961853</ele>
        <time>2015-12-01T13:34:15.000Z</time>
      </trkpt>
      <trkpt lat="47.64756" lon="-3.13262">
        <ele>19.39999961853</ele>
        <time>2015-12-01T13:34:17.000Z</time>
      </trkpt>
      <trkpt lat="47.64753" lon="-3.13244">
        <ele>19.39999961853</ele>
        <time>2015-12-01T13:34:20.000Z</time>
      </trkpt>
      <trkpt lat="47.64754" lon="-3.13207">
        <ele>19.39999961853</ele>
        <time>2015-12-01T13:34:25.000Z</time>
      </trkpt>
      <trkpt lat="47.64758" lon="-3.13192">
        <ele>19.39999961853</ele>
        <time>2015-12-01T13:34:27.000Z</time>
      </trkpt>
      <trkpt lat="47.64767" lon="-3.13167">
        <ele>19.39999961853</ele>
        <time>2015-12-01T13:34:31.000Z</time>
      </trkpt>
      <trkpt lat="47.6477" lon="-3.13127">
        <ele>19.39999961853</ele>
        <time>2015-12-01T13:34:37.000Z</time>
      </trkpt>
      <trkpt lat="47.64769" lon="-3.1312">
        <ele>19.39999961853</ele>
        <time>2015-12-01T13:34:38.000Z</time>
      </trkpt>
      <trkpt lat="47.64769" lon="-3.13114">
        <ele>19</ele>
        <time>2015-12-01T13:34:39.000Z</time>
      </trkpt>
      <trkpt lat="47.64769" lon="-3.13107">
        <ele>18.60000038147</ele>
        <time>2015-12-01T13:34:40.000Z</time>
      </trkpt>
      <trkpt lat="47.64769" lon="-3.131">
        <ele>18.200000762939</ele>
        <time>2015-12-01T13:34:41.000Z</time>
      </trkpt>
      <trkpt lat="47.64769" lon="-3.13094">
        <ele>17.799999237061</ele>
        <time>2015-12-01T13:34:42.000Z</time>
      </trkpt>
      <trkpt lat="47.64768" lon="-3.13087">
        <ele>17.39999961853</ele>
        <time>2015-12-01T13:34:43.000Z</time>
      </trkpt>
      <trkpt lat="47.64768" lon="-3.1308">
        <ele>17.39999961853</ele>
        <time>2015-12-01T13:34:44.000Z</time>
      </trkpt>
      <trkpt lat="47.64765" lon="-3.13036">
        <ele>17.39999961853</ele>
        <time>2015-12-01T13:34:50.000Z</time>
      </trkpt>
      <trkpt lat="47.64763" lon="-3.12995">
        <ele>17.39999961853</ele>
        <time>2015-12-01T13:34:56.000Z</time>
      </trkpt>
      <trkpt lat="47.6476" lon="-3.12966">
        <ele>17.39999961853</ele>
        <time>2015-12-01T13:35:01.000Z</time>
      </trkpt>
      <trkpt lat="47.64759" lon="-3.12922">
        <ele>17.39999961853</ele>
        <time>2015-12-01T13:35:07.000Z</time>
      </trkpt>
      <trkpt lat="47.6476" lon="-3.12893">
        <ele>17.39999961853</ele>
        <time>2015-12-01T13:35:11.000Z</time>
      </trkpt>
      <trkpt lat="47.64761" lon="-3.12872">
        <ele>17.39999961853</ele>
        <time>2015-12-01T13:35:14.000Z</time>
      </trkpt>
      <trkpt lat="47.6476" lon="-3.12815">
        <ele>17.39999961853</ele>
        <time>2015-12-01T13:35:22.000Z</time>
      </trkpt>
      <trkpt lat="47.64756" lon="-3.12761">
        <ele>17.39999961853</ele>
        <time>2015-12-01T13:35:30.000Z</time>
      </trkpt>
      <trkpt lat="47.64756" lon="-3.12736">
        <ele>17.39999961853</ele>
        <time>2015-12-01T13:35:34.000Z</time>
      </trkpt>
      <trkpt lat="47.64754" lon="-3.12697">
        <ele>17.39999961853</ele>
        <time>2015-12-01T13:35:40.000Z</time>
      </trkpt>
      <trkpt lat="47.64755" lon="-3.12662">
        <ele>17.39999961853</ele>
        <time>2015-12-01T13:35:46.000Z</time>
      </trkpt>
      <trkpt lat="47.64755" lon="-3.12632">
        <ele>17.39999961853</ele>
        <time>2015-12-01T13:35:51.000Z</time>
      </trkpt>
      <trkpt lat="47.64755" lon="-3.12626">
        <ele>17.39999961853</ele>
        <time>2015-12-01T13:35:52.000Z</time>
      </trkpt>
      <trkpt lat="47.64767" lon="-3.12613">
        <ele>17.39999961853</ele>
        <time>2015-12-01T13:35:56.000Z</time>
      </trkpt>
      <trkpt lat="47.6479" lon="-3.12598">
        <ele>17.39999961853</ele>
        <time>2015-12-01T13:36:02.000Z</time>
      </trkpt>
      <trkpt lat="47.64794" lon="-3.12597">
        <ele>17.39999961853</ele>
        <time>2015-12-01T13:36:03.000Z</time>
      </trkpt>
      <trkpt lat="47.64799" lon="-3.12595">
        <ele>17.39999961853</ele>
        <time>2015-12-01T13:36:04.000Z</time>
      </trkpt>
      <trkpt lat="47.64815" lon="-3.12586">
        <ele>17.39999961853</ele>
        <time>2015-12-01T13:36:08.000Z</time>
      </trkpt>
      <trkpt lat="47.64823" lon="-3.12582">
        <ele>17.39999961853</ele>
        <time>2015-12-01T13:36:10.000Z</time>
      </trkpt>
      <trkpt lat="47.64836" lon="-3.12577">
        <ele>17.39999961853</ele>
        <time>2015-12-01T13:36:13.000Z</time>
      </trkpt>
      <trkpt lat="47.6484" lon="-3.12576">
        <ele>17.39999961853</ele>
        <time>2015-12-01T13:36:14.000Z</time>
      </trkpt>
      <trkpt lat="47.64854" lon="-3.12573">
        <ele>17.39999961853</ele>
        <time>2015-12-01T13:36:17.000Z</time>
      </trkpt>
      <trkpt lat="47.64859" lon="-3.12572">
        <ele>17.39999961853</ele>
        <time>2015-12-01T13:36:18.000Z</time>
      </trkpt>
      <trkpt lat="47.64863" lon="-3.12571">
        <ele>17.39999961853</ele>
        <time>2015-12-01T13:36:19.000Z</time>
      </trkpt>
      <trkpt lat="47.64882" lon="-3.12566">
        <ele>17.39999961853</ele>
        <time>2015-12-01T13:36:23.000Z</time>
      </trkpt>
      <trkpt lat="47.64905" lon="-3.12561">
        <ele>17.39999961853</ele>
        <time>2015-12-01T13:36:28.000Z</time>
      </trkpt>
      <trkpt lat="47.64915" lon="-3.12558">
        <ele>17.39999961853</ele>
        <time>2015-12-01T13:36:30.000Z</time>
      </trkpt>
      <trkpt lat="47.64928" lon="-3.12555">
        <ele>17.39999961853</ele>
        <time>2015-12-01T13:36:33.000Z</time>
      </trkpt>
      <trkpt lat="47.64932" lon="-3.12554">
        <ele>17</ele>
        <time>2015-12-01T13:36:34.000Z</time>
      </trkpt>
      <trkpt lat="47.64936" lon="-3.12553">
        <ele>16.60000038147</ele>
        <time>2015-12-01T13:36:35.000Z</time>
      </trkpt>
      <trkpt lat="47.6494" lon="-3.12553">
        <ele>16.200000762939</ele>
        <time>2015-12-01T13:36:36.000Z</time>
      </trkpt>
      <trkpt lat="47.64945" lon="-3.12552">
        <ele>15.800000190735</ele>
        <time>2015-12-01T13:36:37.000Z</time>
      </trkpt>
      <trkpt lat="47.6495" lon="-3.12551">
        <ele>15.39999961853</ele>
        <time>2015-12-01T13:36:38.000Z</time>
      </trkpt>
      <trkpt lat="47.6496" lon="-3.12548">
        <ele>15.39999961853</ele>
        <time>2015-12-01T13:36:40.000Z</time>
      </trkpt>
      <trkpt lat="47.64974" lon="-3.12542">
        <ele>15.39999961853</ele>
        <time>2015-12-01T13:36:43.000Z</time>
      </trkpt>
      <trkpt lat="47.65008" lon="-3.12529">
        <ele>15.39999961853</ele>
        <time>2015-12-01T13:36:50.000Z</time>
      </trkpt>
      <trkpt lat="47.65013" lon="-3.12528">
        <ele>15.39999961853</ele>
        <time>2015-12-01T13:36:51.000Z</time>
      </trkpt>
      <trkpt lat="47.65026" lon="-3.1252">
        <ele>15.39999961853</ele>
        <time>2015-12-01T13:36:54.000Z</time>
      </trkpt>
      <trkpt lat="47.65041" lon="-3.12507">
        <ele>15.39999961853</ele>
        <time>2015-12-01T13:36:58.000Z</time>
      </trkpt>
      <trkpt lat="47.65052" lon="-3.12496">
        <ele>15.39999961853</ele>
        <time>2015-12-01T13:37:01.000Z</time>
      </trkpt>
      <trkpt lat="47.65076" lon="-3.1247">
        <ele>15.39999961853</ele>
        <time>2015-12-01T13:37:08.000Z</time>
      </trkpt>
      <trkpt lat="47.65104" lon="-3.12451">
        <ele>15.39999961853</ele>
        <time>2015-12-01T13:37:15.000Z</time>
      </trkpt>
      <trkpt lat="47.6512" lon="-3.12443">
        <ele>15.800000190735</ele>
        <time>2015-12-01T13:37:19.000Z</time>
      </trkpt>
      <trkpt lat="47.65124" lon="-3.12441">
        <ele>16.200000762939</ele>
        <time>2015-12-01T13:37:20.000Z</time>
      </trkpt>
      <trkpt lat="47.65128" lon="-3.12439">
        <ele>16.60000038147</ele>
        <time>2015-12-01T13:37:21.000Z</time>
      </trkpt>
      <trkpt lat="47.65132" lon="-3.12437">
        <ele>17</ele>
        <time>2015-12-01T13:37:22.000Z</time>
      </trkpt>
      <trkpt lat="47.65137" lon="-3.12436">
        <ele>17.39999961853</ele>
        <time>2015-12-01T13:37:23.000Z</time>
      </trkpt>
      <trkpt lat="47.65175" lon="-3.12419">
        <ele>17.39999961853</ele>
        <time>2015-12-01T13:37:32.000Z</time>
      </trkpt>
      <trkpt lat="47.65205" lon="-3.12405">
        <ele>17.39999961853</ele>
        <time>2015-12-01T13:37:39.000Z</time>
      </trkpt>
      <trkpt lat="47.65235" lon="-3.1239">
        <ele>17.39999961853</ele>
        <time>2015-12-01T13:37:46.000Z</time>
      </trkpt>
      <trkpt lat="47.65243" lon="-3.12383">
        <ele>17.39999961853</ele>
        <time>2015-12-01T13:37:48.000Z</time>
      </trkpt>
      <trkpt lat="47.65246" lon="-3.12379">
        <ele>17.39999961853</ele>
        <time>2015-12-01T13:37:49.000Z</time>
      </trkpt>
      <trkpt lat="47.65262" lon="-3.12356">
        <ele>17.39999961853</ele>
        <time>2015-12-01T13:37:54.000Z</time>
      </trkpt>
      <trkpt lat="47.65267" lon="-3.12347">
        <ele>18</ele>
        <time>2015-12-01T13:37:56.000Z</time>
      </trkpt>
      <trkpt lat="47.6527" lon="-3.12343">
        <ele>18.39999961853</ele>
        <time>2015-12-01T13:37:57.000Z</time>
      </trkpt>
      <trkpt lat="47.65272" lon="-3.12337">
        <ele>18.799999237061</ele>
        <time>2015-12-01T13:37:58.000Z</time>
      </trkpt>
      <trkpt lat="47.65275" lon="-3.12332">
        <ele>19.200000762939</ele>
        <time>2015-12-01T13:37:59.000Z</time>
      </trkpt>
      <trkpt lat="47.65278" lon="-3.12327">
        <ele>19.60000038147</ele>
        <time>2015-12-01T13:38:00.000Z</time>
      </trkpt>
      <trkpt lat="47.65283" lon="-3.12318">
        <ele>19.60000038147</ele>
        <time>2015-12-01T13:38:02.000Z</time>
      </trkpt>
      <trkpt lat="47.65299" lon="-3.12293">
        <ele>19.60000038147</ele>
        <time>2015-12-01T13:38:08.000Z</time>
      </trkpt>
      <trkpt lat="47.65312" lon="-3.12277">
        <ele>19.60000038147</ele>
        <time>2015-12-01T13:38:14.000Z</time>
      </trkpt>
      <trkpt lat="47.65314" lon="-3.12274">
        <ele>19.60000038147</ele>
        <time>2015-12-01T13:38:17.000Z</time>
      </trkpt>
      <trkpt lat="47.65317" lon="-3.12271">
        <ele>19.60000038147</ele>
        <time>2015-12-01T13:40:24.000Z</time>
      </trkpt>
      <trkpt lat="47.65322" lon="-3.12267">
        <ele>19.60000038147</ele>
        <time>2015-12-01T13:40:27.000Z</time>
      </trkpt>
      <trkpt lat="47.65328" lon="-3.1227">
        <ele>19.60000038147</ele>
        <time>2015-12-01T13:40:29.000Z</time>
      </trkpt>
      <trkpt lat="47.65333" lon="-3.12275">
        <ele>19.60000038147</ele>
        <time>2015-12-01T13:40:31.000Z</time>
      </trkpt>
      <trkpt lat="47.65345" lon="-3.12286">
        <ele>19.60000038147</ele>
        <time>2015-12-01T13:40:35.000Z</time>
      </trkpt>
      <trkpt lat="47.65351" lon="-3.12291">
        <ele>20</ele>
        <time>2015-12-01T13:40:37.000Z</time>
      </trkpt>
      <trkpt lat="47.65355" lon="-3.12294">
        <ele>20.39999961853</ele>
        <time>2015-12-01T13:40:38.000Z</time>
      </trkpt>
      <trkpt lat="47.65358" lon="-3.12297">
        <ele>20.799999237061</ele>
        <time>2015-12-01T13:40:39.000Z</time>
      </trkpt>
      <trkpt lat="47.65362" lon="-3.12299">
        <ele>21.200000762939</ele>
        <time>2015-12-01T13:40:40.000Z</time>
      </trkpt>
      <trkpt lat="47.65365" lon="-3.12301">
        <ele>21.60000038147</ele>
        <time>2015-12-01T13:40:41.000Z</time>
      </trkpt>
      <trkpt lat="47.65372" lon="-3.12307">
        <ele>21.60000038147</ele>
        <time>2015-12-01T13:40:43.000Z</time>
      </trkpt>
      <trkpt lat="47.65395" lon="-3.12317">
        <ele>21.60000038147</ele>
        <time>2015-12-01T13:40:49.000Z</time>
      </trkpt>
      <trkpt lat="47.65424" lon="-3.1232">
        <ele>21.60000038147</ele>
        <time>2015-12-01T13:40:56.000Z</time>
      </trkpt>
      <trkpt lat="47.65461" lon="-3.12314">
        <ele>21.60000038147</ele>
        <time>2015-12-01T13:41:05.000Z</time>
      </trkpt>
      <trkpt lat="47.65499" lon="-3.12304">
        <ele>21.60000038147</ele>
        <time>2015-12-01T13:41:14.000Z</time>
      </trkpt>
      <trkpt lat="47.65522" lon="-3.12297">
        <ele>22.200000762939</ele>
        <time>2015-12-01T13:41:20.000Z</time>
      </trkpt>
      <trkpt lat="47.65526" lon="-3.12296">
        <ele>22.60000038147</ele>
        <time>2015-12-01T13:41:21.000Z</time>
      </trkpt>
      <trkpt lat="47.6553" lon="-3.12295">
        <ele>23</ele>
        <time>2015-12-01T13:41:22.000Z</time>
      </trkpt>
      <trkpt lat="47.65534" lon="-3.12294">
        <ele>23.39999961853</ele>
        <time>2015-12-01T13:41:23.000Z</time>
      </trkpt>
      <trkpt lat="47.65537" lon="-3.12293">
        <ele>23.799999237061</ele>
        <time>2015-12-01T13:41:24.000Z</time>
      </trkpt>
      <trkpt lat="47.6556" lon="-3.12287">
        <ele>23.799999237061</ele>
        <time>2015-12-01T13:41:31.000Z</time>
      </trkpt>
      <trkpt lat="47.65568" lon="-3.12286">
        <ele>24.200000762939</ele>
        <time>2015-12-01T13:41:33.000Z</time>
      </trkpt>
      <trkpt lat="47.65572" lon="-3.12286">
        <ele>24.60000038147</ele>
        <time>2015-12-01T13:41:34.000Z</time>
      </trkpt>
      <trkpt lat="47.65575" lon="-3.12286">
        <ele>25</ele>
        <time>2015-12-01T13:41:35.000Z</time>
      </trkpt>
      <trkpt lat="47.65579" lon="-3.12285">
        <ele>25.39999961853</ele>
        <time>2015-12-01T13:41:36.000Z</time>
      </trkpt>
      <trkpt lat="47.65583" lon="-3.12285">
        <ele>25.799999237061</ele>
        <time>2015-12-01T13:41:37.000Z</time>
      </trkpt>
      <trkpt lat="47.6559" lon="-3.12285">
        <ele>25.799999237061</ele>
        <time>2015-12-01T13:41:39.000Z</time>
      </trkpt>
      <trkpt lat="47.65612" lon="-3.12287">
        <ele>25.799999237061</ele>
        <time>2015-12-01T13:41:45.000Z</time>
      </trkpt>
      <trkpt lat="47.65625" lon="-3.12303">
        <ele>25.799999237061</ele>
        <time>2015-12-01T13:41:50.000Z</time>
      </trkpt>
      <trkpt lat="47.65619" lon="-3.12322">
        <ele>25.799999237061</ele>
        <time>2015-12-01T13:41:53.000Z</time>
      </trkpt>
      <trkpt lat="47.65617" lon="-3.12329">
        <ele>25.799999237061</ele>
        <time>2015-12-01T13:41:54.000Z</time>
      </trkpt>
      <trkpt lat="47.65612" lon="-3.12341">
        <ele>25.799999237061</ele>
        <time>2015-12-01T13:41:56.000Z</time>
      </trkpt>
      <trkpt lat="47.65605" lon="-3.12359">
        <ele>25.799999237061</ele>
        <time>2015-12-01T13:41:59.000Z</time>
      </trkpt>
      <trkpt lat="47.65598" lon="-3.12377">
        <ele>25.799999237061</ele>
        <time>2015-12-01T13:42:02.000Z</time>
      </trkpt>
      <trkpt lat="47.65591" lon="-3.12396">
        <ele>25.799999237061</ele>
        <time>2015-12-01T13:42:05.000Z</time>
      </trkpt>
      <trkpt lat="47.65583" lon="-3.12417">
        <ele>25.799999237061</ele>
        <time>2015-12-01T13:42:08.000Z</time>
      </trkpt>
      <trkpt lat="47.65575" lon="-3.1244">
        <ele>25.39999961853</ele>
        <time>2015-12-01T13:42:11.000Z</time>
      </trkpt>
      <trkpt lat="47.65573" lon="-3.12448">
        <ele>24.799999237061</ele>
        <time>2015-12-01T13:42:12.000Z</time>
      </trkpt>
      <trkpt lat="47.6557" lon="-3.12456">
        <ele>24.39999961853</ele>
        <time>2015-12-01T13:42:13.000Z</time>
      </trkpt>
      <trkpt lat="47.65568" lon="-3.12465">
        <ele>24</ele>
        <time>2015-12-01T13:42:14.000Z</time>
      </trkpt>
      <trkpt lat="47.65566" lon="-3.12473">
        <ele>23.60000038147</ele>
        <time>2015-12-01T13:42:15.000Z</time>
      </trkpt>
      <trkpt lat="47.6556" lon="-3.12499">
        <ele>23.60000038147</ele>
        <time>2015-12-01T13:42:18.000Z</time>
      </trkpt>
      <trkpt lat="47.65556" lon="-3.12518">
        <ele>23.200000762939</ele>
        <time>2015-12-01T13:42:20.000Z</time>
      </trkpt>
      <trkpt lat="47.65556" lon="-3.12528">
        <ele>22.799999237061</ele>
        <time>2015-12-01T13:42:21.000Z</time>
      </trkpt>
      <trkpt lat="47.65555" lon="-3.12538">
        <ele>22.39999961853</ele>
        <time>2015-12-01T13:42:22.000Z</time>
      </trkpt>
      <trkpt lat="47.65555" lon="-3.12547">
        <ele>21.60000038147</ele>
        <time>2015-12-01T13:42:23.000Z</time>
      </trkpt>
      <trkpt lat="47.65556" lon="-3.12556">
        <ele>21.60000038147</ele>
        <time>2015-12-01T13:42:24.000Z</time>
      </trkpt>
      <trkpt lat="47.6556" lon="-3.12581">
        <ele>21.60000038147</ele>
        <time>2015-12-01T13:42:27.000Z</time>
      </trkpt>
      <trkpt lat="47.65562" lon="-3.12588">
        <ele>21.60000038147</ele>
        <time>2015-12-01T13:42:28.000Z</time>
      </trkpt>
      <trkpt lat="47.65564" lon="-3.12595">
        <ele>21.60000038147</ele>
        <time>2015-12-01T13:42:29.000Z</time>
      </trkpt>
      <trkpt lat="47.65572" lon="-3.12625">
        <ele>21.60000038147</ele>
        <time>2015-12-01T13:42:34.000Z</time>
      </trkpt>
      <trkpt lat="47.65583" lon="-3.12646">
        <ele>21.60000038147</ele>
        <time>2015-12-01T13:42:39.000Z</time>
      </trkpt>
      <trkpt lat="47.65588" lon="-3.12645">
        <ele>21.60000038147</ele>
        <time>2015-12-01T13:42:40.000Z</time>
      </trkpt>
      <trkpt lat="47.656" lon="-3.12643">
        <ele>21.60000038147</ele>
        <time>2015-12-01T13:42:43.000Z</time>
      </trkpt>
      <trkpt lat="47.6561" lon="-3.12645">
        <ele>21.60000038147</ele>
        <time>2015-12-01T13:42:45.000Z</time>
      </trkpt>
      <trkpt lat="47.65623" lon="-3.12653">
        <ele>21.60000038147</ele>
        <time>2015-12-01T13:42:48.000Z</time>
      </trkpt>
      <trkpt lat="47.65635" lon="-3.12661">
        <ele>21.60000038147</ele>
        <time>2015-12-01T13:42:51.000Z</time>
      </trkpt>
      <trkpt lat="47.65653" lon="-3.12673">
        <ele>21.60000038147</ele>
        <time>2015-12-01T13:42:56.000Z</time>
      </trkpt>
      <trkpt lat="47.65656" lon="-3.12674">
        <ele>21.60000038147</ele>
        <time>2015-12-01T13:42:57.000Z</time>
      </trkpt>
      <trkpt lat="47.65677" lon="-3.12678">
        <ele>21.60000038147</ele>
        <time>2015-12-01T13:43:03.000Z</time>
      </trkpt>
      <trkpt lat="47.65684" lon="-3.12679">
        <ele>22</ele>
        <time>2015-12-01T13:43:05.000Z</time>
      </trkpt>
      <trkpt lat="47.65688" lon="-3.1268">
        <ele>22.39999961853</ele>
        <time>2015-12-01T13:43:06.000Z</time>
      </trkpt>
      <trkpt lat="47.65691" lon="-3.1268">
        <ele>22.799999237061</ele>
        <time>2015-12-01T13:43:07.000Z</time>
      </trkpt>
      <trkpt lat="47.65695" lon="-3.1268">
        <ele>23.39999961853</ele>
        <time>2015-12-01T13:43:08.000Z</time>
      </trkpt>
      <trkpt lat="47.65698" lon="-3.12681">
        <ele>23.799999237061</ele>
        <time>2015-12-01T13:43:09.000Z</time>
      </trkpt>
      <trkpt lat="47.65713" lon="-3.12693">
        <ele>23.799999237061</ele>
        <time>2015-12-01T13:43:14.000Z</time>
      </trkpt>
      <trkpt lat="47.6572" lon="-3.12704">
        <ele>23.799999237061</ele>
        <time>2015-12-01T13:43:17.000Z</time>
      </trkpt>
      <trkpt lat="47.65721" lon="-3.1271">
        <ele>23.799999237061</ele>
        <time>2015-12-01T13:43:18.000Z</time>
      </trkpt>
      <trkpt lat="47.65725" lon="-3.12746">
        <ele>23.799999237061</ele>
        <time>2015-12-01T13:43:23.000Z</time>
      </trkpt>
      <trkpt lat="47.65732" lon="-3.12776">
        <ele>23.799999237061</ele>
        <time>2015-12-01T13:43:27.000Z</time>
      </trkpt>
      <trkpt lat="47.65735" lon="-3.12784">
        <ele>23.799999237061</ele>
        <time>2015-12-01T13:43:28.000Z</time>
      </trkpt>
      <trkpt lat="47.65755" lon="-3.12822">
        <ele>23.39999961853</ele>
        <time>2015-12-01T13:43:33.000Z</time>
      </trkpt>
      <trkpt lat="47.65759" lon="-3.1283">
        <ele>23</ele>
        <time>2015-12-01T13:43:34.000Z</time>
      </trkpt>
      <trkpt lat="47.65763" lon="-3.12838">
        <ele>22.39999961853</ele>
        <time>2015-12-01T13:43:35.000Z</time>
      </trkpt>
      <trkpt lat="47.65768" lon="-3.12846">
        <ele>21.60000038147</ele>
        <time>2015-12-01T13:43:36.000Z</time>
      </trkpt>
      <trkpt lat="47.65798" lon="-3.12899">
        <ele>21.60000038147</ele>
        <time>2015-12-01T13:43:43.000Z</time>
      </trkpt>
      <trkpt lat="47.65806" lon="-3.12914">
        <ele>21.200000762939</ele>
        <time>2015-12-01T13:43:45.000Z</time>
      </trkpt>
      <trkpt lat="47.6581" lon="-3.1292">
        <ele>20.799999237061</ele>
        <time>2015-12-01T13:43:46.000Z</time>
      </trkpt>
      <trkpt lat="47.65814" lon="-3.12926">
        <ele>20.39999961853</ele>
        <time>2015-12-01T13:43:47.000Z</time>
      </trkpt>
      <trkpt lat="47.65818" lon="-3.12933">
        <ele>20</ele>
        <time>2015-12-01T13:43:48.000Z</time>
      </trkpt>
      <trkpt lat="47.65822" lon="-3.1294">
        <ele>19.60000038147</ele>
        <time>2015-12-01T13:43:49.000Z</time>
      </trkpt>
      <trkpt lat="47.65844" lon="-3.12978">
        <ele>19.60000038147</ele>
        <time>2015-12-01T13:43:55.000Z</time>
      </trkpt>
      <trkpt lat="47.65859" lon="-3.13">
        <ele>19.60000038147</ele>
        <time>2015-12-01T13:43:59.000Z</time>
      </trkpt>
      <trkpt lat="47.6587" lon="-3.13002">
        <ele>19.60000038147</ele>
        <time>2015-12-01T13:44:01.000Z</time>
      </trkpt>
      <trkpt lat="47.65887" lon="-3.12994">
        <ele>19.60000038147</ele>
        <time>2015-12-01T13:44:05.000Z</time>
      </trkpt>
      <trkpt lat="47.65891" lon="-3.12991">
        <ele>19.60000038147</ele>
        <time>2015-12-01T13:44:06.000Z</time>
      </trkpt>
      <trkpt lat="47.65909" lon="-3.12984">
        <ele>19.60000038147</ele>
        <time>2015-12-01T13:44:10.000Z</time>
      </trkpt>
      <trkpt lat="47.65914" lon="-3.12982">
        <ele>19.60000038147</ele>
        <time>2015-12-01T13:44:11.000Z</time>
      </trkpt>
      <trkpt lat="47.65927" lon="-3.12976">
        <ele>19.60000038147</ele>
        <time>2015-12-01T13:44:14.000Z</time>
      </trkpt>
      <trkpt lat="47.6594" lon="-3.1297">
        <ele>19.60000038147</ele>
        <time>2015-12-01T13:44:17.000Z</time>
      </trkpt>
      <trkpt lat="47.65965" lon="-3.12957">
        <ele>19.60000038147</ele>
        <time>2015-12-01T13:44:23.000Z</time>
      </trkpt>
      <trkpt lat="47.65974" lon="-3.12954">
        <ele>19.60000038147</ele>
        <time>2015-12-01T13:44:25.000Z</time>
      </trkpt>
      <trkpt lat="47.65986" lon="-3.1295">
        <ele>19.60000038147</ele>
        <time>2015-12-01T13:44:28.000Z</time>
      </trkpt>
      <trkpt lat="47.65999" lon="-3.12947">
        <ele>19.60000038147</ele>
        <time>2015-12-01T13:44:31.000Z</time>
      </trkpt>
      <trkpt lat="47.66003" lon="-3.12947">
        <ele>19.60000038147</ele>
        <time>2015-12-01T13:44:32.000Z</time>
      </trkpt>
      <trkpt lat="47.6602" lon="-3.12942">
        <ele>19.60000038147</ele>
        <time>2015-12-01T13:44:36.000Z</time>
      </trkpt>
      <trkpt lat="47.66045" lon="-3.12934">
        <ele>19.60000038147</ele>
        <time>2015-12-01T13:44:42.000Z</time>
      </trkpt>
      <trkpt lat="47.66071" lon="-3.12924">
        <ele>19.60000038147</ele>
        <time>2015-12-01T13:44:49.000Z</time>
      </trkpt>
      <trkpt lat="47.66088" lon="-3.12914">
        <ele>19.60000038147</ele>
        <time>2015-12-01T13:44:54.000Z</time>
      </trkpt>
      <trkpt lat="47.66111" lon="-3.12908">
        <ele>19.60000038147</ele>
        <time>2015-12-01T13:45:00.000Z</time>
      </trkpt>
      <trkpt lat="47.66129" lon="-3.1291">
        <ele>19.60000038147</ele>
        <time>2015-12-01T13:45:04.000Z</time>
      </trkpt>
      <trkpt lat="47.66138" lon="-3.12915">
        <ele>19.60000038147</ele>
        <time>2015-12-01T13:45:06.000Z</time>
      </trkpt>
      <trkpt lat="47.66148" lon="-3.12935">
        <ele>19.60000038147</ele>
        <time>2015-12-01T13:45:10.000Z</time>
      </trkpt>
      <trkpt lat="47.66151" lon="-3.12946">
        <ele>19.60000038147</ele>
        <time>2015-12-01T13:45:12.000Z</time>
      </trkpt>
      <trkpt lat="47.66157" lon="-3.12968">
        <ele>19.60000038147</ele>
        <time>2015-12-01T13:45:16.000Z</time>
      </trkpt>
      <trkpt lat="47.66168" lon="-3.13005">
        <ele>19.60000038147</ele>
        <time>2015-12-01T13:45:22.000Z</time>
      </trkpt>
      <trkpt lat="47.66171" lon="-3.13018">
        <ele>19.60000038147</ele>
        <time>2015-12-01T13:45:24.000Z</time>
      </trkpt>
      <trkpt lat="47.66176" lon="-3.13036">
        <ele>19.60000038147</ele>
        <time>2015-12-01T13:45:27.000Z</time>
      </trkpt>
      <trkpt lat="47.6618" lon="-3.13048">
        <ele>19.60000038147</ele>
        <time>2015-12-01T13:45:29.000Z</time>
      </trkpt>
      <trkpt lat="47.66183" lon="-3.13063">
        <ele>19.60000038147</ele>
        <time>2015-12-01T13:45:32.000Z</time>
      </trkpt>
      <trkpt lat="47.66188" lon="-3.13079">
        <ele>19.60000038147</ele>
        <time>2015-12-01T13:45:35.000Z</time>
      </trkpt>
      <trkpt lat="47.6619" lon="-3.13085">
        <ele>19.60000038147</ele>
        <time>2015-12-01T13:45:36.000Z</time>
      </trkpt>
      <trkpt lat="47.66199" lon="-3.13111">
        <ele>19.60000038147</ele>
        <time>2015-12-01T13:45:41.000Z</time>
      </trkpt>
      <trkpt lat="47.66203" lon="-3.13124">
        <ele>19.60000038147</ele>
        <time>2015-12-01T13:45:43.000Z</time>
      </trkpt>
      <trkpt lat="47.6621" lon="-3.13139">
        <ele>19.60000038147</ele>
        <time>2015-12-01T13:45:46.000Z</time>
      </trkpt>
      <trkpt lat="47.66225" lon="-3.13168">
        <ele>19.60000038147</ele>
        <time>2015-12-01T13:45:52.000Z</time>
      </trkpt>
      <trkpt lat="47.6623" lon="-3.13188">
        <ele>19.60000038147</ele>
        <time>2015-12-01T13:45:55.000Z</time>
      </trkpt>
      <trkpt lat="47.6623" lon="-3.13204">
        <ele>19.60000038147</ele>
        <time>2015-12-01T13:45:57.000Z</time>
      </trkpt>
      <trkpt lat="47.66228" lon="-3.13256">
        <ele>19.60000038147</ele>
        <time>2015-12-01T13:46:04.000Z</time>
      </trkpt>
      <trkpt lat="47.66228" lon="-3.1329">
        <ele>19.60000038147</ele>
        <time>2015-12-01T13:46:09.000Z</time>
      </trkpt>
      <trkpt lat="47.66228" lon="-3.13296">
        <ele>19.60000038147</ele>
        <time>2015-12-01T13:46:10.000Z</time>
      </trkpt>
      <trkpt lat="47.66228" lon="-3.13324">
        <ele>19.60000038147</ele>
        <time>2015-12-01T13:46:14.000Z</time>
      </trkpt>
      <trkpt lat="47.66227" lon="-3.13338">
        <ele>19.60000038147</ele>
        <time>2015-12-01T13:46:16.000Z</time>
      </trkpt>
      <trkpt lat="47.66228" lon="-3.13344">
        <ele>19.60000038147</ele>
        <time>2015-12-01T13:46:17.000Z</time>
      </trkpt>
      <trkpt lat="47.66227" lon="-3.13364">
        <ele>19.60000038147</ele>
        <time>2015-12-01T13:46:20.000Z</time>
      </trkpt>
      <trkpt lat="47.66226" lon="-3.13404">
        <ele>19.60000038147</ele>
        <time>2015-12-01T13:46:26.000Z</time>
      </trkpt>
      <trkpt lat="47.66226" lon="-3.13422">
        <ele>19.60000038147</ele>
        <time>2015-12-01T13:46:29.000Z</time>
      </trkpt>
      <trkpt lat="47.66227" lon="-3.13429">
        <ele>19.60000038147</ele>
        <time>2015-12-01T13:46:30.000Z</time>
      </trkpt>
      <trkpt lat="47.66227" lon="-3.13443">
        <ele>19.60000038147</ele>
        <time>2015-12-01T13:46:32.000Z</time>
      </trkpt>
      <trkpt lat="47.66225" lon="-3.13463">
        <ele>19.60000038147</ele>
        <time>2015-12-01T13:46:35.000Z</time>
      </trkpt>
      <trkpt lat="47.66226" lon="-3.135">
        <ele>19.60000038147</ele>
        <time>2015-12-01T13:46:41.000Z</time>
      </trkpt>
      <trkpt lat="47.6623" lon="-3.13502">
        <ele>19.60000038147</ele>
        <time>2015-12-01T13:46:42.000Z</time>
      </trkpt>
      <trkpt lat="47.66236" lon="-3.13506">
        <ele>19.60000038147</ele>
        <time>2015-12-01T13:46:44.000Z</time>
      </trkpt>
      <trkpt lat="47.66251" lon="-3.13511">
        <ele>19.60000038147</ele>
        <time>2015-12-01T13:46:49.000Z</time>
      </trkpt>
      <trkpt lat="47.66256" lon="-3.13513">
        <ele>19.60000038147</ele>
        <time>2015-12-01T13:46:50.000Z</time>
      </trkpt>
      <trkpt lat="47.66274" lon="-3.13517">
        <ele>19.60000038147</ele>
        <time>2015-12-01T13:46:54.000Z</time>
      </trkpt>
      <trkpt lat="47.66294" lon="-3.13522">
        <ele>19.60000038147</ele>
        <time>2015-12-01T13:46:59.000Z</time>
      </trkpt>
      <trkpt lat="47.66319" lon="-3.13528">
        <ele>19.60000038147</ele>
        <time>2015-12-01T13:47:05.000Z</time>
      </trkpt>
      <trkpt lat="47.6636" lon="-3.13535">
        <ele>19.60000038147</ele>
        <time>2015-12-01T13:47:14.000Z</time>
      </trkpt>
      <trkpt lat="47.66384" lon="-3.1354">
        <ele>19.60000038147</ele>
        <time>2015-12-01T13:47:19.000Z</time>
      </trkpt>
      <trkpt lat="47.66393" lon="-3.13542">
        <ele>19.60000038147</ele>
        <time>2015-12-01T13:47:21.000Z</time>
      </trkpt>
      <trkpt lat="47.66425" lon="-3.13545">
        <ele>19.60000038147</ele>
        <time>2015-12-01T13:47:28.000Z</time>
      </trkpt>
      <trkpt lat="47.66457" lon="-3.13544">
        <ele>19.60000038147</ele>
        <time>2015-12-01T13:47:35.000Z</time>
      </trkpt>
      <trkpt lat="47.66483" lon="-3.13541">
        <ele>19.60000038147</ele>
        <time>2015-12-01T13:47:41.000Z</time>
      </trkpt>
      <trkpt lat="47.66521" lon="-3.1354">
        <ele>19.60000038147</ele>
        <time>2015-12-01T13:47:50.000Z</time>
      </trkpt>
      <trkpt lat="47.6655" lon="-3.13542">
        <ele>19.60000038147</ele>
        <time>2015-12-01T13:47:57.000Z</time>
      </trkpt>
      <trkpt lat="47.66579" lon="-3.13543">
        <ele>19.60000038147</ele>
        <time>2015-12-01T13:48:04.000Z</time>
      </trkpt>
      <trkpt lat="47.66604" lon="-3.13541">
        <ele>19.60000038147</ele>
        <time>2015-12-01T13:48:10.000Z</time>
      </trkpt>
      <trkpt lat="47.66625" lon="-3.13538">
        <ele>19.60000038147</ele>
        <time>2015-12-01T13:48:15.000Z</time>
      </trkpt>
      <trkpt lat="47.66637" lon="-3.13535">
        <ele>20</ele>
        <time>2015-12-01T13:48:18.000Z</time>
      </trkpt>
      <trkpt lat="47.66641" lon="-3.13535">
        <ele>20.39999961853</ele>
        <time>2015-12-01T13:48:19.000Z</time>
      </trkpt>
      <trkpt lat="47.66645" lon="-3.13534">
        <ele>20.799999237061</ele>
        <time>2015-12-01T13:48:20.000Z</time>
      </trkpt>
      <trkpt lat="47.66648" lon="-3.13534">
        <ele>21.200000762939</ele>
        <time>2015-12-01T13:48:21.000Z</time>
      </trkpt>
      <trkpt lat="47.66652" lon="-3.13533">
        <ele>21.60000038147</ele>
        <time>2015-12-01T13:48:22.000Z</time>
      </trkpt>
      <trkpt lat="47.66669" lon="-3.1353">
        <ele>21.60000038147</ele>
        <time>2015-12-01T13:48:27.000Z</time>
      </trkpt>
      <trkpt lat="47.66691" lon="-3.13523">
        <ele>21.60000038147</ele>
        <time>2015-12-01T13:48:34.000Z</time>
      </trkpt>
      <trkpt lat="47.66701" lon="-3.13518">
        <ele>22</ele>
        <time>2015-12-01T13:48:37.000Z</time>
      </trkpt>
      <trkpt lat="47.66704" lon="-3.13516">
        <ele>22.60000038147</ele>
        <time>2015-12-01T13:48:38.000Z</time>
      </trkpt>
      <trkpt lat="47.66708" lon="-3.13515">
        <ele>23</ele>
        <time>2015-12-01T13:48:39.000Z</time>
      </trkpt>
      <trkpt lat="47.66712" lon="-3.13514">
        <ele>23.39999961853</ele>
        <time>2015-12-01T13:48:40.000Z</time>
      </trkpt>
      <trkpt lat="47.66715" lon="-3.13512">
        <ele>23.799999237061</ele>
        <time>2015-12-01T13:48:41.000Z</time>
      </trkpt>
      <trkpt lat="47.66734" lon="-3.135">
        <ele>23.799999237061</ele>
        <time>2015-12-01T13:48:46.000Z</time>
      </trkpt>
      <trkpt lat="47.66752" lon="-3.13488">
        <ele>23.799999237061</ele>
        <time>2015-12-01T13:48:51.000Z</time>
      </trkpt>
      <trkpt lat="47.6676" lon="-3.13485">
        <ele>23.799999237061</ele>
        <time>2015-12-01T13:48:53.000Z</time>
      </trkpt>
      <trkpt lat="47.66782" lon="-3.1348">
        <ele>23.799999237061</ele>
        <time>2015-12-01T13:48:59.000Z</time>
      </trkpt>
      <trkpt lat="47.6679" lon="-3.13479">
        <ele>24.200000762939</ele>
        <time>2015-12-01T13:49:01.000Z</time>
      </trkpt>
      <trkpt lat="47.66793" lon="-3.13479">
        <ele>24.60000038147</ele>
        <time>2015-12-01T13:49:02.000Z</time>
      </trkpt>
      <trkpt lat="47.66797" lon="-3.13478">
        <ele>25</ele>
        <time>2015-12-01T13:49:03.000Z</time>
      </trkpt>
      <trkpt lat="47.66801" lon="-3.13478">
        <ele>25.39999961853</ele>
        <time>2015-12-01T13:49:04.000Z</time>
      </trkpt>
      <trkpt lat="47.66805" lon="-3.13478">
        <ele>25.799999237061</ele>
        <time>2015-12-01T13:49:05.000Z</time>
      </trkpt>
      <trkpt lat="47.66823" lon="-3.13476">
        <ele>25.799999237061</ele>
        <time>2015-12-01T13:49:09.000Z</time>
      </trkpt>
      <trkpt lat="47.66832" lon="-3.13474">
        <ele>25.799999237061</ele>
        <time>2015-12-01T13:49:11.000Z</time>
      </trkpt>
      <trkpt lat="47.66854" lon="-3.13473">
        <ele>25.799999237061</ele>
        <time>2015-12-01T13:49:16.000Z</time>
      </trkpt>
      <trkpt lat="47.66858" lon="-3.13472">
        <ele>25.799999237061</ele>
        <time>2015-12-01T13:49:17.000Z</time>
      </trkpt>
      <trkpt lat="47.66889" lon="-3.13467">
        <ele>25.799999237061</ele>
        <time>2015-12-01T13:49:24.000Z</time>
      </trkpt>
      <trkpt lat="47.66901" lon="-3.13475">
        <ele>25.799999237061</ele>
        <time>2015-12-01T13:49:27.000Z</time>
      </trkpt>
      <trkpt lat="47.66906" lon="-3.13494">
        <ele>25.799999237061</ele>
        <time>2015-12-01T13:49:30.000Z</time>
      </trkpt>
      <trkpt lat="47.66908" lon="-3.135">
        <ele>25.799999237061</ele>
        <time>2015-12-01T13:49:31.000Z</time>
      </trkpt>
      <trkpt lat="47.66917" lon="-3.13536">
        <ele>25.799999237061</ele>
        <time>2015-12-01T13:49:37.000Z</time>
      </trkpt>
      <trkpt lat="47.66918" lon="-3.1354">
        <ele>25.39999961853</ele>
        <time>2015-12-01T13:49:38.000Z</time>
      </trkpt>
      <trkpt lat="47.66919" lon="-3.13546">
        <ele>25</ele>
        <time>2015-12-01T13:49:39.000Z</time>
      </trkpt>
      <trkpt lat="47.6692" lon="-3.13551">
        <ele>24.60000038147</ele>
        <time>2015-12-01T13:49:40.000Z</time>
      </trkpt>
      <trkpt lat="47.66921" lon="-3.13556">
        <ele>24.200000762939</ele>
        <time>2015-12-01T13:49:41.000Z</time>
      </trkpt>
      <trkpt lat="47.66922" lon="-3.13562">
        <ele>23.799999237061</ele>
        <time>2015-12-01T13:49:42.000Z</time>
      </trkpt>
      <trkpt lat="47.66926" lon="-3.13579">
        <ele>23.799999237061</ele>
        <time>2015-12-01T13:49:45.000Z</time>
      </trkpt>
      <trkpt lat="47.66932" lon="-3.13603">
        <ele>23.799999237061</ele>
        <time>2015-12-01T13:49:49.000Z</time>
      </trkpt>
      <trkpt lat="47.6694" lon="-3.13637">
        <ele>23.799999237061</ele>
        <time>2015-12-01T13:49:55.000Z</time>
      </trkpt>
      <trkpt lat="47.66942" lon="-3.13647">
        <ele>23.39999961853</ele>
        <time>2015-12-01T13:49:57.000Z</time>
      </trkpt>
      <trkpt lat="47.66943" lon="-3.13653">
        <ele>23</ele>
        <time>2015-12-01T13:49:58.000Z</time>
      </trkpt>
      <trkpt lat="47.66944" lon="-3.13658">
        <ele>22.60000038147</ele>
        <time>2015-12-01T13:49:59.000Z</time>
      </trkpt>
      <trkpt lat="47.66946" lon="-3.13664">
        <ele>22.200000762939</ele>
        <time>2015-12-01T13:50:00.000Z</time>
      </trkpt>
      <trkpt lat="47.66947" lon="-3.13669">
        <ele>21.799999237061</ele>
        <time>2015-12-01T13:50:01.000Z</time>
      </trkpt>
      <trkpt lat="47.66952" lon="-3.13695">
        <ele>21.799999237061</ele>
        <time>2015-12-01T13:50:06.000Z</time>
      </trkpt>
      <trkpt lat="47.66957" lon="-3.13716">
        <ele>21.39999961853</ele>
        <time>2015-12-01T13:50:11.000Z</time>
      </trkpt>
      <trkpt lat="47.66958" lon="-3.1372">
        <ele>20.60000038147</ele>
        <time>2015-12-01T13:50:12.000Z</time>
      </trkpt>
      <trkpt lat="47.66958" lon="-3.13723">
        <ele>20.200000762939</ele>
        <time>2015-12-01T13:50:13.000Z</time>
      </trkpt>
      <trkpt lat="47.66957" lon="-3.13727">
        <ele>19.799999237061</ele>
        <time>2015-12-01T13:50:14.000Z</time>
      </trkpt>
      <trkpt lat="47.66954" lon="-3.13734">
        <ele>19.799999237061</ele>
        <time>2015-12-01T13:50:16.000Z</time>
      </trkpt>
      <trkpt lat="47.66947" lon="-3.13754">
        <ele>19.799999237061</ele>
        <time>2015-12-01T13:50:23.000Z</time>
      </trkpt>
      <trkpt lat="47.66947" lon="-3.13771">
        <ele>19.799999237061</ele>
        <time>2015-12-01T13:50:27.000Z</time>
      </trkpt>
      <trkpt lat="47.66947" lon="-3.13775">
        <ele>19.799999237061</ele>
        <time>2015-12-01T13:50:28.000Z</time>
      </trkpt>
      <trkpt lat="47.6695" lon="-3.13794">
        <ele>19.799999237061</ele>
        <time>2015-12-01T13:50:34.000Z</time>
      </trkpt>
      <trkpt lat="47.66954" lon="-3.13806">
        <ele>19.799999237061</ele>
        <time>2015-12-01T13:50:38.000Z</time>
      </trkpt>
      <trkpt lat="47.66967" lon="-3.1383">
        <ele>19.799999237061</ele>
        <time>2015-12-01T13:50:44.000Z</time>
      </trkpt>
      <trkpt lat="47.66974" lon="-3.13849">
        <ele>19.799999237061</ele>
        <time>2015-12-01T13:50:49.000Z</time>
      </trkpt>
      <trkpt lat="47.66977" lon="-3.1387">
        <ele>19.799999237061</ele>
        <time>2015-12-01T13:50:56.000Z</time>
      </trkpt>
      <trkpt lat="47.66976" lon="-3.1387">
        <ele>19.799999237061</ele>
        <time>2015-12-01T13:51:07.000Z</time>
      </trkpt>
      <trkpt lat="47.66976" lon="-3.13864">
        <ele>19.799999237061</ele>
        <time>2015-12-01T13:51:09.000Z</time>
      </trkpt>
      <trkpt lat="47.66976" lon="-3.13858">
        <ele>19.799999237061</ele>
        <time>2015-12-01T13:51:11.000Z</time>
      </trkpt>
      <trkpt lat="47.66974" lon="-3.13845">
        <ele>19.799999237061</ele>
        <time>2015-12-01T13:51:14.000Z</time>
      </trkpt>
      <trkpt lat="47.66967" lon="-3.13825">
        <ele>19.799999237061</ele>
        <time>2015-12-01T13:51:20.000Z</time>
      </trkpt>
      <trkpt lat="47.66958" lon="-3.13813">
        <ele>19.799999237061</ele>
        <time>2015-12-01T13:51:27.000Z</time>
      </trkpt>
      <trkpt lat="47.66958" lon="-3.13811">
        <ele>19.799999237061</ele>
        <time>2015-12-01T13:51:29.000Z</time>
      </trkpt>
      <trkpt lat="47.66956" lon="-3.13813">
        <ele>19.799999237061</ele>
        <time>2015-12-01T13:51:39.000Z</time>
      </trkpt>
      <trkpt lat="47.66957" lon="-3.13815">
        <ele>19.799999237061</ele>
        <time>2015-12-01T13:51:40.000Z</time>
      </trkpt>
      <trkpt lat="47.66962" lon="-3.13824">
        <ele>19.799999237061</ele>
        <time>2015-12-01T13:51:43.000Z</time>
      </trkpt>
      <trkpt lat="47.66966" lon="-3.13829">
        <ele>19.799999237061</ele>
        <time>2015-12-01T13:51:45.000Z</time>
      </trkpt>
      <trkpt lat="47.66972" lon="-3.13845">
        <ele>19.799999237061</ele>
        <time>2015-12-01T13:51:49.000Z</time>
      </trkpt>
      <trkpt lat="47.66976" lon="-3.13872">
        <ele>19.799999237061</ele>
        <time>2015-12-01T13:51:55.000Z</time>
      </trkpt>
      <trkpt lat="47.66977" lon="-3.13899">
        <ele>19.799999237061</ele>
        <time>2015-12-01T13:52:01.000Z</time>
      </trkpt>
      <trkpt lat="47.66978" lon="-3.13925">
        <ele>19.799999237061</ele>
        <time>2015-12-01T13:52:07.000Z</time>
      </trkpt>
      <trkpt lat="47.6698" lon="-3.1396">
        <ele>19.799999237061</ele>
        <time>2015-12-01T13:52:15.000Z</time>
      </trkpt>
      <trkpt lat="47.66981" lon="-3.13968">
        <ele>20.200000762939</ele>
        <time>2015-12-01T13:52:17.000Z</time>
      </trkpt>
      <trkpt lat="47.66981" lon="-3.13972">
        <ele>20.60000038147</ele>
        <time>2015-12-01T13:52:18.000Z</time>
      </trkpt>
      <trkpt lat="47.66982" lon="-3.13977">
        <ele>21</ele>
        <time>2015-12-01T13:52:19.000Z</time>
      </trkpt>
      <trkpt lat="47.66982" lon="-3.13982">
        <ele>21.39999961853</ele>
        <time>2015-12-01T13:52:20.000Z</time>
      </trkpt>
      <trkpt lat="47.66983" lon="-3.13986">
        <ele>21.799999237061</ele>
        <time>2015-12-01T13:52:21.000Z</time>
      </trkpt>
      <trkpt lat="47.66983" lon="-3.13991">
        <ele>21.799999237061</ele>
        <time>2015-12-01T13:52:22.000Z</time>
      </trkpt>
      <trkpt lat="47.66983" lon="-3.14018">
        <ele>21.799999237061</ele>
        <time>2015-12-01T13:52:28.000Z</time>
      </trkpt>
      <trkpt lat="47.66985" lon="-3.14049">
        <ele>22.200000762939</ele>
        <time>2015-12-01T13:52:35.000Z</time>
      </trkpt>
      <trkpt lat="47.66985" lon="-3.14053">
        <ele>22.60000038147</ele>
        <time>2015-12-01T13:52:36.000Z</time>
      </trkpt>
      <trkpt lat="47.66985" lon="-3.14058">
        <ele>23</ele>
        <time>2015-12-01T13:52:37.000Z</time>
      </trkpt>
      <trkpt lat="47.66985" lon="-3.14062">
        <ele>23.39999961853</ele>
        <time>2015-12-01T13:52:38.000Z</time>
      </trkpt>
      <trkpt lat="47.66986" lon="-3.14066">
        <ele>23.799999237061</ele>
        <time>2015-12-01T13:52:39.000Z</time>
      </trkpt>
      <trkpt lat="47.66986" lon="-3.14085">
        <ele>23.799999237061</ele>
        <time>2015-12-01T13:52:43.000Z</time>
      </trkpt>
      <trkpt lat="47.66986" lon="-3.14109">
        <ele>23.799999237061</ele>
        <time>2015-12-01T13:52:49.000Z</time>
      </trkpt>
      <trkpt lat="47.66986" lon="-3.1414">
        <ele>23.799999237061</ele>
        <time>2015-12-01T13:52:56.000Z</time>
      </trkpt>
      <trkpt lat="47.66984" lon="-3.14187">
        <ele>23.799999237061</ele>
        <time>2015-12-01T13:53:06.000Z</time>
      </trkpt>
      <trkpt lat="47.66981" lon="-3.14215">
        <ele>23.799999237061</ele>
        <time>2015-12-01T13:53:12.000Z</time>
      </trkpt>
      <trkpt lat="47.66979" lon="-3.14244">
        <ele>24.200000762939</ele>
        <time>2015-12-01T13:53:18.000Z</time>
      </trkpt>
      <trkpt lat="47.66979" lon="-3.14249">
        <ele>24.60000038147</ele>
        <time>2015-12-01T13:53:19.000Z</time>
      </trkpt>
      <trkpt lat="47.66979" lon="-3.14254">
        <ele>25</ele>
        <time>2015-12-01T13:53:20.000Z</time>
      </trkpt>
      <trkpt lat="47.66978" lon="-3.14258">
        <ele>25.39999961853</ele>
        <time>2015-12-01T13:53:21.000Z</time>
      </trkpt>
      <trkpt lat="47.66978" lon="-3.14263">
        <ele>25.799999237061</ele>
        <time>2015-12-01T13:53:22.000Z</time>
      </trkpt>
      <trkpt lat="47.66977" lon="-3.1429">
        <ele>25.799999237061</ele>
        <time>2015-12-01T13:53:27.000Z</time>
      </trkpt>
      <trkpt lat="47.66976" lon="-3.1433">
        <ele>25.799999237061</ele>
        <time>2015-12-01T13:53:34.000Z</time>
      </trkpt>
      <trkpt lat="47.66978" lon="-3.14352">
        <ele>25.799999237061</ele>
        <time>2015-12-01T13:53:39.000Z</time>
      </trkpt>
      <trkpt lat="47.66978" lon="-3.14362">
        <ele>26.200000762939</ele>
        <time>2015-12-01T13:53:42.000Z</time>
      </trkpt>
      <trkpt lat="47.66977" lon="-3.14367">
        <ele>26.60000038147</ele>
        <time>2015-12-01T13:53:43.000Z</time>
      </trkpt>
      <trkpt lat="47.66975" lon="-3.14371">
        <ele>27</ele>
        <time>2015-12-01T13:53:44.000Z</time>
      </trkpt>
      <trkpt lat="47.66973" lon="-3.14375">
        <ele>27.39999961853</ele>
        <time>2015-12-01T13:53:45.000Z</time>
      </trkpt>
      <trkpt lat="47.6697" lon="-3.14378">
        <ele>27.799999237061</ele>
        <time>2015-12-01T13:53:46.000Z</time>
      </trkpt>
      <trkpt lat="47.66964" lon="-3.1438">
        <ele>27.799999237061</ele>
        <time>2015-12-01T13:53:48.000Z</time>
      </trkpt>
      <trkpt lat="47.6696" lon="-3.14383">
        <ele>27.799999237061</ele>
        <time>2015-12-01T13:53:50.000Z</time>
      </trkpt>
      <trkpt lat="47.66959" lon="-3.14385">
        <ele>27.799999237061</ele>
        <time>2015-12-01T13:53:52.000Z</time>
      </trkpt>
      <trkpt lat="47.66959" lon="-3.14385">
        <ele>27.799999237061</ele>
        <time>2015-12-01T13:53:53.000Z</time>
      </trkpt>
      <trkpt lat="47.66958" lon="-3.14385">
        <ele>27.799999237061</ele>
        <time>2015-12-01T13:53:55.000Z</time>
      </trkpt>
      <trkpt lat="47.66956" lon="-3.14382">
        <ele>27.799999237061</ele>
        <time>2015-12-01T13:53:57.000Z</time>
      </trkpt>
      <trkpt lat="47.66949" lon="-3.14382">
        <ele>27.799999237061</ele>
        <time>2015-12-01T13:54:00.000Z</time>
      </trkpt>
      <trkpt lat="47.66943" lon="-3.14381">
        <ele>27.799999237061</ele>
        <time>2015-12-01T13:54:02.000Z</time>
      </trkpt>
      <trkpt lat="47.66931" lon="-3.14381">
        <ele>27.799999237061</ele>
        <time>2015-12-01T13:54:08.000Z</time>
      </trkpt>
      <trkpt lat="47.66917" lon="-3.14385">
        <ele>27.799999237061</ele>
        <time>2015-12-01T13:54:13.000Z</time>
      </trkpt>
      <trkpt lat="47.66901" lon="-3.144">
        <ele>27.799999237061</ele>
        <time>2015-12-01T13:54:19.000Z</time>
      </trkpt>
      <trkpt lat="47.66896" lon="-3.14407">
        <ele>28.200000762939</ele>
        <time>2015-12-01T13:54:21.000Z</time>
      </trkpt>
      <trkpt lat="47.66894" lon="-3.14411">
        <ele>28.60000038147</ele>
        <time>2015-12-01T13:54:22.000Z</time>
      </trkpt>
      <trkpt lat="47.66892" lon="-3.14414">
        <ele>29</ele>
        <time>2015-12-01T13:54:23.000Z</time>
      </trkpt>
      <trkpt lat="47.66889" lon="-3.14417">
        <ele>29.39999961853</ele>
        <time>2015-12-01T13:54:24.000Z</time>
      </trkpt>
      <trkpt lat="47.66887" lon="-3.1442">
        <ele>29.799999237061</ele>
        <time>2015-12-01T13:54:25.000Z</time>
      </trkpt>
      <trkpt lat="47.66885" lon="-3.14423">
        <ele>29.799999237061</ele>
        <time>2015-12-01T13:54:26.000Z</time>
      </trkpt>
      <trkpt lat="47.6687" lon="-3.14441">
        <ele>29.799999237061</ele>
        <time>2015-12-01T13:54:32.000Z</time>
      </trkpt>
      <trkpt lat="47.66864" lon="-3.1446">
        <ele>29.799999237061</ele>
        <time>2015-12-01T13:54:36.000Z</time>
      </trkpt>
      <trkpt lat="47.66864" lon="-3.14468">
        <ele>29.799999237061</ele>
        <time>2015-12-01T13:54:38.000Z</time>
      </trkpt>
      <trkpt lat="47.66863" lon="-3.1447">
        <ele>29.799999237061</ele>
        <time>2015-12-01T13:54:39.000Z</time>
      </trkpt>
      <trkpt lat="47.6686" lon="-3.14464">
        <ele>29.799999237061</ele>
        <time>2015-12-01T13:54:41.000Z</time>
      </trkpt>
      <trkpt lat="47.66858" lon="-3.1446">
        <ele>29.799999237061</ele>
        <time>2015-12-01T13:54:42.000Z</time>
      </trkpt>
      <trkpt lat="47.66858" lon="-3.14455">
        <ele>29.799999237061</ele>
        <time>2015-12-01T13:54:43.000Z</time>
      </trkpt>
      <trkpt lat="47.66865" lon="-3.14446">
        <ele>29.799999237061</ele>
        <time>2015-12-01T13:54:45.000Z</time>
      </trkpt>
      <trkpt lat="47.66882" lon="-3.14426">
        <ele>29.799999237061</ele>
        <time>2015-12-01T13:54:50.000Z</time>
      </trkpt>
      <trkpt lat="47.66884" lon="-3.14423">
        <ele>29.799999237061</ele>
        <time>2015-12-01T13:54:51.000Z</time>
      </trkpt>
      <trkpt lat="47.669" lon="-3.14397">
        <ele>29.799999237061</ele>
        <time>2015-12-01T13:54:57.000Z</time>
      </trkpt>
      <trkpt lat="47.66917" lon="-3.14381">
        <ele>29.799999237061</ele>
        <time>2015-12-01T13:55:03.000Z</time>
      </trkpt>
      <trkpt lat="47.66935" lon="-3.14385">
        <ele>29.799999237061</ele>
        <time>2015-12-01T13:55:08.000Z</time>
      </trkpt>
      <trkpt lat="47.66938" lon="-3.14391">
        <ele>29.799999237061</ele>
        <time>2015-12-01T13:55:11.000Z</time>
      </trkpt>
      <trkpt lat="47.66938" lon="-3.14391">
        <ele>29.799999237061</ele>
        <time>2015-12-01T13:55:12.000Z</time>
      </trkpt>
      <trkpt lat="47.66936" lon="-3.14388">
        <ele>29.799999237061</ele>
        <time>2015-12-01T13:55:20.000Z</time>
      </trkpt>
      <trkpt lat="47.66936" lon="-3.14386">
        <ele>29.799999237061</ele>
        <time>2015-12-01T13:55:21.000Z</time>
      </trkpt>
      <trkpt lat="47.66943" lon="-3.14381">
        <ele>29.799999237061</ele>
        <time>2015-12-01T13:55:24.000Z</time>
      </trkpt>
      <trkpt lat="47.66962" lon="-3.14379">
        <ele>29.799999237061</ele>
        <time>2015-12-01T13:55:30.000Z</time>
      </trkpt>
      <trkpt lat="47.6698" lon="-3.1438">
        <ele>29.799999237061</ele>
        <time>2015-12-01T13:55:35.000Z</time>
      </trkpt>
      <trkpt lat="47.66986" lon="-3.144">
        <ele>29.799999237061</ele>
        <time>2015-12-01T13:55:39.000Z</time>
      </trkpt>
      <trkpt lat="47.66993" lon="-3.14438">
        <ele>29.799999237061</ele>
        <time>2015-12-01T13:55:46.000Z</time>
      </trkpt>
      <trkpt lat="47.67006" lon="-3.14462">
        <ele>29.799999237061</ele>
        <time>2015-12-01T13:55:51.000Z</time>
      </trkpt>
      <trkpt lat="47.67008" lon="-3.14467">
        <ele>29.799999237061</ele>
        <time>2015-12-01T13:55:52.000Z</time>
      </trkpt>
      <trkpt lat="47.67015" lon="-3.14489">
        <ele>29.799999237061</ele>
        <time>2015-12-01T13:55:56.000Z</time>
      </trkpt>
      <trkpt lat="47.67017" lon="-3.14494">
        <ele>29.799999237061</ele>
        <time>2015-12-01T13:55:57.000Z</time>
      </trkpt>
      <trkpt lat="47.67025" lon="-3.14517">
        <ele>30.200000762939</ele>
        <time>2015-12-01T13:56:02.000Z</time>
      </trkpt>
      <trkpt lat="47.67027" lon="-3.14522">
        <ele>30.60000038147</ele>
        <time>2015-12-01T13:56:03.000Z</time>
      </trkpt>
      <trkpt lat="47.67029" lon="-3.14527">
        <ele>31</ele>
        <time>2015-12-01T13:56:04.000Z</time>
      </trkpt>
      <trkpt lat="47.67031" lon="-3.14532">
        <ele>31.39999961853</ele>
        <time>2015-12-01T13:56:05.000Z</time>
      </trkpt>
      <trkpt lat="47.67034" lon="-3.14537">
        <ele>31.799999237061</ele>
        <time>2015-12-01T13:56:06.000Z</time>
      </trkpt>
      <trkpt lat="47.6704" lon="-3.1455">
        <ele>31.799999237061</ele>
        <time>2015-12-01T13:56:09.000Z</time>
      </trkpt>
      <trkpt lat="47.67063" lon="-3.14587">
        <ele>31.799999237061</ele>
        <time>2015-12-01T13:56:17.000Z</time>
      </trkpt>
      <trkpt lat="47.67076" lon="-3.14607">
        <ele>31.799999237061</ele>
        <time>2015-12-01T13:56:22.000Z</time>
      </trkpt>
      <trkpt lat="47.67078" lon="-3.14613">
        <ele>31.39999961853</ele>
        <time>2015-12-01T13:56:23.000Z</time>
      </trkpt>
      <trkpt lat="47.6708" lon="-3.14618">
        <ele>31</ele>
        <time>2015-12-01T13:56:24.000Z</time>
      </trkpt>
      <trkpt lat="47.67082" lon="-3.14623">
        <ele>30.60000038147</ele>
        <time>2015-12-01T13:56:25.000Z</time>
      </trkpt>
      <trkpt lat="47.67083" lon="-3.14627">
        <ele>30.200000762939</ele>
        <time>2015-12-01T13:56:26.000Z</time>
      </trkpt>
      <trkpt lat="47.67085" lon="-3.14631">
        <ele>29.799999237061</ele>
        <time>2015-12-01T13:56:27.000Z</time>
      </trkpt>
      <trkpt lat="47.67093" lon="-3.14652">
        <ele>29.799999237061</ele>
        <time>2015-12-01T13:56:32.000Z</time>
      </trkpt>
      <trkpt lat="47.67095" lon="-3.14656">
        <ele>29.39999961853</ele>
        <time>2015-12-01T13:56:33.000Z</time>
      </trkpt>
      <trkpt lat="47.67098" lon="-3.1466">
        <ele>29</ele>
        <time>2015-12-01T13:56:34.000Z</time>
      </trkpt>
      <trkpt lat="47.671" lon="-3.14665">
        <ele>28.60000038147</ele>
        <time>2015-12-01T13:56:35.000Z</time>
      </trkpt>
      <trkpt lat="47.67102" lon="-3.1467">
        <ele>28</ele>
        <time>2015-12-01T13:56:36.000Z</time>
      </trkpt>
      <trkpt lat="47.67104" lon="-3.14675">
        <ele>27.60000038147</ele>
        <time>2015-12-01T13:56:37.000Z</time>
      </trkpt>
      <trkpt lat="47.67118" lon="-3.14706">
        <ele>27.60000038147</ele>
        <time>2015-12-01T13:56:43.000Z</time>
      </trkpt>
      <trkpt lat="47.67125" lon="-3.14722">
        <ele>27.200000762939</ele>
        <time>2015-12-01T13:56:46.000Z</time>
      </trkpt>
      <trkpt lat="47.67127" lon="-3.14727">
        <ele>26.39999961853</ele>
        <time>2015-12-01T13:56:47.000Z</time>
      </trkpt>
      <trkpt lat="47.67129" lon="-3.14733">
        <ele>26</ele>
        <time>2015-12-01T13:56:48.000Z</time>
      </trkpt>
      <trkpt lat="47.67132" lon="-3.14739">
        <ele>25.60000038147</ele>
        <time>2015-12-01T13:56:49.000Z</time>
      </trkpt>
      <trkpt lat="47.67138" lon="-3.14751">
        <ele>25.60000038147</ele>
        <time>2015-12-01T13:56:51.000Z</time>
      </trkpt>
      <trkpt lat="47.67144" lon="-3.14771">
        <ele>25.60000038147</ele>
        <time>2015-12-01T13:56:54.000Z</time>
      </trkpt>
      <trkpt lat="47.67147" lon="-3.14785">
        <ele>25.60000038147</ele>
        <time>2015-12-01T13:56:56.000Z</time>
      </trkpt>
      <trkpt lat="47.67149" lon="-3.14807">
        <ele>25.60000038147</ele>
        <time>2015-12-01T13:56:59.000Z</time>
      </trkpt>
      <trkpt lat="47.67155" lon="-3.1485">
        <ele>25.60000038147</ele>
        <time>2015-12-01T13:57:05.000Z</time>
      </trkpt>
      <trkpt lat="47.67162" lon="-3.14878">
        <ele>25.200000762939</ele>
        <time>2015-12-01T13:57:10.000Z</time>
      </trkpt>
      <trkpt lat="47.67165" lon="-3.14884">
        <ele>24.39999961853</ele>
        <time>2015-12-01T13:57:11.000Z</time>
      </trkpt>
      <trkpt lat="47.67167" lon="-3.1489">
        <ele>24</ele>
        <time>2015-12-01T13:57:12.000Z</time>
      </trkpt>
      <trkpt lat="47.67169" lon="-3.14896">
        <ele>23.60000038147</ele>
        <time>2015-12-01T13:57:13.000Z</time>
      </trkpt>
      <trkpt lat="47.67175" lon="-3.14918">
        <ele>23.60000038147</ele>
        <time>2015-12-01T13:57:17.000Z</time>
      </trkpt>
      <trkpt lat="47.67178" lon="-3.1495">
        <ele>23.60000038147</ele>
        <time>2015-12-01T13:57:22.000Z</time>
      </trkpt>
      <trkpt lat="47.67179" lon="-3.14956">
        <ele>23.60000038147</ele>
        <time>2015-12-01T13:57:23.000Z</time>
      </trkpt>
      <trkpt lat="47.67184" lon="-3.14989">
        <ele>23.60000038147</ele>
        <time>2015-12-01T13:57:29.000Z</time>
      </trkpt>
      <trkpt lat="47.67188" lon="-3.15024">
        <ele>23.60000038147</ele>
        <time>2015-12-01T13:57:35.000Z</time>
      </trkpt>
      <trkpt lat="47.6719" lon="-3.15055">
        <ele>23.60000038147</ele>
        <time>2015-12-01T13:57:41.000Z</time>
      </trkpt>
      <trkpt lat="47.67191" lon="-3.15087">
        <ele>23.60000038147</ele>
        <time>2015-12-01T13:57:47.000Z</time>
      </trkpt>
      <trkpt lat="47.67191" lon="-3.15093">
        <ele>24</ele>
        <time>2015-12-01T13:57:48.000Z</time>
      </trkpt>
      <trkpt lat="47.67191" lon="-3.15097">
        <ele>24.39999961853</ele>
        <time>2015-12-01T13:57:49.000Z</time>
      </trkpt>
      <trkpt lat="47.67191" lon="-3.15102">
        <ele>24.799999237061</ele>
        <time>2015-12-01T13:57:50.000Z</time>
      </trkpt>
      <trkpt lat="47.67192" lon="-3.15107">
        <ele>25.200000762939</ele>
        <time>2015-12-01T13:57:51.000Z</time>
      </trkpt>
      <trkpt lat="47.67192" lon="-3.15112">
        <ele>25.60000038147</ele>
        <time>2015-12-01T13:57:52.000Z</time>
      </trkpt>
      <trkpt lat="47.67192" lon="-3.15122">
        <ele>25.60000038147</ele>
        <time>2015-12-01T13:57:54.000Z</time>
      </trkpt>
      <trkpt lat="47.67192" lon="-3.15151">
        <ele>25.60000038147</ele>
        <time>2015-12-01T13:58:01.000Z</time>
      </trkpt>
      <trkpt lat="47.67191" lon="-3.15154">
        <ele>26</ele>
        <time>2015-12-01T13:58:02.000Z</time>
      </trkpt>
      <trkpt lat="47.67189" lon="-3.15156">
        <ele>26.60000038147</ele>
        <time>2015-12-01T13:58:03.000Z</time>
      </trkpt>
      <trkpt lat="47.67186" lon="-3.15158">
        <ele>27</ele>
        <time>2015-12-01T13:58:04.000Z</time>
      </trkpt>
      <trkpt lat="47.67184" lon="-3.15159">
        <ele>27.39999961853</ele>
        <time>2015-12-01T13:58:05.000Z</time>
      </trkpt>
      <trkpt lat="47.6718" lon="-3.1516">
        <ele>27.799999237061</ele>
        <time>2015-12-01T13:58:06.000Z</time>
      </trkpt>
      <trkpt lat="47.67171" lon="-3.15168">
        <ele>27.799999237061</ele>
        <time>2015-12-01T13:58:09.000Z</time>
      </trkpt>
      <trkpt lat="47.67169" lon="-3.15191">
        <ele>27.799999237061</ele>
        <time>2015-12-01T13:58:13.000Z</time>
      </trkpt>
      <trkpt lat="47.6717" lon="-3.1522">
        <ele>27.799999237061</ele>
        <time>2015-12-01T13:58:18.000Z</time>
      </trkpt>
      <trkpt lat="47.67175" lon="-3.1525">
        <ele>27.799999237061</ele>
        <time>2015-12-01T13:58:24.000Z</time>
      </trkpt>
      <trkpt lat="47.67184" lon="-3.15284">
        <ele>27.799999237061</ele>
        <time>2015-12-01T13:58:31.000Z</time>
      </trkpt>
      <trkpt lat="47.67191" lon="-3.1529">
        <ele>27.799999237061</ele>
        <time>2015-12-01T13:58:33.000Z</time>
      </trkpt>
      <trkpt lat="47.67195" lon="-3.15291">
        <ele>27.799999237061</ele>
        <time>2015-12-01T13:58:34.000Z</time>
      </trkpt>
      <trkpt lat="47.67226" lon="-3.15299">
        <ele>27.799999237061</ele>
        <time>2015-12-01T13:58:41.000Z</time>
      </trkpt>
      <trkpt lat="47.67253" lon="-3.15307">
        <ele>27.799999237061</ele>
        <time>2015-12-01T13:58:47.000Z</time>
      </trkpt>
      <trkpt lat="47.67268" lon="-3.15314">
        <ele>27.39999961853</ele>
        <time>2015-12-01T13:58:50.000Z</time>
      </trkpt>
      <trkpt lat="47.67274" lon="-3.15315">
        <ele>27</ele>
        <time>2015-12-01T13:58:51.000Z</time>
      </trkpt>
      <trkpt lat="47.67278" lon="-3.15317">
        <ele>26.60000038147</ele>
        <time>2015-12-01T13:58:52.000Z</time>
      </trkpt>
      <trkpt lat="47.67284" lon="-3.15319">
        <ele>26.200000762939</ele>
        <time>2015-12-01T13:58:53.000Z</time>
      </trkpt>
      <trkpt lat="47.67288" lon="-3.15321">
        <ele>25.799999237061</ele>
        <time>2015-12-01T13:58:54.000Z</time>
      </trkpt>
      <trkpt lat="47.67294" lon="-3.15325">
        <ele>25.799999237061</ele>
        <time>2015-12-01T13:58:56.000Z</time>
      </trkpt>
      <trkpt lat="47.67297" lon="-3.15326">
        <ele>25.39999961853</ele>
        <time>2015-12-01T13:58:57.000Z</time>
      </trkpt>
      <trkpt lat="47.67301" lon="-3.15328">
        <ele>25</ele>
        <time>2015-12-01T13:58:58.000Z</time>
      </trkpt>
      <trkpt lat="47.67304" lon="-3.1533">
        <ele>24.60000038147</ele>
        <time>2015-12-01T13:58:59.000Z</time>
      </trkpt>
      <trkpt lat="47.67306" lon="-3.15333">
        <ele>24</ele>
        <time>2015-12-01T13:59:00.000Z</time>
      </trkpt>
      <trkpt lat="47.67308" lon="-3.15337">
        <ele>23.60000038147</ele>
        <time>2015-12-01T13:59:01.000Z</time>
      </trkpt>
      <trkpt lat="47.67309" lon="-3.15359">
        <ele>23.60000038147</ele>
        <time>2015-12-01T13:59:05.000Z</time>
      </trkpt>
      <trkpt lat="47.67306" lon="-3.15379">
        <ele>23.200000762939</ele>
        <time>2015-12-01T13:59:09.000Z</time>
      </trkpt>
      <trkpt lat="47.67305" lon="-3.15385">
        <ele>22.799999237061</ele>
        <time>2015-12-01T13:59:10.000Z</time>
      </trkpt>
      <trkpt lat="47.67304" lon="-3.15392">
        <ele>22.39999961853</ele>
        <time>2015-12-01T13:59:11.000Z</time>
      </trkpt>
      <trkpt lat="47.67303" lon="-3.15398">
        <ele>22</ele>
        <time>2015-12-01T13:59:12.000Z</time>
      </trkpt>
      <trkpt lat="47.67303" lon="-3.15404">
        <ele>21.39999961853</ele>
        <time>2015-12-01T13:59:13.000Z</time>
      </trkpt>
      <trkpt lat="47.67302" lon="-3.15416">
        <ele>21.39999961853</ele>
        <time>2015-12-01T13:59:15.000Z</time>
      </trkpt>
      <trkpt lat="47.67298" lon="-3.1544">
        <ele>21.39999961853</ele>
        <time>2015-12-01T13:59:19.000Z</time>
      </trkpt>
      <trkpt lat="47.67298" lon="-3.15446">
        <ele>21</ele>
        <time>2015-12-01T13:59:20.000Z</time>
      </trkpt>
      <trkpt lat="47.67298" lon="-3.15453">
        <ele>20.60000038147</ele>
        <time>2015-12-01T13:59:21.000Z</time>
      </trkpt>
      <trkpt lat="47.67299" lon="-3.15459">
        <ele>20.200000762939</ele>
        <time>2015-12-01T13:59:22.000Z</time>
      </trkpt>
      <trkpt lat="47.67299" lon="-3.15465">
        <ele>19.799999237061</ele>
        <time>2015-12-01T13:59:23.000Z</time>
      </trkpt>
      <trkpt lat="47.67299" lon="-3.15472">
        <ele>19.39999961853</ele>
        <time>2015-12-01T13:59:24.000Z</time>
      </trkpt>
      <trkpt lat="47.673" lon="-3.15479">
        <ele>19.39999961853</ele>
        <time>2015-12-01T13:59:25.000Z</time>
      </trkpt>
      <trkpt lat="47.67301" lon="-3.15491">
        <ele>19.39999961853</ele>
        <time>2015-12-01T13:59:27.000Z</time>
      </trkpt>
      <trkpt lat="47.67308" lon="-3.15536">
        <ele>19.39999961853</ele>
        <time>2015-12-01T13:59:34.000Z</time>
      </trkpt>
      <trkpt lat="47.67318" lon="-3.15594">
        <ele>19.39999961853</ele>
        <time>2015-12-01T13:59:42.000Z</time>
      </trkpt>
      <trkpt lat="47.67319" lon="-3.15613">
        <ele>19.39999961853</ele>
        <time>2015-12-01T13:59:45.000Z</time>
      </trkpt>
      <trkpt lat="47.67322" lon="-3.15633">
        <ele>19.39999961853</ele>
        <time>2015-12-01T13:59:48.000Z</time>
      </trkpt>
      <trkpt lat="47.67324" lon="-3.15648">
        <ele>19</ele>
        <time>2015-12-01T13:59:51.000Z</time>
      </trkpt>
      <trkpt lat="47.67325" lon="-3.15653">
        <ele>18.60000038147</ele>
        <time>2015-12-01T13:59:52.000Z</time>
      </trkpt>
      <trkpt lat="47.67326" lon="-3.15658">
        <ele>18.200000762939</ele>
        <time>2015-12-01T13:59:53.000Z</time>
      </trkpt>
      <trkpt lat="47.67326" lon="-3.15664">
        <ele>17.799999237061</ele>
        <time>2015-12-01T13:59:54.000Z</time>
      </trkpt>
      <trkpt lat="47.67327" lon="-3.15671">
        <ele>17.39999961853</ele>
        <time>2015-12-01T13:59:55.000Z</time>
      </trkpt>
      <trkpt lat="47.6733" lon="-3.15693">
        <ele>17.39999961853</ele>
        <time>2015-12-01T13:59:58.000Z</time>
      </trkpt>
      <trkpt lat="47.67336" lon="-3.15731">
        <ele>17.39999961853</ele>
        <time>2015-12-01T14:00:04.000Z</time>
      </trkpt>
      <trkpt lat="47.67338" lon="-3.15737">
        <ele>17.39999961853</ele>
        <time>2015-12-01T14:00:05.000Z</time>
      </trkpt>
      <trkpt lat="47.6735" lon="-3.15773">
        <ele>17.39999961853</ele>
        <time>2015-12-01T14:00:11.000Z</time>
      </trkpt>
      <trkpt lat="47.67358" lon="-3.1579">
        <ele>17</ele>
        <time>2015-12-01T14:00:14.000Z</time>
      </trkpt>
      <trkpt lat="47.6736" lon="-3.15796">
        <ele>16.60000038147</ele>
        <time>2015-12-01T14:00:15.000Z</time>
      </trkpt>
      <trkpt lat="47.67363" lon="-3.15801">
        <ele>16.200000762939</ele>
        <time>2015-12-01T14:00:16.000Z</time>
      </trkpt>
      <trkpt lat="47.67367" lon="-3.15807">
        <ele>15.800000190735</ele>
        <time>2015-12-01T14:00:17.000Z</time>
      </trkpt>
      <trkpt lat="47.6737" lon="-3.15812">
        <ele>15.199999809265</ele>
        <time>2015-12-01T14:00:18.000Z</time>
      </trkpt>
      <trkpt lat="47.67373" lon="-3.15817">
        <ele>15.199999809265</ele>
        <time>2015-12-01T14:00:19.000Z</time>
      </trkpt>
      <trkpt lat="47.67391" lon="-3.15849">
        <ele>15.199999809265</ele>
        <time>2015-12-01T14:00:25.000Z</time>
      </trkpt>
      <trkpt lat="47.674" lon="-3.15864">
        <ele>15.199999809265</ele>
        <time>2015-12-01T14:00:28.000Z</time>
      </trkpt>
      <trkpt lat="47.67408" lon="-3.15886">
        <ele>15.199999809265</ele>
        <time>2015-12-01T14:00:32.000Z</time>
      </trkpt>
      <trkpt lat="47.67411" lon="-3.15898">
        <ele>15.199999809265</ele>
        <time>2015-12-01T14:00:34.000Z</time>
      </trkpt>
      <trkpt lat="47.67419" lon="-3.15918">
        <ele>15.199999809265</ele>
        <time>2015-12-01T14:00:38.000Z</time>
      </trkpt>
      <trkpt lat="47.67426" lon="-3.15933">
        <ele>14.800000190735</ele>
        <time>2015-12-01T14:00:41.000Z</time>
      </trkpt>
      <trkpt lat="47.67428" lon="-3.15939">
        <ele>14.39999961853</ele>
        <time>2015-12-01T14:00:42.000Z</time>
      </trkpt>
      <trkpt lat="47.67429" lon="-3.15945">
        <ele>14</ele>
        <time>2015-12-01T14:00:43.000Z</time>
      </trkpt>
      <trkpt lat="47.67431" lon="-3.15951">
        <ele>13.60000038147</ele>
        <time>2015-12-01T14:00:44.000Z</time>
      </trkpt>
      <trkpt lat="47.67432" lon="-3.15957">
        <ele>13.199999809265</ele>
        <time>2015-12-01T14:00:45.000Z</time>
      </trkpt>
      <trkpt lat="47.67437" lon="-3.15979">
        <ele>13.199999809265</ele>
        <time>2015-12-01T14:00:49.000Z</time>
      </trkpt>
      <trkpt lat="47.67442" lon="-3.15995">
        <ele>13.199999809265</ele>
        <time>2015-12-01T14:00:54.000Z</time>
      </trkpt>
      <trkpt lat="47.67442" lon="-3.15996">
        <ele>13.199999809265</ele>
        <time>2015-12-01T14:00:55.000Z</time>
      </trkpt>
      <trkpt lat="47.67444" lon="-3.15998">
        <ele>11.199999809265</ele>
        <time>2015-12-01T14:01:27.000Z</time>
      </trkpt>
      <trkpt lat="47.67445" lon="-3.15999">
        <ele>11.199999809265</ele>
        <time>2015-12-01T14:01:28.000Z</time>
      </trkpt>
      <trkpt lat="47.67454" lon="-3.15999">
        <ele>11.199999809265</ele>
        <time>2015-12-01T14:01:33.000Z</time>
      </trkpt>
      <trkpt lat="47.67457" lon="-3.15997">
        <ele>11.199999809265</ele>
        <time>2015-12-01T14:01:34.000Z</time>
      </trkpt>
      <trkpt lat="47.67465" lon="-3.15993">
        <ele>11.199999809265</ele>
        <time>2015-12-01T14:01:37.000Z</time>
      </trkpt>
      <trkpt lat="47.6748" lon="-3.15986">
        <ele>11.199999809265</ele>
        <time>2015-12-01T14:01:42.000Z</time>
      </trkpt>
      <trkpt lat="47.67495" lon="-3.15975">
        <ele>11.199999809265</ele>
        <time>2015-12-01T14:01:48.000Z</time>
      </trkpt>
      <trkpt lat="47.67509" lon="-3.15967">
        <ele>11.199999809265</ele>
        <time>2015-12-01T14:01:54.000Z</time>
      </trkpt>
      <trkpt lat="47.67513" lon="-3.15962">
        <ele>11.199999809265</ele>
        <time>2015-12-01T14:01:59.000Z</time>
      </trkpt>
      <trkpt lat="47.67513" lon="-3.1596">
        <ele>11.199999809265</ele>
        <time>2015-12-01T14:02:00.000Z</time>
      </trkpt>
      <trkpt lat="47.67516" lon="-3.15955">
        <ele>11.199999809265</ele>
        <time>2015-12-01T14:02:03.000Z</time>
      </trkpt>
      <trkpt lat="47.67518" lon="-3.15952">
        <ele>11.199999809265</ele>
        <time>2015-12-01T14:02:04.000Z</time>
      </trkpt>
      <trkpt lat="47.67532" lon="-3.15939">
        <ele>11.199999809265</ele>
        <time>2015-12-01T14:02:08.000Z</time>
      </trkpt>
      <trkpt lat="47.67557" lon="-3.15918">
        <ele>11.199999809265</ele>
        <time>2015-12-01T14:02:14.000Z</time>
      </trkpt>
      <trkpt lat="47.67576" lon="-3.15904">
        <ele>11.199999809265</ele>
        <time>2015-12-01T14:02:19.000Z</time>
      </trkpt>
      <trkpt lat="47.67596" lon="-3.15895">
        <ele>11.199999809265</ele>
        <time>2015-12-01T14:02:25.000Z</time>
      </trkpt>
      <trkpt lat="47.67612" lon="-3.15892">
        <ele>11.199999809265</ele>
        <time>2015-12-01T14:02:30.000Z</time>
      </trkpt>
      <trkpt lat="47.6763" lon="-3.15891">
        <ele>11.199999809265</ele>
        <time>2015-12-01T14:02:36.000Z</time>
      </trkpt>
      <trkpt lat="47.67639" lon="-3.15891">
        <ele>10.800000190735</ele>
        <time>2015-12-01T14:02:39.000Z</time>
      </trkpt>
      <trkpt lat="47.67642" lon="-3.15891">
        <ele>10.39999961853</ele>
        <time>2015-12-01T14:02:40.000Z</time>
      </trkpt>
      <trkpt lat="47.67645" lon="-3.15891">
        <ele>10</ele>
        <time>2015-12-01T14:02:41.000Z</time>
      </trkpt>
      <trkpt lat="47.67648" lon="-3.1589">
        <ele>9.6000003814697</ele>
        <time>2015-12-01T14:02:42.000Z</time>
      </trkpt>
      <trkpt lat="47.6765" lon="-3.15891">
        <ele>9.1999998092651</ele>
        <time>2015-12-01T14:02:43.000Z</time>
      </trkpt>
      <trkpt lat="47.67662" lon="-3.1589">
        <ele>9.1999998092651</ele>
        <time>2015-12-01T14:02:47.000Z</time>
      </trkpt>
      <trkpt lat="47.67668" lon="-3.15888">
        <ele>9.1999998092651</ele>
        <time>2015-12-01T14:02:49.000Z</time>
      </trkpt>
      <trkpt lat="47.67676" lon="-3.15883">
        <ele>9.1999998092651</ele>
        <time>2015-12-01T14:02:52.000Z</time>
      </trkpt>
      <trkpt lat="47.67689" lon="-3.15878">
        <ele>9.1999998092651</ele>
        <time>2015-12-01T14:02:58.000Z</time>
      </trkpt>
      <trkpt lat="47.67691" lon="-3.15877">
        <ele>9.1999998092651</ele>
        <time>2015-12-01T14:03:00.000Z</time>
      </trkpt>
      <trkpt lat="47.67692" lon="-3.15866">
        <ele>10</ele>
        <time>2015-12-01T14:03:21.000Z</time>
      </trkpt>
      <trkpt lat="47.67692" lon="-3.15863">
        <ele>10.39999961853</ele>
        <time>2015-12-01T14:03:22.000Z</time>
      </trkpt>
      <trkpt lat="47.67692" lon="-3.15859">
        <ele>10.800000190735</ele>
        <time>2015-12-01T14:03:23.000Z</time>
      </trkpt>
      <trkpt lat="47.67692" lon="-3.15856">
        <ele>11.199999809265</ele>
        <time>2015-12-01T14:03:24.000Z</time>
      </trkpt>
      <trkpt lat="47.67693" lon="-3.15849">
        <ele>11.199999809265</ele>
        <time>2015-12-01T14:03:26.000Z</time>
      </trkpt>
      <trkpt lat="47.67693" lon="-3.15846">
        <ele>11.199999809265</ele>
        <time>2015-12-01T14:03:27.000Z</time>
      </trkpt>
      <trkpt lat="47.67694" lon="-3.15825">
        <ele>11.60000038147</ele>
        <time>2015-12-01T14:03:32.000Z</time>
      </trkpt>
      <trkpt lat="47.67694" lon="-3.1582">
        <ele>12</ele>
        <time>2015-12-01T14:03:33.000Z</time>
      </trkpt>
      <trkpt lat="47.67694" lon="-3.15816">
        <ele>12.39999961853</ele>
        <time>2015-12-01T14:03:34.000Z</time>
      </trkpt>
      <trkpt lat="47.67694" lon="-3.15812">
        <ele>12.800000190735</ele>
        <time>2015-12-01T14:03:35.000Z</time>
      </trkpt>
      <trkpt lat="47.67695" lon="-3.15807">
        <ele>13.199999809265</ele>
        <time>2015-12-01T14:03:36.000Z</time>
      </trkpt>
      <trkpt lat="47.67695" lon="-3.15793">
        <ele>13.199999809265</ele>
        <time>2015-12-01T14:03:40.000Z</time>
      </trkpt>
      <trkpt lat="47.67695" lon="-3.15772">
        <ele>13.199999809265</ele>
        <time>2015-12-01T14:03:46.000Z</time>
      </trkpt>
      <trkpt lat="47.67697" lon="-3.15751">
        <ele>13.60000038147</ele>
        <time>2015-12-01T14:03:51.000Z</time>
      </trkpt>
      <trkpt lat="47.67698" lon="-3.15748">
        <ele>14.199999809265</ele>
        <time>2015-12-01T14:03:52.000Z</time>
      </trkpt>
      <trkpt lat="47.67699" lon="-3.15746">
        <ele>14.60000038147</ele>
        <time>2015-12-01T14:03:53.000Z</time>
      </trkpt>
      <trkpt lat="47.677" lon="-3.15744">
        <ele>15</ele>
        <time>2015-12-01T14:03:54.000Z</time>
      </trkpt>
      <trkpt lat="47.67701" lon="-3.15742">
        <ele>15.39999961853</ele>
        <time>2015-12-01T14:03:55.000Z</time>
      </trkpt>
      <trkpt lat="47.67707" lon="-3.15734">
        <ele>15.39999961853</ele>
        <time>2015-12-01T14:03:58.000Z</time>
      </trkpt>
      <trkpt lat="47.67718" lon="-3.15719">
        <ele>15.39999961853</ele>
        <time>2015-12-01T14:04:03.000Z</time>
      </trkpt>
      <trkpt lat="47.67726" lon="-3.15705">
        <ele>15.39999961853</ele>
        <time>2015-12-01T14:04:08.000Z</time>
      </trkpt>
      <trkpt lat="47.67733" lon="-3.15691">
        <ele>15.39999961853</ele>
        <time>2015-12-01T14:04:13.000Z</time>
      </trkpt>
      <trkpt lat="47.67738" lon="-3.15687">
        <ele>15.39999961853</ele>
        <time>2015-12-01T14:04:16.000Z</time>
      </trkpt>
      <trkpt lat="47.67743" lon="-3.15688">
        <ele>15</ele>
        <time>2015-12-01T14:04:18.000Z</time>
      </trkpt>
      <trkpt lat="47.67746" lon="-3.15688">
        <ele>14.60000038147</ele>
        <time>2015-12-01T14:04:19.000Z</time>
      </trkpt>
      <trkpt lat="47.67749" lon="-3.1569">
        <ele>14.199999809265</ele>
        <time>2015-12-01T14:04:20.000Z</time>
      </trkpt>
      <trkpt lat="47.67752" lon="-3.15691">
        <ele>13.60000038147</ele>
        <time>2015-12-01T14:04:21.000Z</time>
      </trkpt>
      <trkpt lat="47.67755" lon="-3.15692">
        <ele>13.199999809265</ele>
        <time>2015-12-01T14:04:22.000Z</time>
      </trkpt>
      <trkpt lat="47.67759" lon="-3.15693">
        <ele>13.199999809265</ele>
        <time>2015-12-01T14:04:23.000Z</time>
      </trkpt>
      <trkpt lat="47.67772" lon="-3.15695">
        <ele>12.800000190735</ele>
        <time>2015-12-01T14:04:26.000Z</time>
      </trkpt>
      <trkpt lat="47.67778" lon="-3.15695">
        <ele>12.39999961853</ele>
        <time>2015-12-01T14:04:27.000Z</time>
      </trkpt>
      <trkpt lat="47.67783" lon="-3.15695">
        <ele>12</ele>
        <time>2015-12-01T14:04:28.000Z</time>
      </trkpt>
      <trkpt lat="47.67788" lon="-3.15694">
        <ele>11.60000038147</ele>
        <time>2015-12-01T14:04:29.000Z</time>
      </trkpt>
      <trkpt lat="47.67794" lon="-3.15694">
        <ele>11.199999809265</ele>
        <time>2015-12-01T14:04:30.000Z</time>
      </trkpt>
      <trkpt lat="47.67814" lon="-3.15692">
        <ele>11.199999809265</ele>
        <time>2015-12-01T14:04:34.000Z</time>
      </trkpt>
      <trkpt lat="47.67818" lon="-3.15693">
        <ele>10.800000190735</ele>
        <time>2015-12-01T14:04:35.000Z</time>
      </trkpt>
      <trkpt lat="47.67823" lon="-3.15692">
        <ele>10.39999961853</ele>
        <time>2015-12-01T14:04:36.000Z</time>
      </trkpt>
      <trkpt lat="47.67828" lon="-3.15692">
        <ele>10</ele>
        <time>2015-12-01T14:04:37.000Z</time>
      </trkpt>
      <trkpt lat="47.67832" lon="-3.15692">
        <ele>9</ele>
        <time>2015-12-01T14:04:38.000Z</time>
      </trkpt>
      <trkpt lat="47.67835" lon="-3.15691">
        <ele>9</ele>
        <time>2015-12-01T14:04:39.000Z</time>
      </trkpt>
      <trkpt lat="47.67842" lon="-3.15692">
        <ele>9</ele>
        <time>2015-12-01T14:04:43.000Z</time>
      </trkpt>
      <trkpt lat="47.67844" lon="-3.15691">
        <ele>9</ele>
        <time>2015-12-01T14:04:45.000Z</time>
      </trkpt>
      <trkpt lat="47.67846" lon="-3.15689">
        <ele>9</ele>
        <time>2015-12-01T14:04:48.000Z</time>
      </trkpt>
      <trkpt lat="47.67854" lon="-3.15684">
        <ele>9</ele>
        <time>2015-12-01T14:04:53.000Z</time>
      </trkpt>
      <trkpt lat="47.67858" lon="-3.1568">
        <ele>8.6000003814697</ele>
        <time>2015-12-01T14:04:55.000Z</time>
      </trkpt>
      <trkpt lat="47.6786" lon="-3.15678">
        <ele>8.1999998092651</ele>
        <time>2015-12-01T14:04:56.000Z</time>
      </trkpt>
      <trkpt lat="47.67863" lon="-3.15678">
        <ele>7.4000000953674</ele>
        <time>2015-12-01T14:04:57.000Z</time>
      </trkpt>
      <trkpt lat="47.67866" lon="-3.15678">
        <ele>7</ele>
        <time>2015-12-01T14:04:58.000Z</time>
      </trkpt>
      <trkpt lat="47.67874" lon="-3.15677">
        <ele>7</ele>
        <time>2015-12-01T14:05:00.000Z</time>
      </trkpt>
      <trkpt lat="47.67883" lon="-3.15677">
        <ele>7</ele>
        <time>2015-12-01T14:05:02.000Z</time>
      </trkpt>
      <trkpt lat="47.67891" lon="-3.15679">
        <ele>6.5999999046326</ele>
        <time>2015-12-01T14:05:05.000Z</time>
      </trkpt>
      <trkpt lat="47.67892" lon="-3.15678">
        <ele>6.1999998092651</ele>
        <time>2015-12-01T14:05:06.000Z</time>
      </trkpt>
      <trkpt lat="47.67893" lon="-3.15679">
        <ele>5.8000001907349</ele>
        <time>2015-12-01T14:05:07.000Z</time>
      </trkpt>
      <trkpt lat="47.67893" lon="-3.15679">
        <ele>5.4000000953674</ele>
        <time>2015-12-01T14:05:08.000Z</time>
      </trkpt>
      <trkpt lat="47.67895" lon="-3.15679">
        <ele>5</ele>
        <time>2015-12-01T14:05:09.000Z</time>
      </trkpt>
      <trkpt lat="47.679" lon="-3.15681">
        <ele>5</ele>
        <time>2015-12-01T14:05:12.000Z</time>
      </trkpt>
      <trkpt lat="47.67906" lon="-3.15685">
        <ele>5</ele>
        <time>2015-12-01T14:05:16.000Z</time>
      </trkpt>
      <trkpt lat="47.67907" lon="-3.15688">
        <ele>4.5999999046326</ele>
        <time>2015-12-01T14:05:17.000Z</time>
      </trkpt>
      <trkpt lat="47.67908" lon="-3.15691">
        <ele>4.1999998092651</ele>
        <time>2015-12-01T14:05:18.000Z</time>
      </trkpt>
      <trkpt lat="47.67908" lon="-3.15694">
        <ele>3.7999999523163</ele>
        <time>2015-12-01T14:05:19.000Z</time>
      </trkpt>
      <trkpt lat="47.67908" lon="-3.15699">
        <ele>3.4000000953674</ele>
        <time>2015-12-01T14:05:20.000Z</time>
      </trkpt>
      <trkpt lat="47.67908" lon="-3.15703">
        <ele>3</ele>
        <time>2015-12-01T14:05:21.000Z</time>
      </trkpt>
      <trkpt lat="47.67908" lon="-3.15708">
        <ele>3</ele>
        <time>2015-12-01T14:05:22.000Z</time>
      </trkpt>
      <trkpt lat="47.67904" lon="-3.15734">
        <ele>3</ele>
        <time>2015-12-01T14:05:28.000Z</time>
      </trkpt>
      <trkpt lat="47.679" lon="-3.1576">
        <ele>3</ele>
        <time>2015-12-01T14:05:33.000Z</time>
      </trkpt>
      <trkpt lat="47.67895" lon="-3.15795">
        <ele>3</ele>
        <time>2015-12-01T14:05:39.000Z</time>
      </trkpt>
      <trkpt lat="47.67888" lon="-3.15822">
        <ele>3</ele>
        <time>2015-12-01T14:05:44.000Z</time>
      </trkpt>
      <trkpt lat="47.67887" lon="-3.15845">
        <ele>3</ele>
        <time>2015-12-01T14:05:49.000Z</time>
      </trkpt>
      <trkpt lat="47.67886" lon="-3.15847">
        <ele>3</ele>
        <time>2015-12-01T14:05:50.000Z</time>
      </trkpt>
      <trkpt lat="47.67884" lon="-3.1586">
        <ele>3</ele>
        <time>2015-12-01T14:05:54.000Z</time>
      </trkpt>
      <trkpt lat="47.67884" lon="-3.15864">
        <ele>3</ele>
        <time>2015-12-01T14:05:55.000Z</time>
      </trkpt>
      <trkpt lat="47.67881" lon="-3.15882">
        <ele>3</ele>
        <time>2015-12-01T14:05:59.000Z</time>
      </trkpt>
      <trkpt lat="47.67876" lon="-3.15909">
        <ele>3</ele>
        <time>2015-12-01T14:06:04.000Z</time>
      </trkpt>
      <trkpt lat="47.67877" lon="-3.15934">
        <ele>3</ele>
        <time>2015-12-01T14:06:08.000Z</time>
      </trkpt>
      <trkpt lat="47.67875" lon="-3.15958">
        <ele>3</ele>
        <time>2015-12-01T14:06:13.000Z</time>
      </trkpt>
      <trkpt lat="47.67876" lon="-3.15973">
        <ele>3</ele>
        <time>2015-12-01T14:06:17.000Z</time>
      </trkpt>
      <trkpt lat="47.67876" lon="-3.15977">
        <ele>3</ele>
        <time>2015-12-01T14:06:18.000Z</time>
      </trkpt>
      <trkpt lat="47.67879" lon="-3.15987">
        <ele>3</ele>
        <time>2015-12-01T14:06:22.000Z</time>
      </trkpt>
      <trkpt lat="47.67889" lon="-3.1601">
        <ele>3</ele>
        <time>2015-12-01T14:06:30.000Z</time>
      </trkpt>
      <trkpt lat="47.67893" lon="-3.16024">
        <ele>3.4000000953674</ele>
        <time>2015-12-01T14:06:34.000Z</time>
      </trkpt>
      <trkpt lat="47.67895" lon="-3.16028">
        <ele>4.1999998092651</ele>
        <time>2015-12-01T14:06:35.000Z</time>
      </trkpt>
      <trkpt lat="47.67896" lon="-3.16032">
        <ele>4.5999999046326</ele>
        <time>2015-12-01T14:06:36.000Z</time>
      </trkpt>
      <trkpt lat="47.67896" lon="-3.16036">
        <ele>5</ele>
        <time>2015-12-01T14:06:37.000Z</time>
      </trkpt>
      <trkpt lat="47.67899" lon="-3.16049">
        <ele>5</ele>
        <time>2015-12-01T14:06:43.000Z</time>
      </trkpt>
      <trkpt lat="47.67903" lon="-3.16061">
        <ele>5</ele>
        <time>2015-12-01T14:06:48.000Z</time>
      </trkpt>
      <trkpt lat="47.67907" lon="-3.16077">
        <ele>5.4000000953674</ele>
        <time>2015-12-01T14:06:53.000Z</time>
      </trkpt>
      <trkpt lat="47.67908" lon="-3.1608">
        <ele>5.8000001907349</ele>
        <time>2015-12-01T14:06:54.000Z</time>
      </trkpt>
      <trkpt lat="47.67909" lon="-3.16083">
        <ele>6.1999998092651</ele>
        <time>2015-12-01T14:06:55.000Z</time>
      </trkpt>
      <trkpt lat="47.67909" lon="-3.16086">
        <ele>6.5999999046326</ele>
        <time>2015-12-01T14:06:56.000Z</time>
      </trkpt>
      <trkpt lat="47.6791" lon="-3.16089">
        <ele>7</ele>
        <time>2015-12-01T14:06:57.000Z</time>
      </trkpt>
      <trkpt lat="47.67915" lon="-3.1611">
        <ele>7</ele>
        <time>2015-12-01T14:07:03.000Z</time>
      </trkpt>
      <trkpt lat="47.67913" lon="-3.16129">
        <ele>7</ele>
        <time>2015-12-01T14:07:08.000Z</time>
      </trkpt>
      <trkpt lat="47.67903" lon="-3.16158">
        <ele>7</ele>
        <time>2015-12-01T14:07:13.000Z</time>
      </trkpt>
      <trkpt lat="47.67895" lon="-3.16181">
        <ele>7</ele>
        <time>2015-12-01T14:07:19.000Z</time>
      </trkpt>
      <trkpt lat="47.67892" lon="-3.162">
        <ele>7.4000000953674</ele>
        <time>2015-12-01T14:07:24.000Z</time>
      </trkpt>
      <trkpt lat="47.67891" lon="-3.16203">
        <ele>7.8000001907349</ele>
        <time>2015-12-01T14:07:25.000Z</time>
      </trkpt>
      <trkpt lat="47.67891" lon="-3.16207">
        <ele>8.1999998092651</ele>
        <time>2015-12-01T14:07:26.000Z</time>
      </trkpt>
      <trkpt lat="47.6789" lon="-3.16209">
        <ele>8.6000003814697</ele>
        <time>2015-12-01T14:07:27.000Z</time>
      </trkpt>
      <trkpt lat="47.67889" lon="-3.16212">
        <ele>9</ele>
        <time>2015-12-01T14:07:28.000Z</time>
      </trkpt>
      <trkpt lat="47.67887" lon="-3.16223">
        <ele>9</ele>
        <time>2015-12-01T14:07:31.000Z</time>
      </trkpt>
      <trkpt lat="47.67884" lon="-3.16241">
        <ele>9</ele>
        <time>2015-12-01T14:07:36.000Z</time>
      </trkpt>
      <trkpt lat="47.67885" lon="-3.16258">
        <ele>9</ele>
        <time>2015-12-01T14:07:42.000Z</time>
      </trkpt>
      <trkpt lat="47.67885" lon="-3.1626">
        <ele>9.3999996185303</ele>
        <time>2015-12-01T14:07:43.000Z</time>
      </trkpt>
      <trkpt lat="47.67885" lon="-3.16263">
        <ele>9.8000001907349</ele>
        <time>2015-12-01T14:07:44.000Z</time>
      </trkpt>
      <trkpt lat="47.67884" lon="-3.16266">
        <ele>10.199999809265</ele>
        <time>2015-12-01T14:07:45.000Z</time>
      </trkpt>
      <trkpt lat="47.67885" lon="-3.16269">
        <ele>10.60000038147</ele>
        <time>2015-12-01T14:07:46.000Z</time>
      </trkpt>
      <trkpt lat="47.67885" lon="-3.16272">
        <ele>11</ele>
        <time>2015-12-01T14:07:47.000Z</time>
      </trkpt>
      <trkpt lat="47.67884" lon="-3.16275">
        <ele>11</ele>
        <time>2015-12-01T14:07:49.000Z</time>
      </trkpt>
      <trkpt lat="47.67885" lon="-3.16277">
        <ele>11</ele>
        <time>2015-12-01T14:07:52.000Z</time>
      </trkpt>
      <trkpt lat="47.67887" lon="-3.16287">
        <ele>11</ele>
        <time>2015-12-01T14:08:00.000Z</time>
      </trkpt>
      <trkpt lat="47.67887" lon="-3.16296">
        <ele>11</ele>
        <time>2015-12-01T14:08:03.000Z</time>
      </trkpt>
      <trkpt lat="47.67885" lon="-3.16318">
        <ele>11</ele>
        <time>2015-12-01T14:08:09.000Z</time>
      </trkpt>
      <trkpt lat="47.6788" lon="-3.16338">
        <ele>11</ele>
        <time>2015-12-01T14:08:16.000Z</time>
      </trkpt>
      <trkpt lat="47.67879" lon="-3.1635">
        <ele>11</ele>
        <time>2015-12-01T14:08:20.000Z</time>
      </trkpt>
      <trkpt lat="47.67889" lon="-3.16346">
        <ele>11</ele>
        <time>2015-12-01T14:08:24.000Z</time>
      </trkpt>
      <trkpt lat="47.67892" lon="-3.16343">
        <ele>11</ele>
        <time>2015-12-01T14:08:25.000Z</time>
      </trkpt>
      <trkpt lat="47.67914" lon="-3.16327">
        <ele>11</ele>
        <time>2015-12-01T14:08:31.000Z</time>
      </trkpt>
      <trkpt lat="47.67941" lon="-3.16312">
        <ele>10.60000038147</ele>
        <time>2015-12-01T14:08:36.000Z</time>
      </trkpt>
      <trkpt lat="47.67946" lon="-3.16309">
        <ele>10.199999809265</ele>
        <time>2015-12-01T14:08:37.000Z</time>
      </trkpt>
      <trkpt lat="47.67952" lon="-3.16305">
        <ele>9.3999996185303</ele>
        <time>2015-12-01T14:08:38.000Z</time>
      </trkpt>
      <trkpt lat="47.67958" lon="-3.16301">
        <ele>9</ele>
        <time>2015-12-01T14:08:39.000Z</time>
      </trkpt>
      <trkpt lat="47.67969" lon="-3.16289">
        <ele>9</ele>
        <time>2015-12-01T14:08:41.000Z</time>
      </trkpt>
      <trkpt lat="47.67974" lon="-3.16282">
        <ele>9</ele>
        <time>2015-12-01T14:08:42.000Z</time>
      </trkpt>
      <trkpt lat="47.67978" lon="-3.16275">
        <ele>8.6000003814697</ele>
        <time>2015-12-01T14:08:43.000Z</time>
      </trkpt>
      <trkpt lat="47.67982" lon="-3.16269">
        <ele>8.1999998092651</ele>
        <time>2015-12-01T14:08:44.000Z</time>
      </trkpt>
      <trkpt lat="47.67985" lon="-3.16262">
        <ele>7.8000001907349</ele>
        <time>2015-12-01T14:08:45.000Z</time>
      </trkpt>
      <trkpt lat="47.67988" lon="-3.16255">
        <ele>7.1999998092651</ele>
        <time>2015-12-01T14:08:46.000Z</time>
      </trkpt>
      <trkpt lat="47.67991" lon="-3.16248">
        <ele>6.8000001907349</ele>
        <time>2015-12-01T14:08:47.000Z</time>
      </trkpt>
      <trkpt lat="47.67994" lon="-3.16239">
        <ele>6.4000000953674</ele>
        <time>2015-12-01T14:08:49.000Z</time>
      </trkpt>
      <trkpt lat="47.67996" lon="-3.16236">
        <ele>6</ele>
        <time>2015-12-01T14:08:50.000Z</time>
      </trkpt>
      <trkpt lat="47.67998" lon="-3.16233">
        <ele>5.5999999046326</ele>
        <time>2015-12-01T14:08:51.000Z</time>
      </trkpt>
      <trkpt lat="47.67999" lon="-3.16231">
        <ele>5</ele>
        <time>2015-12-01T14:08:52.000Z</time>
      </trkpt>
      <trkpt lat="47.68001" lon="-3.16229">
        <ele>4.5999999046326</ele>
        <time>2015-12-01T14:08:53.000Z</time>
      </trkpt>
      <trkpt lat="47.68003" lon="-3.16225">
        <ele>4.5999999046326</ele>
        <time>2015-12-01T14:08:55.000Z</time>
      </trkpt>
      <trkpt lat="47.68004" lon="-3.16225">
        <ele>4.5999999046326</ele>
        <time>2015-12-01T14:08:56.000Z</time>
      </trkpt>
      <trkpt lat="47.68004" lon="-3.16225">
        <ele>4.5999999046326</ele>
        <time>2015-12-01T14:08:57.000Z</time>
      </trkpt>
      <trkpt lat="47.68003" lon="-3.16225">
        <ele>4.5999999046326</ele>
        <time>2015-12-01T14:13:13.000Z</time>
      </trkpt>
      <trkpt lat="47.67996" lon="-3.16245">
        <ele>4.5999999046326</ele>
        <time>2015-12-01T14:13:20.000Z</time>
      </trkpt>
      <trkpt lat="47.67984" lon="-3.16272">
        <ele>4.5999999046326</ele>
        <time>2015-12-01T14:13:28.000Z</time>
      </trkpt>
      <trkpt lat="47.67978" lon="-3.16284">
        <ele>5</ele>
        <time>2015-12-01T14:13:32.000Z</time>
      </trkpt>
      <trkpt lat="47.67976" lon="-3.16286">
        <ele>5.4000000953674</ele>
        <time>2015-12-01T14:13:33.000Z</time>
      </trkpt>
      <trkpt lat="47.67974" lon="-3.16289">
        <ele>5.8000001907349</ele>
        <time>2015-12-01T14:13:34.000Z</time>
      </trkpt>
      <trkpt lat="47.67972" lon="-3.16292">
        <ele>6.5999999046326</ele>
        <time>2015-12-01T14:13:35.000Z</time>
      </trkpt>
      <trkpt lat="47.6797" lon="-3.16294">
        <ele>6.5999999046326</ele>
        <time>2015-12-01T14:13:36.000Z</time>
      </trkpt>
      <trkpt lat="47.67957" lon="-3.16307">
        <ele>6.5999999046326</ele>
        <time>2015-12-01T14:13:42.000Z</time>
      </trkpt>
      <trkpt lat="47.67939" lon="-3.16317">
        <ele>7</ele>
        <time>2015-12-01T14:13:49.000Z</time>
      </trkpt>
      <trkpt lat="47.67936" lon="-3.16319">
        <ele>7.5999999046326</ele>
        <time>2015-12-01T14:13:50.000Z</time>
      </trkpt>
      <trkpt lat="47.67933" lon="-3.1632">
        <ele>8</ele>
        <time>2015-12-01T14:13:51.000Z</time>
      </trkpt>
      <trkpt lat="47.6793" lon="-3.16322">
        <ele>8.3999996185303</ele>
        <time>2015-12-01T14:13:52.000Z</time>
      </trkpt>
      <trkpt lat="47.67927" lon="-3.16324">
        <ele>8.8000001907349</ele>
        <time>2015-12-01T14:13:53.000Z</time>
      </trkpt>
      <trkpt lat="47.67918" lon="-3.16329">
        <ele>8.8000001907349</ele>
        <time>2015-12-01T14:13:56.000Z</time>
      </trkpt>
      <trkpt lat="47.67899" lon="-3.16342">
        <ele>9.1999998092651</ele>
        <time>2015-12-01T14:14:03.000Z</time>
      </trkpt>
      <trkpt lat="47.67897" lon="-3.16344">
        <ele>9.6000003814697</ele>
        <time>2015-12-01T14:14:04.000Z</time>
      </trkpt>
      <trkpt lat="47.67894" lon="-3.16346">
        <ele>10</ele>
        <time>2015-12-01T14:14:05.000Z</time>
      </trkpt>
      <trkpt lat="47.67892" lon="-3.16348">
        <ele>10.39999961853</ele>
        <time>2015-12-01T14:14:06.000Z</time>
      </trkpt>
      <trkpt lat="47.67889" lon="-3.1635">
        <ele>10.800000190735</ele>
        <time>2015-12-01T14:14:07.000Z</time>
      </trkpt>
      <trkpt lat="47.67877" lon="-3.16358">
        <ele>10.800000190735</ele>
        <time>2015-12-01T14:14:11.000Z</time>
      </trkpt>
      <trkpt lat="47.67855" lon="-3.16374">
        <ele>10.800000190735</ele>
        <time>2015-12-01T14:14:19.000Z</time>
      </trkpt>
      <trkpt lat="47.67852" lon="-3.16375">
        <ele>11.199999809265</ele>
        <time>2015-12-01T14:14:20.000Z</time>
      </trkpt>
      <trkpt lat="47.67849" lon="-3.16377">
        <ele>11.60000038147</ele>
        <time>2015-12-01T14:14:21.000Z</time>
      </trkpt>
      <trkpt lat="47.67846" lon="-3.16379">
        <ele>12</ele>
        <time>2015-12-01T14:14:22.000Z</time>
      </trkpt>
      <trkpt lat="47.67843" lon="-3.1638">
        <ele>12.39999961853</ele>
        <time>2015-12-01T14:14:23.000Z</time>
      </trkpt>
      <trkpt lat="47.6784" lon="-3.16381">
        <ele>12.800000190735</ele>
        <time>2015-12-01T14:14:24.000Z</time>
      </trkpt>
      <trkpt lat="47.67835" lon="-3.16381">
        <ele>12.800000190735</ele>
        <time>2015-12-01T14:14:26.000Z</time>
      </trkpt>
      <trkpt lat="47.67822" lon="-3.16382">
        <ele>12.800000190735</ele>
        <time>2015-12-01T14:14:32.000Z</time>
      </trkpt>
      <trkpt lat="47.67818" lon="-3.16381">
        <ele>12.800000190735</ele>
        <time>2015-12-01T14:14:36.000Z</time>
      </trkpt>
      <trkpt lat="47.67816" lon="-3.1638">
        <ele>12.800000190735</ele>
        <time>2015-12-01T14:14:57.000Z</time>
      </trkpt>
      <trkpt lat="47.67803" lon="-3.16378">
        <ele>12.800000190735</ele>
        <time>2015-12-01T14:15:02.000Z</time>
      </trkpt>
      <trkpt lat="47.67783" lon="-3.1638">
        <ele>12.800000190735</ele>
        <time>2015-12-01T14:15:08.000Z</time>
      </trkpt>
      <trkpt lat="47.6776" lon="-3.16384">
        <ele>12.800000190735</ele>
        <time>2015-12-01T14:15:14.000Z</time>
      </trkpt>
      <trkpt lat="47.67732" lon="-3.16387">
        <ele>12.800000190735</ele>
        <time>2015-12-01T14:15:21.000Z</time>
      </trkpt>
      <trkpt lat="47.67699" lon="-3.16389">
        <ele>12.800000190735</ele>
        <time>2015-12-01T14:15:29.000Z</time>
      </trkpt>
      <trkpt lat="47.67676" lon="-3.16395">
        <ele>13.199999809265</ele>
        <time>2015-12-01T14:15:35.000Z</time>
      </trkpt>
      <trkpt lat="47.67673" lon="-3.16397">
        <ele>13.60000038147</ele>
        <time>2015-12-01T14:15:36.000Z</time>
      </trkpt>
      <trkpt lat="47.67669" lon="-3.16399">
        <ele>14</ele>
        <time>2015-12-01T14:15:37.000Z</time>
      </trkpt>
      <trkpt lat="47.67666" lon="-3.16402">
        <ele>14.800000190735</ele>
        <time>2015-12-01T14:15:38.000Z</time>
      </trkpt>
      <trkpt lat="47.67649" lon="-3.16411">
        <ele>14.800000190735</ele>
        <time>2015-12-01T14:15:43.000Z</time>
      </trkpt>
      <trkpt lat="47.67617" lon="-3.16429">
        <ele>14.800000190735</ele>
        <time>2015-12-01T14:15:51.000Z</time>
      </trkpt>
      <trkpt lat="47.67588" lon="-3.16446">
        <ele>14.800000190735</ele>
        <time>2015-12-01T14:15:58.000Z</time>
      </trkpt>
      <trkpt lat="47.67573" lon="-3.16454">
        <ele>14.800000190735</ele>
        <time>2015-12-01T14:16:03.000Z</time>
      </trkpt>
      <trkpt lat="47.67569" lon="-3.16456">
        <ele>14.800000190735</ele>
        <time>2015-12-01T14:16:06.000Z</time>
      </trkpt>
      <trkpt lat="47.67567" lon="-3.16457">
        <ele>14.800000190735</ele>
        <time>2015-12-01T14:16:13.000Z</time>
      </trkpt>
      <trkpt lat="47.67554" lon="-3.16458">
        <ele>14.800000190735</ele>
        <time>2015-12-01T14:16:18.000Z</time>
      </trkpt>
      <trkpt lat="47.67546" lon="-3.16457">
        <ele>14.800000190735</ele>
        <time>2015-12-01T14:16:20.000Z</time>
      </trkpt>
      <trkpt lat="47.6753" lon="-3.16459">
        <ele>14.800000190735</ele>
        <time>2015-12-01T14:16:24.000Z</time>
      </trkpt>
      <trkpt lat="47.67494" lon="-3.16465">
        <ele>14.800000190735</ele>
        <time>2015-12-01T14:16:32.000Z</time>
      </trkpt>
      <trkpt lat="47.67471" lon="-3.16478">
        <ele>14.800000190735</ele>
        <time>2015-12-01T14:16:38.000Z</time>
      </trkpt>
      <trkpt lat="47.67435" lon="-3.16503">
        <ele>14.800000190735</ele>
        <time>2015-12-01T14:16:47.000Z</time>
      </trkpt>
      <trkpt lat="47.67427" lon="-3.16507">
        <ele>14.800000190735</ele>
        <time>2015-12-01T14:16:49.000Z</time>
      </trkpt>
      <trkpt lat="47.67419" lon="-3.1651">
        <ele>14.800000190735</ele>
        <time>2015-12-01T14:16:51.000Z</time>
      </trkpt>
      <trkpt lat="47.67411" lon="-3.16515">
        <ele>14.800000190735</ele>
        <time>2015-12-01T14:16:53.000Z</time>
      </trkpt>
      <trkpt lat="47.67383" lon="-3.16523">
        <ele>14.800000190735</ele>
        <time>2015-12-01T14:17:00.000Z</time>
      </trkpt>
      <trkpt lat="47.67375" lon="-3.16527">
        <ele>14.800000190735</ele>
        <time>2015-12-01T14:17:02.000Z</time>
      </trkpt>
      <trkpt lat="47.67368" lon="-3.16536">
        <ele>14.800000190735</ele>
        <time>2015-12-01T14:17:04.000Z</time>
      </trkpt>
      <trkpt lat="47.67362" lon="-3.16544">
        <ele>14.800000190735</ele>
        <time>2015-12-01T14:17:06.000Z</time>
      </trkpt>
      <trkpt lat="47.67355" lon="-3.16554">
        <ele>14.800000190735</ele>
        <time>2015-12-01T14:17:09.000Z</time>
      </trkpt>
      <trkpt lat="47.67347" lon="-3.16564">
        <ele>14.800000190735</ele>
        <time>2015-12-01T14:17:12.000Z</time>
      </trkpt>
      <trkpt lat="47.67337" lon="-3.16574">
        <ele>14.800000190735</ele>
        <time>2015-12-01T14:17:15.000Z</time>
      </trkpt>
      <trkpt lat="47.67316" lon="-3.16592">
        <ele>14.800000190735</ele>
        <time>2015-12-01T14:17:20.000Z</time>
      </trkpt>
      <trkpt lat="47.67291" lon="-3.16612">
        <ele>14.800000190735</ele>
        <time>2015-12-01T14:17:27.000Z</time>
      </trkpt>
      <trkpt lat="47.67277" lon="-3.16627">
        <ele>14.800000190735</ele>
        <time>2015-12-01T14:17:32.000Z</time>
      </trkpt>
      <trkpt lat="47.67256" lon="-3.16641">
        <ele>14.800000190735</ele>
        <time>2015-12-01T14:17:38.000Z</time>
      </trkpt>
      <trkpt lat="47.67235" lon="-3.16653">
        <ele>14.800000190735</ele>
        <time>2015-12-01T14:17:44.000Z</time>
      </trkpt>
      <trkpt lat="47.67215" lon="-3.1667">
        <ele>14.800000190735</ele>
        <time>2015-12-01T14:17:50.000Z</time>
      </trkpt>
      <trkpt lat="47.67192" lon="-3.16691">
        <ele>14.800000190735</ele>
        <time>2015-12-01T14:17:57.000Z</time>
      </trkpt>
      <trkpt lat="47.67178" lon="-3.16702">
        <ele>14.800000190735</ele>
        <time>2015-12-01T14:18:01.000Z</time>
      </trkpt>
      <trkpt lat="47.67174" lon="-3.16704">
        <ele>14.800000190735</ele>
        <time>2015-12-01T14:18:02.000Z</time>
      </trkpt>
      <trkpt lat="47.67163" lon="-3.16706">
        <ele>14.800000190735</ele>
        <time>2015-12-01T14:18:04.000Z</time>
      </trkpt>
      <trkpt lat="47.67133" lon="-3.1671">
        <ele>14.800000190735</ele>
        <time>2015-12-01T14:18:10.000Z</time>
      </trkpt>
      <trkpt lat="47.67107" lon="-3.16712">
        <ele>14.800000190735</ele>
        <time>2015-12-01T14:18:16.000Z</time>
      </trkpt>
      <trkpt lat="47.6708" lon="-3.16716">
        <ele>15.199999809265</ele>
        <time>2015-12-01T14:18:23.000Z</time>
      </trkpt>
      <trkpt lat="47.67076" lon="-3.16716">
        <ele>15.800000190735</ele>
        <time>2015-12-01T14:18:24.000Z</time>
      </trkpt>
      <trkpt lat="47.67072" lon="-3.16716">
        <ele>16.200000762939</ele>
        <time>2015-12-01T14:18:25.000Z</time>
      </trkpt>
      <trkpt lat="47.67069" lon="-3.16716">
        <ele>16.60000038147</ele>
        <time>2015-12-01T14:18:26.000Z</time>
      </trkpt>
      <trkpt lat="47.67065" lon="-3.16716">
        <ele>17</ele>
        <time>2015-12-01T14:18:27.000Z</time>
      </trkpt>
      <trkpt lat="47.67059" lon="-3.16716">
        <ele>17</ele>
        <time>2015-12-01T14:18:29.000Z</time>
      </trkpt>
      <trkpt lat="47.67046" lon="-3.16721">
        <ele>17</ele>
        <time>2015-12-01T14:18:33.000Z</time>
      </trkpt>
      <trkpt lat="47.67025" lon="-3.16725">
        <ele>17</ele>
        <time>2015-12-01T14:18:39.000Z</time>
      </trkpt>
      <trkpt lat="47.67005" lon="-3.16727">
        <ele>17.39999961853</ele>
        <time>2015-12-01T14:18:45.000Z</time>
      </trkpt>
      <trkpt lat="47.67002" lon="-3.16728">
        <ele>17.799999237061</ele>
        <time>2015-12-01T14:18:46.000Z</time>
      </trkpt>
      <trkpt lat="47.66999" lon="-3.16727">
        <ele>18.200000762939</ele>
        <time>2015-12-01T14:18:47.000Z</time>
      </trkpt>
      <trkpt lat="47.66996" lon="-3.16727">
        <ele>18.60000038147</ele>
        <time>2015-12-01T14:18:48.000Z</time>
      </trkpt>
      <trkpt lat="47.66993" lon="-3.16727">
        <ele>19</ele>
        <time>2015-12-01T14:18:49.000Z</time>
      </trkpt>
      <trkpt lat="47.66971" lon="-3.16726">
        <ele>19</ele>
        <time>2015-12-01T14:18:55.000Z</time>
      </trkpt>
      <trkpt lat="47.66953" lon="-3.16722">
        <ele>19</ele>
        <time>2015-12-01T14:19:00.000Z</time>
      </trkpt>
      <trkpt lat="47.6693" lon="-3.1672">
        <ele>19</ele>
        <time>2015-12-01T14:19:06.000Z</time>
      </trkpt>
      <trkpt lat="47.66906" lon="-3.16719">
        <ele>19</ele>
        <time>2015-12-01T14:19:12.000Z</time>
      </trkpt>
      <trkpt lat="47.66894" lon="-3.16721">
        <ele>19</ele>
        <time>2015-12-01T14:19:15.000Z</time>
      </trkpt>
      <trkpt lat="47.66883" lon="-3.16721">
        <ele>19</ele>
        <time>2015-12-01T14:19:18.000Z</time>
      </trkpt>
      <trkpt lat="47.66859" lon="-3.16714">
        <ele>19</ele>
        <time>2015-12-01T14:19:25.000Z</time>
      </trkpt>
      <trkpt lat="47.66837" lon="-3.16709">
        <ele>19</ele>
        <time>2015-12-01T14:19:31.000Z</time>
      </trkpt>
      <trkpt lat="47.66823" lon="-3.16704">
        <ele>18.60000038147</ele>
        <time>2015-12-01T14:19:35.000Z</time>
      </trkpt>
      <trkpt lat="47.6682" lon="-3.16702">
        <ele>18.200000762939</ele>
        <time>2015-12-01T14:19:36.000Z</time>
      </trkpt>
      <trkpt lat="47.66817" lon="-3.16699">
        <ele>17.799999237061</ele>
        <time>2015-12-01T14:19:37.000Z</time>
      </trkpt>
      <trkpt lat="47.66814" lon="-3.16696">
        <ele>17.39999961853</ele>
        <time>2015-12-01T14:19:38.000Z</time>
      </trkpt>
      <trkpt lat="47.66812" lon="-3.16692">
        <ele>17</ele>
        <time>2015-12-01T14:19:39.000Z</time>
      </trkpt>
      <trkpt lat="47.66807" lon="-3.16685">
        <ele>17</ele>
        <time>2015-12-01T14:19:41.000Z</time>
      </trkpt>
      <trkpt lat="47.66788" lon="-3.16666">
        <ele>17</ele>
        <time>2015-12-01T14:19:47.000Z</time>
      </trkpt>
      <trkpt lat="47.66764" lon="-3.16649">
        <ele>17</ele>
        <time>2015-12-01T14:19:54.000Z</time>
      </trkpt>
      <trkpt lat="47.66747" lon="-3.16633">
        <ele>17</ele>
        <time>2015-12-01T14:20:00.000Z</time>
      </trkpt>
      <trkpt lat="47.66737" lon="-3.16623">
        <ele>17</ele>
        <time>2015-12-01T14:20:05.000Z</time>
      </trkpt>
      <trkpt lat="47.66718" lon="-3.1661">
        <ele>17</ele>
        <time>2015-12-01T14:20:11.000Z</time>
      </trkpt>
      <trkpt lat="47.66698" lon="-3.166">
        <ele>17</ele>
        <time>2015-12-01T14:20:17.000Z</time>
      </trkpt>
      <trkpt lat="47.66679" lon="-3.16597">
        <ele>17</ele>
        <time>2015-12-01T14:20:22.000Z</time>
      </trkpt>
      <trkpt lat="47.66657" lon="-3.16599">
        <ele>17</ele>
        <time>2015-12-01T14:20:28.000Z</time>
      </trkpt>
      <trkpt lat="47.66634" lon="-3.16599">
        <ele>17</ele>
        <time>2015-12-01T14:20:34.000Z</time>
      </trkpt>
      <trkpt lat="47.66621" lon="-3.166">
        <ele>17</ele>
        <time>2015-12-01T14:20:37.000Z</time>
      </trkpt>
      <trkpt lat="47.66611" lon="-3.166">
        <ele>17</ele>
        <time>2015-12-01T14:20:39.000Z</time>
      </trkpt>
      <trkpt lat="47.66592" lon="-3.16601">
        <ele>17</ele>
        <time>2015-12-01T14:20:44.000Z</time>
      </trkpt>
      <trkpt lat="47.6659" lon="-3.16603">
        <ele>17</ele>
        <time>2015-12-01T14:20:45.000Z</time>
      </trkpt>
      <trkpt lat="47.66586" lon="-3.16611">
        <ele>16.60000038147</ele>
        <time>2015-12-01T14:20:47.000Z</time>
      </trkpt>
      <trkpt lat="47.66585" lon="-3.16615">
        <ele>16.200000762939</ele>
        <time>2015-12-01T14:20:48.000Z</time>
      </trkpt>
      <trkpt lat="47.66583" lon="-3.16619">
        <ele>15.800000190735</ele>
        <time>2015-12-01T14:20:49.000Z</time>
      </trkpt>
      <trkpt lat="47.66581" lon="-3.16622">
        <ele>15.39999961853</ele>
        <time>2015-12-01T14:20:50.000Z</time>
      </trkpt>
      <trkpt lat="47.66579" lon="-3.16626">
        <ele>15</ele>
        <time>2015-12-01T14:20:51.000Z</time>
      </trkpt>
      <trkpt lat="47.66572" lon="-3.16641">
        <ele>15</ele>
        <time>2015-12-01T14:20:55.000Z</time>
      </trkpt>
      <trkpt lat="47.66564" lon="-3.1666">
        <ele>15</ele>
        <time>2015-12-01T14:20:59.000Z</time>
      </trkpt>
      <trkpt lat="47.6656" lon="-3.16669">
        <ele>15</ele>
        <time>2015-12-01T14:21:01.000Z</time>
      </trkpt>
      <trkpt lat="47.66546" lon="-3.167">
        <ele>15</ele>
        <time>2015-12-01T14:21:08.000Z</time>
      </trkpt>
      <trkpt lat="47.66535" lon="-3.1672">
        <ele>14.60000038147</ele>
        <time>2015-12-01T14:21:13.000Z</time>
      </trkpt>
      <trkpt lat="47.66532" lon="-3.16724">
        <ele>14.199999809265</ele>
        <time>2015-12-01T14:21:14.000Z</time>
      </trkpt>
      <trkpt lat="47.6653" lon="-3.16728">
        <ele>13.800000190735</ele>
        <time>2015-12-01T14:21:15.000Z</time>
      </trkpt>
      <trkpt lat="47.66527" lon="-3.16732">
        <ele>13.39999961853</ele>
        <time>2015-12-01T14:21:16.000Z</time>
      </trkpt>
      <trkpt lat="47.66524" lon="-3.16736">
        <ele>13</ele>
        <time>2015-12-01T14:21:17.000Z</time>
      </trkpt>
      <trkpt lat="47.66514" lon="-3.16752">
        <ele>13</ele>
        <time>2015-12-01T14:21:21.000Z</time>
      </trkpt>
      <trkpt lat="47.66501" lon="-3.16776">
        <ele>13</ele>
        <time>2015-12-01T14:21:27.000Z</time>
      </trkpt>
      <trkpt lat="47.66489" lon="-3.16798">
        <ele>13</ele>
        <time>2015-12-01T14:21:33.000Z</time>
      </trkpt>
      <trkpt lat="47.66482" lon="-3.16811">
        <ele>13</ele>
        <time>2015-12-01T14:21:37.000Z</time>
      </trkpt>
      <trkpt lat="47.66481" lon="-3.16813">
        <ele>13</ele>
        <time>2015-12-01T14:21:39.000Z</time>
      </trkpt>
      <trkpt lat="47.66482" lon="-3.16817">
        <ele>13</ele>
        <time>2015-12-01T14:21:48.000Z</time>
      </trkpt>
      <trkpt lat="47.66483" lon="-3.16819">
        <ele>13</ele>
        <time>2015-12-01T14:21:49.000Z</time>
      </trkpt>
      <trkpt lat="47.66491" lon="-3.1683">
        <ele>13</ele>
        <time>2015-12-01T14:21:53.000Z</time>
      </trkpt>
      <trkpt lat="47.66509" lon="-3.16854">
        <ele>13</ele>
        <time>2015-12-01T14:22:00.000Z</time>
      </trkpt>
      <trkpt lat="47.66504" lon="-3.16879">
        <ele>13</ele>
        <time>2015-12-01T14:22:05.000Z</time>
      </trkpt>
      <trkpt lat="47.66492" lon="-3.1691">
        <ele>13</ele>
        <time>2015-12-01T14:22:11.000Z</time>
      </trkpt>
      <trkpt lat="47.66482" lon="-3.16937">
        <ele>13</ele>
        <time>2015-12-01T14:22:17.000Z</time>
      </trkpt>
      <trkpt lat="47.66473" lon="-3.16963">
        <ele>13</ele>
        <time>2015-12-01T14:22:23.000Z</time>
      </trkpt>
      <trkpt lat="47.66465" lon="-3.16989">
        <ele>13</ele>
        <time>2015-12-01T14:22:28.000Z</time>
      </trkpt>
      <trkpt lat="47.66464" lon="-3.16995">
        <ele>12.60000038147</ele>
        <time>2015-12-01T14:22:29.000Z</time>
      </trkpt>
      <trkpt lat="47.66462" lon="-3.17">
        <ele>12</ele>
        <time>2015-12-01T14:22:30.000Z</time>
      </trkpt>
      <trkpt lat="47.66462" lon="-3.17005">
        <ele>11.60000038147</ele>
        <time>2015-12-01T14:22:31.000Z</time>
      </trkpt>
      <trkpt lat="47.66461" lon="-3.17011">
        <ele>11.199999809265</ele>
        <time>2015-12-01T14:22:32.000Z</time>
      </trkpt>
      <trkpt lat="47.66459" lon="-3.17016">
        <ele>10.800000190735</ele>
        <time>2015-12-01T14:22:33.000Z</time>
      </trkpt>
      <trkpt lat="47.66449" lon="-3.17053">
        <ele>10.800000190735</ele>
        <time>2015-12-01T14:22:40.000Z</time>
      </trkpt>
      <trkpt lat="47.66442" lon="-3.17079">
        <ele>10.800000190735</ele>
        <time>2015-12-01T14:22:45.000Z</time>
      </trkpt>
      <trkpt lat="47.66437" lon="-3.17106">
        <ele>10.800000190735</ele>
        <time>2015-12-01T14:22:51.000Z</time>
      </trkpt>
      <trkpt lat="47.66429" lon="-3.17122">
        <ele>10.800000190735</ele>
        <time>2015-12-01T14:22:56.000Z</time>
      </trkpt>
      <trkpt lat="47.6642" lon="-3.17132">
        <ele>10.800000190735</ele>
        <time>2015-12-01T14:23:00.000Z</time>
      </trkpt>
      <trkpt lat="47.66415" lon="-3.17155">
        <ele>10.800000190735</ele>
        <time>2015-12-01T14:23:05.000Z</time>
      </trkpt>
      <trkpt lat="47.66413" lon="-3.17186">
        <ele>10.800000190735</ele>
        <time>2015-12-01T14:23:11.000Z</time>
      </trkpt>
      <trkpt lat="47.66412" lon="-3.17216">
        <ele>10.800000190735</ele>
        <time>2015-12-01T14:23:17.000Z</time>
      </trkpt>
      <trkpt lat="47.66413" lon="-3.1722">
        <ele>10.800000190735</ele>
        <time>2015-12-01T14:23:18.000Z</time>
      </trkpt>
      <trkpt lat="47.66418" lon="-3.17223">
        <ele>10.800000190735</ele>
        <time>2015-12-01T14:23:20.000Z</time>
      </trkpt>
      <trkpt lat="47.66425" lon="-3.17233">
        <ele>10.800000190735</ele>
        <time>2015-12-01T14:23:24.000Z</time>
      </trkpt>
      <trkpt lat="47.66425" lon="-3.17236">
        <ele>10.800000190735</ele>
        <time>2015-12-01T14:23:25.000Z</time>
      </trkpt>
      <trkpt lat="47.66424" lon="-3.17258">
        <ele>10.800000190735</ele>
        <time>2015-12-01T14:23:29.000Z</time>
      </trkpt>
      <trkpt lat="47.66421" lon="-3.17291">
        <ele>10.800000190735</ele>
        <time>2015-12-01T14:23:36.000Z</time>
      </trkpt>
      <trkpt lat="47.66417" lon="-3.17313">
        <ele>10.800000190735</ele>
        <time>2015-12-01T14:23:41.000Z</time>
      </trkpt>
      <trkpt lat="47.66413" lon="-3.17332">
        <ele>10.800000190735</ele>
        <time>2015-12-01T14:23:46.000Z</time>
      </trkpt>
      <trkpt lat="47.66405" lon="-3.17358">
        <ele>10.800000190735</ele>
        <time>2015-12-01T14:23:51.000Z</time>
      </trkpt>
      <trkpt lat="47.66398" lon="-3.17386">
        <ele>10.800000190735</ele>
        <time>2015-12-01T14:23:56.000Z</time>
      </trkpt>
      <trkpt lat="47.6639" lon="-3.17412">
        <ele>10.800000190735</ele>
        <time>2015-12-01T14:24:01.000Z</time>
      </trkpt>
      <trkpt lat="47.66383" lon="-3.1744">
        <ele>10.800000190735</ele>
        <time>2015-12-01T14:24:07.000Z</time>
      </trkpt>
      <trkpt lat="47.66373" lon="-3.17467">
        <ele>10.800000190735</ele>
        <time>2015-12-01T14:24:14.000Z</time>
      </trkpt>
      <trkpt lat="47.6637" lon="-3.17468">
        <ele>10.800000190735</ele>
        <time>2015-12-01T14:24:15.000Z</time>
      </trkpt>
      <trkpt lat="47.66364" lon="-3.17464">
        <ele>10.800000190735</ele>
        <time>2015-12-01T14:24:17.000Z</time>
      </trkpt>
      <trkpt lat="47.66359" lon="-3.17458">
        <ele>10.800000190735</ele>
        <time>2015-12-01T14:24:19.000Z</time>
      </trkpt>
      <trkpt lat="47.66349" lon="-3.17439">
        <ele>10.800000190735</ele>
        <time>2015-12-01T14:24:24.000Z</time>
      </trkpt>
      <trkpt lat="47.66336" lon="-3.17414">
        <ele>10.800000190735</ele>
        <time>2015-12-01T14:24:31.000Z</time>
      </trkpt>
      <trkpt lat="47.66324" lon="-3.17387">
        <ele>10.800000190735</ele>
        <time>2015-12-01T14:24:39.000Z</time>
      </trkpt>
      <trkpt lat="47.6632" lon="-3.17379">
        <ele>11.199999809265</ele>
        <time>2015-12-01T14:24:42.000Z</time>
      </trkpt>
      <trkpt lat="47.66318" lon="-3.1738">
        <ele>11.60000038147</ele>
        <time>2015-12-01T14:24:43.000Z</time>
      </trkpt>
      <trkpt lat="47.66317" lon="-3.17383">
        <ele>12.199999809265</ele>
        <time>2015-12-01T14:24:44.000Z</time>
      </trkpt>
      <trkpt lat="47.66316" lon="-3.17387">
        <ele>12.60000038147</ele>
        <time>2015-12-01T14:24:45.000Z</time>
      </trkpt>
      <trkpt lat="47.66315" lon="-3.1739">
        <ele>13</ele>
        <time>2015-12-01T14:24:46.000Z</time>
      </trkpt>
      <trkpt lat="47.66314" lon="-3.17394">
        <ele>13</ele>
        <time>2015-12-01T14:24:47.000Z</time>
      </trkpt>
      <trkpt lat="47.66308" lon="-3.17421">
        <ele>13</ele>
        <time>2015-12-01T14:24:53.000Z</time>
      </trkpt>
      <trkpt lat="47.66303" lon="-3.17452">
        <ele>13</ele>
        <time>2015-12-01T14:25:00.000Z</time>
      </trkpt>
      <trkpt lat="47.66296" lon="-3.1748">
        <ele>13</ele>
        <time>2015-12-01T14:25:06.000Z</time>
      </trkpt>
      <trkpt lat="47.66289" lon="-3.17504">
        <ele>13</ele>
        <time>2015-12-01T14:25:11.000Z</time>
      </trkpt>
      <trkpt lat="47.66287" lon="-3.17528">
        <ele>13</ele>
        <time>2015-12-01T14:25:16.000Z</time>
      </trkpt>
      <trkpt lat="47.66292" lon="-3.17552">
        <ele>13</ele>
        <time>2015-12-01T14:25:21.000Z</time>
      </trkpt>
      <trkpt lat="47.66293" lon="-3.17565">
        <ele>13</ele>
        <time>2015-12-01T14:25:26.000Z</time>
      </trkpt>
      <trkpt lat="47.66294" lon="-3.17565">
        <ele>13</ele>
        <time>2015-12-01T14:25:27.000Z</time>
      </trkpt>
      <trkpt lat="47.66294" lon="-3.17566">
        <ele>13</ele>
        <time>2015-12-01T14:25:28.000Z</time>
      </trkpt>
      <trkpt lat="47.66297" lon="-3.17572">
        <ele>13</ele>
        <time>2015-12-01T14:25:30.000Z</time>
      </trkpt>
      <trkpt lat="47.66306" lon="-3.17592">
        <ele>13</ele>
        <time>2015-12-01T14:25:34.000Z</time>
      </trkpt>
      <trkpt lat="47.66309" lon="-3.17609">
        <ele>13</ele>
        <time>2015-12-01T14:25:37.000Z</time>
      </trkpt>
      <trkpt lat="47.66318" lon="-3.17639">
        <ele>13</ele>
        <time>2015-12-01T14:25:43.000Z</time>
      </trkpt>
      <trkpt lat="47.66319" lon="-3.17662">
        <ele>13</ele>
        <time>2015-12-01T14:25:48.000Z</time>
      </trkpt>
      <trkpt lat="47.66321" lon="-3.17697">
        <ele>13</ele>
        <time>2015-12-01T14:25:54.000Z</time>
      </trkpt>
      <trkpt lat="47.66326" lon="-3.17726">
        <ele>13</ele>
        <time>2015-12-01T14:26:00.000Z</time>
      </trkpt>
      <trkpt lat="47.6633" lon="-3.17754">
        <ele>13</ele>
        <time>2015-12-01T14:26:06.000Z</time>
      </trkpt>
      <trkpt lat="47.66337" lon="-3.17777">
        <ele>13</ele>
        <time>2015-12-01T14:26:11.000Z</time>
      </trkpt>
      <trkpt lat="47.6635" lon="-3.1781">
        <ele>13</ele>
        <time>2015-12-01T14:26:19.000Z</time>
      </trkpt>
      <trkpt lat="47.66355" lon="-3.17842">
        <ele>13</ele>
        <time>2015-12-01T14:26:26.000Z</time>
      </trkpt>
      <trkpt lat="47.66358" lon="-3.17858">
        <ele>13</ele>
        <time>2015-12-01T14:26:30.000Z</time>
      </trkpt>
      <trkpt lat="47.66359" lon="-3.1786">
        <ele>13</ele>
        <time>2015-12-01T14:26:31.000Z</time>
      </trkpt>
      <trkpt lat="47.66361" lon="-3.17863">
        <ele>13</ele>
        <time>2015-12-01T14:26:35.000Z</time>
      </trkpt>
      <trkpt lat="47.6636" lon="-3.17867">
        <ele>13</ele>
        <time>2015-12-01T14:26:37.000Z</time>
      </trkpt>
      <trkpt lat="47.6636" lon="-3.17881">
        <ele>13</ele>
        <time>2015-12-01T14:26:40.000Z</time>
      </trkpt>
      <trkpt lat="47.66355" lon="-3.17915">
        <ele>13</ele>
        <time>2015-12-01T14:26:46.000Z</time>
      </trkpt>
      <trkpt lat="47.6635" lon="-3.17933">
        <ele>13.39999961853</ele>
        <time>2015-12-01T14:26:50.000Z</time>
      </trkpt>
      <trkpt lat="47.66349" lon="-3.17937">
        <ele>13.800000190735</ele>
        <time>2015-12-01T14:26:51.000Z</time>
      </trkpt>
      <trkpt lat="47.66347" lon="-3.1794">
        <ele>14.199999809265</ele>
        <time>2015-12-01T14:26:52.000Z</time>
      </trkpt>
      <trkpt lat="47.66345" lon="-3.17943">
        <ele>14.60000038147</ele>
        <time>2015-12-01T14:26:53.000Z</time>
      </trkpt>
      <trkpt lat="47.66343" lon="-3.17947">
        <ele>15</ele>
        <time>2015-12-01T14:26:54.000Z</time>
      </trkpt>
      <trkpt lat="47.6634" lon="-3.17954">
        <ele>15</ele>
        <time>2015-12-01T14:26:56.000Z</time>
      </trkpt>
      <trkpt lat="47.66334" lon="-3.17974">
        <ele>15</ele>
        <time>2015-12-01T14:27:01.000Z</time>
      </trkpt>
      <trkpt lat="47.66324" lon="-3.1799">
        <ele>15</ele>
        <time>2015-12-01T14:27:06.000Z</time>
      </trkpt>
      <trkpt lat="47.66319" lon="-3.18018">
        <ele>15</ele>
        <time>2015-12-01T14:27:12.000Z</time>
      </trkpt>
      <trkpt lat="47.66319" lon="-3.18057">
        <ele>15</ele>
        <time>2015-12-01T14:27:19.000Z</time>
      </trkpt>
      <trkpt lat="47.66315" lon="-3.18082">
        <ele>15</ele>
        <time>2015-12-01T14:27:25.000Z</time>
      </trkpt>
      <trkpt lat="47.66314" lon="-3.18087">
        <ele>14.60000038147</ele>
        <time>2015-12-01T14:27:26.000Z</time>
      </trkpt>
      <trkpt lat="47.66312" lon="-3.18093">
        <ele>14.199999809265</ele>
        <time>2015-12-01T14:27:27.000Z</time>
      </trkpt>
      <trkpt lat="47.6631" lon="-3.18097">
        <ele>13.800000190735</ele>
        <time>2015-12-01T14:27:28.000Z</time>
      </trkpt>
      <trkpt lat="47.66308" lon="-3.18101">
        <ele>13.39999961853</ele>
        <time>2015-12-01T14:27:29.000Z</time>
      </trkpt>
      <trkpt lat="47.66307" lon="-3.18104">
        <ele>13</ele>
        <time>2015-12-01T14:27:30.000Z</time>
      </trkpt>
      <trkpt lat="47.66296" lon="-3.18121">
        <ele>13</ele>
        <time>2015-12-01T14:27:34.000Z</time>
      </trkpt>
      <trkpt lat="47.66276" lon="-3.18138">
        <ele>13</ele>
        <time>2015-12-01T14:27:40.000Z</time>
      </trkpt>
      <trkpt lat="47.66267" lon="-3.18159">
        <ele>13</ele>
        <time>2015-12-01T14:27:44.000Z</time>
      </trkpt>
      <trkpt lat="47.66265" lon="-3.18165">
        <ele>13</ele>
        <time>2015-12-01T14:27:45.000Z</time>
      </trkpt>
      <trkpt lat="47.6625" lon="-3.18195">
        <ele>13</ele>
        <time>2015-12-01T14:27:50.000Z</time>
      </trkpt>
      <trkpt lat="47.66231" lon="-3.18236">
        <ele>13</ele>
        <time>2015-12-01T14:27:57.000Z</time>
      </trkpt>
      <trkpt lat="47.66218" lon="-3.18266">
        <ele>12.60000038147</ele>
        <time>2015-12-01T14:28:03.000Z</time>
      </trkpt>
      <trkpt lat="47.66217" lon="-3.18269">
        <ele>12.199999809265</ele>
        <time>2015-12-01T14:28:04.000Z</time>
      </trkpt>
      <trkpt lat="47.66215" lon="-3.18272">
        <ele>11.800000190735</ele>
        <time>2015-12-01T14:28:05.000Z</time>
      </trkpt>
      <trkpt lat="47.66213" lon="-3.18276">
        <ele>11.39999961853</ele>
        <time>2015-12-01T14:28:06.000Z</time>
      </trkpt>
      <trkpt lat="47.66211" lon="-3.18279">
        <ele>11</ele>
        <time>2015-12-01T14:28:07.000Z</time>
      </trkpt>
      <trkpt lat="47.66209" lon="-3.18283">
        <ele>11</ele>
        <time>2015-12-01T14:28:08.000Z</time>
      </trkpt>
      <trkpt lat="47.662" lon="-3.18296">
        <ele>11</ele>
        <time>2015-12-01T14:28:14.000Z</time>
      </trkpt>
      <trkpt lat="47.66199" lon="-3.18312">
        <ele>11</ele>
        <time>2015-12-01T14:28:20.000Z</time>
      </trkpt>
      <trkpt lat="47.66189" lon="-3.18329">
        <ele>11</ele>
        <time>2015-12-01T14:28:24.000Z</time>
      </trkpt>
      <trkpt lat="47.66161" lon="-3.18355">
        <ele>11</ele>
        <time>2015-12-01T14:28:32.000Z</time>
      </trkpt>
      <trkpt lat="47.6613" lon="-3.18384">
        <ele>11</ele>
        <time>2015-12-01T14:28:40.000Z</time>
      </trkpt>
      <trkpt lat="47.66106" lon="-3.18408">
        <ele>11</ele>
        <time>2015-12-01T14:28:46.000Z</time>
      </trkpt>
      <trkpt lat="47.66076" lon="-3.18442">
        <ele>11</ele>
        <time>2015-12-01T14:28:54.000Z</time>
      </trkpt>
      <trkpt lat="47.66073" lon="-3.18448">
        <ele>11</ele>
        <time>2015-12-01T14:28:55.000Z</time>
      </trkpt>
      <trkpt lat="47.66067" lon="-3.18465">
        <ele>11</ele>
        <time>2015-12-01T14:28:58.000Z</time>
      </trkpt>
      <trkpt lat="47.66066" lon="-3.18471">
        <ele>11</ele>
        <time>2015-12-01T14:28:59.000Z</time>
      </trkpt>
      <trkpt lat="47.66055" lon="-3.18496">
        <ele>11</ele>
        <time>2015-12-01T14:29:04.000Z</time>
      </trkpt>
      <trkpt lat="47.66045" lon="-3.18519">
        <ele>10.60000038147</ele>
        <time>2015-12-01T14:29:08.000Z</time>
      </trkpt>
      <trkpt lat="47.66043" lon="-3.18526">
        <ele>10</ele>
        <time>2015-12-01T14:29:09.000Z</time>
      </trkpt>
      <trkpt lat="47.66041" lon="-3.18533">
        <ele>9.6000003814697</ele>
        <time>2015-12-01T14:29:10.000Z</time>
      </trkpt>
      <trkpt lat="47.66039" lon="-3.1854">
        <ele>9.1999998092651</ele>
        <time>2015-12-01T14:29:11.000Z</time>
      </trkpt>
      <trkpt lat="47.66038" lon="-3.18546">
        <ele>8.8000001907349</ele>
        <time>2015-12-01T14:29:12.000Z</time>
      </trkpt>
      <trkpt lat="47.66031" lon="-3.18565">
        <ele>8.8000001907349</ele>
        <time>2015-12-01T14:29:15.000Z</time>
      </trkpt>
      <trkpt lat="47.66021" lon="-3.18606">
        <ele>8.8000001907349</ele>
        <time>2015-12-01T14:29:21.000Z</time>
      </trkpt>
      <trkpt lat="47.6601" lon="-3.18652">
        <ele>8.3999996185303</ele>
        <time>2015-12-01T14:29:28.000Z</time>
      </trkpt>
      <trkpt lat="47.66008" lon="-3.18658">
        <ele>8</ele>
        <time>2015-12-01T14:29:29.000Z</time>
      </trkpt>
      <trkpt lat="47.66007" lon="-3.18665">
        <ele>7.4000000953674</ele>
        <time>2015-12-01T14:29:30.000Z</time>
      </trkpt>
      <trkpt lat="47.66005" lon="-3.18671">
        <ele>7</ele>
        <time>2015-12-01T14:29:31.000Z</time>
      </trkpt>
      <trkpt lat="47.66003" lon="-3.18678">
        <ele>6.5999999046326</ele>
        <time>2015-12-01T14:29:32.000Z</time>
      </trkpt>
      <trkpt lat="47.65997" lon="-3.18702">
        <ele>6.5999999046326</ele>
        <time>2015-12-01T14:29:36.000Z</time>
      </trkpt>
      <trkpt lat="47.65987" lon="-3.18745">
        <ele>6.5999999046326</ele>
        <time>2015-12-01T14:29:43.000Z</time>
      </trkpt>
      <trkpt lat="47.65976" lon="-3.18778">
        <ele>6.5999999046326</ele>
        <time>2015-12-01T14:29:50.000Z</time>
      </trkpt>
      <trkpt lat="47.6597" lon="-3.18806">
        <ele>6.5999999046326</ele>
        <time>2015-12-01T14:29:56.000Z</time>
      </trkpt>
      <trkpt lat="47.6597" lon="-3.18811">
        <ele>7</ele>
        <time>2015-12-01T14:29:57.000Z</time>
      </trkpt>
      <trkpt lat="47.65969" lon="-3.18816">
        <ele>7.4000000953674</ele>
        <time>2015-12-01T14:29:58.000Z</time>
      </trkpt>
      <trkpt lat="47.65967" lon="-3.18821">
        <ele>7.8000001907349</ele>
        <time>2015-12-01T14:29:59.000Z</time>
      </trkpt>
      <trkpt lat="47.65966" lon="-3.18826">
        <ele>8.1999998092651</ele>
        <time>2015-12-01T14:30:00.000Z</time>
      </trkpt>
      <trkpt lat="47.65965" lon="-3.18831">
        <ele>8.6000003814697</ele>
        <time>2015-12-01T14:30:01.000Z</time>
      </trkpt>
      <trkpt lat="47.65961" lon="-3.18846">
        <ele>8.6000003814697</ele>
        <time>2015-12-01T14:30:04.000Z</time>
      </trkpt>
      <trkpt lat="47.65952" lon="-3.18881">
        <ele>8.6000003814697</ele>
        <time>2015-12-01T14:30:11.000Z</time>
      </trkpt>
      <trkpt lat="47.65944" lon="-3.18911">
        <ele>8.6000003814697</ele>
        <time>2015-12-01T14:30:16.000Z</time>
      </trkpt>
      <trkpt lat="47.65939" lon="-3.18933">
        <ele>9</ele>
        <time>2015-12-01T14:30:20.000Z</time>
      </trkpt>
      <trkpt lat="47.65938" lon="-3.18938">
        <ele>9.3999996185303</ele>
        <time>2015-12-01T14:30:21.000Z</time>
      </trkpt>
      <trkpt lat="47.65937" lon="-3.18943">
        <ele>9.8000001907349</ele>
        <time>2015-12-01T14:30:22.000Z</time>
      </trkpt>
      <trkpt lat="47.65936" lon="-3.18948">
        <ele>10.199999809265</ele>
        <time>2015-12-01T14:30:23.000Z</time>
      </trkpt>
      <trkpt lat="47.65934" lon="-3.18953">
        <ele>10.60000038147</ele>
        <time>2015-12-01T14:30:24.000Z</time>
      </trkpt>
      <trkpt lat="47.65924" lon="-3.18994">
        <ele>10.60000038147</ele>
        <time>2015-12-01T14:30:32.000Z</time>
      </trkpt>
      <trkpt lat="47.65921" lon="-3.19004">
        <ele>10.60000038147</ele>
        <time>2015-12-01T14:30:34.000Z</time>
      </trkpt>
      <trkpt lat="47.65916" lon="-3.19022">
        <ele>10.60000038147</ele>
        <time>2015-12-01T14:30:37.000Z</time>
      </trkpt>
      <trkpt lat="47.65903" lon="-3.19068">
        <ele>10.60000038147</ele>
        <time>2015-12-01T14:30:45.000Z</time>
      </trkpt>
      <trkpt lat="47.65901" lon="-3.1908">
        <ele>11</ele>
        <time>2015-12-01T14:30:47.000Z</time>
      </trkpt>
      <trkpt lat="47.65899" lon="-3.19086">
        <ele>11.39999961853</ele>
        <time>2015-12-01T14:30:48.000Z</time>
      </trkpt>
      <trkpt lat="47.65898" lon="-3.19092">
        <ele>11.800000190735</ele>
        <time>2015-12-01T14:30:49.000Z</time>
      </trkpt>
      <trkpt lat="47.65896" lon="-3.19097">
        <ele>12.199999809265</ele>
        <time>2015-12-01T14:30:50.000Z</time>
      </trkpt>
      <trkpt lat="47.65895" lon="-3.19103">
        <ele>12.60000038147</ele>
        <time>2015-12-01T14:30:51.000Z</time>
      </trkpt>
      <trkpt lat="47.65892" lon="-3.19115">
        <ele>12.60000038147</ele>
        <time>2015-12-01T14:30:53.000Z</time>
      </trkpt>
      <trkpt lat="47.65891" lon="-3.19121">
        <ele>12.60000038147</ele>
        <time>2015-12-01T14:30:54.000Z</time>
      </trkpt>
      <trkpt lat="47.65884" lon="-3.19149">
        <ele>12.60000038147</ele>
        <time>2015-12-01T14:30:58.000Z</time>
      </trkpt>
      <trkpt lat="47.65875" lon="-3.19183">
        <ele>12.60000038147</ele>
        <time>2015-12-01T14:31:03.000Z</time>
      </trkpt>
      <trkpt lat="47.65872" lon="-3.19198">
        <ele>12.60000038147</ele>
        <time>2015-12-01T14:31:05.000Z</time>
      </trkpt>
      <trkpt lat="47.6586" lon="-3.19247">
        <ele>12.60000038147</ele>
        <time>2015-12-01T14:31:12.000Z</time>
      </trkpt>
      <trkpt lat="47.65848" lon="-3.19293">
        <ele>12.60000038147</ele>
        <time>2015-12-01T14:31:19.000Z</time>
      </trkpt>
      <trkpt lat="47.65837" lon="-3.19338">
        <ele>12.60000038147</ele>
        <time>2015-12-01T14:31:27.000Z</time>
      </trkpt>
      <trkpt lat="47.65829" lon="-3.19376">
        <ele>13.199999809265</ele>
        <time>2015-12-01T14:31:34.000Z</time>
      </trkpt>
      <trkpt lat="47.65827" lon="-3.19381">
        <ele>13.60000038147</ele>
        <time>2015-12-01T14:31:35.000Z</time>
      </trkpt>
      <trkpt lat="47.65826" lon="-3.19387">
        <ele>14</ele>
        <time>2015-12-01T14:31:36.000Z</time>
      </trkpt>
      <trkpt lat="47.65824" lon="-3.19392">
        <ele>14.39999961853</ele>
        <time>2015-12-01T14:31:37.000Z</time>
      </trkpt>
      <trkpt lat="47.65823" lon="-3.19398">
        <ele>14.800000190735</ele>
        <time>2015-12-01T14:31:38.000Z</time>
      </trkpt>
      <trkpt lat="47.65817" lon="-3.19418">
        <ele>14.800000190735</ele>
        <time>2015-12-01T14:31:42.000Z</time>
      </trkpt>
      <trkpt lat="47.65816" lon="-3.1944">
        <ele>14.800000190735</ele>
        <time>2015-12-01T14:31:47.000Z</time>
      </trkpt>
      <trkpt lat="47.65817" lon="-3.19471">
        <ele>15.199999809265</ele>
        <time>2015-12-01T14:31:54.000Z</time>
      </trkpt>
      <trkpt lat="47.65818" lon="-3.19475">
        <ele>15.60000038147</ele>
        <time>2015-12-01T14:31:55.000Z</time>
      </trkpt>
      <trkpt lat="47.65818" lon="-3.19479">
        <ele>16</ele>
        <time>2015-12-01T14:31:56.000Z</time>
      </trkpt>
      <trkpt lat="47.65818" lon="-3.19482">
        <ele>16.60000038147</ele>
        <time>2015-12-01T14:31:57.000Z</time>
      </trkpt>
      <trkpt lat="47.65816" lon="-3.19483">
        <ele>17</ele>
        <time>2015-12-01T14:31:58.000Z</time>
      </trkpt>
      <trkpt lat="47.65814" lon="-3.19481">
        <ele>17</ele>
        <time>2015-12-01T14:31:59.000Z</time>
      </trkpt>
      <trkpt lat="47.65807" lon="-3.19466">
        <ele>17</ele>
        <time>2015-12-01T14:32:03.000Z</time>
      </trkpt>
      <trkpt lat="47.658" lon="-3.19459">
        <ele>17</ele>
        <time>2015-12-01T14:32:05.000Z</time>
      </trkpt>
      <trkpt lat="47.65789" lon="-3.19454">
        <ele>17</ele>
        <time>2015-12-01T14:32:08.000Z</time>
      </trkpt>
      <trkpt lat="47.65777" lon="-3.19456">
        <ele>17</ele>
        <time>2015-12-01T14:32:11.000Z</time>
      </trkpt>
      <trkpt lat="47.65769" lon="-3.19458">
        <ele>17</ele>
        <time>2015-12-01T14:32:13.000Z</time>
      </trkpt>
      <trkpt lat="47.65753" lon="-3.19464">
        <ele>17</ele>
        <time>2015-12-01T14:32:18.000Z</time>
      </trkpt>
      <trkpt lat="47.65724" lon="-3.19474">
        <ele>17</ele>
        <time>2015-12-01T14:32:26.000Z</time>
      </trkpt>
      <trkpt lat="47.65695" lon="-3.1948">
        <ele>17</ele>
        <time>2015-12-01T14:32:33.000Z</time>
      </trkpt>
      <trkpt lat="47.65662" lon="-3.19486">
        <ele>17</ele>
        <time>2015-12-01T14:32:41.000Z</time>
      </trkpt>
      <trkpt lat="47.65633" lon="-3.1949">
        <ele>17</ele>
        <time>2015-12-01T14:32:47.000Z</time>
      </trkpt>
      <trkpt lat="47.65621" lon="-3.19493">
        <ele>17</ele>
        <time>2015-12-01T14:32:51.000Z</time>
      </trkpt>
      <trkpt lat="47.65617" lon="-3.195">
        <ele>17</ele>
        <time>2015-12-01T14:32:53.000Z</time>
      </trkpt>
      <trkpt lat="47.65617" lon="-3.19508">
        <ele>16.39999961853</ele>
        <time>2015-12-01T14:32:54.000Z</time>
      </trkpt>
      <trkpt lat="47.65618" lon="-3.19515">
        <ele>16</ele>
        <time>2015-12-01T14:32:55.000Z</time>
      </trkpt>
      <trkpt lat="47.65619" lon="-3.19521">
        <ele>15.199999809265</ele>
        <time>2015-12-01T14:32:56.000Z</time>
      </trkpt>
      <trkpt lat="47.6562" lon="-3.19527">
        <ele>14.60000038147</ele>
        <time>2015-12-01T14:32:57.000Z</time>
      </trkpt>
      <trkpt lat="47.65622" lon="-3.19534">
        <ele>14.60000038147</ele>
        <time>2015-12-01T14:32:58.000Z</time>
      </trkpt>
      <trkpt lat="47.65631" lon="-3.19561">
        <ele>14.60000038147</ele>
        <time>2015-12-01T14:33:03.000Z</time>
      </trkpt>
      <trkpt lat="47.65634" lon="-3.19565">
        <ele>14.60000038147</ele>
        <time>2015-12-01T14:33:04.000Z</time>
      </trkpt>
      <trkpt lat="47.65661" lon="-3.19603">
        <ele>14.60000038147</ele>
        <time>2015-12-01T14:33:12.000Z</time>
      </trkpt>
      <trkpt lat="47.65685" lon="-3.19638">
        <ele>14.60000038147</ele>
        <time>2015-12-01T14:33:20.000Z</time>
      </trkpt>
      <trkpt lat="47.65706" lon="-3.1967">
        <ele>14.60000038147</ele>
        <time>2015-12-01T14:33:27.000Z</time>
      </trkpt>
      <trkpt lat="47.65719" lon="-3.19698">
        <ele>14.60000038147</ele>
        <time>2015-12-01T14:33:32.000Z</time>
      </trkpt>
      <trkpt lat="47.65723" lon="-3.19712">
        <ele>14.60000038147</ele>
        <time>2015-12-01T14:33:34.000Z</time>
      </trkpt>
      <trkpt lat="47.65731" lon="-3.19753">
        <ele>14.60000038147</ele>
        <time>2015-12-01T14:33:40.000Z</time>
      </trkpt>
      <trkpt lat="47.65738" lon="-3.19799">
        <ele>14.60000038147</ele>
        <time>2015-12-01T14:33:47.000Z</time>
      </trkpt>
      <trkpt lat="47.65739" lon="-3.19812">
        <ele>14.60000038147</ele>
        <time>2015-12-01T14:33:49.000Z</time>
      </trkpt>
      <trkpt lat="47.65742" lon="-3.19833">
        <ele>14.60000038147</ele>
        <time>2015-12-01T14:33:53.000Z</time>
      </trkpt>
      <trkpt lat="47.65745" lon="-3.19836">
        <ele>14.60000038147</ele>
        <time>2015-12-01T14:33:54.000Z</time>
      </trkpt>
      <trkpt lat="47.6575" lon="-3.19838">
        <ele>14.60000038147</ele>
        <time>2015-12-01T14:33:56.000Z</time>
      </trkpt>
      <trkpt lat="47.65755" lon="-3.19854">
        <ele>14.60000038147</ele>
        <time>2015-12-01T14:34:00.000Z</time>
      </trkpt>
      <trkpt lat="47.65753" lon="-3.19867">
        <ele>14.60000038147</ele>
        <time>2015-12-01T14:34:02.000Z</time>
      </trkpt>
      <trkpt lat="47.65752" lon="-3.19881">
        <ele>14.60000038147</ele>
        <time>2015-12-01T14:34:04.000Z</time>
      </trkpt>
      <trkpt lat="47.65746" lon="-3.19928">
        <ele>14.60000038147</ele>
        <time>2015-12-01T14:34:11.000Z</time>
      </trkpt>
      <trkpt lat="47.65742" lon="-3.19961">
        <ele>14.60000038147</ele>
        <time>2015-12-01T14:34:16.000Z</time>
      </trkpt>
      <trkpt lat="47.65741" lon="-3.19975">
        <ele>14.60000038147</ele>
        <time>2015-12-01T14:34:18.000Z</time>
      </trkpt>
      <trkpt lat="47.65743" lon="-3.19988">
        <ele>14.60000038147</ele>
        <time>2015-12-01T14:34:20.000Z</time>
      </trkpt>
      <trkpt lat="47.65746" lon="-3.2">
        <ele>14.60000038147</ele>
        <time>2015-12-01T14:34:22.000Z</time>
      </trkpt>
      <trkpt lat="47.65751" lon="-3.20017">
        <ele>14.60000038147</ele>
        <time>2015-12-01T14:34:25.000Z</time>
      </trkpt>
      <trkpt lat="47.65754" lon="-3.20042">
        <ele>14.60000038147</ele>
        <time>2015-12-01T14:34:29.000Z</time>
      </trkpt>
      <trkpt lat="47.65755" lon="-3.20048">
        <ele>14.60000038147</ele>
        <time>2015-12-01T14:34:30.000Z</time>
      </trkpt>
      <trkpt lat="47.65751" lon="-3.20073">
        <ele>14.60000038147</ele>
        <time>2015-12-01T14:34:34.000Z</time>
      </trkpt>
      <trkpt lat="47.65749" lon="-3.20079">
        <ele>14.60000038147</ele>
        <time>2015-12-01T14:34:35.000Z</time>
      </trkpt>
      <trkpt lat="47.65744" lon="-3.20091">
        <ele>14.60000038147</ele>
        <time>2015-12-01T14:34:37.000Z</time>
      </trkpt>
      <trkpt lat="47.65735" lon="-3.20117">
        <ele>14.60000038147</ele>
        <time>2015-12-01T14:34:42.000Z</time>
      </trkpt>
      <trkpt lat="47.65731" lon="-3.2013">
        <ele>15</ele>
        <time>2015-12-01T14:34:44.000Z</time>
      </trkpt>
      <trkpt lat="47.6573" lon="-3.20136">
        <ele>15.39999961853</ele>
        <time>2015-12-01T14:34:45.000Z</time>
      </trkpt>
      <trkpt lat="47.6573" lon="-3.20142">
        <ele>15.800000190735</ele>
        <time>2015-12-01T14:34:46.000Z</time>
      </trkpt>
      <trkpt lat="47.65729" lon="-3.20148">
        <ele>16.200000762939</ele>
        <time>2015-12-01T14:34:47.000Z</time>
      </trkpt>
      <trkpt lat="47.65727" lon="-3.20153">
        <ele>16.60000038147</ele>
        <time>2015-12-01T14:34:48.000Z</time>
      </trkpt>
      <trkpt lat="47.65719" lon="-3.20181">
        <ele>16.60000038147</ele>
        <time>2015-12-01T14:34:53.000Z</time>
      </trkpt>
      <trkpt lat="47.65718" lon="-3.20187">
        <ele>16.60000038147</ele>
        <time>2015-12-01T14:34:54.000Z</time>
      </trkpt>
      <trkpt lat="47.65716" lon="-3.2021">
        <ele>16.60000038147</ele>
        <time>2015-12-01T14:34:58.000Z</time>
      </trkpt>
      <trkpt lat="47.65719" lon="-3.20229">
        <ele>16.60000038147</ele>
        <time>2015-12-01T14:35:01.000Z</time>
      </trkpt>
      <trkpt lat="47.6572" lon="-3.20241">
        <ele>16.60000038147</ele>
        <time>2015-12-01T14:35:03.000Z</time>
      </trkpt>
      <trkpt lat="47.65725" lon="-3.20271">
        <ele>16.60000038147</ele>
        <time>2015-12-01T14:35:08.000Z</time>
      </trkpt>
      <trkpt lat="47.65724" lon="-3.20283">
        <ele>16.60000038147</ele>
        <time>2015-12-01T14:35:10.000Z</time>
      </trkpt>
      <trkpt lat="47.65723" lon="-3.20302">
        <ele>16.200000762939</ele>
        <time>2015-12-01T14:35:13.000Z</time>
      </trkpt>
      <trkpt lat="47.65722" lon="-3.2031">
        <ele>15.800000190735</ele>
        <time>2015-12-01T14:35:14.000Z</time>
      </trkpt>
      <trkpt lat="47.65722" lon="-3.20317">
        <ele>15.39999961853</ele>
        <time>2015-12-01T14:35:15.000Z</time>
      </trkpt>
      <trkpt lat="47.65721" lon="-3.20325">
        <ele>14.800000190735</ele>
        <time>2015-12-01T14:35:16.000Z</time>
      </trkpt>
      <trkpt lat="47.6572" lon="-3.20332">
        <ele>14.39999961853</ele>
        <time>2015-12-01T14:35:17.000Z</time>
      </trkpt>
      <trkpt lat="47.65711" lon="-3.20384">
        <ele>14</ele>
        <time>2015-12-01T14:35:24.000Z</time>
      </trkpt>
      <trkpt lat="47.65709" lon="-3.20392">
        <ele>13.199999809265</ele>
        <time>2015-12-01T14:35:25.000Z</time>
      </trkpt>
      <trkpt lat="47.65708" lon="-3.20399">
        <ele>12.800000190735</ele>
        <time>2015-12-01T14:35:26.000Z</time>
      </trkpt>
      <trkpt lat="47.65707" lon="-3.20405">
        <ele>12.39999961853</ele>
        <time>2015-12-01T14:35:27.000Z</time>
      </trkpt>
      <trkpt lat="47.65705" lon="-3.20411">
        <ele>12.39999961853</ele>
        <time>2015-12-01T14:35:28.000Z</time>
      </trkpt>
      <trkpt lat="47.65702" lon="-3.20417">
        <ele>12.39999961853</ele>
        <time>2015-12-01T14:35:29.000Z</time>
      </trkpt>
      <trkpt lat="47.657" lon="-3.20424">
        <ele>12.39999961853</ele>
        <time>2015-12-01T14:35:30.000Z</time>
      </trkpt>
      <trkpt lat="47.65686" lon="-3.20455">
        <ele>12</ele>
        <time>2015-12-01T14:35:35.000Z</time>
      </trkpt>
      <trkpt lat="47.65684" lon="-3.20461">
        <ele>11.39999961853</ele>
        <time>2015-12-01T14:35:36.000Z</time>
      </trkpt>
      <trkpt lat="47.65682" lon="-3.20468">
        <ele>11</ele>
        <time>2015-12-01T14:35:37.000Z</time>
      </trkpt>
      <trkpt lat="47.6568" lon="-3.20475">
        <ele>10.60000038147</ele>
        <time>2015-12-01T14:35:38.000Z</time>
      </trkpt>
      <trkpt lat="47.65677" lon="-3.20482">
        <ele>10.199999809265</ele>
        <time>2015-12-01T14:35:39.000Z</time>
      </trkpt>
      <trkpt lat="47.65671" lon="-3.20496">
        <ele>10.199999809265</ele>
        <time>2015-12-01T14:35:41.000Z</time>
      </trkpt>
      <trkpt lat="47.6565" lon="-3.20555">
        <ele>9.1999998092651</ele>
        <time>2015-12-01T14:35:49.000Z</time>
      </trkpt>
      <trkpt lat="47.65648" lon="-3.20562">
        <ele>8.8000001907349</ele>
        <time>2015-12-01T14:35:50.000Z</time>
      </trkpt>
      <trkpt lat="47.65645" lon="-3.20569">
        <ele>8.3999996185303</ele>
        <time>2015-12-01T14:35:51.000Z</time>
      </trkpt>
      <trkpt lat="47.65643" lon="-3.20577">
        <ele>8</ele>
        <time>2015-12-01T14:35:52.000Z</time>
      </trkpt>
      <trkpt lat="47.65631" lon="-3.20602">
        <ele>8</ele>
        <time>2015-12-01T14:35:56.000Z</time>
      </trkpt>
      <trkpt lat="47.65627" lon="-3.20613">
        <ele>8</ele>
        <time>2015-12-01T14:35:58.000Z</time>
      </trkpt>
      <trkpt lat="47.65623" lon="-3.20626">
        <ele>7.4000000953674</ele>
        <time>2015-12-01T14:36:00.000Z</time>
      </trkpt>
      <trkpt lat="47.65621" lon="-3.20632">
        <ele>7</ele>
        <time>2015-12-01T14:36:01.000Z</time>
      </trkpt>
      <trkpt lat="47.65618" lon="-3.20638">
        <ele>6.5999999046326</ele>
        <time>2015-12-01T14:36:02.000Z</time>
      </trkpt>
      <trkpt lat="47.65616" lon="-3.20644">
        <ele>6.1999998092651</ele>
        <time>2015-12-01T14:36:03.000Z</time>
      </trkpt>
      <trkpt lat="47.65614" lon="-3.20649">
        <ele>5.5999999046326</ele>
        <time>2015-12-01T14:36:04.000Z</time>
      </trkpt>
      <trkpt lat="47.65608" lon="-3.20662">
        <ele>5.5999999046326</ele>
        <time>2015-12-01T14:36:07.000Z</time>
      </trkpt>
      <trkpt lat="47.65602" lon="-3.20682">
        <ele>5.5999999046326</ele>
        <time>2015-12-01T14:36:12.000Z</time>
      </trkpt>
      <trkpt lat="47.65601" lon="-3.20686">
        <ele>5.5999999046326</ele>
        <time>2015-12-01T14:36:13.000Z</time>
      </trkpt>
      <trkpt lat="47.65597" lon="-3.20699">
        <ele>5.5999999046326</ele>
        <time>2015-12-01T14:36:16.000Z</time>
      </trkpt>
      <trkpt lat="47.65588" lon="-3.20706">
        <ele>5.5999999046326</ele>
        <time>2015-12-01T14:36:19.000Z</time>
      </trkpt>
      <trkpt lat="47.65583" lon="-3.20707">
        <ele>5.5999999046326</ele>
        <time>2015-12-01T14:36:20.000Z</time>
      </trkpt>
      <trkpt lat="47.65567" lon="-3.20699">
        <ele>5.5999999046326</ele>
        <time>2015-12-01T14:36:24.000Z</time>
      </trkpt>
      <trkpt lat="47.65564" lon="-3.20696">
        <ele>5.5999999046326</ele>
        <time>2015-12-01T14:36:25.000Z</time>
      </trkpt>
      <trkpt lat="47.65552" lon="-3.20681">
        <ele>5.1999998092651</ele>
        <time>2015-12-01T14:36:29.000Z</time>
      </trkpt>
      <trkpt lat="47.65551" lon="-3.20676">
        <ele>4.8000001907349</ele>
        <time>2015-12-01T14:36:30.000Z</time>
      </trkpt>
      <trkpt lat="47.65548" lon="-3.20671">
        <ele>4.4000000953674</ele>
        <time>2015-12-01T14:36:31.000Z</time>
      </trkpt>
      <trkpt lat="47.65546" lon="-3.20666">
        <ele>4</ele>
        <time>2015-12-01T14:36:32.000Z</time>
      </trkpt>
      <trkpt lat="47.65544" lon="-3.2066">
        <ele>3.5999999046326</ele>
        <time>2015-12-01T14:36:33.000Z</time>
      </trkpt>
      <trkpt lat="47.65539" lon="-3.20636">
        <ele>3.5999999046326</ele>
        <time>2015-12-01T14:36:37.000Z</time>
      </trkpt>
      <trkpt lat="47.6554" lon="-3.20596">
        <ele>3.5999999046326</ele>
        <time>2015-12-01T14:36:43.000Z</time>
      </trkpt>
      <trkpt lat="47.6554" lon="-3.2059">
        <ele>3.5999999046326</ele>
        <time>2015-12-01T14:36:44.000Z</time>
      </trkpt>
      <trkpt lat="47.65544" lon="-3.20566">
        <ele>3.5999999046326</ele>
        <time>2015-12-01T14:36:48.000Z</time>
      </trkpt>
      <trkpt lat="47.65545" lon="-3.2056">
        <ele>3.5999999046326</ele>
        <time>2015-12-01T14:36:49.000Z</time>
      </trkpt>
      <trkpt lat="47.65551" lon="-3.20528">
        <ele>3.5999999046326</ele>
        <time>2015-12-01T14:36:54.000Z</time>
      </trkpt>
      <trkpt lat="47.65554" lon="-3.20471">
        <ele>3.5999999046326</ele>
        <time>2015-12-01T14:37:02.000Z</time>
      </trkpt>
      <trkpt lat="47.65556" lon="-3.20414">
        <ele>3.5999999046326</ele>
        <time>2015-12-01T14:37:10.000Z</time>
      </trkpt>
      <trkpt lat="47.65558" lon="-3.20369">
        <ele>3.5999999046326</ele>
        <time>2015-12-01T14:37:17.000Z</time>
      </trkpt>
      <trkpt lat="47.65559" lon="-3.20327">
        <ele>3.5999999046326</ele>
        <time>2015-12-01T14:37:24.000Z</time>
      </trkpt>
      <trkpt lat="47.65556" lon="-3.20321">
        <ele>3.5999999046326</ele>
        <time>2015-12-01T14:37:25.000Z</time>
      </trkpt>
      <trkpt lat="47.65548" lon="-3.20302">
        <ele>3.5999999046326</ele>
        <time>2015-12-01T14:37:28.000Z</time>
      </trkpt>
      <trkpt lat="47.65545" lon="-3.20296">
        <ele>3.5999999046326</ele>
        <time>2015-12-01T14:37:29.000Z</time>
      </trkpt>
      <trkpt lat="47.65532" lon="-3.20281">
        <ele>3.5999999046326</ele>
        <time>2015-12-01T14:37:32.000Z</time>
      </trkpt>
      <trkpt lat="47.65527" lon="-3.20279">
        <ele>3.5999999046326</ele>
        <time>2015-12-01T14:37:33.000Z</time>
      </trkpt>
      <trkpt lat="47.65491" lon="-3.20257">
        <ele>3.5999999046326</ele>
        <time>2015-12-01T14:37:41.000Z</time>
      </trkpt>
      <trkpt lat="47.65451" lon="-3.20233">
        <ele>3.5999999046326</ele>
        <time>2015-12-01T14:37:50.000Z</time>
      </trkpt>
      <trkpt lat="47.65416" lon="-3.20216">
        <ele>3.5999999046326</ele>
        <time>2015-12-01T14:37:58.000Z</time>
      </trkpt>
      <trkpt lat="47.65385" lon="-3.20206">
        <ele>3.5999999046326</ele>
        <time>2015-12-01T14:38:05.000Z</time>
      </trkpt>
      <trkpt lat="47.65353" lon="-3.20199">
        <ele>3.5999999046326</ele>
        <time>2015-12-01T14:38:12.000Z</time>
      </trkpt>
      <trkpt lat="47.65316" lon="-3.20193">
        <ele>3.5999999046326</ele>
        <time>2015-12-01T14:38:20.000Z</time>
      </trkpt>
      <trkpt lat="47.65289" lon="-3.20189">
        <ele>3.5999999046326</ele>
        <time>2015-12-01T14:38:26.000Z</time>
      </trkpt>
      <trkpt lat="47.65281" lon="-3.20192">
        <ele>3.5999999046326</ele>
        <time>2015-12-01T14:38:28.000Z</time>
      </trkpt>
      <trkpt lat="47.65276" lon="-3.2019">
        <ele>3.5999999046326</ele>
        <time>2015-12-01T14:38:29.000Z</time>
      </trkpt>
      <trkpt lat="47.65266" lon="-3.20186">
        <ele>3.5999999046326</ele>
        <time>2015-12-01T14:38:31.000Z</time>
      </trkpt>
      <trkpt lat="47.65252" lon="-3.20186">
        <ele>3.5999999046326</ele>
        <time>2015-12-01T14:38:34.000Z</time>
      </trkpt>
      <trkpt lat="47.65247" lon="-3.20187">
        <ele>3.5999999046326</ele>
        <time>2015-12-01T14:38:35.000Z</time>
      </trkpt>
      <trkpt lat="47.65226" lon="-3.20192">
        <ele>3.5999999046326</ele>
        <time>2015-12-01T14:38:40.000Z</time>
      </trkpt>
      <trkpt lat="47.65222" lon="-3.20193">
        <ele>3.5999999046326</ele>
        <time>2015-12-01T14:38:41.000Z</time>
      </trkpt>
      <trkpt lat="47.6521" lon="-3.20195">
        <ele>3.5999999046326</ele>
        <time>2015-12-01T14:38:44.000Z</time>
      </trkpt>
      <trkpt lat="47.65206" lon="-3.20196">
        <ele>4</ele>
        <time>2015-12-01T14:38:45.000Z</time>
      </trkpt>
      <trkpt lat="47.65203" lon="-3.20196">
        <ele>4.4000000953674</ele>
        <time>2015-12-01T14:38:46.000Z</time>
      </trkpt>
      <trkpt lat="47.652" lon="-3.20197">
        <ele>4.8000001907349</ele>
        <time>2015-12-01T14:38:47.000Z</time>
      </trkpt>
      <trkpt lat="47.65197" lon="-3.20198">
        <ele>5.1999998092651</ele>
        <time>2015-12-01T14:38:48.000Z</time>
      </trkpt>
      <trkpt lat="47.65195" lon="-3.20201">
        <ele>5.5999999046326</ele>
        <time>2015-12-01T14:38:49.000Z</time>
      </trkpt>
      <trkpt lat="47.65187" lon="-3.20203">
        <ele>5.5999999046326</ele>
        <time>2015-12-01T14:38:51.000Z</time>
      </trkpt>
      <trkpt lat="47.65167" lon="-3.20198">
        <ele>5.5999999046326</ele>
        <time>2015-12-01T14:38:56.000Z</time>
      </trkpt>
      <trkpt lat="47.65144" lon="-3.20198">
        <ele>5.5999999046326</ele>
        <time>2015-12-01T14:39:03.000Z</time>
      </trkpt>
      <trkpt lat="47.65141" lon="-3.20198">
        <ele>6.1999998092651</ele>
        <time>2015-12-01T14:39:04.000Z</time>
      </trkpt>
      <trkpt lat="47.65137" lon="-3.20198">
        <ele>6.5999999046326</ele>
        <time>2015-12-01T14:39:05.000Z</time>
      </trkpt>
      <trkpt lat="47.65134" lon="-3.20198">
        <ele>7</ele>
        <time>2015-12-01T14:39:06.000Z</time>
      </trkpt>
      <trkpt lat="47.6513" lon="-3.20199">
        <ele>7.8000001907349</ele>
        <time>2015-12-01T14:39:07.000Z</time>
      </trkpt>
      <trkpt lat="47.65116" lon="-3.20197">
        <ele>7.8000001907349</ele>
        <time>2015-12-01T14:39:11.000Z</time>
      </trkpt>
      <trkpt lat="47.65096" lon="-3.20196">
        <ele>7.8000001907349</ele>
        <time>2015-12-01T14:39:17.000Z</time>
      </trkpt>
      <trkpt lat="47.65089" lon="-3.20195">
        <ele>8.1999998092651</ele>
        <time>2015-12-01T14:39:19.000Z</time>
      </trkpt>
      <trkpt lat="47.65086" lon="-3.20196">
        <ele>8.6000003814697</ele>
        <time>2015-12-01T14:39:20.000Z</time>
      </trkpt>
      <trkpt lat="47.65084" lon="-3.20197">
        <ele>9</ele>
        <time>2015-12-01T14:39:21.000Z</time>
      </trkpt>
      <trkpt lat="47.65081" lon="-3.20197">
        <ele>9.3999996185303</ele>
        <time>2015-12-01T14:39:22.000Z</time>
      </trkpt>
      <trkpt lat="47.65078" lon="-3.20196">
        <ele>10</ele>
        <time>2015-12-01T14:39:23.000Z</time>
      </trkpt>
      <trkpt lat="47.65067" lon="-3.20186">
        <ele>10</ele>
        <time>2015-12-01T14:39:27.000Z</time>
      </trkpt>
      <trkpt lat="47.6505" lon="-3.20181">
        <ele>10</ele>
        <time>2015-12-01T14:39:32.000Z</time>
      </trkpt>
      <trkpt lat="47.6503" lon="-3.20176">
        <ele>10.39999961853</ele>
        <time>2015-12-01T14:39:38.000Z</time>
      </trkpt>
      <trkpt lat="47.65026" lon="-3.20175">
        <ele>10.800000190735</ele>
        <time>2015-12-01T14:39:39.000Z</time>
      </trkpt>
      <trkpt lat="47.65023" lon="-3.20174">
        <ele>11.199999809265</ele>
        <time>2015-12-01T14:39:40.000Z</time>
      </trkpt>
      <trkpt lat="47.65019" lon="-3.20173">
        <ele>11.60000038147</ele>
        <time>2015-12-01T14:39:41.000Z</time>
      </trkpt>
      <trkpt lat="47.65015" lon="-3.20172">
        <ele>12</ele>
        <time>2015-12-01T14:39:42.000Z</time>
      </trkpt>
      <trkpt lat="47.64997" lon="-3.20169">
        <ele>12</ele>
        <time>2015-12-01T14:39:47.000Z</time>
      </trkpt>
      <trkpt lat="47.64993" lon="-3.20168">
        <ele>12</ele>
        <time>2015-12-01T14:39:48.000Z</time>
      </trkpt>
      <trkpt lat="47.64974" lon="-3.20162">
        <ele>12</ele>
        <time>2015-12-01T14:39:52.000Z</time>
      </trkpt>
      <trkpt lat="47.64953" lon="-3.20158">
        <ele>11.60000038147</ele>
        <time>2015-12-01T14:39:56.000Z</time>
      </trkpt>
      <trkpt lat="47.64947" lon="-3.20159">
        <ele>11.199999809265</ele>
        <time>2015-12-01T14:39:57.000Z</time>
      </trkpt>
      <trkpt lat="47.64941" lon="-3.20161">
        <ele>10.800000190735</ele>
        <time>2015-12-01T14:39:58.000Z</time>
      </trkpt>
      <trkpt lat="47.64935" lon="-3.20163">
        <ele>10.39999961853</ele>
        <time>2015-12-01T14:39:59.000Z</time>
      </trkpt>
      <trkpt lat="47.6493" lon="-3.20168">
        <ele>10</ele>
        <time>2015-12-01T14:40:00.000Z</time>
      </trkpt>
      <trkpt lat="47.64925" lon="-3.20173">
        <ele>10</ele>
        <time>2015-12-01T14:40:01.000Z</time>
      </trkpt>
      <trkpt lat="47.64908" lon="-3.20188">
        <ele>9.6000003814697</ele>
        <time>2015-12-01T14:40:04.000Z</time>
      </trkpt>
      <trkpt lat="47.64903" lon="-3.20193">
        <ele>9.1999998092651</ele>
        <time>2015-12-01T14:40:05.000Z</time>
      </trkpt>
      <trkpt lat="47.64898" lon="-3.20197">
        <ele>8.8000001907349</ele>
        <time>2015-12-01T14:40:06.000Z</time>
      </trkpt>
      <trkpt lat="47.64894" lon="-3.20201">
        <ele>8.3999996185303</ele>
        <time>2015-12-01T14:40:07.000Z</time>
      </trkpt>
      <trkpt lat="47.6489" lon="-3.20205">
        <ele>8</ele>
        <time>2015-12-01T14:40:08.000Z</time>
      </trkpt>
      <trkpt lat="47.64863" lon="-3.20228">
        <ele>8</ele>
        <time>2015-12-01T14:40:15.000Z</time>
      </trkpt>
      <trkpt lat="47.64842" lon="-3.20245">
        <ele>8</ele>
        <time>2015-12-01T14:40:21.000Z</time>
      </trkpt>
      <trkpt lat="47.64822" lon="-3.2026">
        <ele>8.3999996185303</ele>
        <time>2015-12-01T14:40:27.000Z</time>
      </trkpt>
      <trkpt lat="47.64819" lon="-3.20262">
        <ele>8.8000001907349</ele>
        <time>2015-12-01T14:40:28.000Z</time>
      </trkpt>
      <trkpt lat="47.64815" lon="-3.20264">
        <ele>9.1999998092651</ele>
        <time>2015-12-01T14:40:29.000Z</time>
      </trkpt>
      <trkpt lat="47.64812" lon="-3.20266">
        <ele>9.6000003814697</ele>
        <time>2015-12-01T14:40:30.000Z</time>
      </trkpt>
      <trkpt lat="47.64809" lon="-3.20269">
        <ele>10</ele>
        <time>2015-12-01T14:40:31.000Z</time>
      </trkpt>
      <trkpt lat="47.64786" lon="-3.20285">
        <ele>10</ele>
        <time>2015-12-01T14:40:38.000Z</time>
      </trkpt>
      <trkpt lat="47.64754" lon="-3.20302">
        <ele>10</ele>
        <time>2015-12-01T14:40:47.000Z</time>
      </trkpt>
      <trkpt lat="47.64723" lon="-3.20318">
        <ele>10</ele>
        <time>2015-12-01T14:40:55.000Z</time>
      </trkpt>
      <trkpt lat="47.64708" lon="-3.20326">
        <ele>10</ele>
        <time>2015-12-01T14:40:59.000Z</time>
      </trkpt>
      <trkpt lat="47.64701" lon="-3.2033">
        <ele>10</ele>
        <time>2015-12-01T14:41:01.000Z</time>
      </trkpt>
      <trkpt lat="47.64673" lon="-3.20343">
        <ele>10</ele>
        <time>2015-12-01T14:41:08.000Z</time>
      </trkpt>
      <trkpt lat="47.6464" lon="-3.20359">
        <ele>10</ele>
        <time>2015-12-01T14:41:16.000Z</time>
      </trkpt>
      <trkpt lat="47.64629" lon="-3.20366">
        <ele>10</ele>
        <time>2015-12-01T14:41:19.000Z</time>
      </trkpt>
      <trkpt lat="47.64617" lon="-3.20375">
        <ele>10</ele>
        <time>2015-12-01T14:41:22.000Z</time>
      </trkpt>
      <trkpt lat="47.64587" lon="-3.20403">
        <ele>10</ele>
        <time>2015-12-01T14:41:30.000Z</time>
      </trkpt>
      <trkpt lat="47.64564" lon="-3.20432">
        <ele>10</ele>
        <time>2015-12-01T14:41:37.000Z</time>
      </trkpt>
      <trkpt lat="47.64543" lon="-3.20463">
        <ele>10</ele>
        <time>2015-12-01T14:41:44.000Z</time>
      </trkpt>
      <trkpt lat="47.64541" lon="-3.20467">
        <ele>10</ele>
        <time>2015-12-01T14:41:45.000Z</time>
      </trkpt>
      <trkpt lat="47.64525" lon="-3.20492">
        <ele>10</ele>
        <time>2015-12-01T14:41:51.000Z</time>
      </trkpt>
      <trkpt lat="47.64506" lon="-3.20524">
        <ele>10</ele>
        <time>2015-12-01T14:41:58.000Z</time>
      </trkpt>
      <trkpt lat="47.64488" lon="-3.20561">
        <ele>10</ele>
        <time>2015-12-01T14:42:05.000Z</time>
      </trkpt>
      <trkpt lat="47.64471" lon="-3.20595">
        <ele>10</ele>
        <time>2015-12-01T14:42:11.000Z</time>
      </trkpt>
      <trkpt lat="47.64463" lon="-3.20612">
        <ele>9.6000003814697</ele>
        <time>2015-12-01T14:42:14.000Z</time>
      </trkpt>
      <trkpt lat="47.6446" lon="-3.20617">
        <ele>9.1999998092651</ele>
        <time>2015-12-01T14:42:15.000Z</time>
      </trkpt>
      <trkpt lat="47.64458" lon="-3.20622">
        <ele>8.8000001907349</ele>
        <time>2015-12-01T14:42:16.000Z</time>
      </trkpt>
      <trkpt lat="47.64455" lon="-3.20627">
        <ele>8.1999998092651</ele>
        <time>2015-12-01T14:42:17.000Z</time>
      </trkpt>
      <trkpt lat="47.64453" lon="-3.20632">
        <ele>7.8000001907349</ele>
        <time>2015-12-01T14:42:18.000Z</time>
      </trkpt>
      <trkpt lat="47.64449" lon="-3.20637">
        <ele>7.8000001907349</ele>
        <time>2015-12-01T14:42:19.000Z</time>
      </trkpt>
      <trkpt lat="47.64432" lon="-3.20666">
        <ele>7.8000001907349</ele>
        <time>2015-12-01T14:42:25.000Z</time>
      </trkpt>
      <trkpt lat="47.64407" lon="-3.20704">
        <ele>7.8000001907349</ele>
        <time>2015-12-01T14:42:33.000Z</time>
      </trkpt>
      <trkpt lat="47.64383" lon="-3.2075">
        <ele>7.8000001907349</ele>
        <time>2015-12-01T14:42:42.000Z</time>
      </trkpt>
      <trkpt lat="47.64375" lon="-3.20774">
        <ele>7.8000001907349</ele>
        <time>2015-12-01T14:42:46.000Z</time>
      </trkpt>
      <trkpt lat="47.64375" lon="-3.20788">
        <ele>7.8000001907349</ele>
        <time>2015-12-01T14:42:48.000Z</time>
      </trkpt>
      <trkpt lat="47.64374" lon="-3.2084">
        <ele>7.8000001907349</ele>
        <time>2015-12-01T14:42:56.000Z</time>
      </trkpt>
      <trkpt lat="47.64365" lon="-3.20861">
        <ele>7.8000001907349</ele>
        <time>2015-12-01T14:43:01.000Z</time>
      </trkpt>
      <trkpt lat="47.64348" lon="-3.20865">
        <ele>7.8000001907349</ele>
        <time>2015-12-01T14:43:06.000Z</time>
      </trkpt>
      <trkpt lat="47.64333" lon="-3.20858">
        <ele>7.8000001907349</ele>
        <time>2015-12-01T14:43:11.000Z</time>
      </trkpt>
      <trkpt lat="47.64335" lon="-3.20843">
        <ele>7.8000001907349</ele>
        <time>2015-12-01T14:43:14.000Z</time>
      </trkpt>
      <trkpt lat="47.6434" lon="-3.20832">
        <ele>7.8000001907349</ele>
        <time>2015-12-01T14:43:16.000Z</time>
      </trkpt>
      <trkpt lat="47.64346" lon="-3.20814">
        <ele>7.8000001907349</ele>
        <time>2015-12-01T14:43:19.000Z</time>
      </trkpt>
      <trkpt lat="47.64351" lon="-3.20804">
        <ele>7.8000001907349</ele>
        <time>2015-12-01T14:43:21.000Z</time>
      </trkpt>
      <trkpt lat="47.6436" lon="-3.2079">
        <ele>7.8000001907349</ele>
        <time>2015-12-01T14:43:24.000Z</time>
      </trkpt>
      <trkpt lat="47.6438" lon="-3.20754">
        <ele>7.8000001907349</ele>
        <time>2015-12-01T14:43:31.000Z</time>
      </trkpt>
      <trkpt lat="47.64383" lon="-3.20749">
        <ele>7.8000001907349</ele>
        <time>2015-12-01T14:43:32.000Z</time>
      </trkpt>
      <trkpt lat="47.64398" lon="-3.20719">
        <ele>7.8000001907349</ele>
        <time>2015-12-01T14:43:38.000Z</time>
      </trkpt>
      <trkpt lat="47.64412" lon="-3.20694">
        <ele>7.8000001907349</ele>
        <time>2015-12-01T14:43:44.000Z</time>
      </trkpt>
      <trkpt lat="47.64415" lon="-3.20689">
        <ele>7.8000001907349</ele>
        <time>2015-12-01T14:43:45.000Z</time>
      </trkpt>
      <trkpt lat="47.64426" lon="-3.20669">
        <ele>7.8000001907349</ele>
        <time>2015-12-01T14:43:50.000Z</time>
      </trkpt>
      <trkpt lat="47.64427" lon="-3.20659">
        <ele>7.8000001907349</ele>
        <time>2015-12-01T14:43:53.000Z</time>
      </trkpt>
      <trkpt lat="47.64429" lon="-3.20661">
        <ele>7.8000001907349</ele>
        <time>2015-12-01T14:43:54.000Z</time>
      </trkpt>
      <trkpt lat="47.64427" lon="-3.2067">
        <ele>7.8000001907349</ele>
        <time>2015-12-01T14:43:56.000Z</time>
      </trkpt>
      <trkpt lat="47.64425" lon="-3.20673">
        <ele>7.8000001907349</ele>
        <time>2015-12-01T14:43:57.000Z</time>
      </trkpt>
      <trkpt lat="47.64412" lon="-3.20688">
        <ele>7.8000001907349</ele>
        <time>2015-12-01T14:44:02.000Z</time>
      </trkpt>
      <trkpt lat="47.64399" lon="-3.20698">
        <ele>7.8000001907349</ele>
        <time>2015-12-01T14:44:07.000Z</time>
      </trkpt>
      <trkpt lat="47.64396" lon="-3.20698">
        <ele>7.8000001907349</ele>
        <time>2015-12-01T14:44:08.000Z</time>
      </trkpt>
      <trkpt lat="47.64389" lon="-3.20696">
        <ele>7.8000001907349</ele>
        <time>2015-12-01T14:44:10.000Z</time>
      </trkpt>
      <trkpt lat="47.64371" lon="-3.20687">
        <ele>7.8000001907349</ele>
        <time>2015-12-01T14:44:16.000Z</time>
      </trkpt>
      <trkpt lat="47.64347" lon="-3.20663">
        <ele>7.8000001907349</ele>
        <time>2015-12-01T14:44:24.000Z</time>
      </trkpt>
      <trkpt lat="47.64325" lon="-3.20634">
        <ele>7.8000001907349</ele>
        <time>2015-12-01T14:44:32.000Z</time>
      </trkpt>
      <trkpt lat="47.64297" lon="-3.20601">
        <ele>7.8000001907349</ele>
        <time>2015-12-01T14:44:40.000Z</time>
      </trkpt>
      <trkpt lat="47.64264" lon="-3.20563">
        <ele>7.8000001907349</ele>
        <time>2015-12-01T14:44:49.000Z</time>
      </trkpt>
      <trkpt lat="47.64261" lon="-3.20559">
        <ele>7.4000000953674</ele>
        <time>2015-12-01T14:44:50.000Z</time>
      </trkpt>
      <trkpt lat="47.64258" lon="-3.20555">
        <ele>7</ele>
        <time>2015-12-01T14:44:51.000Z</time>
      </trkpt>
      <trkpt lat="47.64254" lon="-3.2055">
        <ele>6.1999998092651</ele>
        <time>2015-12-01T14:44:52.000Z</time>
      </trkpt>
      <trkpt lat="47.64251" lon="-3.20546">
        <ele>5.8000001907349</ele>
        <time>2015-12-01T14:44:53.000Z</time>
      </trkpt>
      <trkpt lat="47.64237" lon="-3.2053">
        <ele>5.8000001907349</ele>
        <time>2015-12-01T14:44:57.000Z</time>
      </trkpt>
      <trkpt lat="47.64214" lon="-3.20502">
        <ele>5.8000001907349</ele>
        <time>2015-12-01T14:45:04.000Z</time>
      </trkpt>
      <trkpt lat="47.64191" lon="-3.20475">
        <ele>5.8000001907349</ele>
        <time>2015-12-01T14:45:11.000Z</time>
      </trkpt>
      <trkpt lat="47.64168" lon="-3.2045">
        <ele>5.8000001907349</ele>
        <time>2015-12-01T14:45:17.000Z</time>
      </trkpt>
      <trkpt lat="47.64135" lon="-3.20418">
        <ele>5.8000001907349</ele>
        <time>2015-12-01T14:45:25.000Z</time>
      </trkpt>
      <trkpt lat="47.6411" lon="-3.20391">
        <ele>5.8000001907349</ele>
        <time>2015-12-01T14:45:32.000Z</time>
      </trkpt>
      <trkpt lat="47.641" lon="-3.20381">
        <ele>5.8000001907349</ele>
        <time>2015-12-01T14:45:35.000Z</time>
      </trkpt>
      <trkpt lat="47.64089" lon="-3.20374">
        <ele>5.8000001907349</ele>
        <time>2015-12-01T14:45:38.000Z</time>
      </trkpt>
      <trkpt lat="47.64069" lon="-3.20363">
        <ele>5.8000001907349</ele>
        <time>2015-12-01T14:45:43.000Z</time>
      </trkpt>
      <trkpt lat="47.6404" lon="-3.20345">
        <ele>5.8000001907349</ele>
        <time>2015-12-01T14:45:49.000Z</time>
      </trkpt>
      <trkpt lat="47.64036" lon="-3.20343">
        <ele>5.8000001907349</ele>
        <time>2015-12-01T14:45:50.000Z</time>
      </trkpt>
      <trkpt lat="47.64018" lon="-3.20333">
        <ele>5.8000001907349</ele>
        <time>2015-12-01T14:45:54.000Z</time>
      </trkpt>
      <trkpt lat="47.64005" lon="-3.20326">
        <ele>5.8000001907349</ele>
        <time>2015-12-01T14:45:57.000Z</time>
      </trkpt>
      <trkpt lat="47.63994" lon="-3.20316">
        <ele>5.8000001907349</ele>
        <time>2015-12-01T14:46:00.000Z</time>
      </trkpt>
      <trkpt lat="47.63979" lon="-3.20302">
        <ele>5.8000001907349</ele>
        <time>2015-12-01T14:46:04.000Z</time>
      </trkpt>
      <trkpt lat="47.63975" lon="-3.20299">
        <ele>5.8000001907349</ele>
        <time>2015-12-01T14:46:05.000Z</time>
      </trkpt>
      <trkpt lat="47.63953" lon="-3.20299">
        <ele>5.8000001907349</ele>
        <time>2015-12-01T14:46:10.000Z</time>
      </trkpt>
      <trkpt lat="47.6394" lon="-3.20297">
        <ele>5.8000001907349</ele>
        <time>2015-12-01T14:46:13.000Z</time>
      </trkpt>
      <trkpt lat="47.63928" lon="-3.2029">
        <ele>5.8000001907349</ele>
        <time>2015-12-01T14:46:16.000Z</time>
      </trkpt>
      <trkpt lat="47.63905" lon="-3.20277">
        <ele>5.8000001907349</ele>
        <time>2015-12-01T14:46:23.000Z</time>
      </trkpt>
      <trkpt lat="47.63882" lon="-3.20261">
        <ele>5.8000001907349</ele>
        <time>2015-12-01T14:46:30.000Z</time>
      </trkpt>
      <trkpt lat="47.63858" lon="-3.20239">
        <ele>5.8000001907349</ele>
        <time>2015-12-01T14:46:37.000Z</time>
      </trkpt>
      <trkpt lat="47.63842" lon="-3.20238">
        <ele>5.8000001907349</ele>
        <time>2015-12-01T14:46:41.000Z</time>
      </trkpt>
      <trkpt lat="47.63832" lon="-3.20242">
        <ele>5.8000001907349</ele>
        <time>2015-12-01T14:46:43.000Z</time>
      </trkpt>
      <trkpt lat="47.63823" lon="-3.20248">
        <ele>5.8000001907349</ele>
        <time>2015-12-01T14:46:45.000Z</time>
      </trkpt>
      <trkpt lat="47.63818" lon="-3.20252">
        <ele>5.8000001907349</ele>
        <time>2015-12-01T14:46:46.000Z</time>
      </trkpt>
      <trkpt lat="47.63808" lon="-3.20261">
        <ele>5.8000001907349</ele>
        <time>2015-12-01T14:46:48.000Z</time>
      </trkpt>
      <trkpt lat="47.63794" lon="-3.20271">
        <ele>5.8000001907349</ele>
        <time>2015-12-01T14:46:51.000Z</time>
      </trkpt>
      <trkpt lat="47.63778" lon="-3.20284">
        <ele>5.8000001907349</ele>
        <time>2015-12-01T14:46:56.000Z</time>
      </trkpt>
      <trkpt lat="47.6377" lon="-3.20296">
        <ele>6.1999998092651</ele>
        <time>2015-12-01T14:46:59.000Z</time>
      </trkpt>
      <trkpt lat="47.63768" lon="-3.203">
        <ele>6.5999999046326</ele>
        <time>2015-12-01T14:47:00.000Z</time>
      </trkpt>
      <trkpt lat="47.63765" lon="-3.20304">
        <ele>7</ele>
        <time>2015-12-01T14:47:01.000Z</time>
      </trkpt>
      <trkpt lat="47.63763" lon="-3.20308">
        <ele>7.4000000953674</ele>
        <time>2015-12-01T14:47:02.000Z</time>
      </trkpt>
      <trkpt lat="47.6376" lon="-3.20312">
        <ele>7.8000001907349</ele>
        <time>2015-12-01T14:47:03.000Z</time>
      </trkpt>
      <trkpt lat="47.63738" lon="-3.2034">
        <ele>7.8000001907349</ele>
        <time>2015-12-01T14:47:11.000Z</time>
      </trkpt>
      <trkpt lat="47.63723" lon="-3.20344">
        <ele>7.8000001907349</ele>
        <time>2015-12-01T14:47:15.000Z</time>
      </trkpt>
      <trkpt lat="47.63715" lon="-3.20343">
        <ele>7.8000001907349</ele>
        <time>2015-12-01T14:47:17.000Z</time>
      </trkpt>
      <trkpt lat="47.637" lon="-3.20335">
        <ele>7.8000001907349</ele>
        <time>2015-12-01T14:47:21.000Z</time>
      </trkpt>
      <trkpt lat="47.63694" lon="-3.20328">
        <ele>7.8000001907349</ele>
        <time>2015-12-01T14:47:23.000Z</time>
      </trkpt>
      <trkpt lat="47.63677" lon="-3.20309">
        <ele>7.8000001907349</ele>
        <time>2015-12-01T14:47:28.000Z</time>
      </trkpt>
      <trkpt lat="47.63643" lon="-3.20282">
        <ele>7.8000001907349</ele>
        <time>2015-12-01T14:47:37.000Z</time>
      </trkpt>
      <trkpt lat="47.63624" lon="-3.20267">
        <ele>7.8000001907349</ele>
        <time>2015-12-01T14:47:43.000Z</time>
      </trkpt>
      <trkpt lat="47.63617" lon="-3.20262">
        <ele>7.8000001907349</ele>
        <time>2015-12-01T14:47:45.000Z</time>
      </trkpt>
      <trkpt lat="47.63607" lon="-3.20252">
        <ele>7.8000001907349</ele>
        <time>2015-12-01T14:47:48.000Z</time>
      </trkpt>
      <trkpt lat="47.636" lon="-3.20246">
        <ele>7.8000001907349</ele>
        <time>2015-12-01T14:47:50.000Z</time>
      </trkpt>
      <trkpt lat="47.63582" lon="-3.20231">
        <ele>7.8000001907349</ele>
        <time>2015-12-01T14:47:55.000Z</time>
      </trkpt>
      <trkpt lat="47.63555" lon="-3.20209">
        <ele>7.8000001907349</ele>
        <time>2015-12-01T14:48:02.000Z</time>
      </trkpt>
      <trkpt lat="47.63524" lon="-3.20185">
        <ele>7.8000001907349</ele>
        <time>2015-12-01T14:48:09.000Z</time>
      </trkpt>
      <trkpt lat="47.63491" lon="-3.20159">
        <ele>7.8000001907349</ele>
        <time>2015-12-01T14:48:17.000Z</time>
      </trkpt>
      <trkpt lat="47.63465" lon="-3.20138">
        <ele>7.8000001907349</ele>
        <time>2015-12-01T14:48:24.000Z</time>
      </trkpt>
      <trkpt lat="47.63433" lon="-3.20111">
        <ele>7.8000001907349</ele>
        <time>2015-12-01T14:48:32.000Z</time>
      </trkpt>
      <trkpt lat="47.63429" lon="-3.20108">
        <ele>7.8000001907349</ele>
        <time>2015-12-01T14:48:33.000Z</time>
      </trkpt>
      <trkpt lat="47.63406" lon="-3.20088">
        <ele>7.8000001907349</ele>
        <time>2015-12-01T14:48:39.000Z</time>
      </trkpt>
      <trkpt lat="47.63402" lon="-3.20083">
        <ele>7.8000001907349</ele>
        <time>2015-12-01T14:48:40.000Z</time>
      </trkpt>
      <trkpt lat="47.63382" lon="-3.20057">
        <ele>7.8000001907349</ele>
        <time>2015-12-01T14:48:46.000Z</time>
      </trkpt>
      <trkpt lat="47.63373" lon="-3.20046">
        <ele>7.8000001907349</ele>
        <time>2015-12-01T14:48:49.000Z</time>
      </trkpt>
      <trkpt lat="47.63365" lon="-3.20042">
        <ele>7.8000001907349</ele>
        <time>2015-12-01T14:48:51.000Z</time>
      </trkpt>
      <trkpt lat="47.63356" lon="-3.20042">
        <ele>7.8000001907349</ele>
        <time>2015-12-01T14:48:53.000Z</time>
      </trkpt>
      <trkpt lat="47.63339" lon="-3.20043">
        <ele>7.8000001907349</ele>
        <time>2015-12-01T14:48:57.000Z</time>
      </trkpt>
      <trkpt lat="47.63321" lon="-3.20036">
        <ele>7.8000001907349</ele>
        <time>2015-12-01T14:49:02.000Z</time>
      </trkpt>
      <trkpt lat="47.63296" lon="-3.20006">
        <ele>7.8000001907349</ele>
        <time>2015-12-01T14:49:09.000Z</time>
      </trkpt>
      <trkpt lat="47.6328" lon="-3.19984">
        <ele>7.8000001907349</ele>
        <time>2015-12-01T14:49:14.000Z</time>
      </trkpt>
      <trkpt lat="47.63277" lon="-3.1998">
        <ele>7.8000001907349</ele>
        <time>2015-12-01T14:49:15.000Z</time>
      </trkpt>
      <trkpt lat="47.63258" lon="-3.19953">
        <ele>7.8000001907349</ele>
        <time>2015-12-01T14:49:22.000Z</time>
      </trkpt>
      <trkpt lat="47.63234" lon="-3.19925">
        <ele>7.8000001907349</ele>
        <time>2015-12-01T14:49:28.000Z</time>
      </trkpt>
      <trkpt lat="47.63206" lon="-3.19901">
        <ele>7.8000001907349</ele>
        <time>2015-12-01T14:49:34.000Z</time>
      </trkpt>
      <trkpt lat="47.6318" lon="-3.1988">
        <ele>7.8000001907349</ele>
        <time>2015-12-01T14:49:40.000Z</time>
      </trkpt>
      <trkpt lat="47.63152" lon="-3.19857">
        <ele>7.8000001907349</ele>
        <time>2015-12-01T14:49:47.000Z</time>
      </trkpt>
      <trkpt lat="47.63117" lon="-3.19829">
        <ele>7.8000001907349</ele>
        <time>2015-12-01T14:49:56.000Z</time>
      </trkpt>
      <trkpt lat="47.63091" lon="-3.19815">
        <ele>7.8000001907349</ele>
        <time>2015-12-01T14:50:02.000Z</time>
      </trkpt>
      <trkpt lat="47.63063" lon="-3.19799">
        <ele>7.8000001907349</ele>
        <time>2015-12-01T14:50:09.000Z</time>
      </trkpt>
      <trkpt lat="47.63032" lon="-3.19777">
        <ele>7.8000001907349</ele>
        <time>2015-12-01T14:50:17.000Z</time>
      </trkpt>
      <trkpt lat="47.62997" lon="-3.19751">
        <ele>7.8000001907349</ele>
        <time>2015-12-01T14:50:26.000Z</time>
      </trkpt>
      <trkpt lat="47.62968" lon="-3.19724">
        <ele>7.8000001907349</ele>
        <time>2015-12-01T14:50:34.000Z</time>
      </trkpt>
      <trkpt lat="47.62944" lon="-3.19702">
        <ele>7.8000001907349</ele>
        <time>2015-12-01T14:50:41.000Z</time>
      </trkpt>
      <trkpt lat="47.62915" lon="-3.19681">
        <ele>7.8000001907349</ele>
        <time>2015-12-01T14:50:48.000Z</time>
      </trkpt>
      <trkpt lat="47.62911" lon="-3.19679">
        <ele>7.8000001907349</ele>
        <time>2015-12-01T14:50:49.000Z</time>
      </trkpt>
      <trkpt lat="47.62889" lon="-3.19674">
        <ele>7.8000001907349</ele>
        <time>2015-12-01T14:50:54.000Z</time>
      </trkpt>
      <trkpt lat="47.62855" lon="-3.19673">
        <ele>7.8000001907349</ele>
        <time>2015-12-01T14:51:01.000Z</time>
      </trkpt>
      <trkpt lat="47.6285" lon="-3.19674">
        <ele>7.8000001907349</ele>
        <time>2015-12-01T14:51:02.000Z</time>
      </trkpt>
      <trkpt lat="47.62836" lon="-3.19675">
        <ele>7.8000001907349</ele>
        <time>2015-12-01T14:51:05.000Z</time>
      </trkpt>
      <trkpt lat="47.62798" lon="-3.19677">
        <ele>7.8000001907349</ele>
        <time>2015-12-01T14:51:14.000Z</time>
      </trkpt>
      <trkpt lat="47.62761" lon="-3.19678">
        <ele>7.8000001907349</ele>
        <time>2015-12-01T14:51:23.000Z</time>
      </trkpt>
      <trkpt lat="47.62727" lon="-3.19677">
        <ele>7.8000001907349</ele>
        <time>2015-12-01T14:51:31.000Z</time>
      </trkpt>
      <trkpt lat="47.62722" lon="-3.19678">
        <ele>7.8000001907349</ele>
        <time>2015-12-01T14:51:32.000Z</time>
      </trkpt>
      <trkpt lat="47.62687" lon="-3.19678">
        <ele>7.8000001907349</ele>
        <time>2015-12-01T14:51:39.000Z</time>
      </trkpt>
      <trkpt lat="47.62677" lon="-3.19678">
        <ele>7.8000001907349</ele>
        <time>2015-12-01T14:51:41.000Z</time>
      </trkpt>
      <trkpt lat="47.62652" lon="-3.19678">
        <ele>7.8000001907349</ele>
        <time>2015-12-01T14:51:46.000Z</time>
      </trkpt>
      <trkpt lat="47.62616" lon="-3.19676">
        <ele>7.8000001907349</ele>
        <time>2015-12-01T14:51:54.000Z</time>
      </trkpt>
      <trkpt lat="47.6257" lon="-3.19674">
        <ele>7.8000001907349</ele>
        <time>2015-12-01T14:52:04.000Z</time>
      </trkpt>
      <trkpt lat="47.62541" lon="-3.19673">
        <ele>7.8000001907349</ele>
        <time>2015-12-01T14:52:10.000Z</time>
      </trkpt>
      <trkpt lat="47.62523" lon="-3.19673">
        <ele>7.8000001907349</ele>
        <time>2015-12-01T14:52:15.000Z</time>
      </trkpt>
      <trkpt lat="47.62514" lon="-3.19673">
        <ele>7.8000001907349</ele>
        <time>2015-12-01T14:52:18.000Z</time>
      </trkpt>
      <trkpt lat="47.6251" lon="-3.19673">
        <ele>7.8000001907349</ele>
        <time>2015-12-01T14:52:19.000Z</time>
      </trkpt>
      <trkpt lat="47.62479" lon="-3.19672">
        <ele>7.8000001907349</ele>
        <time>2015-12-01T14:52:26.000Z</time>
      </trkpt>
      <trkpt lat="47.62444" lon="-3.19671">
        <ele>7.8000001907349</ele>
        <time>2015-12-01T14:52:34.000Z</time>
      </trkpt>
      <trkpt lat="47.6243" lon="-3.19667">
        <ele>7.8000001907349</ele>
        <time>2015-12-01T14:52:39.000Z</time>
      </trkpt>
      <trkpt lat="47.62426" lon="-3.19663">
        <ele>7.8000001907349</ele>
        <time>2015-12-01T14:52:44.000Z</time>
      </trkpt>
      <trkpt lat="47.62416" lon="-3.19654">
        <ele>7.8000001907349</ele>
        <time>2015-12-01T14:52:50.000Z</time>
      </trkpt>
      <trkpt lat="47.62401" lon="-3.19628">
        <ele>7.8000001907349</ele>
        <time>2015-12-01T14:52:56.000Z</time>
      </trkpt>
      <trkpt lat="47.62399" lon="-3.19623">
        <ele>7.8000001907349</ele>
        <time>2015-12-01T14:52:57.000Z</time>
      </trkpt>
      <trkpt lat="47.62386" lon="-3.19593">
        <ele>7.8000001907349</ele>
        <time>2015-12-01T14:53:03.000Z</time>
      </trkpt>
      <trkpt lat="47.6237" lon="-3.19556">
        <ele>7.8000001907349</ele>
        <time>2015-12-01T14:53:10.000Z</time>
      </trkpt>
      <trkpt lat="47.62355" lon="-3.19524">
        <ele>7.8000001907349</ele>
        <time>2015-12-01T14:53:17.000Z</time>
      </trkpt>
      <trkpt lat="47.62337" lon="-3.19491">
        <ele>7.8000001907349</ele>
        <time>2015-12-01T14:53:25.000Z</time>
      </trkpt>
      <trkpt lat="47.62324" lon="-3.1946">
        <ele>7.8000001907349</ele>
        <time>2015-12-01T14:53:31.000Z</time>
      </trkpt>
      <trkpt lat="47.62309" lon="-3.19429">
        <ele>7.8000001907349</ele>
        <time>2015-12-01T14:53:37.000Z</time>
      </trkpt>
      <trkpt lat="47.62292" lon="-3.19385">
        <ele>7.8000001907349</ele>
        <time>2015-12-01T14:53:45.000Z</time>
      </trkpt>
      <trkpt lat="47.62275" lon="-3.19342">
        <ele>7.8000001907349</ele>
        <time>2015-12-01T14:53:53.000Z</time>
      </trkpt>
      <trkpt lat="47.62258" lon="-3.19299">
        <ele>7.8000001907349</ele>
        <time>2015-12-01T14:54:01.000Z</time>
      </trkpt>
      <trkpt lat="47.62247" lon="-3.19264">
        <ele>7.8000001907349</ele>
        <time>2015-12-01T14:54:08.000Z</time>
      </trkpt>
      <trkpt lat="47.62249" lon="-3.1923">
        <ele>7.8000001907349</ele>
        <time>2015-12-01T14:54:14.000Z</time>
      </trkpt>
      <trkpt lat="47.62252" lon="-3.19186">
        <ele>7.8000001907349</ele>
        <time>2015-12-01T14:54:21.000Z</time>
      </trkpt>
      <trkpt lat="47.62258" lon="-3.19147">
        <ele>7.8000001907349</ele>
        <time>2015-12-01T14:54:27.000Z</time>
      </trkpt>
      <trkpt lat="47.62263" lon="-3.19103">
        <ele>7.8000001907349</ele>
        <time>2015-12-01T14:54:34.000Z</time>
      </trkpt>
      <trkpt lat="47.6227" lon="-3.19055">
        <ele>7.8000001907349</ele>
        <time>2015-12-01T14:54:42.000Z</time>
      </trkpt>
      <trkpt lat="47.62277" lon="-3.18998">
        <ele>7.8000001907349</ele>
        <time>2015-12-01T14:54:51.000Z</time>
      </trkpt>
      <trkpt lat="47.62279" lon="-3.18951">
        <ele>7.8000001907349</ele>
        <time>2015-12-01T14:54:58.000Z</time>
      </trkpt>
      <trkpt lat="47.62277" lon="-3.18929">
        <ele>7.8000001907349</ele>
        <time>2015-12-01T14:55:01.000Z</time>
      </trkpt>
      <trkpt lat="47.62272" lon="-3.18909">
        <ele>7.8000001907349</ele>
        <time>2015-12-01T14:55:04.000Z</time>
      </trkpt>
      <trkpt lat="47.62254" lon="-3.18862">
        <ele>7.8000001907349</ele>
        <time>2015-12-01T14:55:12.000Z</time>
      </trkpt>
      <trkpt lat="47.62242" lon="-3.18821">
        <ele>7.8000001907349</ele>
        <time>2015-12-01T14:55:19.000Z</time>
      </trkpt>
      <trkpt lat="47.62235" lon="-3.18782">
        <ele>7.8000001907349</ele>
        <time>2015-12-01T14:55:25.000Z</time>
      </trkpt>
      <trkpt lat="47.62234" lon="-3.18775">
        <ele>7.8000001907349</ele>
        <time>2015-12-01T14:55:26.000Z</time>
      </trkpt>
      <trkpt lat="47.62233" lon="-3.18755">
        <ele>8.1999998092651</ele>
        <time>2015-12-01T14:55:29.000Z</time>
      </trkpt>
      <trkpt lat="47.62233" lon="-3.18748">
        <ele>8.6000003814697</ele>
        <time>2015-12-01T14:55:30.000Z</time>
      </trkpt>
      <trkpt lat="47.62233" lon="-3.18741">
        <ele>9</ele>
        <time>2015-12-01T14:55:31.000Z</time>
      </trkpt>
      <trkpt lat="47.62233" lon="-3.18734">
        <ele>9.3999996185303</ele>
        <time>2015-12-01T14:55:32.000Z</time>
      </trkpt>
      <trkpt lat="47.62234" lon="-3.18727">
        <ele>9.8000001907349</ele>
        <time>2015-12-01T14:55:33.000Z</time>
      </trkpt>
      <trkpt lat="47.62237" lon="-3.1868">
        <ele>9.8000001907349</ele>
        <time>2015-12-01T14:55:40.000Z</time>
      </trkpt>
      <trkpt lat="47.62245" lon="-3.18628">
        <ele>9.8000001907349</ele>
        <time>2015-12-01T14:55:48.000Z</time>
      </trkpt>
      <trkpt lat="47.62254" lon="-3.1858">
        <ele>9.8000001907349</ele>
        <time>2015-12-01T14:55:55.000Z</time>
      </trkpt>
      <trkpt lat="47.62261" lon="-3.18549">
        <ele>9.8000001907349</ele>
        <time>2015-12-01T14:55:59.000Z</time>
      </trkpt>
      <trkpt lat="47.62264" lon="-3.18533">
        <ele>9.8000001907349</ele>
        <time>2015-12-01T14:56:01.000Z</time>
      </trkpt>
      <trkpt lat="47.62278" lon="-3.18467">
        <ele>9.8000001907349</ele>
        <time>2015-12-01T14:56:10.000Z</time>
      </trkpt>
      <trkpt lat="47.6229" lon="-3.18407">
        <ele>9.8000001907349</ele>
        <time>2015-12-01T14:56:18.000Z</time>
      </trkpt>
      <trkpt lat="47.62294" lon="-3.18371">
        <ele>9.8000001907349</ele>
        <time>2015-12-01T14:56:23.000Z</time>
      </trkpt>
      <trkpt lat="47.62294" lon="-3.18363">
        <ele>9.8000001907349</ele>
        <time>2015-12-01T14:56:24.000Z</time>
      </trkpt>
      <trkpt lat="47.62292" lon="-3.18342">
        <ele>9.8000001907349</ele>
        <time>2015-12-01T14:56:27.000Z</time>
      </trkpt>
      <trkpt lat="47.62291" lon="-3.18335">
        <ele>9.8000001907349</ele>
        <time>2015-12-01T14:56:28.000Z</time>
      </trkpt>
      <trkpt lat="47.62288" lon="-3.18321">
        <ele>9.8000001907349</ele>
        <time>2015-12-01T14:56:30.000Z</time>
      </trkpt>
      <trkpt lat="47.62277" lon="-3.18272">
        <ele>9.8000001907349</ele>
        <time>2015-12-01T14:56:37.000Z</time>
      </trkpt>
      <trkpt lat="47.62275" lon="-3.18242">
        <ele>9.8000001907349</ele>
        <time>2015-12-01T14:56:41.000Z</time>
      </trkpt>
      <trkpt lat="47.62275" lon="-3.18234">
        <ele>9.8000001907349</ele>
        <time>2015-12-01T14:56:42.000Z</time>
      </trkpt>
      <trkpt lat="47.62276" lon="-3.18226">
        <ele>9.8000001907349</ele>
        <time>2015-12-01T14:56:43.000Z</time>
      </trkpt>
      <trkpt lat="47.62279" lon="-3.18187">
        <ele>9.8000001907349</ele>
        <time>2015-12-01T14:56:48.000Z</time>
      </trkpt>
      <trkpt lat="47.62281" lon="-3.1813">
        <ele>9.8000001907349</ele>
        <time>2015-12-01T14:56:56.000Z</time>
      </trkpt>
      <trkpt lat="47.62286" lon="-3.18081">
        <ele>9.8000001907349</ele>
        <time>2015-12-01T14:57:03.000Z</time>
      </trkpt>
      <trkpt lat="47.6229" lon="-3.18068">
        <ele>9.8000001907349</ele>
        <time>2015-12-01T14:57:05.000Z</time>
      </trkpt>
      <trkpt lat="47.62299" lon="-3.18051">
        <ele>9.8000001907349</ele>
        <time>2015-12-01T14:57:08.000Z</time>
      </trkpt>
      <trkpt lat="47.62311" lon="-3.18038">
        <ele>9.8000001907349</ele>
        <time>2015-12-01T14:57:11.000Z</time>
      </trkpt>
      <trkpt lat="47.62319" lon="-3.18031">
        <ele>9.8000001907349</ele>
        <time>2015-12-01T14:57:13.000Z</time>
      </trkpt>
      <trkpt lat="47.6233" lon="-3.18019">
        <ele>9.8000001907349</ele>
        <time>2015-12-01T14:57:16.000Z</time>
      </trkpt>
      <trkpt lat="47.62334" lon="-3.18006">
        <ele>9.8000001907349</ele>
        <time>2015-12-01T14:57:18.000Z</time>
      </trkpt>
      <trkpt lat="47.62331" lon="-3.17985">
        <ele>9.8000001907349</ele>
        <time>2015-12-01T14:57:21.000Z</time>
      </trkpt>
      <trkpt lat="47.62315" lon="-3.17978">
        <ele>9.8000001907349</ele>
        <time>2015-12-01T14:57:24.000Z</time>
      </trkpt>
      <trkpt lat="47.62305" lon="-3.1798">
        <ele>9.8000001907349</ele>
        <time>2015-12-01T14:57:26.000Z</time>
      </trkpt>
      <trkpt lat="47.6229" lon="-3.17983">
        <ele>9.8000001907349</ele>
        <time>2015-12-01T14:57:29.000Z</time>
      </trkpt>
      <trkpt lat="47.62247" lon="-3.17993">
        <ele>9.8000001907349</ele>
        <time>2015-12-01T14:57:38.000Z</time>
      </trkpt>
      <trkpt lat="47.62209" lon="-3.18003">
        <ele>9.8000001907349</ele>
        <time>2015-12-01T14:57:46.000Z</time>
      </trkpt>
      <trkpt lat="47.62189" lon="-3.18002">
        <ele>9.8000001907349</ele>
        <time>2015-12-01T14:57:50.000Z</time>
      </trkpt>
      <trkpt lat="47.62181" lon="-3.17998">
        <ele>9.8000001907349</ele>
        <time>2015-12-01T14:57:52.000Z</time>
      </trkpt>
      <trkpt lat="47.62172" lon="-3.17991">
        <ele>9.8000001907349</ele>
        <time>2015-12-01T14:57:54.000Z</time>
      </trkpt>
      <trkpt lat="47.6216" lon="-3.17978">
        <ele>9.8000001907349</ele>
        <time>2015-12-01T14:57:57.000Z</time>
      </trkpt>
      <trkpt lat="47.62139" lon="-3.17955">
        <ele>9.3999996185303</ele>
        <time>2015-12-01T14:58:02.000Z</time>
      </trkpt>
      <trkpt lat="47.62135" lon="-3.1795">
        <ele>9</ele>
        <time>2015-12-01T14:58:03.000Z</time>
      </trkpt>
      <trkpt lat="47.62131" lon="-3.17946">
        <ele>8.6000003814697</ele>
        <time>2015-12-01T14:58:04.000Z</time>
      </trkpt>
      <trkpt lat="47.62127" lon="-3.17941">
        <ele>8.1999998092651</ele>
        <time>2015-12-01T14:58:05.000Z</time>
      </trkpt>
      <trkpt lat="47.62124" lon="-3.17937">
        <ele>7.8000001907349</ele>
        <time>2015-12-01T14:58:06.000Z</time>
      </trkpt>
      <trkpt lat="47.62099" lon="-3.17903">
        <ele>7.8000001907349</ele>
        <time>2015-12-01T14:58:13.000Z</time>
      </trkpt>
      <trkpt lat="47.6208" lon="-3.1787">
        <ele>7.8000001907349</ele>
        <time>2015-12-01T14:58:19.000Z</time>
      </trkpt>
      <trkpt lat="47.62067" lon="-3.17853">
        <ele>7.8000001907349</ele>
        <time>2015-12-01T14:58:22.000Z</time>
      </trkpt>
      <trkpt lat="47.62055" lon="-3.17846">
        <ele>7.8000001907349</ele>
        <time>2015-12-01T14:58:24.000Z</time>
      </trkpt>
      <trkpt lat="47.62043" lon="-3.17841">
        <ele>7.8000001907349</ele>
        <time>2015-12-01T14:58:26.000Z</time>
      </trkpt>
      <trkpt lat="47.62028" lon="-3.17835">
        <ele>7.8000001907349</ele>
        <time>2015-12-01T14:58:29.000Z</time>
      </trkpt>
      <trkpt lat="47.61983" lon="-3.17812">
        <ele>7.8000001907349</ele>
        <time>2015-12-01T14:58:38.000Z</time>
      </trkpt>
      <trkpt lat="47.61954" lon="-3.17781">
        <ele>7.8000001907349</ele>
        <time>2015-12-01T14:58:45.000Z</time>
      </trkpt>
      <trkpt lat="47.6193" lon="-3.17756">
        <ele>7.8000001907349</ele>
        <time>2015-12-01T14:58:52.000Z</time>
      </trkpt>
      <trkpt lat="47.61911" lon="-3.17737">
        <ele>8.1999998092651</ele>
        <time>2015-12-01T14:58:58.000Z</time>
      </trkpt>
      <trkpt lat="47.61908" lon="-3.17734">
        <ele>8.8000001907349</ele>
        <time>2015-12-01T14:58:59.000Z</time>
      </trkpt>
      <trkpt lat="47.61904" lon="-3.17731">
        <ele>9.1999998092651</ele>
        <time>2015-12-01T14:59:00.000Z</time>
      </trkpt>
      <trkpt lat="47.61901" lon="-3.17728">
        <ele>9.6000003814697</ele>
        <time>2015-12-01T14:59:01.000Z</time>
      </trkpt>
      <trkpt lat="47.61897" lon="-3.17724">
        <ele>10</ele>
        <time>2015-12-01T14:59:02.000Z</time>
      </trkpt>
      <trkpt lat="47.61887" lon="-3.17713">
        <ele>10</ele>
        <time>2015-12-01T14:59:05.000Z</time>
      </trkpt>
      <trkpt lat="47.61883" lon="-3.17709">
        <ele>10</ele>
        <time>2015-12-01T14:59:06.000Z</time>
      </trkpt>
      <trkpt lat="47.6188" lon="-3.17704">
        <ele>10.39999961853</ele>
        <time>2015-12-01T14:59:07.000Z</time>
      </trkpt>
      <trkpt lat="47.61877" lon="-3.177">
        <ele>11</ele>
        <time>2015-12-01T14:59:08.000Z</time>
      </trkpt>
      <trkpt lat="47.61874" lon="-3.17695">
        <ele>11.39999961853</ele>
        <time>2015-12-01T14:59:09.000Z</time>
      </trkpt>
      <trkpt lat="47.61871" lon="-3.1769">
        <ele>11.800000190735</ele>
        <time>2015-12-01T14:59:10.000Z</time>
      </trkpt>
      <trkpt lat="47.61868" lon="-3.17685">
        <ele>12.199999809265</ele>
        <time>2015-12-01T14:59:11.000Z</time>
      </trkpt>
      <trkpt lat="47.61865" lon="-3.1768">
        <ele>12.199999809265</ele>
        <time>2015-12-01T14:59:12.000Z</time>
      </trkpt>
      <trkpt lat="47.61848" lon="-3.17651">
        <ele>12.199999809265</ele>
        <time>2015-12-01T14:59:18.000Z</time>
      </trkpt>
      <trkpt lat="47.61841" lon="-3.17643">
        <ele>12.199999809265</ele>
        <time>2015-12-01T14:59:20.000Z</time>
      </trkpt>
      <trkpt lat="47.61814" lon="-3.17626">
        <ele>12.199999809265</ele>
        <time>2015-12-01T14:59:26.000Z</time>
      </trkpt>
      <trkpt lat="47.61801" lon="-3.17621">
        <ele>12.199999809265</ele>
        <time>2015-12-01T14:59:29.000Z</time>
      </trkpt>
      <trkpt lat="47.61783" lon="-3.17615">
        <ele>12.199999809265</ele>
        <time>2015-12-01T14:59:33.000Z</time>
      </trkpt>
      <trkpt lat="47.61747" lon="-3.17601">
        <ele>12.199999809265</ele>
        <time>2015-12-01T14:59:41.000Z</time>
      </trkpt>
      <trkpt lat="47.61711" lon="-3.17594">
        <ele>12.199999809265</ele>
        <time>2015-12-01T14:59:48.000Z</time>
      </trkpt>
      <trkpt lat="47.61679" lon="-3.17592">
        <ele>11.800000190735</ele>
        <time>2015-12-01T14:59:55.000Z</time>
      </trkpt>
      <trkpt lat="47.61674" lon="-3.17591">
        <ele>11.39999961853</ele>
        <time>2015-12-01T14:59:56.000Z</time>
      </trkpt>
      <trkpt lat="47.6167" lon="-3.1759">
        <ele>11</ele>
        <time>2015-12-01T14:59:57.000Z</time>
      </trkpt>
      <trkpt lat="47.61665" lon="-3.17589">
        <ele>10.60000038147</ele>
        <time>2015-12-01T14:59:58.000Z</time>
      </trkpt>
      <trkpt lat="47.6166" lon="-3.17588">
        <ele>10.199999809265</ele>
        <time>2015-12-01T14:59:59.000Z</time>
      </trkpt>
      <trkpt lat="47.61643" lon="-3.17587">
        <ele>10.199999809265</ele>
        <time>2015-12-01T15:00:03.000Z</time>
      </trkpt>
      <trkpt lat="47.61608" lon="-3.17594">
        <ele>10.199999809265</ele>
        <time>2015-12-01T15:00:10.000Z</time>
      </trkpt>
      <trkpt lat="47.61577" lon="-3.176">
        <ele>10.199999809265</ele>
        <time>2015-12-01T15:00:16.000Z</time>
      </trkpt>
      <trkpt lat="47.61541" lon="-3.17604">
        <ele>10.199999809265</ele>
        <time>2015-12-01T15:00:23.000Z</time>
      </trkpt>
      <trkpt lat="47.61532" lon="-3.17603">
        <ele>10.199999809265</ele>
        <time>2015-12-01T15:00:25.000Z</time>
      </trkpt>
      <trkpt lat="47.6152" lon="-3.17595">
        <ele>9.8000001907349</ele>
        <time>2015-12-01T15:00:28.000Z</time>
      </trkpt>
      <trkpt lat="47.61516" lon="-3.17591">
        <ele>9.3999996185303</ele>
        <time>2015-12-01T15:00:29.000Z</time>
      </trkpt>
      <trkpt lat="47.61513" lon="-3.17585">
        <ele>8.8000001907349</ele>
        <time>2015-12-01T15:00:30.000Z</time>
      </trkpt>
      <trkpt lat="47.6151" lon="-3.17579">
        <ele>8</ele>
        <time>2015-12-01T15:00:31.000Z</time>
      </trkpt>
      <trkpt lat="47.61508" lon="-3.17574">
        <ele>8</ele>
        <time>2015-12-01T15:00:32.000Z</time>
      </trkpt>
      <trkpt lat="47.61492" lon="-3.1754">
        <ele>8</ele>
        <time>2015-12-01T15:00:37.000Z</time>
      </trkpt>
      <trkpt lat="47.61489" lon="-3.17532">
        <ele>8</ele>
        <time>2015-12-01T15:00:38.000Z</time>
      </trkpt>
      <trkpt lat="47.61487" lon="-3.17524">
        <ele>7.5999999046326</ele>
        <time>2015-12-01T15:00:39.000Z</time>
      </trkpt>
      <trkpt lat="47.61485" lon="-3.17517">
        <ele>7.1999998092651</ele>
        <time>2015-12-01T15:00:40.000Z</time>
      </trkpt>
      <trkpt lat="47.61483" lon="-3.17509">
        <ele>6.8000001907349</ele>
        <time>2015-12-01T15:00:41.000Z</time>
      </trkpt>
      <trkpt lat="47.61482" lon="-3.17501">
        <ele>6.1999998092651</ele>
        <time>2015-12-01T15:00:42.000Z</time>
      </trkpt>
      <trkpt lat="47.6148" lon="-3.17493">
        <ele>5.8000001907349</ele>
        <time>2015-12-01T15:00:43.000Z</time>
      </trkpt>
      <trkpt lat="47.61476" lon="-3.17449">
        <ele>5.8000001907349</ele>
        <time>2015-12-01T15:00:49.000Z</time>
      </trkpt>
      <trkpt lat="47.61479" lon="-3.17408">
        <ele>5.8000001907349</ele>
        <time>2015-12-01T15:00:55.000Z</time>
      </trkpt>
      <trkpt lat="47.61479" lon="-3.17362">
        <ele>5.8000001907349</ele>
        <time>2015-12-01T15:01:01.000Z</time>
      </trkpt>
      <trkpt lat="47.61481" lon="-3.17341">
        <ele>5.8000001907349</ele>
        <time>2015-12-01T15:01:04.000Z</time>
      </trkpt>
      <trkpt lat="47.61484" lon="-3.17329">
        <ele>5.8000001907349</ele>
        <time>2015-12-01T15:01:06.000Z</time>
      </trkpt>
      <trkpt lat="47.61493" lon="-3.17313">
        <ele>5.8000001907349</ele>
        <time>2015-12-01T15:01:09.000Z</time>
      </trkpt>
      <trkpt lat="47.61502" lon="-3.17297">
        <ele>5.8000001907349</ele>
        <time>2015-12-01T15:01:12.000Z</time>
      </trkpt>
      <trkpt lat="47.61517" lon="-3.17261">
        <ele>5.8000001907349</ele>
        <time>2015-12-01T15:01:18.000Z</time>
      </trkpt>
      <trkpt lat="47.61518" lon="-3.17254">
        <ele>5.8000001907349</ele>
        <time>2015-12-01T15:01:19.000Z</time>
      </trkpt>
      <trkpt lat="47.6152" lon="-3.17231">
        <ele>5.8000001907349</ele>
        <time>2015-12-01T15:01:22.000Z</time>
      </trkpt>
      <trkpt lat="47.61517" lon="-3.17225">
        <ele>5.8000001907349</ele>
        <time>2015-12-01T15:01:23.000Z</time>
      </trkpt>
      <trkpt lat="47.61505" lon="-3.17211">
        <ele>5.8000001907349</ele>
        <time>2015-12-01T15:01:26.000Z</time>
      </trkpt>
      <trkpt lat="47.61496" lon="-3.17204">
        <ele>5.8000001907349</ele>
        <time>2015-12-01T15:01:28.000Z</time>
      </trkpt>
      <trkpt lat="47.61479" lon="-3.17193">
        <ele>5.8000001907349</ele>
        <time>2015-12-01T15:01:32.000Z</time>
      </trkpt>
      <trkpt lat="47.61457" lon="-3.17176">
        <ele>5.8000001907349</ele>
        <time>2015-12-01T15:01:37.000Z</time>
      </trkpt>
      <trkpt lat="47.6145" lon="-3.17166">
        <ele>5.8000001907349</ele>
        <time>2015-12-01T15:01:39.000Z</time>
      </trkpt>
      <trkpt lat="47.61429" lon="-3.17132">
        <ele>5.8000001907349</ele>
        <time>2015-12-01T15:01:45.000Z</time>
      </trkpt>
      <trkpt lat="47.61426" lon="-3.17126">
        <ele>5.8000001907349</ele>
        <time>2015-12-01T15:01:46.000Z</time>
      </trkpt>
      <trkpt lat="47.61415" lon="-3.17089">
        <ele>5.8000001907349</ele>
        <time>2015-12-01T15:01:52.000Z</time>
      </trkpt>
      <trkpt lat="47.61412" lon="-3.17078">
        <ele>5.8000001907349</ele>
        <time>2015-12-01T15:01:54.000Z</time>
      </trkpt>
      <trkpt lat="47.61403" lon="-3.17064">
        <ele>5.8000001907349</ele>
        <time>2015-12-01T15:01:57.000Z</time>
      </trkpt>
      <trkpt lat="47.61381" lon="-3.17045">
        <ele>5.8000001907349</ele>
        <time>2015-12-01T15:02:02.000Z</time>
      </trkpt>
      <trkpt lat="47.61361" lon="-3.17015">
        <ele>5.8000001907349</ele>
        <time>2015-12-01T15:02:08.000Z</time>
      </trkpt>
      <trkpt lat="47.61337" lon="-3.16971">
        <ele>5.8000001907349</ele>
        <time>2015-12-01T15:02:16.000Z</time>
      </trkpt>
      <trkpt lat="47.61314" lon="-3.16928">
        <ele>5.8000001907349</ele>
        <time>2015-12-01T15:02:24.000Z</time>
      </trkpt>
      <trkpt lat="47.61293" lon="-3.16884">
        <ele>5.8000001907349</ele>
        <time>2015-12-01T15:02:32.000Z</time>
      </trkpt>
      <trkpt lat="47.61276" lon="-3.16845">
        <ele>5.8000001907349</ele>
        <time>2015-12-01T15:02:39.000Z</time>
      </trkpt>
      <trkpt lat="47.6126" lon="-3.1682">
        <ele>5.8000001907349</ele>
        <time>2015-12-01T15:02:45.000Z</time>
      </trkpt>
      <trkpt lat="47.61248" lon="-3.16811">
        <ele>5.8000001907349</ele>
        <time>2015-12-01T15:02:50.000Z</time>
      </trkpt>
      <trkpt lat="47.61234" lon="-3.16818">
        <ele>5.8000001907349</ele>
        <time>2015-12-01T15:02:56.000Z</time>
      </trkpt>
      <trkpt lat="47.61221" lon="-3.16827">
        <ele>5.8000001907349</ele>
        <time>2015-12-01T15:03:02.000Z</time>
      </trkpt>
      <trkpt lat="47.61212" lon="-3.16833">
        <ele>5.8000001907349</ele>
        <time>2015-12-01T15:03:07.000Z</time>
      </trkpt>
      <trkpt lat="47.61212" lon="-3.16833">
        <ele>5.8000001907349</ele>
        <time>2015-12-01T15:03:08.000Z</time>
      </trkpt>
      <trkpt lat="47.61214" lon="-3.16822">
        <ele>5.8000001907349</ele>
        <time>2015-12-01T15:05:51.000Z</time>
      </trkpt>
      <trkpt lat="47.61215" lon="-3.16821">
        <ele>5.8000001907349</ele>
        <time>2015-12-01T15:05:52.000Z</time>
      </trkpt>
      <trkpt lat="47.61217" lon="-3.16813">
        <ele>5.8000001907349</ele>
        <time>2015-12-01T15:05:57.000Z</time>
      </trkpt>
      <trkpt lat="47.61218" lon="-3.1681">
        <ele>5.8000001907349</ele>
        <time>2015-12-01T15:05:59.000Z</time>
      </trkpt>
      <trkpt lat="47.61223" lon="-3.168">
        <ele>5.8000001907349</ele>
        <time>2015-12-01T15:06:07.000Z</time>
      </trkpt>
      <trkpt lat="47.61224" lon="-3.168">
        <ele>5.8000001907349</ele>
        <time>2015-12-01T15:06:08.000Z</time>
      </trkpt>
      <trkpt lat="47.61225" lon="-3.168">
        <ele>5.8000001907349</ele>
        <time>2015-12-01T15:06:10.000Z</time>
      </trkpt>
      <trkpt lat="47.61228" lon="-3.16812">
        <ele>5.8000001907349</ele>
        <time>2015-12-01T15:08:25.000Z</time>
      </trkpt>
      <trkpt lat="47.61236" lon="-3.16814">
        <ele>5.8000001907349</ele>
        <time>2015-12-01T15:08:30.000Z</time>
      </trkpt>
      <trkpt lat="47.61238" lon="-3.16814">
        <ele>5.8000001907349</ele>
        <time>2015-12-01T15:08:31.000Z</time>
      </trkpt>
      <trkpt lat="47.6125" lon="-3.16805">
        <ele>5.8000001907349</ele>
        <time>2015-12-01T15:08:37.000Z</time>
      </trkpt>
      <trkpt lat="47.61264" lon="-3.16795">
        <ele>5.8000001907349</ele>
        <time>2015-12-01T15:08:43.000Z</time>
      </trkpt>
      <trkpt lat="47.61289" lon="-3.16776">
        <ele>5.8000001907349</ele>
        <time>2015-12-01T15:08:52.000Z</time>
      </trkpt>
      <trkpt lat="47.61308" lon="-3.1676">
        <ele>5.8000001907349</ele>
        <time>2015-12-01T15:09:00.000Z</time>
      </trkpt>
      <trkpt lat="47.61329" lon="-3.16744">
        <ele>5.8000001907349</ele>
        <time>2015-12-01T15:09:08.000Z</time>
      </trkpt>
      <trkpt lat="47.61347" lon="-3.16731">
        <ele>5.8000001907349</ele>
        <time>2015-12-01T15:09:15.000Z</time>
      </trkpt>
      <trkpt lat="47.61368" lon="-3.16712">
        <ele>5.8000001907349</ele>
        <time>2015-12-01T15:09:23.000Z</time>
      </trkpt>
      <trkpt lat="47.61385" lon="-3.16699">
        <ele>5.8000001907349</ele>
        <time>2015-12-01T15:09:29.000Z</time>
      </trkpt>
      <trkpt lat="47.61389" lon="-3.16697">
        <ele>6.1999998092651</ele>
        <time>2015-12-01T15:09:30.000Z</time>
      </trkpt>
      <trkpt lat="47.61392" lon="-3.16696">
        <ele>6.5999999046326</ele>
        <time>2015-12-01T15:09:31.000Z</time>
      </trkpt>
      <trkpt lat="47.61396" lon="-3.16695">
        <ele>7.1999998092651</ele>
        <time>2015-12-01T15:09:32.000Z</time>
      </trkpt>
      <trkpt lat="47.614" lon="-3.16693">
        <ele>7.5999999046326</ele>
        <time>2015-12-01T15:09:33.000Z</time>
      </trkpt>
      <trkpt lat="47.61404" lon="-3.16691">
        <ele>8</ele>
        <time>2015-12-01T15:09:34.000Z</time>
      </trkpt>
      <trkpt lat="47.61411" lon="-3.16688">
        <ele>8</ele>
        <time>2015-12-01T15:09:36.000Z</time>
      </trkpt>
      <trkpt lat="47.61428" lon="-3.16668">
        <ele>8</ele>
        <time>2015-12-01T15:09:42.000Z</time>
      </trkpt>
      <trkpt lat="47.61433" lon="-3.16637">
        <ele>8</ele>
        <time>2015-12-01T15:09:47.000Z</time>
      </trkpt>
      <trkpt lat="47.61435" lon="-3.16631">
        <ele>8</ele>
        <time>2015-12-01T15:09:48.000Z</time>
      </trkpt>
      <trkpt lat="47.6144" lon="-3.16621">
        <ele>8.3999996185303</ele>
        <time>2015-12-01T15:09:50.000Z</time>
      </trkpt>
      <trkpt lat="47.61443" lon="-3.16616">
        <ele>8.8000001907349</ele>
        <time>2015-12-01T15:09:51.000Z</time>
      </trkpt>
      <trkpt lat="47.61446" lon="-3.16612">
        <ele>9.1999998092651</ele>
        <time>2015-12-01T15:09:52.000Z</time>
      </trkpt>
      <trkpt lat="47.61449" lon="-3.16606">
        <ele>9.6000003814697</ele>
        <time>2015-12-01T15:09:53.000Z</time>
      </trkpt>
      <trkpt lat="47.61452" lon="-3.16601">
        <ele>10</ele>
        <time>2015-12-01T15:09:54.000Z</time>
      </trkpt>
      <trkpt lat="47.61466" lon="-3.16571">
        <ele>10</ele>
        <time>2015-12-01T15:10:00.000Z</time>
      </trkpt>
      <trkpt lat="47.61475" lon="-3.16531">
        <ele>10</ele>
        <time>2015-12-01T15:10:07.000Z</time>
      </trkpt>
      <trkpt lat="47.6148" lon="-3.16492">
        <ele>10</ele>
        <time>2015-12-01T15:10:14.000Z</time>
      </trkpt>
      <trkpt lat="47.61485" lon="-3.16469">
        <ele>10</ele>
        <time>2015-12-01T15:10:18.000Z</time>
      </trkpt>
      <trkpt lat="47.61488" lon="-3.16459">
        <ele>10</ele>
        <time>2015-12-01T15:10:20.000Z</time>
      </trkpt>
      <trkpt lat="47.61505" lon="-3.16432">
        <ele>10</ele>
        <time>2015-12-01T15:10:26.000Z</time>
      </trkpt>
      <trkpt lat="47.61518" lon="-3.16405">
        <ele>10</ele>
        <time>2015-12-01T15:10:31.000Z</time>
      </trkpt>
      <trkpt lat="47.6152" lon="-3.16399">
        <ele>10</ele>
        <time>2015-12-01T15:10:32.000Z</time>
      </trkpt>
      <trkpt lat="47.61521" lon="-3.16392">
        <ele>10</ele>
        <time>2015-12-01T15:10:33.000Z</time>
      </trkpt>
      <trkpt lat="47.61522" lon="-3.16367">
        <ele>10</ele>
        <time>2015-12-01T15:10:37.000Z</time>
      </trkpt>
      <trkpt lat="47.61522" lon="-3.16348">
        <ele>10</ele>
        <time>2015-12-01T15:10:40.000Z</time>
      </trkpt>
      <trkpt lat="47.61522" lon="-3.16335">
        <ele>10</ele>
        <time>2015-12-01T15:10:42.000Z</time>
      </trkpt>
      <trkpt lat="47.61524" lon="-3.16316">
        <ele>10</ele>
        <time>2015-12-01T15:10:45.000Z</time>
      </trkpt>
      <trkpt lat="47.61526" lon="-3.16304">
        <ele>10</ele>
        <time>2015-12-01T15:10:47.000Z</time>
      </trkpt>
      <trkpt lat="47.61531" lon="-3.16256">
        <ele>10</ele>
        <time>2015-12-01T15:10:56.000Z</time>
      </trkpt>
      <trkpt lat="47.61539" lon="-3.16226">
        <ele>10</ele>
        <time>2015-12-01T15:11:01.000Z</time>
      </trkpt>
      <trkpt lat="47.61545" lon="-3.16208">
        <ele>10</ele>
        <time>2015-12-01T15:11:04.000Z</time>
      </trkpt>
      <trkpt lat="47.61554" lon="-3.16182">
        <ele>10</ele>
        <time>2015-12-01T15:11:08.000Z</time>
      </trkpt>
      <trkpt lat="47.61564" lon="-3.16161">
        <ele>10</ele>
        <time>2015-12-01T15:11:13.000Z</time>
      </trkpt>
      <trkpt lat="47.61567" lon="-3.16152">
        <ele>10</ele>
        <time>2015-12-01T15:11:16.000Z</time>
      </trkpt>
      <trkpt lat="47.61568" lon="-3.16148">
        <ele>10</ele>
        <time>2015-12-01T15:11:17.000Z</time>
      </trkpt>
      <trkpt lat="47.61578" lon="-3.16136">
        <ele>10</ele>
        <time>2015-12-01T15:11:20.000Z</time>
      </trkpt>
      <trkpt lat="47.61599" lon="-3.1611">
        <ele>10</ele>
        <time>2015-12-01T15:11:26.000Z</time>
      </trkpt>
      <trkpt lat="47.6162" lon="-3.1608">
        <ele>10</ele>
        <time>2015-12-01T15:11:33.000Z</time>
      </trkpt>
      <trkpt lat="47.6163" lon="-3.16061">
        <ele>10</ele>
        <time>2015-12-01T15:11:38.000Z</time>
      </trkpt>
      <trkpt lat="47.61629" lon="-3.16056">
        <ele>10</ele>
        <time>2015-12-01T15:11:39.000Z</time>
      </trkpt>
      <trkpt lat="47.61629" lon="-3.16038">
        <ele>10</ele>
        <time>2015-12-01T15:11:42.000Z</time>
      </trkpt>
      <trkpt lat="47.61627" lon="-3.15981">
        <ele>10</ele>
        <time>2015-12-01T15:11:51.000Z</time>
      </trkpt>
      <trkpt lat="47.61623" lon="-3.15934">
        <ele>10</ele>
        <time>2015-12-01T15:11:59.000Z</time>
      </trkpt>
      <trkpt lat="47.61623" lon="-3.15927">
        <ele>10</ele>
        <time>2015-12-01T15:12:00.000Z</time>
      </trkpt>
      <trkpt lat="47.61622" lon="-3.15901">
        <ele>10</ele>
        <time>2015-12-01T15:12:04.000Z</time>
      </trkpt>
      <trkpt lat="47.61617" lon="-3.15852">
        <ele>10</ele>
        <time>2015-12-01T15:12:11.000Z</time>
      </trkpt>
      <trkpt lat="47.61609" lon="-3.15806">
        <ele>10</ele>
        <time>2015-12-01T15:12:18.000Z</time>
      </trkpt>
      <trkpt lat="47.61595" lon="-3.15735">
        <ele>10</ele>
        <time>2015-12-01T15:12:28.000Z</time>
      </trkpt>
      <trkpt lat="47.61582" lon="-3.15668">
        <ele>10</ele>
        <time>2015-12-01T15:12:37.000Z</time>
      </trkpt>
      <trkpt lat="47.6157" lon="-3.15611">
        <ele>10</ele>
        <time>2015-12-01T15:12:45.000Z</time>
      </trkpt>
      <trkpt lat="47.61557" lon="-3.15547">
        <ele>10</ele>
        <time>2015-12-01T15:12:54.000Z</time>
      </trkpt>
      <trkpt lat="47.61547" lon="-3.15496">
        <ele>10</ele>
        <time>2015-12-01T15:13:02.000Z</time>
      </trkpt>
      <trkpt lat="47.61539" lon="-3.15454">
        <ele>10</ele>
        <time>2015-12-01T15:13:09.000Z</time>
      </trkpt>
      <trkpt lat="47.61527" lon="-3.15393">
        <ele>10</ele>
        <time>2015-12-01T15:13:19.000Z</time>
      </trkpt>
      <trkpt lat="47.6152" lon="-3.15357">
        <ele>10</ele>
        <time>2015-12-01T15:13:26.000Z</time>
      </trkpt>
      <trkpt lat="47.61514" lon="-3.15325">
        <ele>10</ele>
        <time>2015-12-01T15:13:33.000Z</time>
      </trkpt>
      <trkpt lat="47.61507" lon="-3.15288">
        <ele>10</ele>
        <time>2015-12-01T15:13:40.000Z</time>
      </trkpt>
      <trkpt lat="47.61495" lon="-3.15232">
        <ele>10</ele>
        <time>2015-12-01T15:13:50.000Z</time>
      </trkpt>
      <trkpt lat="47.61485" lon="-3.15182">
        <ele>10</ele>
        <time>2015-12-01T15:13:59.000Z</time>
      </trkpt>
      <trkpt lat="47.61475" lon="-3.15131">
        <ele>10</ele>
        <time>2015-12-01T15:14:08.000Z</time>
      </trkpt>
      <trkpt lat="47.61464" lon="-3.15071">
        <ele>10</ele>
        <time>2015-12-01T15:14:18.000Z</time>
      </trkpt>
      <trkpt lat="47.61455" lon="-3.15032">
        <ele>10</ele>
        <time>2015-12-01T15:14:25.000Z</time>
      </trkpt>
      <trkpt lat="47.61452" lon="-3.15021">
        <ele>10</ele>
        <time>2015-12-01T15:14:27.000Z</time>
      </trkpt>
      <trkpt lat="47.61446" lon="-3.14999">
        <ele>10</ele>
        <time>2015-12-01T15:14:31.000Z</time>
      </trkpt>
      <trkpt lat="47.61445" lon="-3.14993">
        <ele>10</ele>
        <time>2015-12-01T15:14:32.000Z</time>
      </trkpt>
      <trkpt lat="47.61438" lon="-3.14966">
        <ele>10</ele>
        <time>2015-12-01T15:14:37.000Z</time>
      </trkpt>
      <trkpt lat="47.61425" lon="-3.14913">
        <ele>10</ele>
        <time>2015-12-01T15:14:46.000Z</time>
      </trkpt>
      <trkpt lat="47.61409" lon="-3.1485">
        <ele>10</ele>
        <time>2015-12-01T15:14:56.000Z</time>
      </trkpt>
      <trkpt lat="47.61396" lon="-3.14798">
        <ele>10</ele>
        <time>2015-12-01T15:15:04.000Z</time>
      </trkpt>
      <trkpt lat="47.61387" lon="-3.14758">
        <ele>10</ele>
        <time>2015-12-01T15:15:11.000Z</time>
      </trkpt>
      <trkpt lat="47.61384" lon="-3.1474">
        <ele>10</ele>
        <time>2015-12-01T15:15:14.000Z</time>
      </trkpt>
      <trkpt lat="47.61382" lon="-3.1471">
        <ele>10</ele>
        <time>2015-12-01T15:15:19.000Z</time>
      </trkpt>
      <trkpt lat="47.61386" lon="-3.14661">
        <ele>10</ele>
        <time>2015-12-01T15:15:27.000Z</time>
      </trkpt>
      <trkpt lat="47.61383" lon="-3.14649">
        <ele>10</ele>
        <time>2015-12-01T15:15:30.000Z</time>
      </trkpt>
      <trkpt lat="47.61379" lon="-3.14652">
        <ele>10</ele>
        <time>2015-12-01T15:15:31.000Z</time>
      </trkpt>
      <trkpt lat="47.61366" lon="-3.14663">
        <ele>10</ele>
        <time>2015-12-01T15:15:35.000Z</time>
      </trkpt>
      <trkpt lat="47.61344" lon="-3.14678">
        <ele>10</ele>
        <time>2015-12-01T15:15:42.000Z</time>
      </trkpt>
      <trkpt lat="47.61319" lon="-3.14698">
        <ele>10</ele>
        <time>2015-12-01T15:15:50.000Z</time>
      </trkpt>
      <trkpt lat="47.61291" lon="-3.14723">
        <ele>10</ele>
        <time>2015-12-01T15:15:58.000Z</time>
      </trkpt>
      <trkpt lat="47.61275" lon="-3.1473">
        <ele>10.39999961853</ele>
        <time>2015-12-01T15:16:03.000Z</time>
      </trkpt>
      <trkpt lat="47.61273" lon="-3.14726">
        <ele>11</ele>
        <time>2015-12-01T15:16:04.000Z</time>
      </trkpt>
      <trkpt lat="47.61271" lon="-3.14723">
        <ele>11.39999961853</ele>
        <time>2015-12-01T15:16:05.000Z</time>
      </trkpt>
      <trkpt lat="47.61269" lon="-3.14719">
        <ele>11.800000190735</ele>
        <time>2015-12-01T15:16:06.000Z</time>
      </trkpt>
      <trkpt lat="47.61266" lon="-3.14714">
        <ele>12.199999809265</ele>
        <time>2015-12-01T15:16:07.000Z</time>
      </trkpt>
      <trkpt lat="47.61242" lon="-3.14675">
        <ele>12.199999809265</ele>
        <time>2015-12-01T15:16:15.000Z</time>
      </trkpt>
      <trkpt lat="47.6123" lon="-3.14655">
        <ele>11.800000190735</ele>
        <time>2015-12-01T15:16:18.000Z</time>
      </trkpt>
      <trkpt lat="47.61227" lon="-3.14646">
        <ele>11.199999809265</ele>
        <time>2015-12-01T15:16:19.000Z</time>
      </trkpt>
      <trkpt lat="47.61225" lon="-3.14637">
        <ele>10.800000190735</ele>
        <time>2015-12-01T15:16:20.000Z</time>
      </trkpt>
      <trkpt lat="47.61222" lon="-3.14629">
        <ele>10.199999809265</ele>
        <time>2015-12-01T15:16:21.000Z</time>
      </trkpt>
      <trkpt lat="47.6122" lon="-3.1462">
        <ele>9.8000001907349</ele>
        <time>2015-12-01T15:16:22.000Z</time>
      </trkpt>
      <trkpt lat="47.61212" lon="-3.14589">
        <ele>9.8000001907349</ele>
        <time>2015-12-01T15:16:26.000Z</time>
      </trkpt>
      <trkpt lat="47.61207" lon="-3.14574">
        <ele>9.8000001907349</ele>
        <time>2015-12-01T15:16:28.000Z</time>
      </trkpt>
      <trkpt lat="47.61198" lon="-3.14553">
        <ele>9.8000001907349</ele>
        <time>2015-12-01T15:16:31.000Z</time>
      </trkpt>
      <trkpt lat="47.61172" lon="-3.14512">
        <ele>9.8000001907349</ele>
        <time>2015-12-01T15:16:38.000Z</time>
      </trkpt>
      <trkpt lat="47.61153" lon="-3.14478">
        <ele>9.8000001907349</ele>
        <time>2015-12-01T15:16:45.000Z</time>
      </trkpt>
      <trkpt lat="47.61137" lon="-3.14442">
        <ele>9.8000001907349</ele>
        <time>2015-12-01T15:16:52.000Z</time>
      </trkpt>
      <trkpt lat="47.61116" lon="-3.14391">
        <ele>9.8000001907349</ele>
        <time>2015-12-01T15:17:01.000Z</time>
      </trkpt>
      <trkpt lat="47.61093" lon="-3.14329">
        <ele>9.8000001907349</ele>
        <time>2015-12-01T15:17:12.000Z</time>
      </trkpt>
      <trkpt lat="47.61079" lon="-3.14293">
        <ele>9.8000001907349</ele>
        <time>2015-12-01T15:17:19.000Z</time>
      </trkpt>
      <trkpt lat="47.61062" lon="-3.1425">
        <ele>9.8000001907349</ele>
        <time>2015-12-01T15:17:27.000Z</time>
      </trkpt>
      <trkpt lat="47.61045" lon="-3.1421">
        <ele>9.8000001907349</ele>
        <time>2015-12-01T15:17:35.000Z</time>
      </trkpt>
      <trkpt lat="47.61023" lon="-3.14164">
        <ele>9.8000001907349</ele>
        <time>2015-12-01T15:17:44.000Z</time>
      </trkpt>
      <trkpt lat="47.6101" lon="-3.14127">
        <ele>9.8000001907349</ele>
        <time>2015-12-01T15:17:51.000Z</time>
      </trkpt>
      <trkpt lat="47.60994" lon="-3.14084">
        <ele>9.8000001907349</ele>
        <time>2015-12-01T15:17:59.000Z</time>
      </trkpt>
      <trkpt lat="47.60967" lon="-3.14028">
        <ele>9.8000001907349</ele>
        <time>2015-12-01T15:18:10.000Z</time>
      </trkpt>
      <trkpt lat="47.60942" lon="-3.13977">
        <ele>9.8000001907349</ele>
        <time>2015-12-01T15:18:20.000Z</time>
      </trkpt>
      <trkpt lat="47.60933" lon="-3.13957">
        <ele>9.8000001907349</ele>
        <time>2015-12-01T15:18:24.000Z</time>
      </trkpt>
      <trkpt lat="47.60926" lon="-3.13942">
        <ele>9.8000001907349</ele>
        <time>2015-12-01T15:18:27.000Z</time>
      </trkpt>
      <trkpt lat="47.60921" lon="-3.13931">
        <ele>9.8000001907349</ele>
        <time>2015-12-01T15:18:29.000Z</time>
      </trkpt>
      <trkpt lat="47.60913" lon="-3.13911">
        <ele>9.8000001907349</ele>
        <time>2015-12-01T15:18:33.000Z</time>
      </trkpt>
      <trkpt lat="47.60893" lon="-3.13863">
        <ele>10.199999809265</ele>
        <time>2015-12-01T15:18:42.000Z</time>
      </trkpt>
      <trkpt lat="47.6089" lon="-3.13858">
        <ele>10.60000038147</ele>
        <time>2015-12-01T15:18:43.000Z</time>
      </trkpt>
      <trkpt lat="47.60888" lon="-3.13853">
        <ele>11</ele>
        <time>2015-12-01T15:18:44.000Z</time>
      </trkpt>
      <trkpt lat="47.60886" lon="-3.13847">
        <ele>11.39999961853</ele>
        <time>2015-12-01T15:18:45.000Z</time>
      </trkpt>
      <trkpt lat="47.60884" lon="-3.13842">
        <ele>11.800000190735</ele>
        <time>2015-12-01T15:18:46.000Z</time>
      </trkpt>
      <trkpt lat="47.60875" lon="-3.13819">
        <ele>11.800000190735</ele>
        <time>2015-12-01T15:18:50.000Z</time>
      </trkpt>
      <trkpt lat="47.60863" lon="-3.13788">
        <ele>11.800000190735</ele>
        <time>2015-12-01T15:18:56.000Z</time>
      </trkpt>
      <trkpt lat="47.60854" lon="-3.13759">
        <ele>11.800000190735</ele>
        <time>2015-12-01T15:19:01.000Z</time>
      </trkpt>
      <trkpt lat="47.60852" lon="-3.13747">
        <ele>11.800000190735</ele>
        <time>2015-12-01T15:19:03.000Z</time>
      </trkpt>
      <trkpt lat="47.60849" lon="-3.13711">
        <ele>11.800000190735</ele>
        <time>2015-12-01T15:19:10.000Z</time>
      </trkpt>
      <trkpt lat="47.60849" lon="-3.13698">
        <ele>12.199999809265</ele>
        <time>2015-12-01T15:19:13.000Z</time>
      </trkpt>
      <trkpt lat="47.60849" lon="-3.13693">
        <ele>12.60000038147</ele>
        <time>2015-12-01T15:19:14.000Z</time>
      </trkpt>
      <trkpt lat="47.60849" lon="-3.13688">
        <ele>13</ele>
        <time>2015-12-01T15:19:15.000Z</time>
      </trkpt>
      <trkpt lat="47.60849" lon="-3.13683">
        <ele>13.39999961853</ele>
        <time>2015-12-01T15:19:16.000Z</time>
      </trkpt>
      <trkpt lat="47.60849" lon="-3.13679">
        <ele>13.800000190735</ele>
        <time>2015-12-01T15:19:17.000Z</time>
      </trkpt>
      <trkpt lat="47.60849" lon="-3.13675">
        <ele>13.800000190735</ele>
        <time>2015-12-01T15:19:18.000Z</time>
      </trkpt>
      <trkpt lat="47.60848" lon="-3.13643">
        <ele>13.800000190735</ele>
        <time>2015-12-01T15:19:26.000Z</time>
      </trkpt>
      <trkpt lat="47.60848" lon="-3.13636">
        <ele>14.800000190735</ele>
        <time>2015-12-01T15:19:28.000Z</time>
      </trkpt>
      <trkpt lat="47.60847" lon="-3.13632">
        <ele>15.199999809265</ele>
        <time>2015-12-01T15:19:29.000Z</time>
      </trkpt>
      <trkpt lat="47.60847" lon="-3.13628">
        <ele>15.60000038147</ele>
        <time>2015-12-01T15:19:30.000Z</time>
      </trkpt>
      <trkpt lat="47.60847" lon="-3.13624">
        <ele>16</ele>
        <time>2015-12-01T15:19:31.000Z</time>
      </trkpt>
      <trkpt lat="47.60847" lon="-3.1362">
        <ele>16</ele>
        <time>2015-12-01T15:19:32.000Z</time>
      </trkpt>
      <trkpt lat="47.60844" lon="-3.13587">
        <ele>16</ele>
        <time>2015-12-01T15:19:40.000Z</time>
      </trkpt>
      <trkpt lat="47.60843" lon="-3.13583">
        <ele>16.39999961853</ele>
        <time>2015-12-01T15:19:41.000Z</time>
      </trkpt>
      <trkpt lat="47.60843" lon="-3.13579">
        <ele>16.799999237061</ele>
        <time>2015-12-01T15:19:42.000Z</time>
      </trkpt>
      <trkpt lat="47.60843" lon="-3.13575">
        <ele>17.200000762939</ele>
        <time>2015-12-01T15:19:43.000Z</time>
      </trkpt>
      <trkpt lat="47.60843" lon="-3.13572">
        <ele>17.60000038147</ele>
        <time>2015-12-01T15:19:44.000Z</time>
      </trkpt>
      <trkpt lat="47.60843" lon="-3.13568">
        <ele>18</ele>
        <time>2015-12-01T15:19:45.000Z</time>
      </trkpt>
      <trkpt lat="47.60841" lon="-3.13552">
        <ele>18</ele>
        <time>2015-12-01T15:19:49.000Z</time>
      </trkpt>
      <trkpt lat="47.60838" lon="-3.13527">
        <ele>18</ele>
        <time>2015-12-01T15:19:55.000Z</time>
      </trkpt>
      <trkpt lat="47.60838" lon="-3.13523">
        <ele>18.39999961853</ele>
        <time>2015-12-01T15:19:56.000Z</time>
      </trkpt>
      <trkpt lat="47.60838" lon="-3.13519">
        <ele>19</ele>
        <time>2015-12-01T15:19:57.000Z</time>
      </trkpt>
      <trkpt lat="47.60837" lon="-3.13515">
        <ele>19.39999961853</ele>
        <time>2015-12-01T15:19:58.000Z</time>
      </trkpt>
      <trkpt lat="47.60837" lon="-3.13511">
        <ele>19.799999237061</ele>
        <time>2015-12-01T15:19:59.000Z</time>
      </trkpt>
      <trkpt lat="47.60837" lon="-3.13507">
        <ele>20.200000762939</ele>
        <time>2015-12-01T15:20:00.000Z</time>
      </trkpt>
      <trkpt lat="47.60835" lon="-3.135">
        <ele>20.200000762939</ele>
        <time>2015-12-01T15:20:02.000Z</time>
      </trkpt>
      <trkpt lat="47.60831" lon="-3.13475">
        <ele>20.200000762939</ele>
        <time>2015-12-01T15:20:09.000Z</time>
      </trkpt>
      <trkpt lat="47.60829" lon="-3.1347">
        <ele>20.200000762939</ele>
        <time>2015-12-01T15:20:11.000Z</time>
      </trkpt>
      <trkpt lat="47.60825" lon="-3.1347">
        <ele>20.200000762939</ele>
        <time>2015-12-01T15:20:13.000Z</time>
      </trkpt>
      <trkpt lat="47.60817" lon="-3.13478">
        <ele>20.200000762939</ele>
        <time>2015-12-01T15:20:17.000Z</time>
      </trkpt>
      <trkpt lat="47.60811" lon="-3.13484">
        <ele>20.200000762939</ele>
        <time>2015-12-01T15:20:19.000Z</time>
      </trkpt>
      <trkpt lat="47.60795" lon="-3.13502">
        <ele>20.200000762939</ele>
        <time>2015-12-01T15:20:24.000Z</time>
      </trkpt>
      <trkpt lat="47.60791" lon="-3.13505">
        <ele>20.200000762939</ele>
        <time>2015-12-01T15:20:25.000Z</time>
      </trkpt>
      <trkpt lat="47.60757" lon="-3.13524">
        <ele>20.200000762939</ele>
        <time>2015-12-01T15:20:32.000Z</time>
      </trkpt>
      <trkpt lat="47.60747" lon="-3.13527">
        <ele>20.200000762939</ele>
        <time>2015-12-01T15:20:34.000Z</time>
      </trkpt>
      <trkpt lat="47.60741" lon="-3.13523">
        <ele>19.799999237061</ele>
        <time>2015-12-01T15:20:36.000Z</time>
      </trkpt>
      <trkpt lat="47.60739" lon="-3.13519">
        <ele>19.200000762939</ele>
        <time>2015-12-01T15:20:37.000Z</time>
      </trkpt>
      <trkpt lat="47.60738" lon="-3.13514">
        <ele>18.799999237061</ele>
        <time>2015-12-01T15:20:38.000Z</time>
      </trkpt>
      <trkpt lat="47.60738" lon="-3.13509">
        <ele>18.39999961853</ele>
        <time>2015-12-01T15:20:39.000Z</time>
      </trkpt>
      <trkpt lat="47.60738" lon="-3.13505">
        <ele>18</ele>
        <time>2015-12-01T15:20:40.000Z</time>
      </trkpt>
      <trkpt lat="47.60739" lon="-3.13468">
        <ele>18</ele>
        <time>2015-12-01T15:20:48.000Z</time>
      </trkpt>
      <trkpt lat="47.60737" lon="-3.13433">
        <ele>18</ele>
        <time>2015-12-01T15:20:55.000Z</time>
      </trkpt>
      <trkpt lat="47.60725" lon="-3.13395">
        <ele>18</ele>
        <time>2015-12-01T15:21:02.000Z</time>
      </trkpt>
      <trkpt lat="47.60717" lon="-3.13379">
        <ele>18</ele>
        <time>2015-12-01T15:21:05.000Z</time>
      </trkpt>
      <trkpt lat="47.60707" lon="-3.13367">
        <ele>18</ele>
        <time>2015-12-01T15:21:08.000Z</time>
      </trkpt>
      <trkpt lat="47.60703" lon="-3.13364">
        <ele>18</ele>
        <time>2015-12-01T15:21:09.000Z</time>
      </trkpt>
      <trkpt lat="47.60683" lon="-3.13342">
        <ele>18</ele>
        <time>2015-12-01T15:21:15.000Z</time>
      </trkpt>
      <trkpt lat="47.60673" lon="-3.13321">
        <ele>18</ele>
        <time>2015-12-01T15:21:19.000Z</time>
      </trkpt>
      <trkpt lat="47.60669" lon="-3.1331">
        <ele>18</ele>
        <time>2015-12-01T15:21:21.000Z</time>
      </trkpt>
      <trkpt lat="47.6065" lon="-3.13255">
        <ele>18</ele>
        <time>2015-12-01T15:21:30.000Z</time>
      </trkpt>
      <trkpt lat="47.60636" lon="-3.13214">
        <ele>18</ele>
        <time>2015-12-01T15:21:37.000Z</time>
      </trkpt>
      <trkpt lat="47.6063" lon="-3.13197">
        <ele>18</ele>
        <time>2015-12-01T15:21:40.000Z</time>
      </trkpt>
      <trkpt lat="47.60625" lon="-3.13187">
        <ele>18</ele>
        <time>2015-12-01T15:21:42.000Z</time>
      </trkpt>
      <trkpt lat="47.60622" lon="-3.13183">
        <ele>18</ele>
        <time>2015-12-01T15:21:43.000Z</time>
      </trkpt>
      <trkpt lat="47.60594" lon="-3.13143">
        <ele>18</ele>
        <time>2015-12-01T15:21:52.000Z</time>
      </trkpt>
      <trkpt lat="47.60572" lon="-3.13102">
        <ele>18</ele>
        <time>2015-12-01T15:22:00.000Z</time>
      </trkpt>
      <trkpt lat="47.60549" lon="-3.13046">
        <ele>18</ele>
        <time>2015-12-01T15:22:10.000Z</time>
      </trkpt>
      <trkpt lat="47.60529" lon="-3.12998">
        <ele>18</ele>
        <time>2015-12-01T15:22:19.000Z</time>
      </trkpt>
      <trkpt lat="47.60516" lon="-3.12965">
        <ele>18</ele>
        <time>2015-12-01T15:22:26.000Z</time>
      </trkpt>
      <trkpt lat="47.60515" lon="-3.1296">
        <ele>18.39999961853</ele>
        <time>2015-12-01T15:22:27.000Z</time>
      </trkpt>
      <trkpt lat="47.60514" lon="-3.12955">
        <ele>18.799999237061</ele>
        <time>2015-12-01T15:22:28.000Z</time>
      </trkpt>
      <trkpt lat="47.60512" lon="-3.1295">
        <ele>19.39999961853</ele>
        <time>2015-12-01T15:22:29.000Z</time>
      </trkpt>
      <trkpt lat="47.60512" lon="-3.12945">
        <ele>19.799999237061</ele>
        <time>2015-12-01T15:22:30.000Z</time>
      </trkpt>
      <trkpt lat="47.60511" lon="-3.12939">
        <ele>20.200000762939</ele>
        <time>2015-12-01T15:22:31.000Z</time>
      </trkpt>
      <trkpt lat="47.6051" lon="-3.12934">
        <ele>20.200000762939</ele>
        <time>2015-12-01T15:22:32.000Z</time>
      </trkpt>
      <trkpt lat="47.60507" lon="-3.12896">
        <ele>20.200000762939</ele>
        <time>2015-12-01T15:22:39.000Z</time>
      </trkpt>
      <trkpt lat="47.60507" lon="-3.12852">
        <ele>20.200000762939</ele>
        <time>2015-12-01T15:22:47.000Z</time>
      </trkpt>
      <trkpt lat="47.60503" lon="-3.12807">
        <ele>20.200000762939</ele>
        <time>2015-12-01T15:22:54.000Z</time>
      </trkpt>
      <trkpt lat="47.60497" lon="-3.12764">
        <ele>20.200000762939</ele>
        <time>2015-12-01T15:23:01.000Z</time>
      </trkpt>
      <trkpt lat="47.60485" lon="-3.12706">
        <ele>20.200000762939</ele>
        <time>2015-12-01T15:23:11.000Z</time>
      </trkpt>
      <trkpt lat="47.60478" lon="-3.12665">
        <ele>20.200000762939</ele>
        <time>2015-12-01T15:23:18.000Z</time>
      </trkpt>
      <trkpt lat="47.60471" lon="-3.12632">
        <ele>20.60000038147</ele>
        <time>2015-12-01T15:23:24.000Z</time>
      </trkpt>
      <trkpt lat="47.60469" lon="-3.12627">
        <ele>21</ele>
        <time>2015-12-01T15:23:25.000Z</time>
      </trkpt>
      <trkpt lat="47.60467" lon="-3.12622">
        <ele>21.39999961853</ele>
        <time>2015-12-01T15:23:26.000Z</time>
      </trkpt>
      <trkpt lat="47.60466" lon="-3.12618">
        <ele>21.799999237061</ele>
        <time>2015-12-01T15:23:27.000Z</time>
      </trkpt>
      <trkpt lat="47.60464" lon="-3.12614">
        <ele>22.200000762939</ele>
        <time>2015-12-01T15:23:28.000Z</time>
      </trkpt>
      <trkpt lat="47.60452" lon="-3.12594">
        <ele>22.200000762939</ele>
        <time>2015-12-01T15:23:33.000Z</time>
      </trkpt>
      <trkpt lat="47.60436" lon="-3.12568">
        <ele>22.60000038147</ele>
        <time>2015-12-01T15:23:39.000Z</time>
      </trkpt>
      <trkpt lat="47.60434" lon="-3.12563">
        <ele>23</ele>
        <time>2015-12-01T15:23:40.000Z</time>
      </trkpt>
      <trkpt lat="47.60432" lon="-3.12558">
        <ele>23.39999961853</ele>
        <time>2015-12-01T15:23:41.000Z</time>
      </trkpt>
      <trkpt lat="47.60429" lon="-3.12554">
        <ele>23.799999237061</ele>
        <time>2015-12-01T15:23:42.000Z</time>
      </trkpt>
      <trkpt lat="47.60426" lon="-3.1255">
        <ele>24.200000762939</ele>
        <time>2015-12-01T15:23:43.000Z</time>
      </trkpt>
      <trkpt lat="47.60407" lon="-3.12521">
        <ele>24.200000762939</ele>
        <time>2015-12-01T15:23:50.000Z</time>
      </trkpt>
      <trkpt lat="47.60385" lon="-3.1248">
        <ele>24.200000762939</ele>
        <time>2015-12-01T15:23:58.000Z</time>
      </trkpt>
      <trkpt lat="47.60367" lon="-3.1245">
        <ele>24.200000762939</ele>
        <time>2015-12-01T15:24:04.000Z</time>
      </trkpt>
      <trkpt lat="47.60349" lon="-3.1243">
        <ele>24.200000762939</ele>
        <time>2015-12-01T15:24:09.000Z</time>
      </trkpt>
      <trkpt lat="47.60337" lon="-3.1242">
        <ele>24.200000762939</ele>
        <time>2015-12-01T15:24:12.000Z</time>
      </trkpt>
      <trkpt lat="47.6031" lon="-3.12392">
        <ele>24.200000762939</ele>
        <time>2015-12-01T15:24:19.000Z</time>
      </trkpt>
      <trkpt lat="47.60279" lon="-3.12347">
        <ele>24.200000762939</ele>
        <time>2015-12-01T15:24:28.000Z</time>
      </trkpt>
      <trkpt lat="47.6027" lon="-3.1234">
        <ele>24.200000762939</ele>
        <time>2015-12-01T15:24:30.000Z</time>
      </trkpt>
      <trkpt lat="47.6026" lon="-3.12334">
        <ele>23.799999237061</ele>
        <time>2015-12-01T15:24:32.000Z</time>
      </trkpt>
      <trkpt lat="47.60255" lon="-3.12332">
        <ele>23.39999961853</ele>
        <time>2015-12-01T15:24:33.000Z</time>
      </trkpt>
      <trkpt lat="47.60249" lon="-3.1233">
        <ele>23</ele>
        <time>2015-12-01T15:24:34.000Z</time>
      </trkpt>
      <trkpt lat="47.60243" lon="-3.12327">
        <ele>22.60000038147</ele>
        <time>2015-12-01T15:24:35.000Z</time>
      </trkpt>
      <trkpt lat="47.60238" lon="-3.12323">
        <ele>22</ele>
        <time>2015-12-01T15:24:36.000Z</time>
      </trkpt>
      <trkpt lat="47.60222" lon="-3.12309">
        <ele>22</ele>
        <time>2015-12-01T15:24:39.000Z</time>
      </trkpt>
      <trkpt lat="47.60216" lon="-3.12304">
        <ele>21.60000038147</ele>
        <time>2015-12-01T15:24:40.000Z</time>
      </trkpt>
      <trkpt lat="47.60211" lon="-3.12299">
        <ele>21.200000762939</ele>
        <time>2015-12-01T15:24:41.000Z</time>
      </trkpt>
      <trkpt lat="47.60204" lon="-3.12294">
        <ele>20.60000038147</ele>
        <time>2015-12-01T15:24:42.000Z</time>
      </trkpt>
      <trkpt lat="47.60199" lon="-3.12288">
        <ele>20.200000762939</ele>
        <time>2015-12-01T15:24:43.000Z</time>
      </trkpt>
      <trkpt lat="47.60193" lon="-3.12281">
        <ele>19.799999237061</ele>
        <time>2015-12-01T15:24:44.000Z</time>
      </trkpt>
      <trkpt lat="47.60188" lon="-3.12273">
        <ele>19.39999961853</ele>
        <time>2015-12-01T15:24:45.000Z</time>
      </trkpt>
      <trkpt lat="47.60184" lon="-3.12264">
        <ele>19</ele>
        <time>2015-12-01T15:24:46.000Z</time>
      </trkpt>
      <trkpt lat="47.60181" lon="-3.12255">
        <ele>18.39999961853</ele>
        <time>2015-12-01T15:24:47.000Z</time>
      </trkpt>
      <trkpt lat="47.60177" lon="-3.12246">
        <ele>18</ele>
        <time>2015-12-01T15:24:48.000Z</time>
      </trkpt>
      <trkpt lat="47.60173" lon="-3.12238">
        <ele>17.60000038147</ele>
        <time>2015-12-01T15:24:49.000Z</time>
      </trkpt>
      <trkpt lat="47.60169" lon="-3.1223">
        <ele>17.60000038147</ele>
        <time>2015-12-01T15:24:50.000Z</time>
      </trkpt>
      <trkpt lat="47.60154" lon="-3.12199">
        <ele>17.60000038147</ele>
        <time>2015-12-01T15:24:55.000Z</time>
      </trkpt>
      <trkpt lat="47.60135" lon="-3.12164">
        <ele>17.60000038147</ele>
        <time>2015-12-01T15:25:02.000Z</time>
      </trkpt>
      <trkpt lat="47.60114" lon="-3.12131">
        <ele>17.60000038147</ele>
        <time>2015-12-01T15:25:09.000Z</time>
      </trkpt>
      <trkpt lat="47.60091" lon="-3.12105">
        <ele>17.60000038147</ele>
        <time>2015-12-01T15:25:16.000Z</time>
      </trkpt>
      <trkpt lat="47.60072" lon="-3.1208">
        <ele>17.60000038147</ele>
        <time>2015-12-01T15:25:22.000Z</time>
      </trkpt>
      <trkpt lat="47.60065" lon="-3.12073">
        <ele>17.60000038147</ele>
        <time>2015-12-01T15:25:24.000Z</time>
      </trkpt>
      <trkpt lat="47.60061" lon="-3.12068">
        <ele>17.60000038147</ele>
        <time>2015-12-01T15:25:25.000Z</time>
      </trkpt>
      <trkpt lat="47.60043" lon="-3.12045">
        <ele>18</ele>
        <time>2015-12-01T15:25:30.000Z</time>
      </trkpt>
      <trkpt lat="47.6004" lon="-3.1204">
        <ele>18.39999961853</ele>
        <time>2015-12-01T15:25:31.000Z</time>
      </trkpt>
      <trkpt lat="47.60036" lon="-3.12036">
        <ele>18.799999237061</ele>
        <time>2015-12-01T15:25:32.000Z</time>
      </trkpt>
      <trkpt lat="47.60032" lon="-3.12031">
        <ele>19.200000762939</ele>
        <time>2015-12-01T15:25:33.000Z</time>
      </trkpt>
      <trkpt lat="47.60029" lon="-3.12027">
        <ele>19.60000038147</ele>
        <time>2015-12-01T15:25:34.000Z</time>
      </trkpt>
      <trkpt lat="47.60011" lon="-3.12006">
        <ele>19.60000038147</ele>
        <time>2015-12-01T15:25:39.000Z</time>
      </trkpt>
      <trkpt lat="47.5999" lon="-3.1198">
        <ele>19.60000038147</ele>
        <time>2015-12-01T15:25:45.000Z</time>
      </trkpt>
      <trkpt lat="47.59972" lon="-3.11956">
        <ele>19.60000038147</ele>
        <time>2015-12-01T15:25:50.000Z</time>
      </trkpt>
      <trkpt lat="47.59969" lon="-3.11951">
        <ele>19.60000038147</ele>
        <time>2015-12-01T15:25:51.000Z</time>
      </trkpt>
      <trkpt lat="47.59954" lon="-3.11936">
        <ele>19.60000038147</ele>
        <time>2015-12-01T15:25:55.000Z</time>
      </trkpt>
      <trkpt lat="47.5995" lon="-3.11931">
        <ele>19.60000038147</ele>
        <time>2015-12-01T15:25:56.000Z</time>
      </trkpt>
      <trkpt lat="47.59931" lon="-3.11908">
        <ele>19.60000038147</ele>
        <time>2015-12-01T15:26:01.000Z</time>
      </trkpt>
      <trkpt lat="47.59918" lon="-3.11884">
        <ele>19.60000038147</ele>
        <time>2015-12-01T15:26:05.000Z</time>
      </trkpt>
      <trkpt lat="47.59912" lon="-3.11871">
        <ele>19.60000038147</ele>
        <time>2015-12-01T15:26:07.000Z</time>
      </trkpt>
      <trkpt lat="47.59901" lon="-3.11842">
        <ele>19.200000762939</ele>
        <time>2015-12-01T15:26:11.000Z</time>
      </trkpt>
      <trkpt lat="47.59898" lon="-3.11834">
        <ele>18.799999237061</ele>
        <time>2015-12-01T15:26:12.000Z</time>
      </trkpt>
      <trkpt lat="47.59896" lon="-3.11827">
        <ele>18.39999961853</ele>
        <time>2015-12-01T15:26:13.000Z</time>
      </trkpt>
      <trkpt lat="47.59893" lon="-3.11819">
        <ele>18</ele>
        <time>2015-12-01T15:26:14.000Z</time>
      </trkpt>
      <trkpt lat="47.5989" lon="-3.11812">
        <ele>17.39999961853</ele>
        <time>2015-12-01T15:26:15.000Z</time>
      </trkpt>
      <trkpt lat="47.59877" lon="-3.11775">
        <ele>17</ele>
        <time>2015-12-01T15:26:20.000Z</time>
      </trkpt>
      <trkpt lat="47.59875" lon="-3.11768">
        <ele>16.60000038147</ele>
        <time>2015-12-01T15:26:21.000Z</time>
      </trkpt>
      <trkpt lat="47.59873" lon="-3.11761">
        <ele>16.200000762939</ele>
        <time>2015-12-01T15:26:22.000Z</time>
      </trkpt>
      <trkpt lat="47.59872" lon="-3.11754">
        <ele>15.800000190735</ele>
        <time>2015-12-01T15:26:23.000Z</time>
      </trkpt>
      <trkpt lat="47.59873" lon="-3.11748">
        <ele>15.39999961853</ele>
        <time>2015-12-01T15:26:24.000Z</time>
      </trkpt>
      <trkpt lat="47.59876" lon="-3.11742">
        <ele>15.39999961853</ele>
        <time>2015-12-01T15:26:25.000Z</time>
      </trkpt>
      <trkpt lat="47.59881" lon="-3.1173">
        <ele>15.39999961853</ele>
        <time>2015-12-01T15:26:27.000Z</time>
      </trkpt>
      <trkpt lat="47.59888" lon="-3.11704">
        <ele>15.39999961853</ele>
        <time>2015-12-01T15:26:31.000Z</time>
      </trkpt>
      <trkpt lat="47.59904" lon="-3.11647">
        <ele>15.39999961853</ele>
        <time>2015-12-01T15:26:40.000Z</time>
      </trkpt>
      <trkpt lat="47.5992" lon="-3.11593">
        <ele>15.39999961853</ele>
        <time>2015-12-01T15:26:49.000Z</time>
      </trkpt>
      <trkpt lat="47.59922" lon="-3.11586">
        <ele>15.800000190735</ele>
        <time>2015-12-01T15:26:50.000Z</time>
      </trkpt>
      <trkpt lat="47.59924" lon="-3.1158">
        <ele>16.200000762939</ele>
        <time>2015-12-01T15:26:51.000Z</time>
      </trkpt>
      <trkpt lat="47.59925" lon="-3.11574">
        <ele>17</ele>
        <time>2015-12-01T15:26:52.000Z</time>
      </trkpt>
      <trkpt lat="47.59927" lon="-3.11568">
        <ele>17.60000038147</ele>
        <time>2015-12-01T15:26:53.000Z</time>
      </trkpt>
      <trkpt lat="47.59931" lon="-3.11549">
        <ele>17.60000038147</ele>
        <time>2015-12-01T15:26:56.000Z</time>
      </trkpt>
      <trkpt lat="47.59936" lon="-3.11518">
        <ele>17.60000038147</ele>
        <time>2015-12-01T15:27:01.000Z</time>
      </trkpt>
      <trkpt lat="47.59936" lon="-3.11506">
        <ele>17.60000038147</ele>
        <time>2015-12-01T15:27:03.000Z</time>
      </trkpt>
      <trkpt lat="47.59929" lon="-3.11484">
        <ele>18</ele>
        <time>2015-12-01T15:27:07.000Z</time>
      </trkpt>
      <trkpt lat="47.59929" lon="-3.11478">
        <ele>18.39999961853</ele>
        <time>2015-12-01T15:27:08.000Z</time>
      </trkpt>
      <trkpt lat="47.59929" lon="-3.11472">
        <ele>18.799999237061</ele>
        <time>2015-12-01T15:27:09.000Z</time>
      </trkpt>
      <trkpt lat="47.5993" lon="-3.11466">
        <ele>19.200000762939</ele>
        <time>2015-12-01T15:27:10.000Z</time>
      </trkpt>
      <trkpt lat="47.59931" lon="-3.1146">
        <ele>19.60000038147</ele>
        <time>2015-12-01T15:27:11.000Z</time>
      </trkpt>
      <trkpt lat="47.59933" lon="-3.11455">
        <ele>19.60000038147</ele>
        <time>2015-12-01T15:27:12.000Z</time>
      </trkpt>
      <trkpt lat="47.59938" lon="-3.11444">
        <ele>19.60000038147</ele>
        <time>2015-12-01T15:27:14.000Z</time>
      </trkpt>
      <trkpt lat="47.5994" lon="-3.11438">
        <ele>19.60000038147</ele>
        <time>2015-12-01T15:27:15.000Z</time>
      </trkpt>
      <trkpt lat="47.59942" lon="-3.11423">
        <ele>19.60000038147</ele>
        <time>2015-12-01T15:27:17.000Z</time>
      </trkpt>
      <trkpt lat="47.59944" lon="-3.11392">
        <ele>19.60000038147</ele>
        <time>2015-12-01T15:27:21.000Z</time>
      </trkpt>
      <trkpt lat="47.59941" lon="-3.11371">
        <ele>19.60000038147</ele>
        <time>2015-12-01T15:27:24.000Z</time>
      </trkpt>
      <trkpt lat="47.59929" lon="-3.1132">
        <ele>19.60000038147</ele>
        <time>2015-12-01T15:27:32.000Z</time>
      </trkpt>
      <trkpt lat="47.59918" lon="-3.11278">
        <ele>19.60000038147</ele>
        <time>2015-12-01T15:27:39.000Z</time>
      </trkpt>
      <trkpt lat="47.5991" lon="-3.11223">
        <ele>19.60000038147</ele>
        <time>2015-12-01T15:27:48.000Z</time>
      </trkpt>
      <trkpt lat="47.59909" lon="-3.11217">
        <ele>19.60000038147</ele>
        <time>2015-12-01T15:27:49.000Z</time>
      </trkpt>
      <trkpt lat="47.59898" lon="-3.112">
        <ele>19.60000038147</ele>
        <time>2015-12-01T15:27:53.000Z</time>
      </trkpt>
      <trkpt lat="47.59895" lon="-3.11197">
        <ele>19.60000038147</ele>
        <time>2015-12-01T15:27:54.000Z</time>
      </trkpt>
      <trkpt lat="47.59892" lon="-3.11194">
        <ele>20</ele>
        <time>2015-12-01T15:27:55.000Z</time>
      </trkpt>
      <trkpt lat="47.59888" lon="-3.1119">
        <ele>20.39999961853</ele>
        <time>2015-12-01T15:27:56.000Z</time>
      </trkpt>
      <trkpt lat="47.59886" lon="-3.11186">
        <ele>20.799999237061</ele>
        <time>2015-12-01T15:27:57.000Z</time>
      </trkpt>
      <trkpt lat="47.59883" lon="-3.11182">
        <ele>21.200000762939</ele>
        <time>2015-12-01T15:27:58.000Z</time>
      </trkpt>
      <trkpt lat="47.5988" lon="-3.11177">
        <ele>21.60000038147</ele>
        <time>2015-12-01T15:27:59.000Z</time>
      </trkpt>
      <trkpt lat="47.59878" lon="-3.11172">
        <ele>21.60000038147</ele>
        <time>2015-12-01T15:28:00.000Z</time>
      </trkpt>
      <trkpt lat="47.59866" lon="-3.11165">
        <ele>21.60000038147</ele>
        <time>2015-12-01T15:28:03.000Z</time>
      </trkpt>
      <trkpt lat="47.59861" lon="-3.11164">
        <ele>21.60000038147</ele>
        <time>2015-12-01T15:28:04.000Z</time>
      </trkpt>
      <trkpt lat="47.59837" lon="-3.11158">
        <ele>21.60000038147</ele>
        <time>2015-12-01T15:28:09.000Z</time>
      </trkpt>
      <trkpt lat="47.59832" lon="-3.11156">
        <ele>21.60000038147</ele>
        <time>2015-12-01T15:28:10.000Z</time>
      </trkpt>
      <trkpt lat="47.59814" lon="-3.11144">
        <ele>21.60000038147</ele>
        <time>2015-12-01T15:28:14.000Z</time>
      </trkpt>
      <trkpt lat="47.59802" lon="-3.11121">
        <ele>21.60000038147</ele>
        <time>2015-12-01T15:28:18.000Z</time>
      </trkpt>
      <trkpt lat="47.59777" lon="-3.11071">
        <ele>21.60000038147</ele>
        <time>2015-12-01T15:28:27.000Z</time>
      </trkpt>
      <trkpt lat="47.59754" lon="-3.11025">
        <ele>21.60000038147</ele>
        <time>2015-12-01T15:28:35.000Z</time>
      </trkpt>
      <trkpt lat="47.59735" lon="-3.10987">
        <ele>21.60000038147</ele>
        <time>2015-12-01T15:28:42.000Z</time>
      </trkpt>
      <trkpt lat="47.5973" lon="-3.10975">
        <ele>21.60000038147</ele>
        <time>2015-12-01T15:28:44.000Z</time>
      </trkpt>
      <trkpt lat="47.59722" lon="-3.10956">
        <ele>21.60000038147</ele>
        <time>2015-12-01T15:28:47.000Z</time>
      </trkpt>
      <trkpt lat="47.59705" lon="-3.1092">
        <ele>21.60000038147</ele>
        <time>2015-12-01T15:28:53.000Z</time>
      </trkpt>
      <trkpt lat="47.59681" lon="-3.10871">
        <ele>21.60000038147</ele>
        <time>2015-12-01T15:29:01.000Z</time>
      </trkpt>
      <trkpt lat="47.59658" lon="-3.10823">
        <ele>21.60000038147</ele>
        <time>2015-12-01T15:29:09.000Z</time>
      </trkpt>
      <trkpt lat="47.59635" lon="-3.10777">
        <ele>21.60000038147</ele>
        <time>2015-12-01T15:29:17.000Z</time>
      </trkpt>
      <trkpt lat="47.5961" lon="-3.10725">
        <ele>21.60000038147</ele>
        <time>2015-12-01T15:29:25.000Z</time>
      </trkpt>
      <trkpt lat="47.59587" lon="-3.10674">
        <ele>21.60000038147</ele>
        <time>2015-12-01T15:29:32.000Z</time>
      </trkpt>
      <trkpt lat="47.59556" lon="-3.10609">
        <ele>21.60000038147</ele>
        <time>2015-12-01T15:29:40.000Z</time>
      </trkpt>
      <trkpt lat="47.59552" lon="-3.106">
        <ele>21.200000762939</ele>
        <time>2015-12-01T15:29:41.000Z</time>
      </trkpt>
      <trkpt lat="47.59548" lon="-3.10591">
        <ele>20.799999237061</ele>
        <time>2015-12-01T15:29:42.000Z</time>
      </trkpt>
      <trkpt lat="47.59544" lon="-3.10583">
        <ele>20.39999961853</ele>
        <time>2015-12-01T15:29:43.000Z</time>
      </trkpt>
      <trkpt lat="47.5954" lon="-3.10574">
        <ele>19.39999961853</ele>
        <time>2015-12-01T15:29:44.000Z</time>
      </trkpt>
      <trkpt lat="47.59509" lon="-3.10509">
        <ele>19.39999961853</ele>
        <time>2015-12-01T15:29:52.000Z</time>
      </trkpt>
      <trkpt lat="47.59505" lon="-3.10501">
        <ele>19</ele>
        <time>2015-12-01T15:29:53.000Z</time>
      </trkpt>
      <trkpt lat="47.59502" lon="-3.10494">
        <ele>18.60000038147</ele>
        <time>2015-12-01T15:29:54.000Z</time>
      </trkpt>
      <trkpt lat="47.59499" lon="-3.10487">
        <ele>18</ele>
        <time>2015-12-01T15:29:55.000Z</time>
      </trkpt>
      <trkpt lat="47.59495" lon="-3.1048">
        <ele>17.60000038147</ele>
        <time>2015-12-01T15:29:56.000Z</time>
      </trkpt>
      <trkpt lat="47.59492" lon="-3.10474">
        <ele>17.200000762939</ele>
        <time>2015-12-01T15:29:57.000Z</time>
      </trkpt>
      <trkpt lat="47.59485" lon="-3.10461">
        <ele>17.200000762939</ele>
        <time>2015-12-01T15:29:59.000Z</time>
      </trkpt>
      <trkpt lat="47.59463" lon="-3.10412">
        <ele>17.200000762939</ele>
        <time>2015-12-01T15:30:06.000Z</time>
      </trkpt>
      <trkpt lat="47.5944" lon="-3.10364">
        <ele>17.200000762939</ele>
        <time>2015-12-01T15:30:13.000Z</time>
      </trkpt>
      <trkpt lat="47.59414" lon="-3.1031">
        <ele>17.200000762939</ele>
        <time>2015-12-01T15:30:22.000Z</time>
      </trkpt>
      <trkpt lat="47.59389" lon="-3.10258">
        <ele>17.200000762939</ele>
        <time>2015-12-01T15:30:30.000Z</time>
      </trkpt>
      <trkpt lat="47.59366" lon="-3.1021">
        <ele>17.200000762939</ele>
        <time>2015-12-01T15:30:37.000Z</time>
      </trkpt>
      <trkpt lat="47.59342" lon="-3.10158">
        <ele>17.200000762939</ele>
        <time>2015-12-01T15:30:45.000Z</time>
      </trkpt>
      <trkpt lat="47.59313" lon="-3.10095">
        <ele>17.200000762939</ele>
        <time>2015-12-01T15:30:55.000Z</time>
      </trkpt>
      <trkpt lat="47.59288" lon="-3.10044">
        <ele>17.200000762939</ele>
        <time>2015-12-01T15:31:03.000Z</time>
      </trkpt>
      <trkpt lat="47.5926" lon="-3.09985">
        <ele>17.200000762939</ele>
        <time>2015-12-01T15:31:11.000Z</time>
      </trkpt>
      <trkpt lat="47.59253" lon="-3.0997">
        <ele>16.799999237061</ele>
        <time>2015-12-01T15:31:13.000Z</time>
      </trkpt>
      <trkpt lat="47.59249" lon="-3.09962">
        <ele>16.39999961853</ele>
        <time>2015-12-01T15:31:14.000Z</time>
      </trkpt>
      <trkpt lat="47.59246" lon="-3.09954">
        <ele>16</ele>
        <time>2015-12-01T15:31:15.000Z</time>
      </trkpt>
      <trkpt lat="47.59242" lon="-3.09946">
        <ele>15.39999961853</ele>
        <time>2015-12-01T15:31:16.000Z</time>
      </trkpt>
      <trkpt lat="47.59239" lon="-3.09939">
        <ele>15</ele>
        <time>2015-12-01T15:31:17.000Z</time>
      </trkpt>
      <trkpt lat="47.59228" lon="-3.09916">
        <ele>15</ele>
        <time>2015-12-01T15:31:20.000Z</time>
      </trkpt>
      <trkpt lat="47.59196" lon="-3.09847">
        <ele>15</ele>
        <time>2015-12-01T15:31:29.000Z</time>
      </trkpt>
      <trkpt lat="47.59192" lon="-3.09839">
        <ele>15</ele>
        <time>2015-12-01T15:31:30.000Z</time>
      </trkpt>
      <trkpt lat="47.59163" lon="-3.09775">
        <ele>15</ele>
        <time>2015-12-01T15:31:39.000Z</time>
      </trkpt>
      <trkpt lat="47.59144" lon="-3.09735">
        <ele>14.60000038147</ele>
        <time>2015-12-01T15:31:45.000Z</time>
      </trkpt>
      <trkpt lat="47.59141" lon="-3.09728">
        <ele>14.199999809265</ele>
        <time>2015-12-01T15:31:46.000Z</time>
      </trkpt>
      <trkpt lat="47.59138" lon="-3.09722">
        <ele>13.800000190735</ele>
        <time>2015-12-01T15:31:47.000Z</time>
      </trkpt>
      <trkpt lat="47.59135" lon="-3.09716">
        <ele>13</ele>
        <time>2015-12-01T15:31:48.000Z</time>
      </trkpt>
      <trkpt lat="47.59111" lon="-3.09664">
        <ele>13</ele>
        <time>2015-12-01T15:31:57.000Z</time>
      </trkpt>
      <trkpt lat="47.5909" lon="-3.0962">
        <ele>13.39999961853</ele>
        <time>2015-12-01T15:32:05.000Z</time>
      </trkpt>
      <trkpt lat="47.59087" lon="-3.09614">
        <ele>13.800000190735</ele>
        <time>2015-12-01T15:32:06.000Z</time>
      </trkpt>
      <trkpt lat="47.59085" lon="-3.09609">
        <ele>14.39999961853</ele>
        <time>2015-12-01T15:32:07.000Z</time>
      </trkpt>
      <trkpt lat="47.59082" lon="-3.09604">
        <ele>14.800000190735</ele>
        <time>2015-12-01T15:32:08.000Z</time>
      </trkpt>
      <trkpt lat="47.5908" lon="-3.09598">
        <ele>15.199999809265</ele>
        <time>2015-12-01T15:32:09.000Z</time>
      </trkpt>
      <trkpt lat="47.59068" lon="-3.09573">
        <ele>15.199999809265</ele>
        <time>2015-12-01T15:32:15.000Z</time>
      </trkpt>
      <trkpt lat="47.59054" lon="-3.09544">
        <ele>15.60000038147</ele>
        <time>2015-12-01T15:32:21.000Z</time>
      </trkpt>
      <trkpt lat="47.59051" lon="-3.09539">
        <ele>16</ele>
        <time>2015-12-01T15:32:22.000Z</time>
      </trkpt>
      <trkpt lat="47.59049" lon="-3.09534">
        <ele>16.39999961853</ele>
        <time>2015-12-01T15:32:23.000Z</time>
      </trkpt>
      <trkpt lat="47.59046" lon="-3.09529">
        <ele>16.799999237061</ele>
        <time>2015-12-01T15:32:24.000Z</time>
      </trkpt>
      <trkpt lat="47.59044" lon="-3.09524">
        <ele>17.200000762939</ele>
        <time>2015-12-01T15:32:25.000Z</time>
      </trkpt>
      <trkpt lat="47.59032" lon="-3.09498">
        <ele>17.200000762939</ele>
        <time>2015-12-01T15:32:30.000Z</time>
      </trkpt>
      <trkpt lat="47.59011" lon="-3.09453">
        <ele>17.200000762939</ele>
        <time>2015-12-01T15:32:38.000Z</time>
      </trkpt>
      <trkpt lat="47.5899" lon="-3.09409">
        <ele>17.200000762939</ele>
        <time>2015-12-01T15:32:45.000Z</time>
      </trkpt>
      <trkpt lat="47.58965" lon="-3.09359">
        <ele>17.200000762939</ele>
        <time>2015-12-01T15:32:53.000Z</time>
      </trkpt>
      <trkpt lat="47.58942" lon="-3.09312">
        <ele>17.200000762939</ele>
        <time>2015-12-01T15:33:00.000Z</time>
      </trkpt>
      <trkpt lat="47.58918" lon="-3.0926">
        <ele>17.200000762939</ele>
        <time>2015-12-01T15:33:08.000Z</time>
      </trkpt>
      <trkpt lat="47.58895" lon="-3.0921">
        <ele>17.200000762939</ele>
        <time>2015-12-01T15:33:16.000Z</time>
      </trkpt>
      <trkpt lat="47.58875" lon="-3.09168">
        <ele>17.200000762939</ele>
        <time>2015-12-01T15:33:23.000Z</time>
      </trkpt>
      <trkpt lat="47.5885" lon="-3.09113">
        <ele>17.200000762939</ele>
        <time>2015-12-01T15:33:32.000Z</time>
      </trkpt>
      <trkpt lat="47.58825" lon="-3.09061">
        <ele>17.200000762939</ele>
        <time>2015-12-01T15:33:40.000Z</time>
      </trkpt>
      <trkpt lat="47.58821" lon="-3.09055">
        <ele>17.200000762939</ele>
        <time>2015-12-01T15:33:41.000Z</time>
      </trkpt>
      <trkpt lat="47.58813" lon="-3.09044">
        <ele>17.200000762939</ele>
        <time>2015-12-01T15:33:43.000Z</time>
      </trkpt>
      <trkpt lat="47.58808" lon="-3.0904">
        <ele>16.799999237061</ele>
        <time>2015-12-01T15:33:44.000Z</time>
      </trkpt>
      <trkpt lat="47.58803" lon="-3.09038">
        <ele>16.39999961853</ele>
        <time>2015-12-01T15:33:45.000Z</time>
      </trkpt>
      <trkpt lat="47.58798" lon="-3.09035">
        <ele>16</ele>
        <time>2015-12-01T15:33:46.000Z</time>
      </trkpt>
      <trkpt lat="47.58794" lon="-3.09029">
        <ele>15.60000038147</ele>
        <time>2015-12-01T15:33:47.000Z</time>
      </trkpt>
      <trkpt lat="47.58791" lon="-3.09023">
        <ele>15</ele>
        <time>2015-12-01T15:33:48.000Z</time>
      </trkpt>
      <trkpt lat="47.58789" lon="-3.09">
        <ele>15</ele>
        <time>2015-12-01T15:33:51.000Z</time>
      </trkpt>
      <trkpt lat="47.58783" lon="-3.08972">
        <ele>15</ele>
        <time>2015-12-01T15:33:55.000Z</time>
      </trkpt>
      <trkpt lat="47.58778" lon="-3.0896">
        <ele>15</ele>
        <time>2015-12-01T15:33:57.000Z</time>
      </trkpt>
      <trkpt lat="47.58768" lon="-3.08938">
        <ele>15</ele>
        <time>2015-12-01T15:34:01.000Z</time>
      </trkpt>
      <trkpt lat="47.58765" lon="-3.08934">
        <ele>15</ele>
        <time>2015-12-01T15:34:02.000Z</time>
      </trkpt>
      <trkpt lat="47.58751" lon="-3.08906">
        <ele>15</ele>
        <time>2015-12-01T15:34:07.000Z</time>
      </trkpt>
      <trkpt lat="47.58732" lon="-3.08865">
        <ele>15</ele>
        <time>2015-12-01T15:34:14.000Z</time>
      </trkpt>
      <trkpt lat="47.58708" lon="-3.08815">
        <ele>15</ele>
        <time>2015-12-01T15:34:22.000Z</time>
      </trkpt>
      <trkpt lat="47.58685" lon="-3.08767">
        <ele>15</ele>
        <time>2015-12-01T15:34:29.000Z</time>
      </trkpt>
      <trkpt lat="47.5866" lon="-3.08714">
        <ele>15</ele>
        <time>2015-12-01T15:34:37.000Z</time>
      </trkpt>
      <trkpt lat="47.58639" lon="-3.08668">
        <ele>15</ele>
        <time>2015-12-01T15:34:45.000Z</time>
      </trkpt>
      <trkpt lat="47.58612" lon="-3.08611">
        <ele>15</ele>
        <time>2015-12-01T15:34:55.000Z</time>
      </trkpt>
      <trkpt lat="47.58589" lon="-3.08563">
        <ele>15</ele>
        <time>2015-12-01T15:35:03.000Z</time>
      </trkpt>
      <trkpt lat="47.58571" lon="-3.08524">
        <ele>15</ele>
        <time>2015-12-01T15:35:10.000Z</time>
      </trkpt>
      <trkpt lat="47.58567" lon="-3.08512">
        <ele>15.60000038147</ele>
        <time>2015-12-01T15:35:12.000Z</time>
      </trkpt>
      <trkpt lat="47.58564" lon="-3.08506">
        <ele>16</ele>
        <time>2015-12-01T15:35:13.000Z</time>
      </trkpt>
      <trkpt lat="47.58562" lon="-3.085">
        <ele>16.39999961853</ele>
        <time>2015-12-01T15:35:14.000Z</time>
      </trkpt>
      <trkpt lat="47.58559" lon="-3.08495">
        <ele>16.799999237061</ele>
        <time>2015-12-01T15:35:15.000Z</time>
      </trkpt>
      <trkpt lat="47.58557" lon="-3.0849">
        <ele>17.200000762939</ele>
        <time>2015-12-01T15:35:16.000Z</time>
      </trkpt>
      <trkpt lat="47.58551" lon="-3.0848">
        <ele>17.200000762939</ele>
        <time>2015-12-01T15:35:18.000Z</time>
      </trkpt>
      <trkpt lat="47.58534" lon="-3.08441">
        <ele>17.200000762939</ele>
        <time>2015-12-01T15:35:25.000Z</time>
      </trkpt>
      <trkpt lat="47.58528" lon="-3.08425">
        <ele>17.200000762939</ele>
        <time>2015-12-01T15:35:28.000Z</time>
      </trkpt>
      <trkpt lat="47.58524" lon="-3.08413">
        <ele>17.200000762939</ele>
        <time>2015-12-01T15:35:30.000Z</time>
      </trkpt>
      <trkpt lat="47.58522" lon="-3.08408">
        <ele>17.200000762939</ele>
        <time>2015-12-01T15:35:31.000Z</time>
      </trkpt>
      <trkpt lat="47.58512" lon="-3.08386">
        <ele>17.60000038147</ele>
        <time>2015-12-01T15:35:35.000Z</time>
      </trkpt>
      <trkpt lat="47.58511" lon="-3.08381">
        <ele>18</ele>
        <time>2015-12-01T15:35:36.000Z</time>
      </trkpt>
      <trkpt lat="47.58511" lon="-3.08374">
        <ele>18.39999961853</ele>
        <time>2015-12-01T15:35:37.000Z</time>
      </trkpt>
      <trkpt lat="47.58513" lon="-3.08368">
        <ele>18.799999237061</ele>
        <time>2015-12-01T15:35:38.000Z</time>
      </trkpt>
      <trkpt lat="47.58517" lon="-3.08364">
        <ele>19.200000762939</ele>
        <time>2015-12-01T15:35:39.000Z</time>
      </trkpt>
      <trkpt lat="47.58521" lon="-3.08362">
        <ele>19.200000762939</ele>
        <time>2015-12-01T15:35:40.000Z</time>
      </trkpt>
      <trkpt lat="47.58535" lon="-3.08362">
        <ele>19.200000762939</ele>
        <time>2015-12-01T15:35:43.000Z</time>
      </trkpt>
      <trkpt lat="47.58539" lon="-3.08363">
        <ele>19.200000762939</ele>
        <time>2015-12-01T15:35:44.000Z</time>
      </trkpt>
      <trkpt lat="47.58569" lon="-3.0837">
        <ele>19.200000762939</ele>
        <time>2015-12-01T15:35:51.000Z</time>
      </trkpt>
      <trkpt lat="47.58604" lon="-3.08377">
        <ele>19.200000762939</ele>
        <time>2015-12-01T15:35:59.000Z</time>
      </trkpt>
      <trkpt lat="47.58612" lon="-3.08364">
        <ele>19.200000762939</ele>
        <time>2015-12-01T15:36:02.000Z</time>
      </trkpt>
      <trkpt lat="47.58615" lon="-3.08354">
        <ele>19.200000762939</ele>
        <time>2015-12-01T15:36:04.000Z</time>
      </trkpt>
      <trkpt lat="47.58614" lon="-3.08344">
        <ele>19.799999237061</ele>
        <time>2015-12-01T15:36:06.000Z</time>
      </trkpt>
      <trkpt lat="47.5861" lon="-3.08338">
        <ele>20.200000762939</ele>
        <time>2015-12-01T15:36:07.000Z</time>
      </trkpt>
      <trkpt lat="47.58608" lon="-3.08333">
        <ele>20.60000038147</ele>
        <time>2015-12-01T15:36:08.000Z</time>
      </trkpt>
      <trkpt lat="47.58607" lon="-3.08328">
        <ele>21</ele>
        <time>2015-12-01T15:36:09.000Z</time>
      </trkpt>
      <trkpt lat="47.58605" lon="-3.08322">
        <ele>21.39999961853</ele>
        <time>2015-12-01T15:36:10.000Z</time>
      </trkpt>
      <trkpt lat="47.58601" lon="-3.08306">
        <ele>21.39999961853</ele>
        <time>2015-12-01T15:36:13.000Z</time>
      </trkpt>
      <trkpt lat="47.58593" lon="-3.08262">
        <ele>21.39999961853</ele>
        <time>2015-12-01T15:36:21.000Z</time>
      </trkpt>
      <trkpt lat="47.58583" lon="-3.08224">
        <ele>21.39999961853</ele>
        <time>2015-12-01T15:36:28.000Z</time>
      </trkpt>
      <trkpt lat="47.58571" lon="-3.08185">
        <ele>21.39999961853</ele>
        <time>2015-12-01T15:36:35.000Z</time>
      </trkpt>
      <trkpt lat="47.58555" lon="-3.08168">
        <ele>21.39999961853</ele>
        <time>2015-12-01T15:36:40.000Z</time>
      </trkpt>
      <trkpt lat="47.58531" lon="-3.08149">
        <ele>21.39999961853</ele>
        <time>2015-12-01T15:36:47.000Z</time>
      </trkpt>
      <trkpt lat="47.58512" lon="-3.08136">
        <ele>21.39999961853</ele>
        <time>2015-12-01T15:36:53.000Z</time>
      </trkpt>
      <trkpt lat="47.58504" lon="-3.08125">
        <ele>21.39999961853</ele>
        <time>2015-12-01T15:36:58.000Z</time>
      </trkpt>
      <trkpt lat="47.5851" lon="-3.08111">
        <ele>21.39999961853</ele>
        <time>2015-12-01T15:37:02.000Z</time>
      </trkpt>
      <trkpt lat="47.58517" lon="-3.08101">
        <ele>21.39999961853</ele>
        <time>2015-12-01T15:37:05.000Z</time>
      </trkpt>
      <trkpt lat="47.5852" lon="-3.08096">
        <ele>21.39999961853</ele>
        <time>2015-12-01T15:37:07.000Z</time>
      </trkpt>
      <trkpt lat="47.58525" lon="-3.08095">
        <ele>21.39999961853</ele>
        <time>2015-12-01T15:37:09.000Z</time>
      </trkpt>
      <trkpt lat="47.58527" lon="-3.08097">
        <ele>21.39999961853</ele>
        <time>2015-12-01T15:37:11.000Z</time>
      </trkpt>
      <trkpt lat="47.58531" lon="-3.08107">
        <ele>21.39999961853</ele>
        <time>2015-12-01T15:37:15.000Z</time>
      </trkpt>
      <trkpt lat="47.58513" lon="-3.08106">
        <ele>-74.599998474121</ele>
        <time>2015-12-01T16:08:07.000Z</time>
      </trkpt>
      <trkpt lat="47.58512" lon="-3.08109">
        <ele>-71.199996948242</ele>
        <time>2015-12-01T16:08:08.000Z</time>
      </trkpt>
      <trkpt lat="47.58512" lon="-3.08111">
        <ele>-68</ele>
        <time>2015-12-01T16:08:09.000Z</time>
      </trkpt>
      <trkpt lat="47.58511" lon="-3.08114">
        <ele>-65.400001525879</ele>
        <time>2015-12-01T16:08:10.000Z</time>
      </trkpt>
      <trkpt lat="47.5851" lon="-3.08116">
        <ele>-62.799999237061</ele>
        <time>2015-12-01T16:08:11.000Z</time>
      </trkpt>
      <trkpt lat="47.58509" lon="-3.08118">
        <ele>-60.400001525879</ele>
        <time>2015-12-01T16:08:12.000Z</time>
      </trkpt>
      <trkpt lat="47.58508" lon="-3.08121">
        <ele>-55.200000762939</ele>
        <time>2015-12-01T16:08:13.000Z</time>
      </trkpt>
      <trkpt lat="47.58507" lon="-3.08122">
        <ele>-52.599998474121</ele>
        <time>2015-12-01T16:08:14.000Z</time>
      </trkpt>
      <trkpt lat="47.58505" lon="-3.08124">
        <ele>-50</ele>
        <time>2015-12-01T16:08:15.000Z</time>
      </trkpt>
      <trkpt lat="47.58503" lon="-3.08125">
        <ele>-47.599998474121</ele>
        <time>2015-12-01T16:08:16.000Z</time>
      </trkpt>
      <trkpt lat="47.58501" lon="-3.08127">
        <ele>-45.200000762939</ele>
        <time>2015-12-01T16:08:17.000Z</time>
      </trkpt>
      <trkpt lat="47.58499" lon="-3.08127">
        <ele>-42.799999237061</ele>
        <time>2015-12-01T16:08:18.000Z</time>
      </trkpt>
      <trkpt lat="47.58496" lon="-3.08127">
        <ele>-40.599998474121</ele>
        <time>2015-12-01T16:08:19.000Z</time>
      </trkpt>
      <trkpt lat="47.58494" lon="-3.08126">
        <ele>-38.400001525879</ele>
        <time>2015-12-01T16:08:20.000Z</time>
      </trkpt>
      <trkpt lat="47.58492" lon="-3.08125">
        <ele>-36.400001525879</ele>
        <time>2015-12-01T16:08:21.000Z</time>
      </trkpt>
      <trkpt lat="47.5849" lon="-3.08124">
        <ele>-34.200000762939</ele>
        <time>2015-12-01T16:08:22.000Z</time>
      </trkpt>
      <trkpt lat="47.58488" lon="-3.08122">
        <ele>-32.400001525879</ele>
        <time>2015-12-01T16:08:23.000Z</time>
      </trkpt>
      <trkpt lat="47.58486" lon="-3.08121">
        <ele>-30.39999961853</ele>
        <time>2015-12-01T16:08:24.000Z</time>
      </trkpt>
      <trkpt lat="47.58484" lon="-3.0812">
        <ele>-28.60000038147</ele>
        <time>2015-12-01T16:08:25.000Z</time>
      </trkpt>
      <trkpt lat="47.58482" lon="-3.08119">
        <ele>-26.60000038147</ele>
        <time>2015-12-01T16:08:26.000Z</time>
      </trkpt>
      <trkpt lat="47.58479" lon="-3.08118">
        <ele>-25</ele>
        <time>2015-12-01T16:08:27.000Z</time>
      </trkpt>
      <trkpt lat="47.58476" lon="-3.08116">
        <ele>-23.200000762939</ele>
        <time>2015-12-01T16:08:28.000Z</time>
      </trkpt>
      <trkpt lat="47.58474" lon="-3.08115">
        <ele>-21.60000038147</ele>
        <time>2015-12-01T16:08:29.000Z</time>
      </trkpt>
      <trkpt lat="47.5847" lon="-3.08113">
        <ele>-20</ele>
        <time>2015-12-01T16:08:30.000Z</time>
      </trkpt>
      <trkpt lat="47.58467" lon="-3.08111">
        <ele>-18.39999961853</ele>
        <time>2015-12-01T16:08:31.000Z</time>
      </trkpt>
      <trkpt lat="47.58464" lon="-3.08109">
        <ele>-17</ele>
        <time>2015-12-01T16:08:32.000Z</time>
      </trkpt>
      <trkpt lat="47.58461" lon="-3.08107">
        <ele>-15.60000038147</ele>
        <time>2015-12-01T16:08:33.000Z</time>
      </trkpt>
      <trkpt lat="47.58458" lon="-3.08104">
        <ele>-14.199999809265</ele>
        <time>2015-12-01T16:08:34.000Z</time>
      </trkpt>
      <trkpt lat="47.58455" lon="-3.08103">
        <ele>-12.800000190735</ele>
        <time>2015-12-01T16:08:35.000Z</time>
      </trkpt>
      <trkpt lat="47.58452" lon="-3.08101">
        <ele>-11.800000190735</ele>
        <time>2015-12-01T16:08:36.000Z</time>
      </trkpt>
      <trkpt lat="47.58449" lon="-3.08099">
        <ele>-10.60000038147</ele>
        <time>2015-12-01T16:08:37.000Z</time>
      </trkpt>
      <trkpt lat="47.58446" lon="-3.08096">
        <ele>-8.6000003814697</ele>
        <time>2015-12-01T16:08:38.000Z</time>
      </trkpt>
      <trkpt lat="47.58443" lon="-3.08092">
        <ele>-7.8000001907349</ele>
        <time>2015-12-01T16:08:39.000Z</time>
      </trkpt>
      <trkpt lat="47.5844" lon="-3.08089">
        <ele>-6.8000001907349</ele>
        <time>2015-12-01T16:08:40.000Z</time>
      </trkpt>
      <trkpt lat="47.58437" lon="-3.08085">
        <ele>-5.8000001907349</ele>
        <time>2015-12-01T16:08:41.000Z</time>
      </trkpt>
      <trkpt lat="47.58434" lon="-3.08081">
        <ele>-5</ele>
        <time>2015-12-01T16:08:42.000Z</time>
      </trkpt>
      <trkpt lat="47.58431" lon="-3.08076">
        <ele>-4.1999998092651</ele>
        <time>2015-12-01T16:08:43.000Z</time>
      </trkpt>
      <trkpt lat="47.58428" lon="-3.08072">
        <ele>-3.4000000953674</ele>
        <time>2015-12-01T16:08:44.000Z</time>
      </trkpt>
      <trkpt lat="47.58426" lon="-3.08067">
        <ele>-2.5999999046326</ele>
        <time>2015-12-01T16:08:45.000Z</time>
      </trkpt>
      <trkpt lat="47.58424" lon="-3.08061">
        <ele>-1.7999999523163</ele>
        <time>2015-12-01T16:08:46.000Z</time>
      </trkpt>
      <trkpt lat="47.58424" lon="-3.08055">
        <ele>-1</ele>
        <time>2015-12-01T16:08:47.000Z</time>
      </trkpt>
      <trkpt lat="47.58423" lon="-3.08048">
        <ele>-0.40000000596046</ele>
        <time>2015-12-01T16:08:48.000Z</time>
      </trkpt>
      <trkpt lat="47.58422" lon="-3.08042">
        <ele>0.20000000298023</ele>
        <time>2015-12-01T16:08:49.000Z</time>
      </trkpt>
      <trkpt lat="47.58422" lon="-3.08036">
        <ele>0.80000001192093</ele>
        <time>2015-12-01T16:08:50.000Z</time>
      </trkpt>
      <trkpt lat="47.58421" lon="-3.08031">
        <ele>1.6000000238419</ele>
        <time>2015-12-01T16:08:51.000Z</time>
      </trkpt>
      <trkpt lat="47.5842" lon="-3.08026">
        <ele>2.2000000476837</ele>
        <time>2015-12-01T16:08:52.000Z</time>
      </trkpt>
      <trkpt lat="47.5842" lon="-3.0802">
        <ele>3</ele>
        <time>2015-12-01T16:08:53.000Z</time>
      </trkpt>
      <trkpt lat="47.5842" lon="-3.08015">
        <ele>3.5999999046326</ele>
        <time>2015-12-01T16:08:54.000Z</time>
      </trkpt>
      <trkpt lat="47.58421" lon="-3.08011">
        <ele>4.4000000953674</ele>
        <time>2015-12-01T16:08:55.000Z</time>
      </trkpt>
      <trkpt lat="47.58423" lon="-3.08007">
        <ele>5</ele>
        <time>2015-12-01T16:08:56.000Z</time>
      </trkpt>
      <trkpt lat="47.58424" lon="-3.08002">
        <ele>5.5999999046326</ele>
        <time>2015-12-01T16:08:57.000Z</time>
      </trkpt>
      <trkpt lat="47.58426" lon="-3.07999">
        <ele>6.4000000953674</ele>
        <time>2015-12-01T16:08:58.000Z</time>
      </trkpt>
      <trkpt lat="47.58427" lon="-3.07994">
        <ele>7</ele>
        <time>2015-12-01T16:08:59.000Z</time>
      </trkpt>
      <trkpt lat="47.58428" lon="-3.0799">
        <ele>7.4000000953674</ele>
        <time>2015-12-01T16:09:00.000Z</time>
      </trkpt>
      <trkpt lat="47.58428" lon="-3.07986">
        <ele>8</ele>
        <time>2015-12-01T16:09:01.000Z</time>
      </trkpt>
      <trkpt lat="47.58427" lon="-3.07983">
        <ele>9</ele>
        <time>2015-12-01T16:09:02.000Z</time>
      </trkpt>
      <trkpt lat="47.58424" lon="-3.07982">
        <ele>9.6000003814697</ele>
        <time>2015-12-01T16:09:03.000Z</time>
      </trkpt>
      <trkpt lat="47.58423" lon="-3.07977">
        <ele>10</ele>
        <time>2015-12-01T16:09:05.000Z</time>
      </trkpt>
      <trkpt lat="47.58424" lon="-3.07969">
        <ele>10.39999961853</ele>
        <time>2015-12-01T16:09:06.000Z</time>
      </trkpt>
      <trkpt lat="47.58425" lon="-3.07963">
        <ele>10.800000190735</ele>
        <time>2015-12-01T16:09:07.000Z</time>
      </trkpt>
      <trkpt lat="47.58425" lon="-3.07958">
        <ele>11.199999809265</ele>
        <time>2015-12-01T16:09:08.000Z</time>
      </trkpt>
      <trkpt lat="47.58426" lon="-3.07953">
        <ele>11.60000038147</ele>
        <time>2015-12-01T16:09:09.000Z</time>
      </trkpt>
      <trkpt lat="47.58429" lon="-3.0794">
        <ele>12.60000038147</ele>
        <time>2015-12-01T16:09:10.000Z</time>
      </trkpt>
      <trkpt lat="47.5843" lon="-3.07936">
        <ele>13</ele>
        <time>2015-12-01T16:09:14.000Z</time>
      </trkpt>
      <trkpt lat="47.58431" lon="-3.07933">
        <ele>13.60000038147</ele>
        <time>2015-12-01T16:09:15.000Z</time>
      </trkpt>
      <trkpt lat="47.58432" lon="-3.07929">
        <ele>14</ele>
        <time>2015-12-01T16:09:16.000Z</time>
      </trkpt>
      <trkpt lat="47.58435" lon="-3.0792">
        <ele>14.39999961853</ele>
        <time>2015-12-01T16:09:19.000Z</time>
      </trkpt>
      <trkpt lat="47.58436" lon="-3.07916">
        <ele>14.800000190735</ele>
        <time>2015-12-01T16:09:20.000Z</time>
      </trkpt>
      <trkpt lat="47.58436" lon="-3.07913">
        <ele>15.199999809265</ele>
        <time>2015-12-01T16:09:21.000Z</time>
      </trkpt>
      <trkpt lat="47.58436" lon="-3.07908">
        <ele>15.60000038147</ele>
        <time>2015-12-01T16:09:22.000Z</time>
      </trkpt>
      <trkpt lat="47.58436" lon="-3.07903">
        <ele>16</ele>
        <time>2015-12-01T16:09:23.000Z</time>
      </trkpt>
      <trkpt lat="47.58435" lon="-3.0789">
        <ele>16</ele>
        <time>2015-12-01T16:09:26.000Z</time>
      </trkpt>
      <trkpt lat="47.58432" lon="-3.07878">
        <ele>16</ele>
        <time>2015-12-01T16:09:31.000Z</time>
      </trkpt>
      <trkpt lat="47.58427" lon="-3.07873">
        <ele>16.39999961853</ele>
        <time>2015-12-01T16:09:34.000Z</time>
      </trkpt>
      <trkpt lat="47.58425" lon="-3.07871">
        <ele>16.799999237061</ele>
        <time>2015-12-01T16:09:35.000Z</time>
      </trkpt>
      <trkpt lat="47.58424" lon="-3.07866">
        <ele>17.200000762939</ele>
        <time>2015-12-01T16:09:36.000Z</time>
      </trkpt>
      <trkpt lat="47.58423" lon="-3.07862">
        <ele>17.799999237061</ele>
        <time>2015-12-01T16:09:37.000Z</time>
      </trkpt>
      <trkpt lat="47.58423" lon="-3.07855">
        <ele>18.200000762939</ele>
        <time>2015-12-01T16:09:38.000Z</time>
      </trkpt>
      <trkpt lat="47.58424" lon="-3.07847">
        <ele>18.200000762939</ele>
        <time>2015-12-01T16:09:39.000Z</time>
      </trkpt>
      <trkpt lat="47.58431" lon="-3.07809">
        <ele>18.200000762939</ele>
        <time>2015-12-01T16:09:43.000Z</time>
      </trkpt>
      <trkpt lat="47.58434" lon="-3.07799">
        <ele>17.60000038147</ele>
        <time>2015-12-01T16:09:44.000Z</time>
      </trkpt>
      <trkpt lat="47.58437" lon="-3.07788">
        <ele>17.200000762939</ele>
        <time>2015-12-01T16:09:45.000Z</time>
      </trkpt>
      <trkpt lat="47.58442" lon="-3.07776">
        <ele>16.799999237061</ele>
        <time>2015-12-01T16:09:46.000Z</time>
      </trkpt>
      <trkpt lat="47.58446" lon="-3.07764">
        <ele>16.200000762939</ele>
        <time>2015-12-01T16:09:47.000Z</time>
      </trkpt>
      <trkpt lat="47.58451" lon="-3.07753">
        <ele>15.60000038147</ele>
        <time>2015-12-01T16:09:48.000Z</time>
      </trkpt>
      <trkpt lat="47.58456" lon="-3.07744">
        <ele>15</ele>
        <time>2015-12-01T16:09:49.000Z</time>
      </trkpt>
      <trkpt lat="47.58462" lon="-3.07734">
        <ele>14.39999961853</ele>
        <time>2015-12-01T16:09:50.000Z</time>
      </trkpt>
      <trkpt lat="47.58468" lon="-3.07725">
        <ele>13.39999961853</ele>
        <time>2015-12-01T16:09:51.000Z</time>
      </trkpt>
      <trkpt lat="47.58495" lon="-3.07668">
        <ele>13.39999961853</ele>
        <time>2015-12-01T16:09:57.000Z</time>
      </trkpt>
      <trkpt lat="47.58517" lon="-3.07613">
        <ele>13.39999961853</ele>
        <time>2015-12-01T16:10:03.000Z</time>
      </trkpt>
      <trkpt lat="47.58533" lon="-3.07574">
        <ele>13.39999961853</ele>
        <time>2015-12-01T16:10:08.000Z</time>
      </trkpt>
      <trkpt lat="47.58538" lon="-3.07568">
        <ele>13.39999961853</ele>
        <time>2015-12-01T16:10:09.000Z</time>
      </trkpt>
      <trkpt lat="47.58551" lon="-3.07545">
        <ele>13.39999961853</ele>
        <time>2015-12-01T16:10:13.000Z</time>
      </trkpt>
      <trkpt lat="47.58555" lon="-3.07532">
        <ele>13.39999961853</ele>
        <time>2015-12-01T16:10:15.000Z</time>
      </trkpt>
      <trkpt lat="47.58567" lon="-3.0747">
        <ele>13.39999961853</ele>
        <time>2015-12-01T16:10:24.000Z</time>
      </trkpt>
      <trkpt lat="47.58578" lon="-3.07409">
        <ele>13.39999961853</ele>
        <time>2015-12-01T16:10:33.000Z</time>
      </trkpt>
      <trkpt lat="47.58585" lon="-3.07356">
        <ele>13.39999961853</ele>
        <time>2015-12-01T16:10:41.000Z</time>
      </trkpt>
      <trkpt lat="47.58588" lon="-3.07303">
        <ele>13.39999961853</ele>
        <time>2015-12-01T16:10:49.000Z</time>
      </trkpt>
      <trkpt lat="47.58592" lon="-3.07244">
        <ele>13.39999961853</ele>
        <time>2015-12-01T16:10:57.000Z</time>
      </trkpt>
      <trkpt lat="47.58595" lon="-3.0718">
        <ele>13.39999961853</ele>
        <time>2015-12-01T16:11:05.000Z</time>
      </trkpt>
      <trkpt lat="47.586" lon="-3.07117">
        <ele>12.800000190735</ele>
        <time>2015-12-01T16:11:12.000Z</time>
      </trkpt>
      <trkpt lat="47.586" lon="-3.07108">
        <ele>12.39999961853</ele>
        <time>2015-12-01T16:11:13.000Z</time>
      </trkpt>
      <trkpt lat="47.58601" lon="-3.07099">
        <ele>12</ele>
        <time>2015-12-01T16:11:14.000Z</time>
      </trkpt>
      <trkpt lat="47.58602" lon="-3.07089">
        <ele>11.60000038147</ele>
        <time>2015-12-01T16:11:15.000Z</time>
      </trkpt>
      <trkpt lat="47.58602" lon="-3.0708">
        <ele>11.199999809265</ele>
        <time>2015-12-01T16:11:16.000Z</time>
      </trkpt>
      <trkpt lat="47.58607" lon="-3.07011">
        <ele>10.800000190735</ele>
        <time>2015-12-01T16:11:23.000Z</time>
      </trkpt>
      <trkpt lat="47.58608" lon="-3.07001">
        <ele>10.39999961853</ele>
        <time>2015-12-01T16:11:24.000Z</time>
      </trkpt>
      <trkpt lat="47.58609" lon="-3.06991">
        <ele>9.8000001907349</ele>
        <time>2015-12-01T16:11:25.000Z</time>
      </trkpt>
      <trkpt lat="47.58609" lon="-3.06981">
        <ele>9.3999996185303</ele>
        <time>2015-12-01T16:11:26.000Z</time>
      </trkpt>
      <trkpt lat="47.5861" lon="-3.06971">
        <ele>9</ele>
        <time>2015-12-01T16:11:27.000Z</time>
      </trkpt>
      <trkpt lat="47.58615" lon="-3.06899">
        <ele>8.6000003814697</ele>
        <time>2015-12-01T16:11:34.000Z</time>
      </trkpt>
      <trkpt lat="47.58616" lon="-3.06889">
        <ele>8</ele>
        <time>2015-12-01T16:11:35.000Z</time>
      </trkpt>
      <trkpt lat="47.58616" lon="-3.06878">
        <ele>7.5999999046326</ele>
        <time>2015-12-01T16:11:36.000Z</time>
      </trkpt>
      <trkpt lat="47.58617" lon="-3.06868">
        <ele>7.1999998092651</ele>
        <time>2015-12-01T16:11:37.000Z</time>
      </trkpt>
      <trkpt lat="47.58618" lon="-3.06858">
        <ele>6.8000001907349</ele>
        <time>2015-12-01T16:11:38.000Z</time>
      </trkpt>
      <trkpt lat="47.58619" lon="-3.06848">
        <ele>6.8000001907349</ele>
        <time>2015-12-01T16:11:39.000Z</time>
      </trkpt>
      <trkpt lat="47.58622" lon="-3.06808">
        <ele>6.8000001907349</ele>
        <time>2015-12-01T16:11:43.000Z</time>
      </trkpt>
      <trkpt lat="47.58627" lon="-3.06733">
        <ele>6.4000000953674</ele>
        <time>2015-12-01T16:11:51.000Z</time>
      </trkpt>
      <trkpt lat="47.58628" lon="-3.06725">
        <ele>6</ele>
        <time>2015-12-01T16:11:52.000Z</time>
      </trkpt>
      <trkpt lat="47.58628" lon="-3.06715">
        <ele>5.5999999046326</ele>
        <time>2015-12-01T16:11:53.000Z</time>
      </trkpt>
      <trkpt lat="47.58629" lon="-3.06706">
        <ele>4.8000001907349</ele>
        <time>2015-12-01T16:11:54.000Z</time>
      </trkpt>
      <trkpt lat="47.58633" lon="-3.06627">
        <ele>4.8000001907349</ele>
        <time>2015-12-01T16:12:03.000Z</time>
      </trkpt>
      <trkpt lat="47.58637" lon="-3.06567">
        <ele>4.8000001907349</ele>
        <time>2015-12-01T16:12:11.000Z</time>
      </trkpt>
      <trkpt lat="47.5864" lon="-3.06515">
        <ele>4.8000001907349</ele>
        <time>2015-12-01T16:12:19.000Z</time>
      </trkpt>
      <trkpt lat="47.58643" lon="-3.06478">
        <ele>5.1999998092651</ele>
        <time>2015-12-01T16:12:25.000Z</time>
      </trkpt>
      <trkpt lat="47.58643" lon="-3.06472">
        <ele>5.5999999046326</ele>
        <time>2015-12-01T16:12:26.000Z</time>
      </trkpt>
      <trkpt lat="47.58643" lon="-3.06466">
        <ele>6</ele>
        <time>2015-12-01T16:12:27.000Z</time>
      </trkpt>
      <trkpt lat="47.58644" lon="-3.0646">
        <ele>6.4000000953674</ele>
        <time>2015-12-01T16:12:28.000Z</time>
      </trkpt>
      <trkpt lat="47.58644" lon="-3.06454">
        <ele>6.8000001907349</ele>
        <time>2015-12-01T16:12:29.000Z</time>
      </trkpt>
      <trkpt lat="47.58647" lon="-3.06399">
        <ele>6.8000001907349</ele>
        <time>2015-12-01T16:12:38.000Z</time>
      </trkpt>
      <trkpt lat="47.5865" lon="-3.06363">
        <ele>6.8000001907349</ele>
        <time>2015-12-01T16:12:44.000Z</time>
      </trkpt>
      <trkpt lat="47.58651" lon="-3.06351">
        <ele>7.1999998092651</ele>
        <time>2015-12-01T16:12:46.000Z</time>
      </trkpt>
      <trkpt lat="47.58652" lon="-3.06345">
        <ele>7.8000001907349</ele>
        <time>2015-12-01T16:12:47.000Z</time>
      </trkpt>
      <trkpt lat="47.58652" lon="-3.06339">
        <ele>8.1999998092651</ele>
        <time>2015-12-01T16:12:48.000Z</time>
      </trkpt>
      <trkpt lat="47.58652" lon="-3.06334">
        <ele>8.6000003814697</ele>
        <time>2015-12-01T16:12:49.000Z</time>
      </trkpt>
      <trkpt lat="47.58653" lon="-3.06328">
        <ele>9</ele>
        <time>2015-12-01T16:12:50.000Z</time>
      </trkpt>
      <trkpt lat="47.58654" lon="-3.06292">
        <ele>9</ele>
        <time>2015-12-01T16:12:56.000Z</time>
      </trkpt>
      <trkpt lat="47.58657" lon="-3.0625">
        <ele>9</ele>
        <time>2015-12-01T16:13:03.000Z</time>
      </trkpt>
      <trkpt lat="47.58658" lon="-3.06244">
        <ele>9.3999996185303</ele>
        <time>2015-12-01T16:13:04.000Z</time>
      </trkpt>
      <trkpt lat="47.58658" lon="-3.06238">
        <ele>9.8000001907349</ele>
        <time>2015-12-01T16:13:05.000Z</time>
      </trkpt>
      <trkpt lat="47.58659" lon="-3.06231">
        <ele>10.199999809265</ele>
        <time>2015-12-01T16:13:06.000Z</time>
      </trkpt>
      <trkpt lat="47.58659" lon="-3.06225">
        <ele>10.60000038147</ele>
        <time>2015-12-01T16:13:07.000Z</time>
      </trkpt>
      <trkpt lat="47.5866" lon="-3.0622">
        <ele>11</ele>
        <time>2015-12-01T16:13:08.000Z</time>
      </trkpt>
      <trkpt lat="47.5866" lon="-3.06202">
        <ele>11</ele>
        <time>2015-12-01T16:13:11.000Z</time>
      </trkpt>
      <trkpt lat="47.5866" lon="-3.06145">
        <ele>11</ele>
        <time>2015-12-01T16:13:20.000Z</time>
      </trkpt>
      <trkpt lat="47.58663" lon="-3.0608">
        <ele>11</ele>
        <time>2015-12-01T16:13:29.000Z</time>
      </trkpt>
      <trkpt lat="47.58666" lon="-3.05996">
        <ele>11</ele>
        <time>2015-12-01T16:13:39.000Z</time>
      </trkpt>
      <trkpt lat="47.58659" lon="-3.05974">
        <ele>11</ele>
        <time>2015-12-01T16:13:42.000Z</time>
      </trkpt>
      <trkpt lat="47.58657" lon="-3.05966">
        <ele>11</ele>
        <time>2015-12-01T16:13:43.000Z</time>
      </trkpt>
      <trkpt lat="47.58658" lon="-3.05957">
        <ele>11</ele>
        <time>2015-12-01T16:13:44.000Z</time>
      </trkpt>
      <trkpt lat="47.5866" lon="-3.05949">
        <ele>11</ele>
        <time>2015-12-01T16:13:45.000Z</time>
      </trkpt>
      <trkpt lat="47.58662" lon="-3.05942">
        <ele>10.60000038147</ele>
        <time>2015-12-01T16:13:46.000Z</time>
      </trkpt>
      <trkpt lat="47.58666" lon="-3.05935">
        <ele>10.199999809265</ele>
        <time>2015-12-01T16:13:47.000Z</time>
      </trkpt>
      <trkpt lat="47.58669" lon="-3.05928">
        <ele>9.8000001907349</ele>
        <time>2015-12-01T16:13:48.000Z</time>
      </trkpt>
      <trkpt lat="47.58672" lon="-3.0592">
        <ele>9.1999998092651</ele>
        <time>2015-12-01T16:13:49.000Z</time>
      </trkpt>
      <trkpt lat="47.58673" lon="-3.05912">
        <ele>8.8000001907349</ele>
        <time>2015-12-01T16:13:50.000Z</time>
      </trkpt>
      <trkpt lat="47.58677" lon="-3.05885">
        <ele>8.8000001907349</ele>
        <time>2015-12-01T16:13:53.000Z</time>
      </trkpt>
      <trkpt lat="47.58679" lon="-3.05867">
        <ele>8.8000001907349</ele>
        <time>2015-12-01T16:13:55.000Z</time>
      </trkpt>
      <trkpt lat="47.58684" lon="-3.05828">
        <ele>8.3999996185303</ele>
        <time>2015-12-01T16:13:59.000Z</time>
      </trkpt>
      <trkpt lat="47.58685" lon="-3.05819">
        <ele>8</ele>
        <time>2015-12-01T16:14:00.000Z</time>
      </trkpt>
      <trkpt lat="47.58686" lon="-3.05809">
        <ele>7.5999999046326</ele>
        <time>2015-12-01T16:14:01.000Z</time>
      </trkpt>
      <trkpt lat="47.58687" lon="-3.05799">
        <ele>7.1999998092651</ele>
        <time>2015-12-01T16:14:02.000Z</time>
      </trkpt>
      <trkpt lat="47.58687" lon="-3.05789">
        <ele>6.8000001907349</ele>
        <time>2015-12-01T16:14:03.000Z</time>
      </trkpt>
      <trkpt lat="47.58691" lon="-3.05727">
        <ele>6.4000000953674</ele>
        <time>2015-12-01T16:14:09.000Z</time>
      </trkpt>
      <trkpt lat="47.58692" lon="-3.05717">
        <ele>6</ele>
        <time>2015-12-01T16:14:10.000Z</time>
      </trkpt>
      <trkpt lat="47.58693" lon="-3.05707">
        <ele>5.5999999046326</ele>
        <time>2015-12-01T16:14:11.000Z</time>
      </trkpt>
      <trkpt lat="47.58694" lon="-3.05696">
        <ele>5.1999998092651</ele>
        <time>2015-12-01T16:14:12.000Z</time>
      </trkpt>
      <trkpt lat="47.58694" lon="-3.05686">
        <ele>4.5999999046326</ele>
        <time>2015-12-01T16:14:13.000Z</time>
      </trkpt>
      <trkpt lat="47.58699" lon="-3.05613">
        <ele>4.1999998092651</ele>
        <time>2015-12-01T16:14:20.000Z</time>
      </trkpt>
      <trkpt lat="47.587" lon="-3.05602">
        <ele>3.7999999523163</ele>
        <time>2015-12-01T16:14:21.000Z</time>
      </trkpt>
      <trkpt lat="47.58701" lon="-3.05592">
        <ele>3.4000000953674</ele>
        <time>2015-12-01T16:14:22.000Z</time>
      </trkpt>
      <trkpt lat="47.58702" lon="-3.05581">
        <ele>3</ele>
        <time>2015-12-01T16:14:23.000Z</time>
      </trkpt>
      <trkpt lat="47.58702" lon="-3.05571">
        <ele>2.5999999046326</ele>
        <time>2015-12-01T16:14:24.000Z</time>
      </trkpt>
      <trkpt lat="47.58703" lon="-3.05561">
        <ele>2.5999999046326</ele>
        <time>2015-12-01T16:14:25.000Z</time>
      </trkpt>
      <trkpt lat="47.58708" lon="-3.05481">
        <ele>2.2000000476837</ele>
        <time>2015-12-01T16:14:33.000Z</time>
      </trkpt>
      <trkpt lat="47.58709" lon="-3.05471">
        <ele>1.7999999523163</ele>
        <time>2015-12-01T16:14:34.000Z</time>
      </trkpt>
      <trkpt lat="47.5871" lon="-3.05462">
        <ele>1.3999999761581</ele>
        <time>2015-12-01T16:14:35.000Z</time>
      </trkpt>
      <trkpt lat="47.5871" lon="-3.05453">
        <ele>1</ele>
        <time>2015-12-01T16:14:36.000Z</time>
      </trkpt>
      <trkpt lat="47.5871" lon="-3.05445">
        <ele>0.60000002384186</ele>
        <time>2015-12-01T16:14:37.000Z</time>
      </trkpt>
      <trkpt lat="47.58713" lon="-3.05411">
        <ele>0.60000002384186</ele>
        <time>2015-12-01T16:14:41.000Z</time>
      </trkpt>
      <trkpt lat="47.58718" lon="-3.05329">
        <ele>0.60000002384186</ele>
        <time>2015-12-01T16:14:51.000Z</time>
      </trkpt>
      <trkpt lat="47.58718" lon="-3.05321">
        <ele>0.60000002384186</ele>
        <time>2015-12-01T16:14:52.000Z</time>
      </trkpt>
      <trkpt lat="47.58724" lon="-3.05242">
        <ele>0.60000002384186</ele>
        <time>2015-12-01T16:15:02.000Z</time>
      </trkpt>
      <trkpt lat="47.5873" lon="-3.05155">
        <ele>0.60000002384186</ele>
        <time>2015-12-01T16:15:13.000Z</time>
      </trkpt>
      <trkpt lat="47.58731" lon="-3.05147">
        <ele>0.60000002384186</ele>
        <time>2015-12-01T16:15:14.000Z</time>
      </trkpt>
      <trkpt lat="47.58736" lon="-3.05063">
        <ele>0.60000002384186</ele>
        <time>2015-12-01T16:15:25.000Z</time>
      </trkpt>
      <trkpt lat="47.58736" lon="-3.05056">
        <ele>0.60000002384186</ele>
        <time>2015-12-01T16:15:26.000Z</time>
      </trkpt>
      <trkpt lat="47.5874" lon="-3.05003">
        <ele>0.60000002384186</ele>
        <time>2015-12-01T16:15:34.000Z</time>
      </trkpt>
      <trkpt lat="47.58741" lon="-3.04985">
        <ele>1</ele>
        <time>2015-12-01T16:15:37.000Z</time>
      </trkpt>
      <trkpt lat="47.58741" lon="-3.04979">
        <ele>1.3999999761581</ele>
        <time>2015-12-01T16:15:38.000Z</time>
      </trkpt>
      <trkpt lat="47.58742" lon="-3.04973">
        <ele>1.7999999523163</ele>
        <time>2015-12-01T16:15:39.000Z</time>
      </trkpt>
      <trkpt lat="47.58742" lon="-3.04967">
        <ele>2.2000000476837</ele>
        <time>2015-12-01T16:15:40.000Z</time>
      </trkpt>
      <trkpt lat="47.58742" lon="-3.04961">
        <ele>2.5999999046326</ele>
        <time>2015-12-01T16:15:41.000Z</time>
      </trkpt>
      <trkpt lat="47.58743" lon="-3.04954">
        <ele>2.5999999046326</ele>
        <time>2015-12-01T16:15:42.000Z</time>
      </trkpt>
      <trkpt lat="47.58747" lon="-3.04896">
        <ele>2.5999999046326</ele>
        <time>2015-12-01T16:15:51.000Z</time>
      </trkpt>
      <trkpt lat="47.58751" lon="-3.04839">
        <ele>2.5999999046326</ele>
        <time>2015-12-01T16:15:59.000Z</time>
      </trkpt>
      <trkpt lat="47.58755" lon="-3.04774">
        <ele>2.5999999046326</ele>
        <time>2015-12-01T16:16:07.000Z</time>
      </trkpt>
      <trkpt lat="47.58761" lon="-3.0469">
        <ele>2.5999999046326</ele>
        <time>2015-12-01T16:16:17.000Z</time>
      </trkpt>
      <trkpt lat="47.58761" lon="-3.04682">
        <ele>2.5999999046326</ele>
        <time>2015-12-01T16:16:18.000Z</time>
      </trkpt>
      <trkpt lat="47.58767" lon="-3.046">
        <ele>2.5999999046326</ele>
        <time>2015-12-01T16:16:28.000Z</time>
      </trkpt>
      <trkpt lat="47.58767" lon="-3.04591">
        <ele>2.5999999046326</ele>
        <time>2015-12-01T16:16:29.000Z</time>
      </trkpt>
      <trkpt lat="47.58772" lon="-3.04528">
        <ele>2.2000000476837</ele>
        <time>2015-12-01T16:16:36.000Z</time>
      </trkpt>
      <trkpt lat="47.58772" lon="-3.0452">
        <ele>1.7999999523163</ele>
        <time>2015-12-01T16:16:37.000Z</time>
      </trkpt>
      <trkpt lat="47.58773" lon="-3.04512">
        <ele>1.3999999761581</ele>
        <time>2015-12-01T16:16:38.000Z</time>
      </trkpt>
      <trkpt lat="47.58773" lon="-3.04506">
        <ele>1</ele>
        <time>2015-12-01T16:16:39.000Z</time>
      </trkpt>
      <trkpt lat="47.58773" lon="-3.04501">
        <ele>0.60000002384186</ele>
        <time>2015-12-01T16:16:40.000Z</time>
      </trkpt>
      <trkpt lat="47.58773" lon="-3.04492">
        <ele>0.60000002384186</ele>
        <time>2015-12-01T16:16:42.000Z</time>
      </trkpt>
      <trkpt lat="47.58775" lon="-3.04459">
        <ele>0.60000002384186</ele>
        <time>2015-12-01T16:16:48.000Z</time>
      </trkpt>
      <trkpt lat="47.58779" lon="-3.04401">
        <ele>0.60000002384186</ele>
        <time>2015-12-01T16:16:57.000Z</time>
      </trkpt>
      <trkpt lat="47.58784" lon="-3.0434">
        <ele>0.60000002384186</ele>
        <time>2015-12-01T16:17:06.000Z</time>
      </trkpt>
      <trkpt lat="47.58785" lon="-3.0432">
        <ele>0.60000002384186</ele>
        <time>2015-12-01T16:17:09.000Z</time>
      </trkpt>
      <trkpt lat="47.58788" lon="-3.04285">
        <ele>0.60000002384186</ele>
        <time>2015-12-01T16:17:14.000Z</time>
      </trkpt>
      <trkpt lat="47.58788" lon="-3.04257">
        <ele>0.60000002384186</ele>
        <time>2015-12-01T16:17:18.000Z</time>
      </trkpt>
      <trkpt lat="47.58787" lon="-3.04243">
        <ele>0.60000002384186</ele>
        <time>2015-12-01T16:17:20.000Z</time>
      </trkpt>
      <trkpt lat="47.58778" lon="-3.04209">
        <ele>0.60000002384186</ele>
        <time>2015-12-01T16:17:26.000Z</time>
      </trkpt>
      <trkpt lat="47.58765" lon="-3.04185">
        <ele>0.60000002384186</ele>
        <time>2015-12-01T16:17:33.000Z</time>
      </trkpt>
      <trkpt lat="47.5876" lon="-3.04178">
        <ele>1</ele>
        <time>2015-12-01T16:17:35.000Z</time>
      </trkpt>
      <trkpt lat="47.58758" lon="-3.04174">
        <ele>1.3999999761581</ele>
        <time>2015-12-01T16:17:36.000Z</time>
      </trkpt>
      <trkpt lat="47.58756" lon="-3.04169">
        <ele>1.7999999523163</ele>
        <time>2015-12-01T16:17:37.000Z</time>
      </trkpt>
      <trkpt lat="47.58753" lon="-3.04165">
        <ele>2.5999999046326</ele>
        <time>2015-12-01T16:17:38.000Z</time>
      </trkpt>
      <trkpt lat="47.58747" lon="-3.04152">
        <ele>2.5999999046326</ele>
        <time>2015-12-01T16:17:41.000Z</time>
      </trkpt>
      <trkpt lat="47.58733" lon="-3.04128">
        <ele>2.5999999046326</ele>
        <time>2015-12-01T16:17:47.000Z</time>
      </trkpt>
      <trkpt lat="47.58723" lon="-3.04111">
        <ele>3</ele>
        <time>2015-12-01T16:17:51.000Z</time>
      </trkpt>
      <trkpt lat="47.5872" lon="-3.04106">
        <ele>3.4000000953674</ele>
        <time>2015-12-01T16:17:52.000Z</time>
      </trkpt>
      <trkpt lat="47.58717" lon="-3.04102">
        <ele>3.7999999523163</ele>
        <time>2015-12-01T16:17:53.000Z</time>
      </trkpt>
      <trkpt lat="47.58715" lon="-3.04097">
        <ele>4.1999998092651</ele>
        <time>2015-12-01T16:17:54.000Z</time>
      </trkpt>
      <trkpt lat="47.58713" lon="-3.04093">
        <ele>4.5999999046326</ele>
        <time>2015-12-01T16:17:55.000Z</time>
      </trkpt>
      <trkpt lat="47.58697" lon="-3.04068">
        <ele>4.5999999046326</ele>
        <time>2015-12-01T16:18:01.000Z</time>
      </trkpt>
      <trkpt lat="47.58683" lon="-3.04045">
        <ele>4.5999999046326</ele>
        <time>2015-12-01T16:18:07.000Z</time>
      </trkpt>
      <trkpt lat="47.58679" lon="-3.04037">
        <ele>5</ele>
        <time>2015-12-01T16:18:09.000Z</time>
      </trkpt>
      <trkpt lat="47.58677" lon="-3.04034">
        <ele>5.5999999046326</ele>
        <time>2015-12-01T16:18:10.000Z</time>
      </trkpt>
      <trkpt lat="47.58675" lon="-3.04031">
        <ele>6</ele>
        <time>2015-12-01T16:18:11.000Z</time>
      </trkpt>
      <trkpt lat="47.58672" lon="-3.04028">
        <ele>6.4000000953674</ele>
        <time>2015-12-01T16:18:12.000Z</time>
      </trkpt>
      <trkpt lat="47.5867" lon="-3.04024">
        <ele>6.8000001907349</ele>
        <time>2015-12-01T16:18:13.000Z</time>
      </trkpt>
      <trkpt lat="47.58658" lon="-3.04002">
        <ele>6.8000001907349</ele>
        <time>2015-12-01T16:18:19.000Z</time>
      </trkpt>
      <trkpt lat="47.58645" lon="-3.03979">
        <ele>6.8000001907349</ele>
        <time>2015-12-01T16:18:25.000Z</time>
      </trkpt>
      <trkpt lat="47.58641" lon="-3.03972">
        <ele>7.5999999046326</ele>
        <time>2015-12-01T16:18:27.000Z</time>
      </trkpt>
      <trkpt lat="47.58638" lon="-3.03968">
        <ele>8</ele>
        <time>2015-12-01T16:18:28.000Z</time>
      </trkpt>
      <trkpt lat="47.58636" lon="-3.03964">
        <ele>8.3999996185303</ele>
        <time>2015-12-01T16:18:29.000Z</time>
      </trkpt>
      <trkpt lat="47.58633" lon="-3.0396">
        <ele>8.8000001907349</ele>
        <time>2015-12-01T16:18:30.000Z</time>
      </trkpt>
      <trkpt lat="47.58628" lon="-3.03953">
        <ele>8.8000001907349</ele>
        <time>2015-12-01T16:18:32.000Z</time>
      </trkpt>
      <trkpt lat="47.58617" lon="-3.03935">
        <ele>8.8000001907349</ele>
        <time>2015-12-01T16:18:37.000Z</time>
      </trkpt>
      <trkpt lat="47.58598" lon="-3.03901">
        <ele>9.1999998092651</ele>
        <time>2015-12-01T16:18:46.000Z</time>
      </trkpt>
      <trkpt lat="47.58596" lon="-3.03898">
        <ele>9.6000003814697</ele>
        <time>2015-12-01T16:18:47.000Z</time>
      </trkpt>
      <trkpt lat="47.58594" lon="-3.03894">
        <ele>10</ele>
        <time>2015-12-01T16:18:48.000Z</time>
      </trkpt>
      <trkpt lat="47.58593" lon="-3.03891">
        <ele>10.39999961853</ele>
        <time>2015-12-01T16:18:49.000Z</time>
      </trkpt>
      <trkpt lat="47.58591" lon="-3.03887">
        <ele>10.800000190735</ele>
        <time>2015-12-01T16:18:50.000Z</time>
      </trkpt>
      <trkpt lat="47.58587" lon="-3.03878">
        <ele>10.800000190735</ele>
        <time>2015-12-01T16:18:52.000Z</time>
      </trkpt>
      <trkpt lat="47.58574" lon="-3.03848">
        <ele>10.800000190735</ele>
        <time>2015-12-01T16:18:59.000Z</time>
      </trkpt>
      <trkpt lat="47.5857" lon="-3.03824">
        <ele>11.199999809265</ele>
        <time>2015-12-01T16:19:04.000Z</time>
      </trkpt>
      <trkpt lat="47.58569" lon="-3.03819">
        <ele>11.800000190735</ele>
        <time>2015-12-01T16:19:05.000Z</time>
      </trkpt>
      <trkpt lat="47.58569" lon="-3.03814">
        <ele>12.199999809265</ele>
        <time>2015-12-01T16:19:06.000Z</time>
      </trkpt>
      <trkpt lat="47.58569" lon="-3.03809">
        <ele>12.60000038147</ele>
        <time>2015-12-01T16:19:07.000Z</time>
      </trkpt>
      <trkpt lat="47.58568" lon="-3.03804">
        <ele>13</ele>
        <time>2015-12-01T16:19:08.000Z</time>
      </trkpt>
      <trkpt lat="47.58568" lon="-3.0378">
        <ele>13</ele>
        <time>2015-12-01T16:19:13.000Z</time>
      </trkpt>
      <trkpt lat="47.58569" lon="-3.03744">
        <ele>13</ele>
        <time>2015-12-01T16:19:20.000Z</time>
      </trkpt>
      <trkpt lat="47.5857" lon="-3.03724">
        <ele>13</ele>
        <time>2015-12-01T16:19:23.000Z</time>
      </trkpt>
      <trkpt lat="47.58573" lon="-3.03704">
        <ele>13</ele>
        <time>2015-12-01T16:19:26.000Z</time>
      </trkpt>
      <trkpt lat="47.58583" lon="-3.03651">
        <ele>13</ele>
        <time>2015-12-01T16:19:34.000Z</time>
      </trkpt>
      <trkpt lat="47.58595" lon="-3.03594">
        <ele>13</ele>
        <time>2015-12-01T16:19:42.000Z</time>
      </trkpt>
      <trkpt lat="47.58612" lon="-3.0352">
        <ele>13</ele>
        <time>2015-12-01T16:19:52.000Z</time>
      </trkpt>
      <trkpt lat="47.58625" lon="-3.0346">
        <ele>13</ele>
        <time>2015-12-01T16:20:01.000Z</time>
      </trkpt>
      <trkpt lat="47.58639" lon="-3.03395">
        <ele>13</ele>
        <time>2015-12-01T16:20:11.000Z</time>
      </trkpt>
      <trkpt lat="47.58655" lon="-3.03323">
        <ele>12.60000038147</ele>
        <time>2015-12-01T16:20:20.000Z</time>
      </trkpt>
      <trkpt lat="47.58657" lon="-3.03316">
        <ele>12.199999809265</ele>
        <time>2015-12-01T16:20:21.000Z</time>
      </trkpt>
      <trkpt lat="47.58659" lon="-3.03309">
        <ele>11.800000190735</ele>
        <time>2015-12-01T16:20:22.000Z</time>
      </trkpt>
      <trkpt lat="47.58661" lon="-3.03302">
        <ele>11.39999961853</ele>
        <time>2015-12-01T16:20:23.000Z</time>
      </trkpt>
      <trkpt lat="47.58663" lon="-3.03295">
        <ele>11</ele>
        <time>2015-12-01T16:20:24.000Z</time>
      </trkpt>
      <trkpt lat="47.5867" lon="-3.03273">
        <ele>11</ele>
        <time>2015-12-01T16:20:27.000Z</time>
      </trkpt>
      <trkpt lat="47.58694" lon="-3.03229">
        <ele>11</ele>
        <time>2015-12-01T16:20:34.000Z</time>
      </trkpt>
      <trkpt lat="47.58725" lon="-3.0319">
        <ele>11</ele>
        <time>2015-12-01T16:20:41.000Z</time>
      </trkpt>
      <trkpt lat="47.58734" lon="-3.0318">
        <ele>10.60000038147</ele>
        <time>2015-12-01T16:20:43.000Z</time>
      </trkpt>
      <trkpt lat="47.58739" lon="-3.03175">
        <ele>10.199999809265</ele>
        <time>2015-12-01T16:20:44.000Z</time>
      </trkpt>
      <trkpt lat="47.58744" lon="-3.0317">
        <ele>9.6000003814697</ele>
        <time>2015-12-01T16:20:45.000Z</time>
      </trkpt>
      <trkpt lat="47.58749" lon="-3.03166">
        <ele>9.1999998092651</ele>
        <time>2015-12-01T16:20:46.000Z</time>
      </trkpt>
      <trkpt lat="47.58755" lon="-3.03161">
        <ele>8.8000001907349</ele>
        <time>2015-12-01T16:20:47.000Z</time>
      </trkpt>
      <trkpt lat="47.5877" lon="-3.03146">
        <ele>8.8000001907349</ele>
        <time>2015-12-01T16:20:50.000Z</time>
      </trkpt>
      <trkpt lat="47.58801" lon="-3.03115">
        <ele>8.3999996185303</ele>
        <time>2015-12-01T16:20:56.000Z</time>
      </trkpt>
      <trkpt lat="47.58806" lon="-3.0311">
        <ele>8</ele>
        <time>2015-12-01T16:20:57.000Z</time>
      </trkpt>
      <trkpt lat="47.58812" lon="-3.03105">
        <ele>7.5999999046326</ele>
        <time>2015-12-01T16:20:58.000Z</time>
      </trkpt>
      <trkpt lat="47.58817" lon="-3.03099">
        <ele>7.1999998092651</ele>
        <time>2015-12-01T16:20:59.000Z</time>
      </trkpt>
      <trkpt lat="47.58822" lon="-3.03094">
        <ele>6.8000001907349</ele>
        <time>2015-12-01T16:21:00.000Z</time>
      </trkpt>
      <trkpt lat="47.58855" lon="-3.03062">
        <ele>6.8000001907349</ele>
        <time>2015-12-01T16:21:06.000Z</time>
      </trkpt>
      <trkpt lat="47.58867" lon="-3.03053">
        <ele>6.8000001907349</ele>
        <time>2015-12-01T16:21:08.000Z</time>
      </trkpt>
      <trkpt lat="47.58873" lon="-3.03049">
        <ele>6.4000000953674</ele>
        <time>2015-12-01T16:21:09.000Z</time>
      </trkpt>
      <trkpt lat="47.58879" lon="-3.03045">
        <ele>6</ele>
        <time>2015-12-01T16:21:10.000Z</time>
      </trkpt>
      <trkpt lat="47.58885" lon="-3.03041">
        <ele>5.5999999046326</ele>
        <time>2015-12-01T16:21:11.000Z</time>
      </trkpt>
      <trkpt lat="47.5889" lon="-3.03037">
        <ele>5.1999998092651</ele>
        <time>2015-12-01T16:21:12.000Z</time>
      </trkpt>
      <trkpt lat="47.58896" lon="-3.03033">
        <ele>4.8000001907349</ele>
        <time>2015-12-01T16:21:13.000Z</time>
      </trkpt>
      <trkpt lat="47.58905" lon="-3.03024">
        <ele>4.8000001907349</ele>
        <time>2015-12-01T16:21:15.000Z</time>
      </trkpt>
      <trkpt lat="47.58909" lon="-3.03017">
        <ele>4.8000001907349</ele>
        <time>2015-12-01T16:21:16.000Z</time>
      </trkpt>
      <trkpt lat="47.58925" lon="-3.02996">
        <ele>4.8000001907349</ele>
        <time>2015-12-01T16:21:20.000Z</time>
      </trkpt>
      <trkpt lat="47.58941" lon="-3.02979">
        <ele>4.8000001907349</ele>
        <time>2015-12-01T16:21:24.000Z</time>
      </trkpt>
      <trkpt lat="47.58944" lon="-3.02965">
        <ele>4.8000001907349</ele>
        <time>2015-12-01T16:21:26.000Z</time>
      </trkpt>
      <trkpt lat="47.58935" lon="-3.02948">
        <ele>4.8000001907349</ele>
        <time>2015-12-01T16:21:29.000Z</time>
      </trkpt>
      <trkpt lat="47.5892" lon="-3.02936">
        <ele>4.8000001907349</ele>
        <time>2015-12-01T16:21:32.000Z</time>
      </trkpt>
      <trkpt lat="47.58914" lon="-3.02932">
        <ele>4.1999998092651</ele>
        <time>2015-12-01T16:21:33.000Z</time>
      </trkpt>
      <trkpt lat="47.58909" lon="-3.02928">
        <ele>3.7999999523163</ele>
        <time>2015-12-01T16:21:34.000Z</time>
      </trkpt>
      <trkpt lat="47.58904" lon="-3.02924">
        <ele>3.4000000953674</ele>
        <time>2015-12-01T16:21:35.000Z</time>
      </trkpt>
      <trkpt lat="47.58898" lon="-3.02921">
        <ele>3</ele>
        <time>2015-12-01T16:21:36.000Z</time>
      </trkpt>
      <trkpt lat="47.58893" lon="-3.02917">
        <ele>2.5999999046326</ele>
        <time>2015-12-01T16:21:37.000Z</time>
      </trkpt>
      <trkpt lat="47.58863" lon="-3.02893">
        <ele>2.5999999046326</ele>
        <time>2015-12-01T16:21:43.000Z</time>
      </trkpt>
      <trkpt lat="47.58855" lon="-3.02884">
        <ele>2.5999999046326</ele>
        <time>2015-12-01T16:21:45.000Z</time>
      </trkpt>
      <trkpt lat="47.58842" lon="-3.02872">
        <ele>2.5999999046326</ele>
        <time>2015-12-01T16:21:48.000Z</time>
      </trkpt>
      <trkpt lat="47.58838" lon="-3.02869">
        <ele>2.5999999046326</ele>
        <time>2015-12-01T16:21:49.000Z</time>
      </trkpt>
      <trkpt lat="47.58824" lon="-3.02871">
        <ele>2.5999999046326</ele>
        <time>2015-12-01T16:21:52.000Z</time>
      </trkpt>
      <trkpt lat="47.58814" lon="-3.02863">
        <ele>2.5999999046326</ele>
        <time>2015-12-01T16:21:55.000Z</time>
      </trkpt>
      <trkpt lat="47.58798" lon="-3.02851">
        <ele>2.5999999046326</ele>
        <time>2015-12-01T16:22:00.000Z</time>
      </trkpt>
      <trkpt lat="47.58795" lon="-3.02851">
        <ele>2.5999999046326</ele>
        <time>2015-12-01T16:22:01.000Z</time>
      </trkpt>
      <trkpt lat="47.58789" lon="-3.02857">
        <ele>2.5999999046326</ele>
        <time>2015-12-01T16:22:04.000Z</time>
      </trkpt>
      <trkpt lat="47.58781" lon="-3.02867">
        <ele>2.2000000476837</ele>
        <time>2015-12-01T16:22:07.000Z</time>
      </trkpt>
      <trkpt lat="47.58778" lon="-3.0287">
        <ele>1.7999999523163</ele>
        <time>2015-12-01T16:22:08.000Z</time>
      </trkpt>
      <trkpt lat="47.58775" lon="-3.02874">
        <ele>1</ele>
        <time>2015-12-01T16:22:09.000Z</time>
      </trkpt>
      <trkpt lat="47.58772" lon="-3.02877">
        <ele>0.60000002384186</ele>
        <time>2015-12-01T16:22:10.000Z</time>
      </trkpt>
      <trkpt lat="47.58766" lon="-3.0289">
        <ele>0.60000002384186</ele>
        <time>2015-12-01T16:22:13.000Z</time>
      </trkpt>
      <trkpt lat="47.58766" lon="-3.02898">
        <ele>0.60000002384186</ele>
        <time>2015-12-01T16:22:17.000Z</time>
      </trkpt>
      <trkpt lat="47.58766" lon="-3.029">
        <ele>0.60000002384186</ele>
        <time>2015-12-01T16:22:19.000Z</time>
      </trkpt>
    </trkseg>
  </trk>
</gpx>